Está en la página 1de 342

-BEGIN HEADER-

NASA/POWER SRB/FLASHFlux/MERRA2/GEOS 5.12.4 (FP-IT) 0.5 x 0.5 Degree Daily Averaged Data
Dates (month/day/year): 01/01/1998 through 12/31/2018
Location: Latitude -13.3154 Longitude -70.3089
Elevation from MERRA-2: Average for 1/2x1/2 degree lat/lon region = 1166.33 meters Site = na
Climate zone: na (reference Briggs et al: http://www.energycodes.gov)
Value for missing model data cannot be computed or out of model availability range: -999
Parameter(s):
T2M_RANGE MERRA2 1/2x1/2 Temperature Range at 2 Meters (C)
PRECTOT MERRA2 1/2x1/2 Precipitation (mm day-1)
T2M MERRA2 1/2x1/2 Temperature at 2 Meters (C)
T2MDEW MERRA2 1/2x1/2 Dew/Frost Point at 2 Meters (C)
T2M_MIN MERRA2 1/2x1/2 Minimum Temperature at 2 Meters (C)
RH2M MERRA2 1/2x1/2 Relative Humidity at 2 Meters (%)
ALLSKY_SFC_SW_DWN SRB/FLASHFlux 1/2x1/2 All Sky Insolation Incident on a Horizontal Surface (kW-hr/m^2/day)
T2M_MAX MERRA2 1/2x1/2 Maximum Temperature at 2 Meters (C)
WS2M MERRA2 1/2x1/2 Wind Speed at 2 Meters (m/s)
-END HEADER-
LATITUD LONGITUD AÑO MES DÍA FECHA T2M_RANGE PRECTOT
-13.31539 -70.30889 1998 1 1 01/01/98 4.78 0.61
-13.31539 -70.30889 1998 1 2 02/01/98 7.4 3.71
-13.31539 -70.30889 1998 1 3 03/01/98 6.95 3.34
-13.31539 -70.30889 1998 1 4 01/04/98 7.72 4.36
-13.31539 -70.30889 1998 1 5 01/05/98 7.03 9.24
-13.31539 -70.30889 1998 1 6 01/06/98 5.4 37.5
-13.31539 -70.30889 1998 1 7 01/07/98 3.89 11.32
-13.31539 -70.30889 1998 1 8 01/08/98 3.51 5.14
-13.31539 -70.30889 1998 1 9 01/09/98 7.66 1.25
-13.31539 -70.30889 1998 1 10 01/10/98 6.41 0.48
-13.31539 -70.30889 1998 1 11 01/11/98 5.25 0.65
-13.31539 -70.30889 1998 1 12 01/12/98 5.53 11.75
-13.31539 -70.30889 1998 1 13 Err:502 6.67 21.79
-13.31539 -70.30889 1998 1 14 Err:502 5.7 0.12
-13.31539 -70.30889 1998 1 15 Err:502 5.43 0.02
-13.31539 -70.30889 1998 1 16 Err:502 7.64 0.24
-13.31539 -70.30889 1998 1 17 Err:502 8 0.05
-13.31539 -70.30889 1998 1 18 Err:502 6.26 15.11
-13.31539 -70.30889 1998 1 19 Err:502 5.37 0.8
-13.31539 -70.30889 1998 1 20 Err:502 6.98 0.2
-13.31539 -70.30889 1998 1 21 Err:502 7.9 0.15
-13.31539 -70.30889 1998 1 22 Err:502 5.25 1.52
-13.31539 -70.30889 1998 1 23 Err:502 6.04 1.37
-13.31539 -70.30889 1998 1 24 Err:502 8.1 0.47
-13.31539 -70.30889 1998 1 25 Err:502 7.82 5.47
-13.31539 -70.30889 1998 1 26 Err:502 5.46 17.71
-13.31539 -70.30889 1998 1 27 Err:502 4.74 12.14
-13.31539 -70.30889 1998 1 28 Err:502 5.3 9.21
-13.31539 -70.30889 1998 1 29 Err:502 5.26 1.39
-13.31539 -70.30889 1998 1 30 Err:502 7.24 1.11
-13.31539 -70.30889 1998 1 31 Err:502 6.97 0.17
-13.31539 -70.30889 1998 2 1 02/01/98 5.03 4.35
-13.31539 -70.30889 1998 2 2 02/02/98 7.27 4.24
-13.31539 -70.30889 1998 2 3 02/03/98 6.92 4.92
-13.31539 -70.30889 1998 2 4 02/04/98 5.16 4.56
-13.31539 -70.30889 1998 2 5 02/05/98 6.67 1.14
-13.31539 -70.30889 1998 2 6 02/06/98 4.56 4.88
-13.31539 -70.30889 1998 2 7 02/07/98 3.95 9.21
-13.31539 -70.30889 1998 2 8 02/08/98 3.73 9.04
-13.31539 -70.30889 1998 2 9 02/09/98 5.16 2.72
-13.31539 -70.30889 1998 2 10 02/10/98 5.24 7.14
-13.31539 -70.30889 1998 2 11 02/11/98 5.01 19.07
-13.31539 -70.30889 1998 2 12 02/12/98 6.72 2.86
-13.31539 -70.30889 1998 2 13 Err:502 7.13 0.01
-13.31539 -70.30889 1998 2 14 Err:502 9.45 0.01
-13.31539 -70.30889 1998 2 15 Err:502 8.5 0.08
-13.31539 -70.30889 1998 2 16 Err:502 7.07 2.58
-13.31539 -70.30889 1998 2 17 Err:502 4.7 4.98
-13.31539 -70.30889 1998 2 18 Err:502 4.22 6.91
-13.31539 -70.30889 1998 2 19 Err:502 3.99 11.96
-13.31539 -70.30889 1998 2 20 Err:502 3.26 16.57
-13.31539 -70.30889 1998 2 21 Err:502 5.56 11.03
-13.31539 -70.30889 1998 2 22 Err:502 5.97 12.42
-13.31539 -70.30889 1998 2 23 Err:502 6.34 7.81
-13.31539 -70.30889 1998 2 24 Err:502 3.89 7.64
-13.31539 -70.30889 1998 2 25 Err:502 4.5 4.87
-13.31539 -70.30889 1998 2 26 Err:502 4.81 0.29
-13.31539 -70.30889 1998 2 27 Err:502 4.17 7.9
-13.31539 -70.30889 1998 2 28 Err:502 4.53 17.7
-13.31539 -70.30889 1998 3 1 03/01/98 5.35 4.33
-13.31539 -70.30889 1998 3 2 03/02/98 6.66 0.67
-13.31539 -70.30889 1998 3 3 03/03/98 5.11 0.68
-13.31539 -70.30889 1998 3 4 03/04/98 7 0.31
-13.31539 -70.30889 1998 3 5 03/05/98 7.08 0.26
-13.31539 -70.30889 1998 3 6 03/06/98 6.21 0.06
-13.31539 -70.30889 1998 3 7 03/07/98 6.04 0.73
-13.31539 -70.30889 1998 3 8 03/08/98 5.94 0.77
-13.31539 -70.30889 1998 3 9 03/09/98 5.96 5.93
-13.31539 -70.30889 1998 3 10 03/10/98 6.1 1.99
-13.31539 -70.30889 1998 3 11 03/11/98 4.18 6.07
-13.31539 -70.30889 1998 3 12 03/12/98 3.94 30.61
-13.31539 -70.30889 1998 3 13 Err:502 4.57 14.45
-13.31539 -70.30889 1998 3 14 Err:502 6.7 5.64
-13.31539 -70.30889 1998 3 15 Err:502 5.91 15.92
-13.31539 -70.30889 1998 3 16 Err:502 4.25 18.45
-13.31539 -70.30889 1998 3 17 Err:502 6.75 1.39
-13.31539 -70.30889 1998 3 18 Err:502 6.59 1.21
-13.31539 -70.30889 1998 3 19 Err:502 6.74 10.25
-13.31539 -70.30889 1998 3 20 Err:502 5.76 3.22
-13.31539 -70.30889 1998 3 21 Err:502 4.37 0.5
-13.31539 -70.30889 1998 3 22 Err:502 7.01 0.06
-13.31539 -70.30889 1998 3 23 Err:502 6.7 0.73
-13.31539 -70.30889 1998 3 24 Err:502 6.16 1.5
-13.31539 -70.30889 1998 3 25 Err:502 5.23 2.26
-13.31539 -70.30889 1998 3 26 Err:502 5.34 2.38
-13.31539 -70.30889 1998 3 27 Err:502 5.95 0.76
-13.31539 -70.30889 1998 3 28 Err:502 5.49 0.06
-13.31539 -70.30889 1998 3 29 Err:502 5.38 0.37
-13.31539 -70.30889 1998 3 30 Err:502 5.09 9.96
-13.31539 -70.30889 1998 3 31 Err:502 4.26 7.48
-13.31539 -70.30889 1998 4 1 04/01/98 7.34 1.69
-13.31539 -70.30889 1998 4 2 04/02/98 7.49 4.32
-13.31539 -70.30889 1998 4 3 04/03/98 4.6 3.62
-13.31539 -70.30889 1998 4 4 04/04/98 6.78 1.94
-13.31539 -70.30889 1998 4 5 04/05/98 7.47 0.43
-13.31539 -70.30889 1998 4 6 04/06/98 4.73 0
-13.31539 -70.30889 1998 4 7 04/07/98 5.85 7.21
-13.31539 -70.30889 1998 4 8 04/08/98 5.3 8.48
-13.31539 -70.30889 1998 4 9 04/09/98 5.2 2.02
-13.31539 -70.30889 1998 4 10 04/10/98 6.86 1.5
-13.31539 -70.30889 1998 4 11 04/11/98 5.21 1.88
-13.31539 -70.30889 1998 4 12 04/12/98 3.54 3.29
-13.31539 -70.30889 1998 4 13 Err:502 6.43 1.67
-13.31539 -70.30889 1998 4 14 Err:502 5.83 1.53
-13.31539 -70.30889 1998 4 15 Err:502 5.57 0.9
-13.31539 -70.30889 1998 4 16 Err:502 6.18 0.21
-13.31539 -70.30889 1998 4 17 Err:502 5.6 3.1
-13.31539 -70.30889 1998 4 18 Err:502 5.35 15.07
-13.31539 -70.30889 1998 4 19 Err:502 6.51 0.18
-13.31539 -70.30889 1998 4 20 Err:502 5.66 0
-13.31539 -70.30889 1998 4 21 Err:502 5.47 0
-13.31539 -70.30889 1998 4 22 Err:502 6.75 0.05
-13.31539 -70.30889 1998 4 23 Err:502 5.23 0.04
-13.31539 -70.30889 1998 4 24 Err:502 7.07 1.29
-13.31539 -70.30889 1998 4 25 Err:502 5.29 4.85
-13.31539 -70.30889 1998 4 26 Err:502 3.52 6.74
-13.31539 -70.30889 1998 4 27 Err:502 8.38 0.07
-13.31539 -70.30889 1998 4 28 Err:502 6.54 4.79
-13.31539 -70.30889 1998 4 29 Err:502 4.21 16.42
-13.31539 -70.30889 1998 4 30 Err:502 4.62 14.51
-13.31539 -70.30889 1998 5 1 05/01/98 6.99 0.01
-13.31539 -70.30889 1998 5 2 05/02/98 6.49 0.53
-13.31539 -70.30889 1998 5 3 05/03/98 6.19 0.85
-13.31539 -70.30889 1998 5 4 05/04/98 4.97 0.92
-13.31539 -70.30889 1998 5 5 05/05/98 4.04 0.82
-13.31539 -70.30889 1998 5 6 05/06/98 7.11 0.05
-13.31539 -70.30889 1998 5 7 05/07/98 7.09 0
-13.31539 -70.30889 1998 5 8 05/08/98 7.92 0
-13.31539 -70.30889 1998 5 9 05/09/98 7.52 0
-13.31539 -70.30889 1998 5 10 05/10/98 9.7 0
-13.31539 -70.30889 1998 5 11 05/11/98 7.17 0
-13.31539 -70.30889 1998 5 12 05/12/98 5.96 0.22
-13.31539 -70.30889 1998 5 13 Err:502 6.34 0.19
-13.31539 -70.30889 1998 5 14 Err:502 5.24 1.11
-13.31539 -70.30889 1998 5 15 Err:502 4.42 6.26
-13.31539 -70.30889 1998 5 16 Err:502 4.87 9.18
-13.31539 -70.30889 1998 5 17 Err:502 8.83 0
-13.31539 -70.30889 1998 5 18 Err:502 8.71 0
-13.31539 -70.30889 1998 5 19 Err:502 9.16 0
-13.31539 -70.30889 1998 5 20 Err:502 10.62 0
-13.31539 -70.30889 1998 5 21 Err:502 10.44 0
-13.31539 -70.30889 1998 5 22 Err:502 10.4 0
-13.31539 -70.30889 1998 5 23 Err:502 10.53 0
-13.31539 -70.30889 1998 5 24 Err:502 9.23 0
-13.31539 -70.30889 1998 5 25 Err:502 8.98 0.05
-13.31539 -70.30889 1998 5 26 Err:502 9.31 0.01
-13.31539 -70.30889 1998 5 27 Err:502 6.09 3.32
-13.31539 -70.30889 1998 5 28 Err:502 4.42 10.47
-13.31539 -70.30889 1998 5 29 Err:502 7.33 3.74
-13.31539 -70.30889 1998 5 30 Err:502 7.1 9.03
-13.31539 -70.30889 1998 5 31 Err:502 6.57 3.92
-13.31539 -70.30889 1998 6 1 06/01/98 8.38 0.49
-13.31539 -70.30889 1998 6 2 06/02/98 5.98 0.17
-13.31539 -70.30889 1998 6 3 06/03/98 8.91 0
-13.31539 -70.30889 1998 6 4 06/04/98 8.95 0
-13.31539 -70.30889 1998 6 5 06/05/98 9.75 0
-13.31539 -70.30889 1998 6 6 06/06/98 8.73 0
-13.31539 -70.30889 1998 6 7 06/07/98 7.73 0
-13.31539 -70.30889 1998 6 8 06/08/98 8.95 0.03
-13.31539 -70.30889 1998 6 9 06/09/98 8.21 0.06
-13.31539 -70.30889 1998 6 10 06/10/98 8.6 0.07
-13.31539 -70.30889 1998 6 11 06/11/98 7.37 1.66
-13.31539 -70.30889 1998 6 12 06/12/98 5.8 3.56
-13.31539 -70.30889 1998 6 13 Err:502 5.83 0.09
-13.31539 -70.30889 1998 6 14 Err:502 9.23 0
-13.31539 -70.30889 1998 6 15 Err:502 9.8 0
-13.31539 -70.30889 1998 6 16 Err:502 10.59 0
-13.31539 -70.30889 1998 6 17 Err:502 8.93 0
-13.31539 -70.30889 1998 6 18 Err:502 9.72 0.02
-13.31539 -70.30889 1998 6 19 Err:502 8.06 0.03
-13.31539 -70.30889 1998 6 20 Err:502 8.04 0.01
-13.31539 -70.30889 1998 6 21 Err:502 5.87 0
-13.31539 -70.30889 1998 6 22 Err:502 6.76 0
-13.31539 -70.30889 1998 6 23 Err:502 9.72 0.01
-13.31539 -70.30889 1998 6 24 Err:502 5.96 0.52
-13.31539 -70.30889 1998 6 25 Err:502 5.73 0.6
-13.31539 -70.30889 1998 6 26 Err:502 10.61 0.59
-13.31539 -70.30889 1998 6 27 Err:502 10.97 0
-13.31539 -70.30889 1998 6 28 Err:502 10.53 0
-13.31539 -70.30889 1998 6 29 Err:502 10.32 0
-13.31539 -70.30889 1998 6 30 Err:502 10.71 0
-13.31539 -70.30889 1998 7 1 07/01/98 10.26 0
-13.31539 -70.30889 1998 7 2 07/02/98 10.19 0
-13.31539 -70.30889 1998 7 3 07/03/98 10.32 0
-13.31539 -70.30889 1998 7 4 07/04/98 10.33 0
-13.31539 -70.30889 1998 7 5 07/05/98 8.22 0
-13.31539 -70.30889 1998 7 6 07/06/98 7.21 0
-13.31539 -70.30889 1998 7 7 07/07/98 9.91 0
-13.31539 -70.30889 1998 7 8 07/08/98 9.85 0.12
-13.31539 -70.30889 1998 7 9 07/09/98 6.41 0.21
-13.31539 -70.30889 1998 7 10 07/10/98 6.83 0.36
-13.31539 -70.30889 1998 7 11 07/11/98 8.34 0.04
-13.31539 -70.30889 1998 7 12 07/12/98 10.18 0.06
-13.31539 -70.30889 1998 7 13 Err:502 10.02 0.19
-13.31539 -70.30889 1998 7 14 Err:502 10.68 0
-13.31539 -70.30889 1998 7 15 Err:502 10.41 0
-13.31539 -70.30889 1998 7 16 Err:502 7.53 0
-13.31539 -70.30889 1998 7 17 Err:502 8.23 0
-13.31539 -70.30889 1998 7 18 Err:502 8.02 0.01
-13.31539 -70.30889 1998 7 19 Err:502 6.71 0.01
-13.31539 -70.30889 1998 7 20 Err:502 7.86 0.01
-13.31539 -70.30889 1998 7 21 Err:502 6.85 0.28
-13.31539 -70.30889 1998 7 22 Err:502 8.21 2.11
-13.31539 -70.30889 1998 7 23 Err:502 8.58 0
-13.31539 -70.30889 1998 7 24 Err:502 9.18 0
-13.31539 -70.30889 1998 7 25 Err:502 7.46 0.01
-13.31539 -70.30889 1998 7 26 Err:502 8.18 0.13
-13.31539 -70.30889 1998 7 27 Err:502 9.97 0
-13.31539 -70.30889 1998 7 28 Err:502 10.56 0
-13.31539 -70.30889 1998 7 29 Err:502 10.18 0
-13.31539 -70.30889 1998 7 30 Err:502 11.09 0
-13.31539 -70.30889 1998 7 31 Err:502 11.9 0
-13.31539 -70.30889 1998 8 1 08/01/98 10.21 0
-13.31539 -70.30889 1998 8 2 08/02/98 4.13 0
-13.31539 -70.30889 1998 8 3 08/03/98 11.33 0
-13.31539 -70.30889 1998 8 4 08/04/98 10.51 0
-13.31539 -70.30889 1998 8 5 08/05/98 7.69 0.1
-13.31539 -70.30889 1998 8 6 08/06/98 6.99 2.32
-13.31539 -70.30889 1998 8 7 08/07/98 7.36 1.13
-13.31539 -70.30889 1998 8 8 08/08/98 6.3 0.87
-13.31539 -70.30889 1998 8 9 08/09/98 9.26 0.03
-13.31539 -70.30889 1998 8 10 08/10/98 10.86 0.19
-13.31539 -70.30889 1998 8 11 08/11/98 9.73 1.41
-13.31539 -70.30889 1998 8 12 08/12/98 10.24 0.46
-13.31539 -70.30889 1998 8 13 Err:502 11.14 0.12
-13.31539 -70.30889 1998 8 14 Err:502 9.63 0.63
-13.31539 -70.30889 1998 8 15 Err:502 9.56 0.88
-13.31539 -70.30889 1998 8 16 Err:502 9.29 0.03
-13.31539 -70.30889 1998 8 17 Err:502 8.98 0.74
-13.31539 -70.30889 1998 8 18 Err:502 6.26 0.32
-13.31539 -70.30889 1998 8 19 Err:502 10.09 0.9
-13.31539 -70.30889 1998 8 20 Err:502 9.89 0.19
-13.31539 -70.30889 1998 8 21 Err:502 9.28 0.54
-13.31539 -70.30889 1998 8 22 Err:502 10.06 0
-13.31539 -70.30889 1998 8 23 Err:502 9.32 0.14
-13.31539 -70.30889 1998 8 24 Err:502 8.82 0.73
-13.31539 -70.30889 1998 8 25 Err:502 6.65 11.07
-13.31539 -70.30889 1998 8 26 Err:502 4.65 14.32
-13.31539 -70.30889 1998 8 27 Err:502 8.7 2.07
-13.31539 -70.30889 1998 8 28 Err:502 10.69 0.01
-13.31539 -70.30889 1998 8 29 Err:502 6 4.71
-13.31539 -70.30889 1998 8 30 Err:502 9.57 0.78
-13.31539 -70.30889 1998 8 31 Err:502 12.04 0
-13.31539 -70.30889 1998 9 1 09/01/98 11.9 0
-13.31539 -70.30889 1998 9 2 09/02/98 12.06 0
-13.31539 -70.30889 1998 9 3 09/03/98 10.04 0
-13.31539 -70.30889 1998 9 4 09/04/98 8.65 0.07
-13.31539 -70.30889 1998 9 5 09/05/98 8.8 1.82
-13.31539 -70.30889 1998 9 6 09/06/98 12.33 1.01
-13.31539 -70.30889 1998 9 7 09/07/98 9.96 0.3
-13.31539 -70.30889 1998 9 8 09/08/98 8.22 1.85
-13.31539 -70.30889 1998 9 9 09/09/98 6.48 16.13
-13.31539 -70.30889 1998 9 10 09/10/98 11.69 0.21
-13.31539 -70.30889 1998 9 11 09/11/98 13.61 0.13
-13.31539 -70.30889 1998 9 12 09/12/98 10.18 0
-13.31539 -70.30889 1998 9 13 Err:502 8.79 0
-13.31539 -70.30889 1998 9 14 Err:502 10.21 0.1
-13.31539 -70.30889 1998 9 15 Err:502 11.26 0.23
-13.31539 -70.30889 1998 9 16 Err:502 11.22 0
-13.31539 -70.30889 1998 9 17 Err:502 10.64 0.2
-13.31539 -70.30889 1998 9 18 Err:502 4.78 7.92
-13.31539 -70.30889 1998 9 19 Err:502 6.23 19.31
-13.31539 -70.30889 1998 9 20 Err:502 8.2 0.32
-13.31539 -70.30889 1998 9 21 Err:502 9.9 0.23
-13.31539 -70.30889 1998 9 22 Err:502 11.21 0
-13.31539 -70.30889 1998 9 23 Err:502 12.42 0
-13.31539 -70.30889 1998 9 24 Err:502 10.96 0
-13.31539 -70.30889 1998 9 25 Err:502 10.28 0.19
-13.31539 -70.30889 1998 9 26 Err:502 10.93 2.4
-13.31539 -70.30889 1998 9 27 Err:502 7.47 5.43
-13.31539 -70.30889 1998 9 28 Err:502 8.42 1.82
-13.31539 -70.30889 1998 9 29 Err:502 6.24 13.53
-13.31539 -70.30889 1998 9 30 Err:502 6.7 2.84
-13.31539 -70.30889 1998 10 1 10/01/98 10.2 0
-13.31539 -70.30889 1998 10 2 10/02/98 7.8 0.7
-13.31539 -70.30889 1998 10 3 10/03/98 7.92 6.82
-13.31539 -70.30889 1998 10 4 10/04/98 9.54 0.96
-13.31539 -70.30889 1998 10 5 10/05/98 8.96 0
-13.31539 -70.30889 1998 10 6 10/06/98 3.78 1.24
-13.31539 -70.30889 1998 10 7 10/07/98 9.39 6.24
-13.31539 -70.30889 1998 10 8 10/08/98 8.34 1.05
-13.31539 -70.30889 1998 10 9 10/09/98 10.52 0.03
-13.31539 -70.30889 1998 10 10 10/10/98 8.46 0.27
-13.31539 -70.30889 1998 10 11 10/11/98 10.5 0.58
-13.31539 -70.30889 1998 10 12 10/12/98 6.96 1.12
-13.31539 -70.30889 1998 10 13 Err:502 11.51 1.75
-13.31539 -70.30889 1998 10 14 Err:502 6.61 17.82
-13.31539 -70.30889 1998 10 15 Err:502 7.66 0.24
-13.31539 -70.30889 1998 10 16 Err:502 7.84 0.42
-13.31539 -70.30889 1998 10 17 Err:502 4.29 13.99
-13.31539 -70.30889 1998 10 18 Err:502 5.81 1.35
-13.31539 -70.30889 1998 10 19 Err:502 10.27 0.01
-13.31539 -70.30889 1998 10 20 Err:502 10.74 1.23
-13.31539 -70.30889 1998 10 21 Err:502 6.87 1.81
-13.31539 -70.30889 1998 10 22 Err:502 9.64 2.65
-13.31539 -70.30889 1998 10 23 Err:502 9.23 1.75
-13.31539 -70.30889 1998 10 24 Err:502 7.04 2.99
-13.31539 -70.30889 1998 10 25 Err:502 7.51 1.94
-13.31539 -70.30889 1998 10 26 Err:502 8.68 0.26
-13.31539 -70.30889 1998 10 27 Err:502 6.98 5.7
-13.31539 -70.30889 1998 10 28 Err:502 8.68 5
-13.31539 -70.30889 1998 10 29 Err:502 7.97 1.8
-13.31539 -70.30889 1998 10 30 Err:502 6.2 16.14
-13.31539 -70.30889 1998 10 31 Err:502 6.51 3.1
-13.31539 -70.30889 1998 11 1 11/01/98 6.29 0.06
-13.31539 -70.30889 1998 11 2 11/02/98 8.88 2.27
-13.31539 -70.30889 1998 11 3 11/03/98 7.54 17.58
-13.31539 -70.30889 1998 11 4 11/04/98 6.93 4.7
-13.31539 -70.30889 1998 11 5 11/05/98 9.44 2.49
-13.31539 -70.30889 1998 11 6 11/06/98 6.79 0.36
-13.31539 -70.30889 1998 11 7 11/07/98 8.45 0.59
-13.31539 -70.30889 1998 11 8 11/08/98 5.69 4.01
-13.31539 -70.30889 1998 11 9 11/09/98 7.14 5.66
-13.31539 -70.30889 1998 11 10 11/10/98 8.15 5.44
-13.31539 -70.30889 1998 11 11 11/11/98 6.79 3.5
-13.31539 -70.30889 1998 11 12 11/12/98 6.68 7.98
-13.31539 -70.30889 1998 11 13 Err:502 5.89 5.4
-13.31539 -70.30889 1998 11 14 Err:502 5.36 0.91
-13.31539 -70.30889 1998 11 15 Err:502 5.47 0.42
-13.31539 -70.30889 1998 11 16 Err:502 5.41 3.61
-13.31539 -70.30889 1998 11 17 Err:502 7.82 14.22
-13.31539 -70.30889 1998 11 18 Err:502 4.05 18.85
-13.31539 -70.30889 1998 11 19 Err:502 6.56 3.23
-13.31539 -70.30889 1998 11 20 Err:502 7.21 0.37
-13.31539 -70.30889 1998 11 21 Err:502 7.02 0.48
-13.31539 -70.30889 1998 11 22 Err:502 4.36 1.12
-13.31539 -70.30889 1998 11 23 Err:502 6.5 17.33
-13.31539 -70.30889 1998 11 24 Err:502 7.21 5.9
-13.31539 -70.30889 1998 11 25 Err:502 3.26 3.45
-13.31539 -70.30889 1998 11 26 Err:502 4.67 9.23
-13.31539 -70.30889 1998 11 27 Err:502 7.16 3.65
-13.31539 -70.30889 1998 11 28 Err:502 7.63 0.87
-13.31539 -70.30889 1998 11 29 Err:502 5.44 0.63
-13.31539 -70.30889 1998 11 30 Err:502 3.73 3.21
-13.31539 -70.30889 1998 12 1 12/01/98 7.58 0.49
-13.31539 -70.30889 1998 12 2 12/02/98 7.13 32.24
-13.31539 -70.30889 1998 12 3 12/03/98 3.62 18.76
-13.31539 -70.30889 1998 12 4 12/04/98 7.61 0.23
-13.31539 -70.30889 1998 12 5 12/05/98 7.1 0.45
-13.31539 -70.30889 1998 12 6 12/06/98 3.42 1.69
-13.31539 -70.30889 1998 12 7 12/07/98 6.19 0.06
-13.31539 -70.30889 1998 12 8 12/08/98 3.5 2.89
-13.31539 -70.30889 1998 12 9 12/09/98 2.73 21.34
-13.31539 -70.30889 1998 12 10 12/10/98 6.57 13.48
-13.31539 -70.30889 1998 12 11 12/11/98 5.38 1.15
-13.31539 -70.30889 1998 12 12 12/12/98 5.82 0.47
-13.31539 -70.30889 1998 12 13 Err:502 4.42 2.58
-13.31539 -70.30889 1998 12 14 Err:502 4.71 1.15
-13.31539 -70.30889 1998 12 15 Err:502 8.01 0
-13.31539 -70.30889 1998 12 16 Err:502 7.8 0.52
-13.31539 -70.30889 1998 12 17 Err:502 6.06 2.74
-13.31539 -70.30889 1998 12 18 Err:502 4.84 7.54
-13.31539 -70.30889 1998 12 19 Err:502 4.46 10.89
-13.31539 -70.30889 1998 12 20 Err:502 4.67 3.1
-13.31539 -70.30889 1998 12 21 Err:502 5.33 1.58
-13.31539 -70.30889 1998 12 22 Err:502 6.08 26.68
-13.31539 -70.30889 1998 12 23 Err:502 6.04 1.95
-13.31539 -70.30889 1998 12 24 Err:502 7.45 0.23
-13.31539 -70.30889 1998 12 25 Err:502 8.96 0.04
-13.31539 -70.30889 1998 12 26 Err:502 7.42 0.06
-13.31539 -70.30889 1998 12 27 Err:502 5.62 1.83
-13.31539 -70.30889 1998 12 28 Err:502 7.07 0.32
-13.31539 -70.30889 1998 12 29 Err:502 4.57 7.95
-13.31539 -70.30889 1998 12 30 Err:502 5.24 24.74
-13.31539 -70.30889 1998 12 31 Err:502 3.24 9.47
-13.31539 -70.30889 1999 1 1 01/01/99 6.34 5.69
-13.31539 -70.30889 1999 1 2 01/02/99 6.35 9.83
-13.31539 -70.30889 1999 1 3 01/03/99 5.66 8.15
-13.31539 -70.30889 1999 1 4 01/04/99 3.65 4.28
-13.31539 -70.30889 1999 1 5 01/05/99 6.42 2.14
-13.31539 -70.30889 1999 1 6 01/06/99 3.86 7.78
-13.31539 -70.30889 1999 1 7 01/07/99 4.5 10.46
-13.31539 -70.30889 1999 1 8 01/08/99 6.27 2.75
-13.31539 -70.30889 1999 1 9 01/09/99 4.59 10.14
-13.31539 -70.30889 1999 1 10 01/10/99 6.25 2
-13.31539 -70.30889 1999 1 11 01/11/99 7.23 2.73
-13.31539 -70.30889 1999 1 12 01/12/99 6.47 4.31
-13.31539 -70.30889 1999 1 13 Err:502 8.03 4.81
-13.31539 -70.30889 1999 1 14 Err:502 7.88 2.01
-13.31539 -70.30889 1999 1 15 Err:502 5.52 1.3
-13.31539 -70.30889 1999 1 16 Err:502 6.38 0.86
-13.31539 -70.30889 1999 1 17 Err:502 6.45 1.08
-13.31539 -70.30889 1999 1 18 Err:502 6.99 0.14
-13.31539 -70.30889 1999 1 19 Err:502 5.37 0.58
-13.31539 -70.30889 1999 1 20 Err:502 6.24 0.45
-13.31539 -70.30889 1999 1 21 Err:502 6.68 0.19
-13.31539 -70.30889 1999 1 22 Err:502 7.52 0.23
-13.31539 -70.30889 1999 1 23 Err:502 7.85 2.16
-13.31539 -70.30889 1999 1 24 Err:502 7.62 4.66
-13.31539 -70.30889 1999 1 25 Err:502 7.61 4.6
-13.31539 -70.30889 1999 1 26 Err:502 4.86 2.7
-13.31539 -70.30889 1999 1 27 Err:502 7.51 0.15
-13.31539 -70.30889 1999 1 28 Err:502 7.87 4.13
-13.31539 -70.30889 1999 1 29 Err:502 5.93 9.09
-13.31539 -70.30889 1999 1 30 Err:502 5.42 9.92
-13.31539 -70.30889 1999 1 31 Err:502 7.38 3.42
-13.31539 -70.30889 1999 2 1 02/01/99 6.72 3.37
-13.31539 -70.30889 1999 2 2 02/02/99 3.01 8.12
-13.31539 -70.30889 1999 2 3 02/03/99 4.81 10.41
-13.31539 -70.30889 1999 2 4 02/04/99 6.91 3.16
-13.31539 -70.30889 1999 2 5 02/05/99 4.43 8.65
-13.31539 -70.30889 1999 2 6 02/06/99 7.41 2.71
-13.31539 -70.30889 1999 2 7 02/07/99 7.85 2.75
-13.31539 -70.30889 1999 2 8 02/08/99 3.86 3.77
-13.31539 -70.30889 1999 2 9 02/09/99 6.36 4.66
-13.31539 -70.30889 1999 2 10 02/10/99 4.66 8.4
-13.31539 -70.30889 1999 2 11 02/11/99 7.12 6.69
-13.31539 -70.30889 1999 2 12 02/12/99 6.79 1.12
-13.31539 -70.30889 1999 2 13 Err:502 7.38 10.43
-13.31539 -70.30889 1999 2 14 Err:502 4.9 5.29
-13.31539 -70.30889 1999 2 15 Err:502 4.37 1.89
-13.31539 -70.30889 1999 2 16 Err:502 5.92 4.11
-13.31539 -70.30889 1999 2 17 Err:502 4.72 2.09
-13.31539 -70.30889 1999 2 18 Err:502 6.96 3.87
-13.31539 -70.30889 1999 2 19 Err:502 8.22 0.23
-13.31539 -70.30889 1999 2 20 Err:502 7.83 0.14
-13.31539 -70.30889 1999 2 21 Err:502 7.48 0.42
-13.31539 -70.30889 1999 2 22 Err:502 4.02 38.47
-13.31539 -70.30889 1999 2 23 Err:502 5.74 3.94
-13.31539 -70.30889 1999 2 24 Err:502 5.79 3.66
-13.31539 -70.30889 1999 2 25 Err:502 4.93 11.86
-13.31539 -70.30889 1999 2 26 Err:502 2.85 2.04
-13.31539 -70.30889 1999 2 27 Err:502 6.23 15.46
-13.31539 -70.30889 1999 2 28 Err:502 7.1 1.99
-13.31539 -70.30889 1999 3 1 03/01/99 6.27 1.12
-13.31539 -70.30889 1999 3 2 03/02/99 4.84 2.79
-13.31539 -70.30889 1999 3 3 03/03/99 4.38 2.71
-13.31539 -70.30889 1999 3 4 03/04/99 6.66 1.37
-13.31539 -70.30889 1999 3 5 03/05/99 5.96 3.17
-13.31539 -70.30889 1999 3 6 03/06/99 5.21 8.31
-13.31539 -70.30889 1999 3 7 03/07/99 5.56 2.63
-13.31539 -70.30889 1999 3 8 03/08/99 5.52 10.02
-13.31539 -70.30889 1999 3 9 03/09/99 5.93 3.65
-13.31539 -70.30889 1999 3 10 03/10/99 5.43 7.1
-13.31539 -70.30889 1999 3 11 03/11/99 6.1 14.91
-13.31539 -70.30889 1999 3 12 03/12/99 6.71 10.73
-13.31539 -70.30889 1999 3 13 Err:502 6.47 1.09
-13.31539 -70.30889 1999 3 14 Err:502 4.5 0.64
-13.31539 -70.30889 1999 3 15 Err:502 4.78 5.02
-13.31539 -70.30889 1999 3 16 Err:502 3.7 9.29
-13.31539 -70.30889 1999 3 17 Err:502 5.88 6.98
-13.31539 -70.30889 1999 3 18 Err:502 5.76 2.34
-13.31539 -70.30889 1999 3 19 Err:502 2.79 30.03
-13.31539 -70.30889 1999 3 20 Err:502 5.3 5.73
-13.31539 -70.30889 1999 3 21 Err:502 7.1 2.2
-13.31539 -70.30889 1999 3 22 Err:502 6.09 0.33
-13.31539 -70.30889 1999 3 23 Err:502 5.61 0.41
-13.31539 -70.30889 1999 3 24 Err:502 6.05 0.08
-13.31539 -70.30889 1999 3 25 Err:502 5.08 0.92
-13.31539 -70.30889 1999 3 26 Err:502 5.63 1.6
-13.31539 -70.30889 1999 3 27 Err:502 6.88 0.09
-13.31539 -70.30889 1999 3 28 Err:502 6.51 0.43
-13.31539 -70.30889 1999 3 29 Err:502 6 1.98
-13.31539 -70.30889 1999 3 30 Err:502 3.15 1.23
-13.31539 -70.30889 1999 3 31 Err:502 4.8 18.67
-13.31539 -70.30889 1999 4 1 04/01/99 5.79 14.55
-13.31539 -70.30889 1999 4 2 04/02/99 6.56 2.04
-13.31539 -70.30889 1999 4 3 04/03/99 6.62 2.54
-13.31539 -70.30889 1999 4 4 04/04/99 7.46 0.98
-13.31539 -70.30889 1999 4 5 04/05/99 7.36 1.64
-13.31539 -70.30889 1999 4 6 04/06/99 6.87 2.74
-13.31539 -70.30889 1999 4 7 04/07/99 7.14 0.62
-13.31539 -70.30889 1999 4 8 04/08/99 6.69 0.74
-13.31539 -70.30889 1999 4 9 04/09/99 7.31 0.08
-13.31539 -70.30889 1999 4 10 04/10/99 7.97 0.69
-13.31539 -70.30889 1999 4 11 04/11/99 7.28 0.94
-13.31539 -70.30889 1999 4 12 04/12/99 7.78 4.53
-13.31539 -70.30889 1999 4 13 Err:502 6.38 2.35
-13.31539 -70.30889 1999 4 14 Err:502 7.87 0.06
-13.31539 -70.30889 1999 4 15 Err:502 6.35 0.29
-13.31539 -70.30889 1999 4 16 Err:502 5.93 0.9
-13.31539 -70.30889 1999 4 17 Err:502 5.56 10.86
-13.31539 -70.30889 1999 4 18 Err:502 7.81 0.05
-13.31539 -70.30889 1999 4 19 Err:502 8.06 1.19
-13.31539 -70.30889 1999 4 20 Err:502 7.23 1.05
-13.31539 -70.30889 1999 4 21 Err:502 9.36 0
-13.31539 -70.30889 1999 4 22 Err:502 9.62 0
-13.31539 -70.30889 1999 4 23 Err:502 9.6 0
-13.31539 -70.30889 1999 4 24 Err:502 6.3 0.78
-13.31539 -70.30889 1999 4 25 Err:502 7.02 1.09
-13.31539 -70.30889 1999 4 26 Err:502 8.31 0.12
-13.31539 -70.30889 1999 4 27 Err:502 8.04 0.02
-13.31539 -70.30889 1999 4 28 Err:502 7.17 3.79
-13.31539 -70.30889 1999 4 29 Err:502 8.14 3.54
-13.31539 -70.30889 1999 4 30 Err:502 6.67 5.83
-13.31539 -70.30889 1999 5 1 05/01/99 8.18 4.79
-13.31539 -70.30889 1999 5 2 05/02/99 8.03 0.96
-13.31539 -70.30889 1999 5 3 05/03/99 5.77 4.05
-13.31539 -70.30889 1999 5 4 05/04/99 7.46 0.75
-13.31539 -70.30889 1999 5 5 05/05/99 6.62 2.13
-13.31539 -70.30889 1999 5 6 05/06/99 4.22 2.98
-13.31539 -70.30889 1999 5 7 05/07/99 5.88 0.21
-13.31539 -70.30889 1999 5 8 05/08/99 5.72 0.08
-13.31539 -70.30889 1999 5 9 05/09/99 7.55 0.21
-13.31539 -70.30889 1999 5 10 05/10/99 5.22 0.12
-13.31539 -70.30889 1999 5 11 05/11/99 7.79 0.05
-13.31539 -70.30889 1999 5 12 05/12/99 8.56 0.02
-13.31539 -70.30889 1999 5 13 Err:502 7.53 0.44
-13.31539 -70.30889 1999 5 14 Err:502 6.52 0.58
-13.31539 -70.30889 1999 5 15 Err:502 8.55 0.6
-13.31539 -70.30889 1999 5 16 Err:502 8.64 0.01
-13.31539 -70.30889 1999 5 17 Err:502 6.21 0.37
-13.31539 -70.30889 1999 5 18 Err:502 6.96 0.61
-13.31539 -70.30889 1999 5 19 Err:502 6.99 0.36
-13.31539 -70.30889 1999 5 20 Err:502 8.12 0
-13.31539 -70.30889 1999 5 21 Err:502 8.73 0
-13.31539 -70.30889 1999 5 22 Err:502 8.01 0
-13.31539 -70.30889 1999 5 23 Err:502 9.54 0
-13.31539 -70.30889 1999 5 24 Err:502 9.06 1.08
-13.31539 -70.30889 1999 5 25 Err:502 8.36 8.75
-13.31539 -70.30889 1999 5 26 Err:502 8.26 0.93
-13.31539 -70.30889 1999 5 27 Err:502 7.85 1.12
-13.31539 -70.30889 1999 5 28 Err:502 3.74 1.24
-13.31539 -70.30889 1999 5 29 Err:502 8.37 0.09
-13.31539 -70.30889 1999 5 30 Err:502 5.97 1.12
-13.31539 -70.30889 1999 5 31 Err:502 5.88 0.09
-13.31539 -70.30889 1999 6 1 06/01/99 9.39 0
-13.31539 -70.30889 1999 6 2 06/02/99 7.05 0
-13.31539 -70.30889 1999 6 3 06/03/99 8.48 1.07
-13.31539 -70.30889 1999 6 4 06/04/99 6.27 0.49
-13.31539 -70.30889 1999 6 5 06/05/99 7.88 0
-13.31539 -70.30889 1999 6 6 06/06/99 7.5 0
-13.31539 -70.30889 1999 6 7 06/07/99 7.93 0
-13.31539 -70.30889 1999 6 8 06/08/99 8.94 0
-13.31539 -70.30889 1999 6 9 06/09/99 9.16 0
-13.31539 -70.30889 1999 6 10 06/10/99 7.74 0.14
-13.31539 -70.30889 1999 6 11 06/11/99 6.65 0.51
-13.31539 -70.30889 1999 6 12 06/12/99 5.2 0.04
-13.31539 -70.30889 1999 6 13 Err:502 9.05 0.01
-13.31539 -70.30889 1999 6 14 Err:502 8.02 0
-13.31539 -70.30889 1999 6 15 Err:502 9.86 0
-13.31539 -70.30889 1999 6 16 Err:502 6.28 1.36
-13.31539 -70.30889 1999 6 17 Err:502 6.94 2.21
-13.31539 -70.30889 1999 6 18 Err:502 4.27 2.58
-13.31539 -70.30889 1999 6 19 Err:502 6.8 1.95
-13.31539 -70.30889 1999 6 20 Err:502 6.98 5.95
-13.31539 -70.30889 1999 6 21 Err:502 9.07 0
-13.31539 -70.30889 1999 6 22 Err:502 6.09 0
-13.31539 -70.30889 1999 6 23 Err:502 7.24 0
-13.31539 -70.30889 1999 6 24 Err:502 9.54 0
-13.31539 -70.30889 1999 6 25 Err:502 6.36 1.78
-13.31539 -70.30889 1999 6 26 Err:502 6.63 2.22
-13.31539 -70.30889 1999 6 27 Err:502 8.43 1.18
-13.31539 -70.30889 1999 6 28 Err:502 9.41 0
-13.31539 -70.30889 1999 6 29 Err:502 7.76 0.03
-13.31539 -70.30889 1999 6 30 Err:502 7.06 0.41
-13.31539 -70.30889 1999 7 1 07/01/99 6.8 2.76
-13.31539 -70.30889 1999 7 2 07/02/99 8.8 0.5
-13.31539 -70.30889 1999 7 3 07/03/99 9.31 0.11
-13.31539 -70.30889 1999 7 4 07/04/99 8.19 1.42
-13.31539 -70.30889 1999 7 5 07/05/99 4.45 2.68
-13.31539 -70.30889 1999 7 6 07/06/99 8.92 0.05
-13.31539 -70.30889 1999 7 7 07/07/99 11.63 0
-13.31539 -70.30889 1999 7 8 07/08/99 10.54 0
-13.31539 -70.30889 1999 7 9 07/09/99 9.98 0
-13.31539 -70.30889 1999 7 10 07/10/99 9.56 0
-13.31539 -70.30889 1999 7 11 07/11/99 10.67 0
-13.31539 -70.30889 1999 7 12 07/12/99 10.38 0
-13.31539 -70.30889 1999 7 13 Err:502 9.86 0
-13.31539 -70.30889 1999 7 14 Err:502 9.63 0
-13.31539 -70.30889 1999 7 15 Err:502 8.93 0.01
-13.31539 -70.30889 1999 7 16 Err:502 6.93 0.17
-13.31539 -70.30889 1999 7 17 Err:502 7.06 0.11
-13.31539 -70.30889 1999 7 18 Err:502 6.42 0.04
-13.31539 -70.30889 1999 7 19 Err:502 6.48 0.54
-13.31539 -70.30889 1999 7 20 Err:502 9.89 0.76
-13.31539 -70.30889 1999 7 21 Err:502 8.68 0.01
-13.31539 -70.30889 1999 7 22 Err:502 8.32 0
-13.31539 -70.30889 1999 7 23 Err:502 10.02 0
-13.31539 -70.30889 1999 7 24 Err:502 9.83 0
-13.31539 -70.30889 1999 7 25 Err:502 12.02 0
-13.31539 -70.30889 1999 7 26 Err:502 11.56 0
-13.31539 -70.30889 1999 7 27 Err:502 11.48 0
-13.31539 -70.30889 1999 7 28 Err:502 10.69 0
-13.31539 -70.30889 1999 7 29 Err:502 11.25 0
-13.31539 -70.30889 1999 7 30 Err:502 9.81 0
-13.31539 -70.30889 1999 7 31 Err:502 8.49 0.16
-13.31539 -70.30889 1999 8 1 08/01/99 11.28 0.02
-13.31539 -70.30889 1999 8 2 08/02/99 11.58 0.15
-13.31539 -70.30889 1999 8 3 08/03/99 11.51 0
-13.31539 -70.30889 1999 8 4 08/04/99 10.97 0
-13.31539 -70.30889 1999 8 5 08/05/99 11.9 0
-13.31539 -70.30889 1999 8 6 08/06/99 12.32 0
-13.31539 -70.30889 1999 8 7 08/07/99 11.41 0
-13.31539 -70.30889 1999 8 8 08/08/99 8.94 0
-13.31539 -70.30889 1999 8 9 08/09/99 11.74 0
-13.31539 -70.30889 1999 8 10 08/10/99 12.45 0
-13.31539 -70.30889 1999 8 11 08/11/99 12.31 0
-13.31539 -70.30889 1999 8 12 08/12/99 12.21 0
-13.31539 -70.30889 1999 8 13 Err:502 9.26 0
-13.31539 -70.30889 1999 8 14 Err:502 7.72 0
-13.31539 -70.30889 1999 8 15 Err:502 9.43 0
-13.31539 -70.30889 1999 8 16 Err:502 12.58 0
-13.31539 -70.30889 1999 8 17 Err:502 13.31 0
-13.31539 -70.30889 1999 8 18 Err:502 12.83 0
-13.31539 -70.30889 1999 8 19 Err:502 12.76 0
-13.31539 -70.30889 1999 8 20 Err:502 12.56 0
-13.31539 -70.30889 1999 8 21 Err:502 12.84 0
-13.31539 -70.30889 1999 8 22 Err:502 9.67 0.03
-13.31539 -70.30889 1999 8 23 Err:502 11.15 0.13
-13.31539 -70.30889 1999 8 24 Err:502 10.14 0
-13.31539 -70.30889 1999 8 25 Err:502 7.85 0
-13.31539 -70.30889 1999 8 26 Err:502 8.81 0
-13.31539 -70.30889 1999 8 27 Err:502 9.98 0
-13.31539 -70.30889 1999 8 28 Err:502 9.54 0
-13.31539 -70.30889 1999 8 29 Err:502 10.25 2.19
-13.31539 -70.30889 1999 8 30 Err:502 10.33 4.54
-13.31539 -70.30889 1999 8 31 Err:502 6.95 0
-13.31539 -70.30889 1999 9 1 09/01/99 10.41 0.08
-13.31539 -70.30889 1999 9 2 09/02/99 11.19 0.77
-13.31539 -70.30889 1999 9 3 09/03/99 9.09 2.31
-13.31539 -70.30889 1999 9 4 09/04/99 9.28 1.11
-13.31539 -70.30889 1999 9 5 09/05/99 10.45 0.09
-13.31539 -70.30889 1999 9 6 09/06/99 11.22 0
-13.31539 -70.30889 1999 9 7 09/07/99 10.29 0
-13.31539 -70.30889 1999 9 8 09/08/99 12.04 0
-13.31539 -70.30889 1999 9 9 09/09/99 8.47 5.67
-13.31539 -70.30889 1999 9 10 09/10/99 8.57 10.91
-13.31539 -70.30889 1999 9 11 09/11/99 7.71 0.87
-13.31539 -70.30889 1999 9 12 09/12/99 10.88 0.12
-13.31539 -70.30889 1999 9 13 Err:502 9.09 3.98
-13.31539 -70.30889 1999 9 14 Err:502 7.76 4.89
-13.31539 -70.30889 1999 9 15 Err:502 6.16 23.92
-13.31539 -70.30889 1999 9 16 Err:502 7.94 3.49
-13.31539 -70.30889 1999 9 17 Err:502 9.9 0.5
-13.31539 -70.30889 1999 9 18 Err:502 10.99 0.17
-13.31539 -70.30889 1999 9 19 Err:502 9.17 3.79
-13.31539 -70.30889 1999 9 20 Err:502 10.17 3.05
-13.31539 -70.30889 1999 9 21 Err:502 10.26 0.27
-13.31539 -70.30889 1999 9 22 Err:502 8.75 0.3
-13.31539 -70.30889 1999 9 23 Err:502 7.6 1.92
-13.31539 -70.30889 1999 9 24 Err:502 6.67 2.6
-13.31539 -70.30889 1999 9 25 Err:502 6.32 7.76
-13.31539 -70.30889 1999 9 26 Err:502 8.39 1.88
-13.31539 -70.30889 1999 9 27 Err:502 6.56 6
-13.31539 -70.30889 1999 9 28 Err:502 8.17 0.02
-13.31539 -70.30889 1999 9 29 Err:502 8.99 1.14
-13.31539 -70.30889 1999 9 30 Err:502 10.69 0.05
-13.31539 -70.30889 1999 10 1 10/01/99 8.2 0.47
-13.31539 -70.30889 1999 10 2 10/02/99 7.12 0.44
-13.31539 -70.30889 1999 10 3 10/03/99 4.09 7.16
-13.31539 -70.30889 1999 10 4 10/04/99 9.12 2.24
-13.31539 -70.30889 1999 10 5 10/05/99 11.23 3.31
-13.31539 -70.30889 1999 10 6 10/06/99 12.08 0.46
-13.31539 -70.30889 1999 10 7 10/07/99 10.89 0
-13.31539 -70.30889 1999 10 8 10/08/99 9.79 0
-13.31539 -70.30889 1999 10 9 10/09/99 5.85 0
-13.31539 -70.30889 1999 10 10 10/10/99 6.93 0.64
-13.31539 -70.30889 1999 10 11 10/11/99 6.21 1.41
-13.31539 -70.30889 1999 10 12 10/12/99 12.46 0.85
-13.31539 -70.30889 1999 10 13 Err:502 11.77 0.03
-13.31539 -70.30889 1999 10 14 Err:502 9.95 1.21
-13.31539 -70.30889 1999 10 15 Err:502 13.36 0.28
-13.31539 -70.30889 1999 10 16 Err:502 11.82 0.84
-13.31539 -70.30889 1999 10 17 Err:502 11.41 0.52
-13.31539 -70.30889 1999 10 18 Err:502 6.84 1.49
-13.31539 -70.30889 1999 10 19 Err:502 9.65 0.49
-13.31539 -70.30889 1999 10 20 Err:502 11.7 0
-13.31539 -70.30889 1999 10 21 Err:502 11.09 0.09
-13.31539 -70.30889 1999 10 22 Err:502 8.76 1.44
-13.31539 -70.30889 1999 10 23 Err:502 7.67 0.07
-13.31539 -70.30889 1999 10 24 Err:502 9.97 0.01
-13.31539 -70.30889 1999 10 25 Err:502 8.43 2.13
-13.31539 -70.30889 1999 10 26 Err:502 8.36 3.18
-13.31539 -70.30889 1999 10 27 Err:502 11.74 0.11
-13.31539 -70.30889 1999 10 28 Err:502 4.73 2.4
-13.31539 -70.30889 1999 10 29 Err:502 10.28 1.12
-13.31539 -70.30889 1999 10 30 Err:502 11.55 1.57
-13.31539 -70.30889 1999 10 31 Err:502 9.07 0.97
-13.31539 -70.30889 1999 11 1 11/01/99 11.91 0
-13.31539 -70.30889 1999 11 2 11/02/99 8.03 0.56
-13.31539 -70.30889 1999 11 3 11/03/99 6.5 6.98
-13.31539 -70.30889 1999 11 4 11/04/99 6.66 9.57
-13.31539 -70.30889 1999 11 5 11/05/99 7.8 0.21
-13.31539 -70.30889 1999 11 6 11/06/99 8.84 0
-13.31539 -70.30889 1999 11 7 11/07/99 6.99 10.94
-13.31539 -70.30889 1999 11 8 11/08/99 8.05 4.6
-13.31539 -70.30889 1999 11 9 11/09/99 6.26 21.14
-13.31539 -70.30889 1999 11 10 11/10/99 5.04 3.43
-13.31539 -70.30889 1999 11 11 11/11/99 11.65 0.02
-13.31539 -70.30889 1999 11 12 11/12/99 11.15 0
-13.31539 -70.30889 1999 11 13 Err:502 9.64 0
-13.31539 -70.30889 1999 11 14 Err:502 9.54 0.37
-13.31539 -70.30889 1999 11 15 Err:502 8.08 0.93
-13.31539 -70.30889 1999 11 16 Err:502 8.57 0.26
-13.31539 -70.30889 1999 11 17 Err:502 8.56 1.65
-13.31539 -70.30889 1999 11 18 Err:502 9.16 1.45
-13.31539 -70.30889 1999 11 19 Err:502 12.39 0.26
-13.31539 -70.30889 1999 11 20 Err:502 7.61 8.47
-13.31539 -70.30889 1999 11 21 Err:502 8 8.42
-13.31539 -70.30889 1999 11 22 Err:502 9.47 1.57
-13.31539 -70.30889 1999 11 23 Err:502 6.69 5.24
-13.31539 -70.30889 1999 11 24 Err:502 6.54 2.57
-13.31539 -70.30889 1999 11 25 Err:502 9.2 0.34
-13.31539 -70.30889 1999 11 26 Err:502 9.01 0.94
-13.31539 -70.30889 1999 11 27 Err:502 9.15 5.23
-13.31539 -70.30889 1999 11 28 Err:502 7.4 2.82
-13.31539 -70.30889 1999 11 29 Err:502 6.48 0.02
-13.31539 -70.30889 1999 11 30 Err:502 7.29 0.74
-13.31539 -70.30889 1999 12 1 12/01/99 7.11 1.06
-13.31539 -70.30889 1999 12 2 12/02/99 5.84 11.04
-13.31539 -70.30889 1999 12 3 12/03/99 5.55 19.9
-13.31539 -70.30889 1999 12 4 12/04/99 7.02 1.12
-13.31539 -70.30889 1999 12 5 12/05/99 8.35 1.27
-13.31539 -70.30889 1999 12 6 12/06/99 4.87 3.91
-13.31539 -70.30889 1999 12 7 12/07/99 4.28 4.06
-13.31539 -70.30889 1999 12 8 12/08/99 6.45 0.96
-13.31539 -70.30889 1999 12 9 12/09/99 6.84 2.7
-13.31539 -70.30889 1999 12 10 12/10/99 7.83 1.86
-13.31539 -70.30889 1999 12 11 12/11/99 8.23 0.96
-13.31539 -70.30889 1999 12 12 12/12/99 5.54 10.53
-13.31539 -70.30889 1999 12 13 Err:502 6.26 1.25
-13.31539 -70.30889 1999 12 14 Err:502 7.14 5.04
-13.31539 -70.30889 1999 12 15 Err:502 7.88 1.54
-13.31539 -70.30889 1999 12 16 Err:502 6.93 7.85
-13.31539 -70.30889 1999 12 17 Err:502 4.77 1.16
-13.31539 -70.30889 1999 12 18 Err:502 6.14 0.43
-13.31539 -70.30889 1999 12 19 Err:502 6.2 0.62
-13.31539 -70.30889 1999 12 20 Err:502 5.14 15.96
-13.31539 -70.30889 1999 12 21 Err:502 6.06 7.05
-13.31539 -70.30889 1999 12 22 Err:502 8.27 6.47
-13.31539 -70.30889 1999 12 23 Err:502 6.05 3.73
-13.31539 -70.30889 1999 12 24 Err:502 7.95 3.58
-13.31539 -70.30889 1999 12 25 Err:502 5.3 8.3
-13.31539 -70.30889 1999 12 26 Err:502 9.43 0.94
-13.31539 -70.30889 1999 12 27 Err:502 7.98 4.03
-13.31539 -70.30889 1999 12 28 Err:502 7.33 1.94
-13.31539 -70.30889 1999 12 29 Err:502 5.68 1.83
-13.31539 -70.30889 1999 12 30 Err:502 5.64 0.69
-13.31539 -70.30889 1999 12 31 Err:502 5.56 4.45
-13.31539 -70.30889 2000 1 1 01/01/00 4.28 7.93
-13.31539 -70.30889 2000 1 2 01/02/00 8.79 0.22
-13.31539 -70.30889 2000 1 3 01/03/00 9.48 0.02
-13.31539 -70.30889 2000 1 4 01/04/00 7.21 0.59
-13.31539 -70.30889 2000 1 5 01/05/00 5.95 9.36
-13.31539 -70.30889 2000 1 6 01/06/00 8.86 6.32
-13.31539 -70.30889 2000 1 7 01/07/00 9.2 1.83
-13.31539 -70.30889 2000 1 8 01/08/00 9.71 3.18
-13.31539 -70.30889 2000 1 9 01/09/00 6.18 5.14
-13.31539 -70.30889 2000 1 10 01/10/00 5.89 28.53
-13.31539 -70.30889 2000 1 11 01/11/00 5.73 6.96
-13.31539 -70.30889 2000 1 12 01/12/00 7.1 5.42
-13.31539 -70.30889 2000 1 13 Err:502 6.8 0.72
-13.31539 -70.30889 2000 1 14 Err:502 6.78 0.73
-13.31539 -70.30889 2000 1 15 Err:502 3.85 7
-13.31539 -70.30889 2000 1 16 Err:502 2.47 12.3
-13.31539 -70.30889 2000 1 17 Err:502 6.25 4.47
-13.31539 -70.30889 2000 1 18 Err:502 8.14 8.05
-13.31539 -70.30889 2000 1 19 Err:502 3.33 38.48
-13.31539 -70.30889 2000 1 20 Err:502 6.92 6.85
-13.31539 -70.30889 2000 1 21 Err:502 8.16 0.06
-13.31539 -70.30889 2000 1 22 Err:502 4.99 6.18
-13.31539 -70.30889 2000 1 23 Err:502 4.05 19.49
-13.31539 -70.30889 2000 1 24 Err:502 7.01 5.49
-13.31539 -70.30889 2000 1 25 Err:502 5.18 7.45
-13.31539 -70.30889 2000 1 26 Err:502 7.07 9.93
-13.31539 -70.30889 2000 1 27 Err:502 4.68 0.98
-13.31539 -70.30889 2000 1 28 Err:502 4.27 2.08
-13.31539 -70.30889 2000 1 29 Err:502 5.08 4.26
-13.31539 -70.30889 2000 1 30 Err:502 3.37 6
-13.31539 -70.30889 2000 1 31 Err:502 4.62 3.26
-13.31539 -70.30889 2000 2 1 02/01/00 6.24 2.69
-13.31539 -70.30889 2000 2 2 02/02/00 7.13 4.79
-13.31539 -70.30889 2000 2 3 02/03/00 4.73 3.58
-13.31539 -70.30889 2000 2 4 02/04/00 4.13 3.04
-13.31539 -70.30889 2000 2 5 02/05/00 3.37 4.74
-13.31539 -70.30889 2000 2 6 02/06/00 5.19 3.74
-13.31539 -70.30889 2000 2 7 02/07/00 7.45 1.36
-13.31539 -70.30889 2000 2 8 02/08/00 6.4 4.71
-13.31539 -70.30889 2000 2 9 02/09/00 4 6.51
-13.31539 -70.30889 2000 2 10 02/10/00 3.58 6.46
-13.31539 -70.30889 2000 2 11 02/11/00 6.19 6.65
-13.31539 -70.30889 2000 2 12 02/12/00 5.95 3.91
-13.31539 -70.30889 2000 2 13 Err:502 6.1 4.62
-13.31539 -70.30889 2000 2 14 Err:502 3.82 44.21
-13.31539 -70.30889 2000 2 15 Err:502 5.22 8.74
-13.31539 -70.30889 2000 2 16 Err:502 6.55 3.68
-13.31539 -70.30889 2000 2 17 Err:502 5.67 3.7
-13.31539 -70.30889 2000 2 18 Err:502 6.02 2.33
-13.31539 -70.30889 2000 2 19 Err:502 6.88 3.9
-13.31539 -70.30889 2000 2 20 Err:502 5.57 8.15
-13.31539 -70.30889 2000 2 21 Err:502 5.47 9.29
-13.31539 -70.30889 2000 2 22 Err:502 5.3 17.02
-13.31539 -70.30889 2000 2 23 Err:502 6.03 2.88
-13.31539 -70.30889 2000 2 24 Err:502 5.47 0.89
-13.31539 -70.30889 2000 2 25 Err:502 6.09 14.4
-13.31539 -70.30889 2000 2 26 Err:502 5.53 5.72
-13.31539 -70.30889 2000 2 27 Err:502 5.69 6.57
-13.31539 -70.30889 2000 2 28 Err:502 5.38 1.01
-13.31539 -70.30889 2000 2 29 Err:502 6.35 7.7
-13.31539 -70.30889 2000 3 1 03/01/00 5.16 6.6
-13.31539 -70.30889 2000 3 2 03/02/00 5.49 14.94
-13.31539 -70.30889 2000 3 3 03/03/00 5.33 5.12
-13.31539 -70.30889 2000 3 4 03/04/00 4.17 5.03
-13.31539 -70.30889 2000 3 5 03/05/00 4.09 12.05
-13.31539 -70.30889 2000 3 6 03/06/00 6.03 39.79
-13.31539 -70.30889 2000 3 7 03/07/00 5.02 12.29
-13.31539 -70.30889 2000 3 8 03/08/00 5.71 10.66
-13.31539 -70.30889 2000 3 9 03/09/00 5.88 18.73
-13.31539 -70.30889 2000 3 10 03/10/00 5.67 20.27
-13.31539 -70.30889 2000 3 11 03/11/00 3.74 12.37
-13.31539 -70.30889 2000 3 12 03/12/00 4.45 11.58
-13.31539 -70.30889 2000 3 13 Err:502 7.16 3.84
-13.31539 -70.30889 2000 3 14 Err:502 4.85 3.73
-13.31539 -70.30889 2000 3 15 Err:502 3.59 23.07
-13.31539 -70.30889 2000 3 16 Err:502 6.61 2.71
-13.31539 -70.30889 2000 3 17 Err:502 6.12 1.77
-13.31539 -70.30889 2000 3 18 Err:502 5.78 23.07
-13.31539 -70.30889 2000 3 19 Err:502 4.74 5.15
-13.31539 -70.30889 2000 3 20 Err:502 3.08 3.48
-13.31539 -70.30889 2000 3 21 Err:502 5.93 0.27
-13.31539 -70.30889 2000 3 22 Err:502 6.36 1.3
-13.31539 -70.30889 2000 3 23 Err:502 4.13 4.66
-13.31539 -70.30889 2000 3 24 Err:502 7.27 1.25
-13.31539 -70.30889 2000 3 25 Err:502 7.8 0.58
-13.31539 -70.30889 2000 3 26 Err:502 6.98 0.06
-13.31539 -70.30889 2000 3 27 Err:502 6.1 0
-13.31539 -70.30889 2000 3 28 Err:502 4.45 21.92
-13.31539 -70.30889 2000 3 29 Err:502 4.73 2.07
-13.31539 -70.30889 2000 3 30 Err:502 6.64 1.7
-13.31539 -70.30889 2000 3 31 Err:502 8.04 0.53
-13.31539 -70.30889 2000 4 1 04/01/00 7.93 0.01
-13.31539 -70.30889 2000 4 2 04/02/00 7.55 0.88
-13.31539 -70.30889 2000 4 3 04/03/00 7.17 0.38
-13.31539 -70.30889 2000 4 4 04/04/00 5.33 0.02
-13.31539 -70.30889 2000 4 5 04/05/00 5.75 11.17
-13.31539 -70.30889 2000 4 6 04/06/00 5.08 1.67
-13.31539 -70.30889 2000 4 7 04/07/00 6.55 0.22
-13.31539 -70.30889 2000 4 8 04/08/00 6.66 0.03
-13.31539 -70.30889 2000 4 9 04/09/00 4.87 0.26
-13.31539 -70.30889 2000 4 10 04/10/00 6.58 0
-13.31539 -70.30889 2000 4 11 04/11/00 7.94 0.5
-13.31539 -70.30889 2000 4 12 04/12/00 6.53 0.24
-13.31539 -70.30889 2000 4 13 Err:502 5.18 0.87
-13.31539 -70.30889 2000 4 14 Err:502 5.01 0.08
-13.31539 -70.30889 2000 4 15 Err:502 6.62 2.09
-13.31539 -70.30889 2000 4 16 Err:502 5.37 5.71
-13.31539 -70.30889 2000 4 17 Err:502 4.65 1.38
-13.31539 -70.30889 2000 4 18 Err:502 4.69 5.37
-13.31539 -70.30889 2000 4 19 Err:502 4.22 4.02
-13.31539 -70.30889 2000 4 20 Err:502 5.19 0.05
-13.31539 -70.30889 2000 4 21 Err:502 7.05 2.85
-13.31539 -70.30889 2000 4 22 Err:502 7.39 1.38
-13.31539 -70.30889 2000 4 23 Err:502 5.5 0.35
-13.31539 -70.30889 2000 4 24 Err:502 6.23 0
-13.31539 -70.30889 2000 4 25 Err:502 7.32 0.03
-13.31539 -70.30889 2000 4 26 Err:502 4.17 0.65
-13.31539 -70.30889 2000 4 27 Err:502 3.29 1.19
-13.31539 -70.30889 2000 4 28 Err:502 5.2 5.29
-13.31539 -70.30889 2000 4 29 Err:502 4.72 36.45
-13.31539 -70.30889 2000 4 30 Err:502 6.3 0.12
-13.31539 -70.30889 2000 5 1 05/01/00 4.61 5.57
-13.31539 -70.30889 2000 5 2 05/02/00 4.89 0.42
-13.31539 -70.30889 2000 5 3 05/03/00 3.68 6.74
-13.31539 -70.30889 2000 5 4 05/04/00 4.53 3.3
-13.31539 -70.30889 2000 5 5 05/05/00 5.11 2.4
-13.31539 -70.30889 2000 5 6 05/06/00 6.53 0.72
-13.31539 -70.30889 2000 5 7 05/07/00 6.08 0.22
-13.31539 -70.30889 2000 5 8 05/08/00 6.86 0.6
-13.31539 -70.30889 2000 5 9 05/09/00 6.85 0.04
-13.31539 -70.30889 2000 5 10 05/10/00 7.77 0
-13.31539 -70.30889 2000 5 11 05/11/00 6.45 0.59
-13.31539 -70.30889 2000 5 12 05/12/00 6.36 0.39
-13.31539 -70.30889 2000 5 13 Err:502 6.17 1.47
-13.31539 -70.30889 2000 5 14 Err:502 5.69 0.08
-13.31539 -70.30889 2000 5 15 Err:502 6.77 0
-13.31539 -70.30889 2000 5 16 Err:502 5.55 9.86
-13.31539 -70.30889 2000 5 17 Err:502 4.55 2.41
-13.31539 -70.30889 2000 5 18 Err:502 4.12 0.21
-13.31539 -70.30889 2000 5 19 Err:502 6.6 0
-13.31539 -70.30889 2000 5 20 Err:502 6.66 0
-13.31539 -70.30889 2000 5 21 Err:502 7.17 0.53
-13.31539 -70.30889 2000 5 22 Err:502 7.22 0
-13.31539 -70.30889 2000 5 23 Err:502 7.33 0
-13.31539 -70.30889 2000 5 24 Err:502 7.63 0
-13.31539 -70.30889 2000 5 25 Err:502 7.47 0
-13.31539 -70.30889 2000 5 26 Err:502 6.39 0
-13.31539 -70.30889 2000 5 27 Err:502 6.9 0
-13.31539 -70.30889 2000 5 28 Err:502 7.21 0.32
-13.31539 -70.30889 2000 5 29 Err:502 7.19 0.07
-13.31539 -70.30889 2000 5 30 Err:502 4.89 0.07
-13.31539 -70.30889 2000 5 31 Err:502 6.69 0.01
-13.31539 -70.30889 2000 6 1 06/01/00 5.68 0.19
-13.31539 -70.30889 2000 6 2 06/02/00 6.02 3.08
-13.31539 -70.30889 2000 6 3 06/03/00 7.1 0.51
-13.31539 -70.30889 2000 6 4 06/04/00 7.17 0.03
-13.31539 -70.30889 2000 6 5 06/05/00 7.19 0
-13.31539 -70.30889 2000 6 6 06/06/00 6.19 0.24
-13.31539 -70.30889 2000 6 7 06/07/00 5.7 0.09
-13.31539 -70.30889 2000 6 8 06/08/00 4.93 7.7
-13.31539 -70.30889 2000 6 9 06/09/00 7.62 1.61
-13.31539 -70.30889 2000 6 10 06/10/00 7.81 0.01
-13.31539 -70.30889 2000 6 11 06/11/00 7.98 0
-13.31539 -70.30889 2000 6 12 06/12/00 8.84 0
-13.31539 -70.30889 2000 6 13 Err:502 9.2 0
-13.31539 -70.30889 2000 6 14 Err:502 8.52 0.07
-13.31539 -70.30889 2000 6 15 Err:502 8.07 3.67
-13.31539 -70.30889 2000 6 16 Err:502 5.93 6.24
-13.31539 -70.30889 2000 6 17 Err:502 5.03 2.3
-13.31539 -70.30889 2000 6 18 Err:502 6.77 1.97
-13.31539 -70.30889 2000 6 19 Err:502 7.65 0.39
-13.31539 -70.30889 2000 6 20 Err:502 8.4 0.14
-13.31539 -70.30889 2000 6 21 Err:502 5.6 0.07
-13.31539 -70.30889 2000 6 22 Err:502 7.6 0
-13.31539 -70.30889 2000 6 23 Err:502 9.25 0
-13.31539 -70.30889 2000 6 24 Err:502 8.84 0
-13.31539 -70.30889 2000 6 25 Err:502 9.14 0
-13.31539 -70.30889 2000 6 26 Err:502 8.19 0
-13.31539 -70.30889 2000 6 27 Err:502 6.14 0
-13.31539 -70.30889 2000 6 28 Err:502 7.85 0.07
-13.31539 -70.30889 2000 6 29 Err:502 9.86 0.15
-13.31539 -70.30889 2000 6 30 Err:502 9.32 0.01
-13.31539 -70.30889 2000 7 1 07/01/00 8.49 0.01
-13.31539 -70.30889 2000 7 2 07/02/00 7.81 0
-13.31539 -70.30889 2000 7 3 07/03/00 6.35 0.38
-13.31539 -70.30889 2000 7 4 07/04/00 7.47 0.94
-13.31539 -70.30889 2000 7 5 07/05/00 9.71 0.06
-13.31539 -70.30889 2000 7 6 07/06/00 9.84 0.02
-13.31539 -70.30889 2000 7 7 07/07/00 10.01 0
-13.31539 -70.30889 2000 7 8 07/08/00 9.11 0.01
-13.31539 -70.30889 2000 7 9 07/09/00 9.64 0.02
-13.31539 -70.30889 2000 7 10 07/10/00 7.99 0.65
-13.31539 -70.30889 2000 7 11 07/11/00 8.03 0.76
-13.31539 -70.30889 2000 7 12 07/12/00 6.58 2.01
-13.31539 -70.30889 2000 7 13 Err:502 9.62 0.24
-13.31539 -70.30889 2000 7 14 Err:502 11.75 0
-13.31539 -70.30889 2000 7 15 Err:502 13.38 0
-13.31539 -70.30889 2000 7 16 Err:502 10.25 0.23
-13.31539 -70.30889 2000 7 17 Err:502 9.23 0.07
-13.31539 -70.30889 2000 7 18 Err:502 11.14 0
-13.31539 -70.30889 2000 7 19 Err:502 6.86 0.03
-13.31539 -70.30889 2000 7 20 Err:502 7.79 0.09
-13.31539 -70.30889 2000 7 21 Err:502 11.99 0
-13.31539 -70.30889 2000 7 22 Err:502 11.34 0.02
-13.31539 -70.30889 2000 7 23 Err:502 13.33 1.1
-13.31539 -70.30889 2000 7 24 Err:502 9.85 0.83
-13.31539 -70.30889 2000 7 25 Err:502 13.77 0
-13.31539 -70.30889 2000 7 26 Err:502 11.43 0
-13.31539 -70.30889 2000 7 27 Err:502 11.53 0
-13.31539 -70.30889 2000 7 28 Err:502 12.12 0
-13.31539 -70.30889 2000 7 29 Err:502 11.84 0
-13.31539 -70.30889 2000 7 30 Err:502 11.41 0
-13.31539 -70.30889 2000 7 31 Err:502 9.92 0.05
-13.31539 -70.30889 2000 8 1 08/01/00 9.4 0.5
-13.31539 -70.30889 2000 8 2 08/02/00 7.4 0.22
-13.31539 -70.30889 2000 8 3 08/03/00 9.68 3.53
-13.31539 -70.30889 2000 8 4 08/04/00 9.37 0.22
-13.31539 -70.30889 2000 8 5 08/05/00 8.1 0.01
-13.31539 -70.30889 2000 8 6 08/06/00 7.92 0.3
-13.31539 -70.30889 2000 8 7 08/07/00 9.02 0.85
-13.31539 -70.30889 2000 8 8 08/08/00 8.91 0.86
-13.31539 -70.30889 2000 8 9 08/09/00 8.12 0.32
-13.31539 -70.30889 2000 8 10 08/10/00 8.61 4.35
-13.31539 -70.30889 2000 8 11 08/11/00 8.1 8.88
-13.31539 -70.30889 2000 8 12 08/12/00 7.75 0.05
-13.31539 -70.30889 2000 8 13 Err:502 11.04 1.14
-13.31539 -70.30889 2000 8 14 Err:502 10.65 0.81
-13.31539 -70.30889 2000 8 15 Err:502 10.4 0.11
-13.31539 -70.30889 2000 8 16 Err:502 9.28 0.05
-13.31539 -70.30889 2000 8 17 Err:502 10.09 0
-13.31539 -70.30889 2000 8 18 Err:502 9.75 0
-13.31539 -70.30889 2000 8 19 Err:502 11.55 0
-13.31539 -70.30889 2000 8 20 Err:502 9.17 0.26
-13.31539 -70.30889 2000 8 21 Err:502 9.42 0.78
-13.31539 -70.30889 2000 8 22 Err:502 10.32 0.04
-13.31539 -70.30889 2000 8 23 Err:502 9.56 0.01
-13.31539 -70.30889 2000 8 24 Err:502 9.88 0.28
-13.31539 -70.30889 2000 8 25 Err:502 11.43 0.86
-13.31539 -70.30889 2000 8 26 Err:502 9.9 0.48
-13.31539 -70.30889 2000 8 27 Err:502 11.07 0.01
-13.31539 -70.30889 2000 8 28 Err:502 10.79 0.02
-13.31539 -70.30889 2000 8 29 Err:502 10.61 0.01
-13.31539 -70.30889 2000 8 30 Err:502 9.71 0
-13.31539 -70.30889 2000 8 31 Err:502 10.74 0.06
-13.31539 -70.30889 2000 9 1 09/01/00 10.99 0.49
-13.31539 -70.30889 2000 9 2 09/02/00 9.34 0.48
-13.31539 -70.30889 2000 9 3 09/03/00 5.36 0.05
-13.31539 -70.30889 2000 9 4 09/04/00 11.57 0.01
-13.31539 -70.30889 2000 9 5 09/05/00 11.26 0
-13.31539 -70.30889 2000 9 6 09/06/00 7.98 0
-13.31539 -70.30889 2000 9 7 09/07/00 10.25 0.01
-13.31539 -70.30889 2000 9 8 09/08/00 11.21 0.01
-13.31539 -70.30889 2000 9 9 09/09/00 10.31 1.19
-13.31539 -70.30889 2000 9 10 09/10/00 8.95 0.91
-13.31539 -70.30889 2000 9 11 09/11/00 9.31 0
-13.31539 -70.30889 2000 9 12 09/12/00 11.33 0.02
-13.31539 -70.30889 2000 9 13 Err:502 11.48 0.02
-13.31539 -70.30889 2000 9 14 Err:502 9.83 2.11
-13.31539 -70.30889 2000 9 15 Err:502 10.65 7.75
-13.31539 -70.30889 2000 9 16 Err:502 7.3 9.69
-13.31539 -70.30889 2000 9 17 Err:502 10.94 0
-13.31539 -70.30889 2000 9 18 Err:502 11.34 0
-13.31539 -70.30889 2000 9 19 Err:502 10.13 0.02
-13.31539 -70.30889 2000 9 20 Err:502 11.83 0.04
-13.31539 -70.30889 2000 9 21 Err:502 10.15 1.51
-13.31539 -70.30889 2000 9 22 Err:502 7.56 7.53
-13.31539 -70.30889 2000 9 23 Err:502 10.08 1.04
-13.31539 -70.30889 2000 9 24 Err:502 8.68 3.7
-13.31539 -70.30889 2000 9 25 Err:502 4.01 14.94
-13.31539 -70.30889 2000 9 26 Err:502 8.72 1.05
-13.31539 -70.30889 2000 9 27 Err:502 11.33 0.93
-13.31539 -70.30889 2000 9 28 Err:502 11.93 2.56
-13.31539 -70.30889 2000 9 29 Err:502 10.75 0
-13.31539 -70.30889 2000 9 30 Err:502 10.44 0.02
-13.31539 -70.30889 2000 10 1 10/01/00 10.01 0.02
-13.31539 -70.30889 2000 10 2 10/02/00 9.86 0.03
-13.31539 -70.30889 2000 10 3 10/03/00 9.54 1.05
-13.31539 -70.30889 2000 10 4 10/04/00 7.7 3.03
-13.31539 -70.30889 2000 10 5 10/05/00 6.4 6.59
-13.31539 -70.30889 2000 10 6 10/06/00 7.87 12.72
-13.31539 -70.30889 2000 10 7 10/07/00 9.7 2.55
-13.31539 -70.30889 2000 10 8 10/08/00 8.41 1.35
-13.31539 -70.30889 2000 10 9 10/09/00 11.84 0.1
-13.31539 -70.30889 2000 10 10 10/10/00 8.9 4.64
-13.31539 -70.30889 2000 10 11 10/11/00 6.16 5.74
-13.31539 -70.30889 2000 10 12 10/12/00 9.39 0.42
-13.31539 -70.30889 2000 10 13 Err:502 6.26 0.47
-13.31539 -70.30889 2000 10 14 Err:502 9.55 2.8
-13.31539 -70.30889 2000 10 15 Err:502 9.52 1.24
-13.31539 -70.30889 2000 10 16 Err:502 10.91 1.11
-13.31539 -70.30889 2000 10 17 Err:502 9.84 1.78
-13.31539 -70.30889 2000 10 18 Err:502 12.1 1.53
-13.31539 -70.30889 2000 10 19 Err:502 11.92 0.4
-13.31539 -70.30889 2000 10 20 Err:502 8.37 0.35
-13.31539 -70.30889 2000 10 21 Err:502 12.01 1
-13.31539 -70.30889 2000 10 22 Err:502 8.65 4.33
-13.31539 -70.30889 2000 10 23 Err:502 9.27 4.31
-13.31539 -70.30889 2000 10 24 Err:502 6.06 13.52
-13.31539 -70.30889 2000 10 25 Err:502 8.57 27.83
-13.31539 -70.30889 2000 10 26 Err:502 6.56 1.83
-13.31539 -70.30889 2000 10 27 Err:502 10.13 0.81
-13.31539 -70.30889 2000 10 28 Err:502 9.56 1.43
-13.31539 -70.30889 2000 10 29 Err:502 5.73 0.05
-13.31539 -70.30889 2000 10 30 Err:502 9.41 0.02
-13.31539 -70.30889 2000 10 31 Err:502 9.85 0.36
-13.31539 -70.30889 2000 11 1 11/01/00 6.22 0.26
-13.31539 -70.30889 2000 11 2 11/02/00 5.17 4.21
-13.31539 -70.30889 2000 11 3 11/03/00 5.51 5.21
-13.31539 -70.30889 2000 11 4 11/04/00 8.58 0.65
-13.31539 -70.30889 2000 11 5 11/05/00 10.19 3.18
-13.31539 -70.30889 2000 11 6 11/06/00 5.35 5.53
-13.31539 -70.30889 2000 11 7 11/07/00 5.52 1.84
-13.31539 -70.30889 2000 11 8 11/08/00 10.51 0.16
-13.31539 -70.30889 2000 11 9 11/09/00 5.89 0.3
-13.31539 -70.30889 2000 11 10 11/10/00 5.85 1.49
-13.31539 -70.30889 2000 11 11 11/11/00 6.62 1.49
-13.31539 -70.30889 2000 11 12 11/12/00 7.15 0.29
-13.31539 -70.30889 2000 11 13 Err:502 7.15 0.06
-13.31539 -70.30889 2000 11 14 Err:502 6.91 14.07
-13.31539 -70.30889 2000 11 15 Err:502 3.58 21.68
-13.31539 -70.30889 2000 11 16 Err:502 5.82 17.04
-13.31539 -70.30889 2000 11 17 Err:502 8.84 0.15
-13.31539 -70.30889 2000 11 18 Err:502 10.32 0
-13.31539 -70.30889 2000 11 19 Err:502 8.85 0.5
-13.31539 -70.30889 2000 11 20 Err:502 5.42 1.62
-13.31539 -70.30889 2000 11 21 Err:502 5.15 1.53
-13.31539 -70.30889 2000 11 22 Err:502 10.12 2.43
-13.31539 -70.30889 2000 11 23 Err:502 7.44 0.16
-13.31539 -70.30889 2000 11 24 Err:502 9.89 0.01
-13.31539 -70.30889 2000 11 25 Err:502 7.93 31.99
-13.31539 -70.30889 2000 11 26 Err:502 5.31 2.67
-13.31539 -70.30889 2000 11 27 Err:502 6.26 4.62
-13.31539 -70.30889 2000 11 28 Err:502 6.97 4.28
-13.31539 -70.30889 2000 11 29 Err:502 4.85 3.71
-13.31539 -70.30889 2000 11 30 Err:502 6.02 4.65
-13.31539 -70.30889 2000 12 1 12/01/00 7.38 0.81
-13.31539 -70.30889 2000 12 2 12/02/00 7.35 1.99
-13.31539 -70.30889 2000 12 3 12/03/00 4.51 0.09
-13.31539 -70.30889 2000 12 4 12/04/00 7.72 0.96
-13.31539 -70.30889 2000 12 5 12/05/00 5.01 9.65
-13.31539 -70.30889 2000 12 6 12/06/00 4.68 19.39
-13.31539 -70.30889 2000 12 7 12/07/00 6.91 1.77
-13.31539 -70.30889 2000 12 8 12/08/00 6.85 4.2
-13.31539 -70.30889 2000 12 9 12/09/00 7.06 6.42
-13.31539 -70.30889 2000 12 10 12/10/00 6.91 24.4
-13.31539 -70.30889 2000 12 11 12/11/00 4.99 10.57
-13.31539 -70.30889 2000 12 12 12/12/00 3.8 17
-13.31539 -70.30889 2000 12 13 Err:502 5.35 7.14
-13.31539 -70.30889 2000 12 14 Err:502 6.83 2.07
-13.31539 -70.30889 2000 12 15 Err:502 5.38 0.26
-13.31539 -70.30889 2000 12 16 Err:502 5.84 12.81
-13.31539 -70.30889 2000 12 17 Err:502 4.45 1.58
-13.31539 -70.30889 2000 12 18 Err:502 7.37 0.01
-13.31539 -70.30889 2000 12 19 Err:502 8.69 0
-13.31539 -70.30889 2000 12 20 Err:502 8.48 0.21
-13.31539 -70.30889 2000 12 21 Err:502 6.01 10.04
-13.31539 -70.30889 2000 12 22 Err:502 4 24.07
-13.31539 -70.30889 2000 12 23 Err:502 5.47 5.14
-13.31539 -70.30889 2000 12 24 Err:502 5.85 1.47
-13.31539 -70.30889 2000 12 25 Err:502 5.74 4.47
-13.31539 -70.30889 2000 12 26 Err:502 3.76 5.45
-13.31539 -70.30889 2000 12 27 Err:502 4.99 17.53
-13.31539 -70.30889 2000 12 28 Err:502 6.25 15.52
-13.31539 -70.30889 2000 12 29 Err:502 5.76 8.54
-13.31539 -70.30889 2000 12 30 Err:502 4.79 8.29
-13.31539 -70.30889 2000 12 31 Err:502 5.63 8.02
-13.31539 -70.30889 2001 1 1 01/01/01 4.05 5.03
-13.31539 -70.30889 2001 1 2 01/02/01 6.81 5.21
-13.31539 -70.30889 2001 1 3 01/03/01 6.3 6.16
-13.31539 -70.30889 2001 1 4 01/04/01 3.05 20.83
-13.31539 -70.30889 2001 1 5 01/05/01 5.14 4.91
-13.31539 -70.30889 2001 1 6 01/06/01 5.85 13.57
-13.31539 -70.30889 2001 1 7 01/07/01 5.25 14.32
-13.31539 -70.30889 2001 1 8 01/08/01 3.05 5.34
-13.31539 -70.30889 2001 1 9 01/09/01 3.54 7.32
-13.31539 -70.30889 2001 1 10 01/10/01 4.03 8.27
-13.31539 -70.30889 2001 1 11 01/11/01 4.66 5.62
-13.31539 -70.30889 2001 1 12 01/12/01 5.66 3.75
-13.31539 -70.30889 2001 1 13 Err:502 4.15 2.07
-13.31539 -70.30889 2001 1 14 Err:502 6.42 9.75
-13.31539 -70.30889 2001 1 15 Err:502 3.55 20.54
-13.31539 -70.30889 2001 1 16 Err:502 5.4 12.71
-13.31539 -70.30889 2001 1 17 Err:502 5.28 28.74
-13.31539 -70.30889 2001 1 18 Err:502 5.05 19.44
-13.31539 -70.30889 2001 1 19 Err:502 5.59 25.92
-13.31539 -70.30889 2001 1 20 Err:502 4.55 12.34
-13.31539 -70.30889 2001 1 21 Err:502 5.55 4.68
-13.31539 -70.30889 2001 1 22 Err:502 3.61 5.96
-13.31539 -70.30889 2001 1 23 Err:502 4.52 25.63
-13.31539 -70.30889 2001 1 24 Err:502 4.82 16.82
-13.31539 -70.30889 2001 1 25 Err:502 6.74 1.56
-13.31539 -70.30889 2001 1 26 Err:502 5.8 19.07
-13.31539 -70.30889 2001 1 27 Err:502 4.19 31.82
-13.31539 -70.30889 2001 1 28 Err:502 5.97 7.55
-13.31539 -70.30889 2001 1 29 Err:502 5.06 2.43
-13.31539 -70.30889 2001 1 30 Err:502 5.22 5.5
-13.31539 -70.30889 2001 1 31 Err:502 4.74 14.52
-13.31539 -70.30889 2001 2 1 02/01/01 5.47 10.27
-13.31539 -70.30889 2001 2 2 02/02/01 4.87 3.74
-13.31539 -70.30889 2001 2 3 02/03/01 5.26 2.01
-13.31539 -70.30889 2001 2 4 02/04/01 5.32 1.12
-13.31539 -70.30889 2001 2 5 02/05/01 6.62 0.94
-13.31539 -70.30889 2001 2 6 02/06/01 7.15 0.89
-13.31539 -70.30889 2001 2 7 02/07/01 7.58 0.54
-13.31539 -70.30889 2001 2 8 02/08/01 5.44 0.32
-13.31539 -70.30889 2001 2 9 02/09/01 5.3 0.13
-13.31539 -70.30889 2001 2 10 02/10/01 6.17 1.97
-13.31539 -70.30889 2001 2 11 02/11/01 4.53 4.09
-13.31539 -70.30889 2001 2 12 02/12/01 6.2 4.74
-13.31539 -70.30889 2001 2 13 Err:502 6.99 3.29
-13.31539 -70.30889 2001 2 14 Err:502 5.15 4.99
-13.31539 -70.30889 2001 2 15 Err:502 4.94 5.19
-13.31539 -70.30889 2001 2 16 Err:502 5.74 1.51
-13.31539 -70.30889 2001 2 17 Err:502 4.31 9.62
-13.31539 -70.30889 2001 2 18 Err:502 5.27 23.52
-13.31539 -70.30889 2001 2 19 Err:502 4.36 19.56
-13.31539 -70.30889 2001 2 20 Err:502 3.69 10.66
-13.31539 -70.30889 2001 2 21 Err:502 5.52 4.28
-13.31539 -70.30889 2001 2 22 Err:502 3.96 20.72
-13.31539 -70.30889 2001 2 23 Err:502 5.18 6.7
-13.31539 -70.30889 2001 2 24 Err:502 4.67 23.63
-13.31539 -70.30889 2001 2 25 Err:502 6.44 3.8
-13.31539 -70.30889 2001 2 26 Err:502 5.92 3.9
-13.31539 -70.30889 2001 2 27 Err:502 2.84 16.09
-13.31539 -70.30889 2001 2 28 Err:502 6.26 22.4
-13.31539 -70.30889 2001 3 1 03/01/01 7.25 4.33
-13.31539 -70.30889 2001 3 2 03/02/01 5.65 11.58
-13.31539 -70.30889 2001 3 3 03/03/01 6.71 0.53
-13.31539 -70.30889 2001 3 4 03/04/01 6.95 0.49
-13.31539 -70.30889 2001 3 5 03/05/01 6.75 3.71
-13.31539 -70.30889 2001 3 6 03/06/01 4.56 25.12
-13.31539 -70.30889 2001 3 7 03/07/01 4.77 6.63
-13.31539 -70.30889 2001 3 8 03/08/01 5.11 12.25
-13.31539 -70.30889 2001 3 9 03/09/01 6.42 5.93
-13.31539 -70.30889 2001 3 10 03/10/01 5.79 0.76
-13.31539 -70.30889 2001 3 11 03/11/01 6.81 0.76
-13.31539 -70.30889 2001 3 12 03/12/01 6.38 3.11
-13.31539 -70.30889 2001 3 13 Err:502 4.74 0.95
-13.31539 -70.30889 2001 3 14 Err:502 5.94 11.62
-13.31539 -70.30889 2001 3 15 Err:502 4.94 14.36
-13.31539 -70.30889 2001 3 16 Err:502 5.35 19.16
-13.31539 -70.30889 2001 3 17 Err:502 6.28 2.08
-13.31539 -70.30889 2001 3 18 Err:502 5.06 1.07
-13.31539 -70.30889 2001 3 19 Err:502 6.51 1.2
-13.31539 -70.30889 2001 3 20 Err:502 5.86 2.4
-13.31539 -70.30889 2001 3 21 Err:502 4.37 3.2
-13.31539 -70.30889 2001 3 22 Err:502 5.26 1.77
-13.31539 -70.30889 2001 3 23 Err:502 4.99 0.21
-13.31539 -70.30889 2001 3 24 Err:502 3.47 6.75
-13.31539 -70.30889 2001 3 25 Err:502 3.81 13.27
-13.31539 -70.30889 2001 3 26 Err:502 5.95 3.1
-13.31539 -70.30889 2001 3 27 Err:502 5.38 21.51
-13.31539 -70.30889 2001 3 28 Err:502 6.1 1.97
-13.31539 -70.30889 2001 3 29 Err:502 5.78 5.73
-13.31539 -70.30889 2001 3 30 Err:502 6.1 0.34
-13.31539 -70.30889 2001 3 31 Err:502 7.35 0
-13.31539 -70.30889 2001 4 1 04/01/01 6.35 0.03
-13.31539 -70.30889 2001 4 2 04/02/01 6.37 1.09
-13.31539 -70.30889 2001 4 3 04/03/01 6.25 0.29
-13.31539 -70.30889 2001 4 4 04/04/01 6.19 0.05
-13.31539 -70.30889 2001 4 5 04/05/01 6.84 0.86
-13.31539 -70.30889 2001 4 6 04/06/01 4.01 11.62
-13.31539 -70.30889 2001 4 7 04/07/01 5.18 20.83
-13.31539 -70.30889 2001 4 8 04/08/01 6.05 2.32
-13.31539 -70.30889 2001 4 9 04/09/01 7.32 5.13
-13.31539 -70.30889 2001 4 10 04/10/01 6.83 1.1
-13.31539 -70.30889 2001 4 11 04/11/01 6.8 0.71
-13.31539 -70.30889 2001 4 12 04/12/01 6 2.05
-13.31539 -70.30889 2001 4 13 Err:502 5.7 4.79
-13.31539 -70.30889 2001 4 14 Err:502 7.36 0.03
-13.31539 -70.30889 2001 4 15 Err:502 8.02 0.19
-13.31539 -70.30889 2001 4 16 Err:502 7.45 0.5
-13.31539 -70.30889 2001 4 17 Err:502 6.39 0.14
-13.31539 -70.30889 2001 4 18 Err:502 6.36 0.01
-13.31539 -70.30889 2001 4 19 Err:502 6.14 0
-13.31539 -70.30889 2001 4 20 Err:502 5.15 0
-13.31539 -70.30889 2001 4 21 Err:502 4.14 2.4
-13.31539 -70.30889 2001 4 22 Err:502 3.28 2.78
-13.31539 -70.30889 2001 4 23 Err:502 4.78 4.34
-13.31539 -70.30889 2001 4 24 Err:502 4.79 2.41
-13.31539 -70.30889 2001 4 25 Err:502 4.44 2.44
-13.31539 -70.30889 2001 4 26 Err:502 6.1 1.23
-13.31539 -70.30889 2001 4 27 Err:502 5.61 0.75
-13.31539 -70.30889 2001 4 28 Err:502 7.23 0.05
-13.31539 -70.30889 2001 4 29 Err:502 6.04 0.31
-13.31539 -70.30889 2001 4 30 Err:502 6.58 0.05
-13.31539 -70.30889 2001 5 1 05/01/01 5.73 0
-13.31539 -70.30889 2001 5 2 05/02/01 4.6 2.06
-13.31539 -70.30889 2001 5 3 05/03/01 6.78 0.44
-13.31539 -70.30889 2001 5 4 05/04/01 7.08 0.08
-13.31539 -70.30889 2001 5 5 05/05/01 4.97 0.01
-13.31539 -70.30889 2001 5 6 05/06/01 5.37 0.01
-13.31539 -70.30889 2001 5 7 05/07/01 6.36 0.32
-13.31539 -70.30889 2001 5 8 05/08/01 6.4 0
-13.31539 -70.30889 2001 5 9 05/09/01 5.53 0.04
-13.31539 -70.30889 2001 5 10 05/10/01 5.9 0.02
-13.31539 -70.30889 2001 5 11 05/11/01 5.75 1.02
-13.31539 -70.30889 2001 5 12 05/12/01 4.93 2.22
-13.31539 -70.30889 2001 5 13 Err:502 4.05 7.11
-13.31539 -70.30889 2001 5 14 Err:502 5.4 0.92
-13.31539 -70.30889 2001 5 15 Err:502 5.81 0.48
-13.31539 -70.30889 2001 5 16 Err:502 5.47 0.07
-13.31539 -70.30889 2001 5 17 Err:502 5.74 0.01
-13.31539 -70.30889 2001 5 18 Err:502 6.6 0.01
-13.31539 -70.30889 2001 5 19 Err:502 5.98 0
-13.31539 -70.30889 2001 5 20 Err:502 6.12 0
-13.31539 -70.30889 2001 5 21 Err:502 6.2 0.72
-13.31539 -70.30889 2001 5 22 Err:502 6.78 2.33
-13.31539 -70.30889 2001 5 23 Err:502 6.36 0.15
-13.31539 -70.30889 2001 5 24 Err:502 6.96 3.28
-13.31539 -70.30889 2001 5 25 Err:502 3.62 3.72
-13.31539 -70.30889 2001 5 26 Err:502 7.4 0.13
-13.31539 -70.30889 2001 5 27 Err:502 3.55 17.46
-13.31539 -70.30889 2001 5 28 Err:502 3.47 6.48
-13.31539 -70.30889 2001 5 29 Err:502 4.35 0.01
-13.31539 -70.30889 2001 5 30 Err:502 5.32 0
-13.31539 -70.30889 2001 5 31 Err:502 4.99 0.04
-13.31539 -70.30889 2001 6 1 06/01/01 6.55 0.04
-13.31539 -70.30889 2001 6 2 06/02/01 6.76 2.54
-13.31539 -70.30889 2001 6 3 06/03/01 7.23 0
-13.31539 -70.30889 2001 6 4 06/04/01 7.75 0.21
-13.31539 -70.30889 2001 6 5 06/05/01 7.47 0
-13.31539 -70.30889 2001 6 6 06/06/01 6.61 0.04
-13.31539 -70.30889 2001 6 7 06/07/01 5.36 1.69
-13.31539 -70.30889 2001 6 8 06/08/01 6.57 1.1
-13.31539 -70.30889 2001 6 9 06/09/01 7.55 0.01
-13.31539 -70.30889 2001 6 10 06/10/01 6.09 3.14
-13.31539 -70.30889 2001 6 11 06/11/01 7.12 0.62
-13.31539 -70.30889 2001 6 12 06/12/01 7.45 0
-13.31539 -70.30889 2001 6 13 Err:502 7 0.01
-13.31539 -70.30889 2001 6 14 Err:502 6.82 0
-13.31539 -70.30889 2001 6 15 Err:502 7.33 0.02
-13.31539 -70.30889 2001 6 16 Err:502 5.36 0.13
-13.31539 -70.30889 2001 6 17 Err:502 9.6 0.85
-13.31539 -70.30889 2001 6 18 Err:502 4.59 0.39
-13.31539 -70.30889 2001 6 19 Err:502 9.28 0.05
-13.31539 -70.30889 2001 6 20 Err:502 9.23 0
-13.31539 -70.30889 2001 6 21 Err:502 9.17 0
-13.31539 -70.30889 2001 6 22 Err:502 9.83 0
-13.31539 -70.30889 2001 6 23 Err:502 10.73 0
-13.31539 -70.30889 2001 6 24 Err:502 12.12 0
-13.31539 -70.30889 2001 6 25 Err:502 10.5 0
-13.31539 -70.30889 2001 6 26 Err:502 7.99 0
-13.31539 -70.30889 2001 6 27 Err:502 9.64 0
-13.31539 -70.30889 2001 6 28 Err:502 10.43 0
-13.31539 -70.30889 2001 6 29 Err:502 11.27 0
-13.31539 -70.30889 2001 6 30 Err:502 9.88 0
-13.31539 -70.30889 2001 7 1 07/01/01 10.09 0
-13.31539 -70.30889 2001 7 2 07/02/01 9.74 0
-13.31539 -70.30889 2001 7 3 07/03/01 9.74 0
-13.31539 -70.30889 2001 7 4 07/04/01 10.01 0.01
-13.31539 -70.30889 2001 7 5 07/05/01 7.14 0.45
-13.31539 -70.30889 2001 7 6 07/06/01 7.69 6.18
-13.31539 -70.30889 2001 7 7 07/07/01 5.46 5.65
-13.31539 -70.30889 2001 7 8 07/08/01 9.05 0.01
-13.31539 -70.30889 2001 7 9 07/09/01 8.53 0
-13.31539 -70.30889 2001 7 10 07/10/01 8.6 6.18
-13.31539 -70.30889 2001 7 11 07/11/01 7.76 0.1
-13.31539 -70.30889 2001 7 12 07/12/01 5.51 5.39
-13.31539 -70.30889 2001 7 13 Err:502 7.74 0
-13.31539 -70.30889 2001 7 14 Err:502 8.97 0
-13.31539 -70.30889 2001 7 15 Err:502 7.82 0
-13.31539 -70.30889 2001 7 16 Err:502 7.79 0
-13.31539 -70.30889 2001 7 17 Err:502 7.88 0.1
-13.31539 -70.30889 2001 7 18 Err:502 7.29 0.15
-13.31539 -70.30889 2001 7 19 Err:502 8.13 0.08
-13.31539 -70.30889 2001 7 20 Err:502 9.21 0.04
-13.31539 -70.30889 2001 7 21 Err:502 8.69 0
-13.31539 -70.30889 2001 7 22 Err:502 8.69 0
-13.31539 -70.30889 2001 7 23 Err:502 7.96 0.05
-13.31539 -70.30889 2001 7 24 Err:502 6.31 2.58
-13.31539 -70.30889 2001 7 25 Err:502 8.32 2.91
-13.31539 -70.30889 2001 7 26 Err:502 9.42 0.33
-13.31539 -70.30889 2001 7 27 Err:502 7.82 1.53
-13.31539 -70.30889 2001 7 28 Err:502 8.42 0.95
-13.31539 -70.30889 2001 7 29 Err:502 11.82 0
-13.31539 -70.30889 2001 7 30 Err:502 11.53 0
-13.31539 -70.30889 2001 7 31 Err:502 9.31 0
-13.31539 -70.30889 2001 8 1 08/01/01 10.87 0
-13.31539 -70.30889 2001 8 2 08/02/01 11.57 0
-13.31539 -70.30889 2001 8 3 08/03/01 11.35 0
-13.31539 -70.30889 2001 8 4 08/04/01 11.5 0
-13.31539 -70.30889 2001 8 5 08/05/01 8.43 0
-13.31539 -70.30889 2001 8 6 08/06/01 10.9 0.01
-13.31539 -70.30889 2001 8 7 08/07/01 7.4 0.72
-13.31539 -70.30889 2001 8 8 08/08/01 9.7 0.22
-13.31539 -70.30889 2001 8 9 08/09/01 10.37 0
-13.31539 -70.30889 2001 8 10 08/10/01 12.61 0
-13.31539 -70.30889 2001 8 11 08/11/01 11.87 0
-13.31539 -70.30889 2001 8 12 08/12/01 11.63 0
-13.31539 -70.30889 2001 8 13 Err:502 11.5 0
-13.31539 -70.30889 2001 8 14 Err:502 9.55 0
-13.31539 -70.30889 2001 8 15 Err:502 9.53 0.04
-13.31539 -70.30889 2001 8 16 Err:502 9.22 0.32
-13.31539 -70.30889 2001 8 17 Err:502 8.74 0.67
-13.31539 -70.30889 2001 8 18 Err:502 7.67 8.55
-13.31539 -70.30889 2001 8 19 Err:502 6.19 8.51
-13.31539 -70.30889 2001 8 20 Err:502 9.97 0.2
-13.31539 -70.30889 2001 8 21 Err:502 9.88 0.04
-13.31539 -70.30889 2001 8 22 Err:502 10.79 0
-13.31539 -70.30889 2001 8 23 Err:502 11.38 0
-13.31539 -70.30889 2001 8 24 Err:502 10.08 0.01
-13.31539 -70.30889 2001 8 25 Err:502 10.36 0
-13.31539 -70.30889 2001 8 26 Err:502 11.28 0
-13.31539 -70.30889 2001 8 27 Err:502 9.87 0.23
-13.31539 -70.30889 2001 8 28 Err:502 7.83 0.3
-13.31539 -70.30889 2001 8 29 Err:502 9.6 0.01
-13.31539 -70.30889 2001 8 30 Err:502 10.1 0.09
-13.31539 -70.30889 2001 8 31 Err:502 9.15 0.81
-13.31539 -70.30889 2001 9 1 09/01/01 10.26 0.37
-13.31539 -70.30889 2001 9 2 09/02/01 7.05 1.15
-13.31539 -70.30889 2001 9 3 09/03/01 10.38 1.41
-13.31539 -70.30889 2001 9 4 09/04/01 9.06 4.07
-13.31539 -70.30889 2001 9 5 09/05/01 10.98 0.47
-13.31539 -70.30889 2001 9 6 09/06/01 11.31 0.23
-13.31539 -70.30889 2001 9 7 09/07/01 11.08 0
-13.31539 -70.30889 2001 9 8 09/08/01 9.35 0
-13.31539 -70.30889 2001 9 9 09/09/01 7.25 0.32
-13.31539 -70.30889 2001 9 10 09/10/01 7.28 1.9
-13.31539 -70.30889 2001 9 11 09/11/01 12.66 0.14
-13.31539 -70.30889 2001 9 12 09/12/01 10.37 0
-13.31539 -70.30889 2001 9 13 Err:502 8.98 0.01
-13.31539 -70.30889 2001 9 14 Err:502 8.2 0.36
-13.31539 -70.30889 2001 9 15 Err:502 9.69 0.96
-13.31539 -70.30889 2001 9 16 Err:502 8.67 17.97
-13.31539 -70.30889 2001 9 17 Err:502 10.96 0.26
-13.31539 -70.30889 2001 9 18 Err:502 12.6 0
-13.31539 -70.30889 2001 9 19 Err:502 12.21 0
-13.31539 -70.30889 2001 9 20 Err:502 10.36 0.44
-13.31539 -70.30889 2001 9 21 Err:502 8.59 0.48
-13.31539 -70.30889 2001 9 22 Err:502 8.96 0.38
-13.31539 -70.30889 2001 9 23 Err:502 8 3.57
-13.31539 -70.30889 2001 9 24 Err:502 9.9 2.06
-13.31539 -70.30889 2001 9 25 Err:502 8.35 0.39
-13.31539 -70.30889 2001 9 26 Err:502 9.54 1.45
-13.31539 -70.30889 2001 9 27 Err:502 8.19 2.74
-13.31539 -70.30889 2001 9 28 Err:502 9.22 0.54
-13.31539 -70.30889 2001 9 29 Err:502 9.65 0.12
-13.31539 -70.30889 2001 9 30 Err:502 10.61 1.57
-13.31539 -70.30889 2001 10 1 10/01/01 10.24 1.52
-13.31539 -70.30889 2001 10 2 10/02/01 6.86 1.56
-13.31539 -70.30889 2001 10 3 10/03/01 10.64 5.38
-13.31539 -70.30889 2001 10 4 10/04/01 9.32 0.48
-13.31539 -70.30889 2001 10 5 10/05/01 9.28 1.56
-13.31539 -70.30889 2001 10 6 10/06/01 7.75 2.51
-13.31539 -70.30889 2001 10 7 10/07/01 10.42 0.65
-13.31539 -70.30889 2001 10 8 10/08/01 9.48 1.17
-13.31539 -70.30889 2001 10 9 10/09/01 5.79 3.59
-13.31539 -70.30889 2001 10 10 10/10/01 11.37 0.15
-13.31539 -70.30889 2001 10 11 10/11/01 8.33 1.4
-13.31539 -70.30889 2001 10 12 10/12/01 10.65 7.54
-13.31539 -70.30889 2001 10 13 Err:502 8.93 3.51
-13.31539 -70.30889 2001 10 14 Err:502 8.46 2.02
-13.31539 -70.30889 2001 10 15 Err:502 6.43 5.92
-13.31539 -70.30889 2001 10 16 Err:502 6.01 6.54
-13.31539 -70.30889 2001 10 17 Err:502 5.95 17.4
-13.31539 -70.30889 2001 10 18 Err:502 10.61 0
-13.31539 -70.30889 2001 10 19 Err:502 7.04 2.07
-13.31539 -70.30889 2001 10 20 Err:502 6.36 5.4
-13.31539 -70.30889 2001 10 21 Err:502 8.28 4.98
-13.31539 -70.30889 2001 10 22 Err:502 5.51 22.2
-13.31539 -70.30889 2001 10 23 Err:502 6.43 8.81
-13.31539 -70.30889 2001 10 24 Err:502 5.48 0.42
-13.31539 -70.30889 2001 10 25 Err:502 7.48 0.01
-13.31539 -70.30889 2001 10 26 Err:502 10.26 0
-13.31539 -70.30889 2001 10 27 Err:502 9.24 0.86
-13.31539 -70.30889 2001 10 28 Err:502 6 4.53
-13.31539 -70.30889 2001 10 29 Err:502 6.59 1.41
-13.31539 -70.30889 2001 10 30 Err:502 6.04 4.1
-13.31539 -70.30889 2001 10 31 Err:502 3.78 7.34
-13.31539 -70.30889 2001 11 1 11/01/01 7.11 1.37
-13.31539 -70.30889 2001 11 2 11/02/01 8.01 11.1
-13.31539 -70.30889 2001 11 3 11/03/01 5.38 8.63
-13.31539 -70.30889 2001 11 4 11/04/01 4.06 3.77
-13.31539 -70.30889 2001 11 5 11/05/01 6.7 5.25
-13.31539 -70.30889 2001 11 6 11/06/01 7.76 3.52
-13.31539 -70.30889 2001 11 7 11/07/01 6.42 3.59
-13.31539 -70.30889 2001 11 8 11/08/01 7.32 3.14
-13.31539 -70.30889 2001 11 9 11/09/01 5.53 8.91
-13.31539 -70.30889 2001 11 10 11/10/01 5.02 5.42
-13.31539 -70.30889 2001 11 11 11/11/01 6.24 6.52
-13.31539 -70.30889 2001 11 12 11/12/01 6.68 9.65
-13.31539 -70.30889 2001 11 13 Err:502 6.54 4.45
-13.31539 -70.30889 2001 11 14 Err:502 7.49 0.07
-13.31539 -70.30889 2001 11 15 Err:502 6.53 1.32
-13.31539 -70.30889 2001 11 16 Err:502 9.43 7.55
-13.31539 -70.30889 2001 11 17 Err:502 4.47 7.93
-13.31539 -70.30889 2001 11 18 Err:502 7.45 1.13
-13.31539 -70.30889 2001 11 19 Err:502 7.09 1.13
-13.31539 -70.30889 2001 11 20 Err:502 7.04 0.2
-13.31539 -70.30889 2001 11 21 Err:502 8.98 0.04
-13.31539 -70.30889 2001 11 22 Err:502 7.41 7.42
-13.31539 -70.30889 2001 11 23 Err:502 8.52 0.55
-13.31539 -70.30889 2001 11 24 Err:502 8.45 0.59
-13.31539 -70.30889 2001 11 25 Err:502 6.85 0.17
-13.31539 -70.30889 2001 11 26 Err:502 5.79 0.12
-13.31539 -70.30889 2001 11 27 Err:502 9.11 4.95
-13.31539 -70.30889 2001 11 28 Err:502 7.19 15.93
-13.31539 -70.30889 2001 11 29 Err:502 4.57 10.03
-13.31539 -70.30889 2001 11 30 Err:502 3.98 31.39
-13.31539 -70.30889 2001 12 1 12/01/01 3.38 3.18
-13.31539 -70.30889 2001 12 2 12/02/01 7.71 1.64
-13.31539 -70.30889 2001 12 3 12/03/01 7.04 0.22
-13.31539 -70.30889 2001 12 4 12/04/01 7.05 5.18
-13.31539 -70.30889 2001 12 5 12/05/01 3.82 3.24
-13.31539 -70.30889 2001 12 6 12/06/01 7.08 1.17
-13.31539 -70.30889 2001 12 7 12/07/01 8.51 3.81
-13.31539 -70.30889 2001 12 8 12/08/01 6.34 1
-13.31539 -70.30889 2001 12 9 12/09/01 3.97 3.07
-13.31539 -70.30889 2001 12 10 12/10/01 6.93 0.68
-13.31539 -70.30889 2001 12 11 12/11/01 8.55 1.24
-13.31539 -70.30889 2001 12 12 12/12/01 6.05 0.68
-13.31539 -70.30889 2001 12 13 Err:502 8.41 0.53
-13.31539 -70.30889 2001 12 14 Err:502 6.66 0.18
-13.31539 -70.30889 2001 12 15 Err:502 7.06 0.87
-13.31539 -70.30889 2001 12 16 Err:502 5.9 8.39
-13.31539 -70.30889 2001 12 17 Err:502 8.34 8.49
-13.31539 -70.30889 2001 12 18 Err:502 8.67 5.55
-13.31539 -70.30889 2001 12 19 Err:502 5.3 2.08
-13.31539 -70.30889 2001 12 20 Err:502 7.81 0.88
-13.31539 -70.30889 2001 12 21 Err:502 3.29 25.49
-13.31539 -70.30889 2001 12 22 Err:502 6.87 16.18
-13.31539 -70.30889 2001 12 23 Err:502 5.19 20.13
-13.31539 -70.30889 2001 12 24 Err:502 6.59 0.59
-13.31539 -70.30889 2001 12 25 Err:502 7.41 2.63
-13.31539 -70.30889 2001 12 26 Err:502 8.16 1.56
-13.31539 -70.30889 2001 12 27 Err:502 6.35 1.7
-13.31539 -70.30889 2001 12 28 Err:502 5.06 1.5
-13.31539 -70.30889 2001 12 29 Err:502 6.06 10.5
-13.31539 -70.30889 2001 12 30 Err:502 3.8 17.35
-13.31539 -70.30889 2001 12 31 Err:502 3.88 7.23
-13.31539 -70.30889 2002 1 1 01/01/02 3.63 25.15
-13.31539 -70.30889 2002 1 2 01/02/02 6.39 1.83
-13.31539 -70.30889 2002 1 3 01/03/02 4.6 0.91
-13.31539 -70.30889 2002 1 4 01/04/02 4.29 0.9
-13.31539 -70.30889 2002 1 5 01/05/02 5.13 0.15
-13.31539 -70.30889 2002 1 6 01/06/02 4.69 2.36
-13.31539 -70.30889 2002 1 7 01/07/02 7.1 0.16
-13.31539 -70.30889 2002 1 8 01/08/02 3.6 1.98
-13.31539 -70.30889 2002 1 9 01/09/02 4.84 2.99
-13.31539 -70.30889 2002 1 10 01/10/02 5.94 14.75
-13.31539 -70.30889 2002 1 11 01/11/02 8.31 0.37
-13.31539 -70.30889 2002 1 12 01/12/02 8.14 0
-13.31539 -70.30889 2002 1 13 Err:502 5.09 0.01
-13.31539 -70.30889 2002 1 14 Err:502 6.59 1.35
-13.31539 -70.30889 2002 1 15 Err:502 6.16 8.12
-13.31539 -70.30889 2002 1 16 Err:502 2.93 5.32
-13.31539 -70.30889 2002 1 17 Err:502 4.18 11.3
-13.31539 -70.30889 2002 1 18 Err:502 6.95 6.94
-13.31539 -70.30889 2002 1 19 Err:502 8.74 1.43
-13.31539 -70.30889 2002 1 20 Err:502 7.34 0.3
-13.31539 -70.30889 2002 1 21 Err:502 6.35 1.21
-13.31539 -70.30889 2002 1 22 Err:502 6.5 2.82
-13.31539 -70.30889 2002 1 23 Err:502 7.57 3.5
-13.31539 -70.30889 2002 1 24 Err:502 7.56 1.77
-13.31539 -70.30889 2002 1 25 Err:502 4.96 31.56
-13.31539 -70.30889 2002 1 26 Err:502 6.94 4.04
-13.31539 -70.30889 2002 1 27 Err:502 6.15 3.69
-13.31539 -70.30889 2002 1 28 Err:502 5.11 3.3
-13.31539 -70.30889 2002 1 29 Err:502 5.56 0.57
-13.31539 -70.30889 2002 1 30 Err:502 6.21 0.41
-13.31539 -70.30889 2002 1 31 Err:502 5.25 4.26
-13.31539 -70.30889 2002 2 1 02/01/02 6.51 9.31
-13.31539 -70.30889 2002 2 2 02/02/02 5.99 6.03
-13.31539 -70.30889 2002 2 3 02/03/02 7.39 30.93
-13.31539 -70.30889 2002 2 4 02/04/02 5.24 30.66
-13.31539 -70.30889 2002 2 5 02/05/02 5.35 7.06
-13.31539 -70.30889 2002 2 6 02/06/02 6.49 15.57
-13.31539 -70.30889 2002 2 7 02/07/02 2.87 9.02
-13.31539 -70.30889 2002 2 8 02/08/02 3.91 12.04
-13.31539 -70.30889 2002 2 9 02/09/02 4.03 8.73
-13.31539 -70.30889 2002 2 10 02/10/02 5.61 7.81
-13.31539 -70.30889 2002 2 11 02/11/02 6.69 0.67
-13.31539 -70.30889 2002 2 12 02/12/02 4.97 1.85
-13.31539 -70.30889 2002 2 13 Err:502 4.82 17.34
-13.31539 -70.30889 2002 2 14 Err:502 5.23 14.64
-13.31539 -70.30889 2002 2 15 Err:502 5.79 15.18
-13.31539 -70.30889 2002 2 16 Err:502 3.11 10.74
-13.31539 -70.30889 2002 2 17 Err:502 5.49 29.22
-13.31539 -70.30889 2002 2 18 Err:502 6.77 2.02
-13.31539 -70.30889 2002 2 19 Err:502 4.58 0.17
-13.31539 -70.30889 2002 2 20 Err:502 3.63 3.61
-13.31539 -70.30889 2002 2 21 Err:502 4.96 1.94
-13.31539 -70.30889 2002 2 22 Err:502 4.92 1.42
-13.31539 -70.30889 2002 2 23 Err:502 3.67 4.03
-13.31539 -70.30889 2002 2 24 Err:502 4.94 12.47
-13.31539 -70.30889 2002 2 25 Err:502 6.61 1.65
-13.31539 -70.30889 2002 2 26 Err:502 7.39 0.18
-13.31539 -70.30889 2002 2 27 Err:502 4.24 2.25
-13.31539 -70.30889 2002 2 28 Err:502 3.72 18.28
-13.31539 -70.30889 2002 3 1 03/01/02 5.53 6.03
-13.31539 -70.30889 2002 3 2 03/02/02 5.93 8.32
-13.31539 -70.30889 2002 3 3 03/03/02 6.89 1.32
-13.31539 -70.30889 2002 3 4 03/04/02 6.23 1.95
-13.31539 -70.30889 2002 3 5 03/05/02 5.05 6.59
-13.31539 -70.30889 2002 3 6 03/06/02 5.62 4.72
-13.31539 -70.30889 2002 3 7 03/07/02 4.59 8.53
-13.31539 -70.30889 2002 3 8 03/08/02 6.27 6.33
-13.31539 -70.30889 2002 3 9 03/09/02 5.9 3.13
-13.31539 -70.30889 2002 3 10 03/10/02 6.4 2.89
-13.31539 -70.30889 2002 3 11 03/11/02 3.84 1.9
-13.31539 -70.30889 2002 3 12 03/12/02 5.14 7.06
-13.31539 -70.30889 2002 3 13 Err:502 5.89 2.13
-13.31539 -70.30889 2002 3 14 Err:502 6.65 1.33
-13.31539 -70.30889 2002 3 15 Err:502 5.08 1.84
-13.31539 -70.30889 2002 3 16 Err:502 3.74 6.16
-13.31539 -70.30889 2002 3 17 Err:502 4.77 7.81
-13.31539 -70.30889 2002 3 18 Err:502 5.22 5.77
-13.31539 -70.30889 2002 3 19 Err:502 5.54 1.94
-13.31539 -70.30889 2002 3 20 Err:502 4.6 2.32
-13.31539 -70.30889 2002 3 21 Err:502 6.27 2.63
-13.31539 -70.30889 2002 3 22 Err:502 6.42 0.68
-13.31539 -70.30889 2002 3 23 Err:502 7.47 2.16
-13.31539 -70.30889 2002 3 24 Err:502 4.89 0.01
-13.31539 -70.30889 2002 3 25 Err:502 5.56 5.15
-13.31539 -70.30889 2002 3 26 Err:502 6.53 0.37
-13.31539 -70.30889 2002 3 27 Err:502 6.3 3.36
-13.31539 -70.30889 2002 3 28 Err:502 6.49 1.37
-13.31539 -70.30889 2002 3 29 Err:502 5.04 10.57
-13.31539 -70.30889 2002 3 30 Err:502 5.71 4.75
-13.31539 -70.30889 2002 3 31 Err:502 5.57 0.13
-13.31539 -70.30889 2002 4 1 04/01/02 6.7 3.02
-13.31539 -70.30889 2002 4 2 04/02/02 6.6 0.07
-13.31539 -70.30889 2002 4 3 04/03/02 7.56 0
-13.31539 -70.30889 2002 4 4 04/04/02 7.38 1.65
-13.31539 -70.30889 2002 4 5 04/05/02 6.89 3.57
-13.31539 -70.30889 2002 4 6 04/06/02 6.35 0.02
-13.31539 -70.30889 2002 4 7 04/07/02 6.18 0
-13.31539 -70.30889 2002 4 8 04/08/02 5.91 4.62
-13.31539 -70.30889 2002 4 9 04/09/02 6.52 2.8
-13.31539 -70.30889 2002 4 10 04/10/02 5.72 0.43
-13.31539 -70.30889 2002 4 11 04/11/02 3.17 8.6
-13.31539 -70.30889 2002 4 12 04/12/02 4.68 7.09
-13.31539 -70.30889 2002 4 13 Err:502 4.77 2.56
-13.31539 -70.30889 2002 4 14 Err:502 6.4 1.41
-13.31539 -70.30889 2002 4 15 Err:502 6.01 1.04
-13.31539 -70.30889 2002 4 16 Err:502 7.46 0.01
-13.31539 -70.30889 2002 4 17 Err:502 7.45 0.21
-13.31539 -70.30889 2002 4 18 Err:502 7.65 2.75
-13.31539 -70.30889 2002 4 19 Err:502 5.91 0.41
-13.31539 -70.30889 2002 4 20 Err:502 8.22 0.5
-13.31539 -70.30889 2002 4 21 Err:502 6.1 12.92
-13.31539 -70.30889 2002 4 22 Err:502 5.85 3.88
-13.31539 -70.30889 2002 4 23 Err:502 3.77 1.37
-13.31539 -70.30889 2002 4 24 Err:502 4.7 1.01
-13.31539 -70.30889 2002 4 25 Err:502 4.37 2.29
-13.31539 -70.30889 2002 4 26 Err:502 4.25 2.52
-13.31539 -70.30889 2002 4 27 Err:502 5 19.28
-13.31539 -70.30889 2002 4 28 Err:502 7.34 0.25
-13.31539 -70.30889 2002 4 29 Err:502 6.56 0.02
-13.31539 -70.30889 2002 4 30 Err:502 6.48 0.59
-13.31539 -70.30889 2002 5 1 05/01/02 6.39 0.34
-13.31539 -70.30889 2002 5 2 05/02/02 7.49 0.01
-13.31539 -70.30889 2002 5 3 05/03/02 7.8 3.37
-13.31539 -70.30889 2002 5 4 05/04/02 7.21 3.02
-13.31539 -70.30889 2002 5 5 05/05/02 7.21 2.47
-13.31539 -70.30889 2002 5 6 05/06/02 7.58 0.37
-13.31539 -70.30889 2002 5 7 05/07/02 7.76 0
-13.31539 -70.30889 2002 5 8 05/08/02 7.04 0.67
-13.31539 -70.30889 2002 5 9 05/09/02 8.48 0.15
-13.31539 -70.30889 2002 5 10 05/10/02 8.49 0.71
-13.31539 -70.30889 2002 5 11 05/11/02 9.05 0.3
-13.31539 -70.30889 2002 5 12 05/12/02 8.74 0
-13.31539 -70.30889 2002 5 13 Err:502 5.86 0.51
-13.31539 -70.30889 2002 5 14 Err:502 7.54 0.59
-13.31539 -70.30889 2002 5 15 Err:502 8.08 0.18
-13.31539 -70.30889 2002 5 16 Err:502 7.77 0.01
-13.31539 -70.30889 2002 5 17 Err:502 6.39 0
-13.31539 -70.30889 2002 5 18 Err:502 5.68 4.57
-13.31539 -70.30889 2002 5 19 Err:502 6.74 0.08
-13.31539 -70.30889 2002 5 20 Err:502 8.24 0.6
-13.31539 -70.30889 2002 5 21 Err:502 6.65 2.03
-13.31539 -70.30889 2002 5 22 Err:502 5.04 0.82
-13.31539 -70.30889 2002 5 23 Err:502 7.51 0.42
-13.31539 -70.30889 2002 5 24 Err:502 8.55 0.17
-13.31539 -70.30889 2002 5 25 Err:502 7.62 0
-13.31539 -70.30889 2002 5 26 Err:502 8.04 2.67
-13.31539 -70.30889 2002 5 27 Err:502 6.41 12.36
-13.31539 -70.30889 2002 5 28 Err:502 7.35 10.18
-13.31539 -70.30889 2002 5 29 Err:502 5.69 3.89
-13.31539 -70.30889 2002 5 30 Err:502 6.79 0.58
-13.31539 -70.30889 2002 5 31 Err:502 6.67 1.35
-13.31539 -70.30889 2002 6 1 06/01/02 6.74 0.04
-13.31539 -70.30889 2002 6 2 06/02/02 8.49 0.41
-13.31539 -70.30889 2002 6 3 06/03/02 8.1 0.18
-13.31539 -70.30889 2002 6 4 06/04/02 6.71 1.47
-13.31539 -70.30889 2002 6 5 06/05/02 7.74 0.45
-13.31539 -70.30889 2002 6 6 06/06/02 7.39 0.25
-13.31539 -70.30889 2002 6 7 06/07/02 7.79 0.02
-13.31539 -70.30889 2002 6 8 06/08/02 7.36 2.49
-13.31539 -70.30889 2002 6 9 06/09/02 3.66 13.79
-13.31539 -70.30889 2002 6 10 06/10/02 5.63 2.62
-13.31539 -70.30889 2002 6 11 06/11/02 6.36 2.29
-13.31539 -70.30889 2002 6 12 06/12/02 6.54 0.54
-13.31539 -70.30889 2002 6 13 Err:502 7.18 0.42
-13.31539 -70.30889 2002 6 14 Err:502 4.51 1
-13.31539 -70.30889 2002 6 15 Err:502 7.6 0.08
-13.31539 -70.30889 2002 6 16 Err:502 8.65 0.05
-13.31539 -70.30889 2002 6 17 Err:502 9.6 0.16
-13.31539 -70.30889 2002 6 18 Err:502 8.66 0.51
-13.31539 -70.30889 2002 6 19 Err:502 6.53 4.27
-13.31539 -70.30889 2002 6 20 Err:502 7.9 0
-13.31539 -70.30889 2002 6 21 Err:502 9.4 0
-13.31539 -70.30889 2002 6 22 Err:502 8.55 0
-13.31539 -70.30889 2002 6 23 Err:502 8.07 0
-13.31539 -70.30889 2002 6 24 Err:502 9.49 0.12
-13.31539 -70.30889 2002 6 25 Err:502 10.01 0.09
-13.31539 -70.30889 2002 6 26 Err:502 10.66 0
-13.31539 -70.30889 2002 6 27 Err:502 10.43 0
-13.31539 -70.30889 2002 6 28 Err:502 10.15 0
-13.31539 -70.30889 2002 6 29 Err:502 9.88 0.27
-13.31539 -70.30889 2002 6 30 Err:502 11.06 0.07
-13.31539 -70.30889 2002 7 1 07/01/02 8.51 0
-13.31539 -70.30889 2002 7 2 07/02/02 9.43 0.04
-13.31539 -70.30889 2002 7 3 07/03/02 9.13 1.72
-13.31539 -70.30889 2002 7 4 07/04/02 8.32 2.26
-13.31539 -70.30889 2002 7 5 07/05/02 5.11 2.46
-13.31539 -70.30889 2002 7 6 07/06/02 9.4 0.95
-13.31539 -70.30889 2002 7 7 07/07/02 7.01 0.51
-13.31539 -70.30889 2002 7 8 07/08/02 5.33 0.06
-13.31539 -70.30889 2002 7 9 07/09/02 9.63 1.3
-13.31539 -70.30889 2002 7 10 07/10/02 7.8 0.48
-13.31539 -70.30889 2002 7 11 07/11/02 7.51 4.31
-13.31539 -70.30889 2002 7 12 07/12/02 9.65 0.13
-13.31539 -70.30889 2002 7 13 Err:502 8.21 0.1
-13.31539 -70.30889 2002 7 14 Err:502 9.83 0
-13.31539 -70.30889 2002 7 15 Err:502 9.65 0
-13.31539 -70.30889 2002 7 16 Err:502 8.37 1.14
-13.31539 -70.30889 2002 7 17 Err:502 10.19 0.59
-13.31539 -70.30889 2002 7 18 Err:502 10.36 0.75
-13.31539 -70.30889 2002 7 19 Err:502 6.85 0
-13.31539 -70.30889 2002 7 20 Err:502 11.55 0
-13.31539 -70.30889 2002 7 21 Err:502 12.45 0
-13.31539 -70.30889 2002 7 22 Err:502 11.62 0.01
-13.31539 -70.30889 2002 7 23 Err:502 9.13 0.01
-13.31539 -70.30889 2002 7 24 Err:502 9.63 0
-13.31539 -70.30889 2002 7 25 Err:502 6.77 1.08
-13.31539 -70.30889 2002 7 26 Err:502 10.61 2.05
-13.31539 -70.30889 2002 7 27 Err:502 7.43 0.92
-13.31539 -70.30889 2002 7 28 Err:502 3.22 1.14
-13.31539 -70.30889 2002 7 29 Err:502 11.55 0
-13.31539 -70.30889 2002 7 30 Err:502 11.1 0
-13.31539 -70.30889 2002 7 31 Err:502 11.61 0
-13.31539 -70.30889 2002 8 1 08/01/02 9.78 0.03
-13.31539 -70.30889 2002 8 2 08/02/02 8.39 1.59
-13.31539 -70.30889 2002 8 3 08/03/02 8.41 0
-13.31539 -70.30889 2002 8 4 08/04/02 9.48 0
-13.31539 -70.30889 2002 8 5 08/05/02 9.81 0
-13.31539 -70.30889 2002 8 6 08/06/02 8.66 0.15
-13.31539 -70.30889 2002 8 7 08/07/02 11.14 0.17
-13.31539 -70.30889 2002 8 8 08/08/02 10.54 0
-13.31539 -70.30889 2002 8 9 08/09/02 8.52 0
-13.31539 -70.30889 2002 8 10 08/10/02 9.12 0
-13.31539 -70.30889 2002 8 11 08/11/02 11.61 0
-13.31539 -70.30889 2002 8 12 08/12/02 12.3 0
-13.31539 -70.30889 2002 8 13 Err:502 11.29 0.11
-13.31539 -70.30889 2002 8 14 Err:502 11.01 0.18
-13.31539 -70.30889 2002 8 15 Err:502 9.92 0.62
-13.31539 -70.30889 2002 8 16 Err:502 10.05 0
-13.31539 -70.30889 2002 8 17 Err:502 8.19 1.02
-13.31539 -70.30889 2002 8 18 Err:502 10.08 2.96
-13.31539 -70.30889 2002 8 19 Err:502 10.42 0.27
-13.31539 -70.30889 2002 8 20 Err:502 11.13 0.02
-13.31539 -70.30889 2002 8 21 Err:502 10.07 0.17
-13.31539 -70.30889 2002 8 22 Err:502 8.5 1.2
-13.31539 -70.30889 2002 8 23 Err:502 11.75 0.08
-13.31539 -70.30889 2002 8 24 Err:502 10.25 0.07
-13.31539 -70.30889 2002 8 25 Err:502 11.59 0.26
-13.31539 -70.30889 2002 8 26 Err:502 10.51 0.45
-13.31539 -70.30889 2002 8 27 Err:502 10.58 0.19
-13.31539 -70.30889 2002 8 28 Err:502 9.47 0.03
-13.31539 -70.30889 2002 8 29 Err:502 7.93 0.52
-13.31539 -70.30889 2002 8 30 Err:502 8.52 1.9
-13.31539 -70.30889 2002 8 31 Err:502 9.84 0.03
-13.31539 -70.30889 2002 9 1 09/01/02 6.95 0.63
-13.31539 -70.30889 2002 9 2 09/02/02 11.31 0.27
-13.31539 -70.30889 2002 9 3 09/03/02 12.47 0.04
-13.31539 -70.30889 2002 9 4 09/04/02 12.33 0
-13.31539 -70.30889 2002 9 5 09/05/02 11.59 0
-13.31539 -70.30889 2002 9 6 09/06/02 10.79 0.02
-13.31539 -70.30889 2002 9 7 09/07/02 9.96 0.15
-13.31539 -70.30889 2002 9 8 09/08/02 7.01 0.29
-13.31539 -70.30889 2002 9 9 09/09/02 8.82 0.57
-13.31539 -70.30889 2002 9 10 09/10/02 11.38 2.14
-13.31539 -70.30889 2002 9 11 09/11/02 10.35 0.15
-13.31539 -70.30889 2002 9 12 09/12/02 7.61 0.73
-13.31539 -70.30889 2002 9 13 Err:502 11.24 1.42
-13.31539 -70.30889 2002 9 14 Err:502 8.41 0
-13.31539 -70.30889 2002 9 15 Err:502 11.27 0
-13.31539 -70.30889 2002 9 16 Err:502 7.91 0.98
-13.31539 -70.30889 2002 9 17 Err:502 11.14 1.17
-13.31539 -70.30889 2002 9 18 Err:502 7.75 0.73
-13.31539 -70.30889 2002 9 19 Err:502 10.75 0.19
-13.31539 -70.30889 2002 9 20 Err:502 8.37 0.57
-13.31539 -70.30889 2002 9 21 Err:502 6.88 3.52
-13.31539 -70.30889 2002 9 22 Err:502 11.22 0.03
-13.31539 -70.30889 2002 9 23 Err:502 9.83 4.58
-13.31539 -70.30889 2002 9 24 Err:502 8.26 5.25
-13.31539 -70.30889 2002 9 25 Err:502 11.04 0.24
-13.31539 -70.30889 2002 9 26 Err:502 9.96 0
-13.31539 -70.30889 2002 9 27 Err:502 10.53 0
-13.31539 -70.30889 2002 9 28 Err:502 11.11 0.08
-13.31539 -70.30889 2002 9 29 Err:502 10.98 0.32
-13.31539 -70.30889 2002 9 30 Err:502 8.55 0.24
-13.31539 -70.30889 2002 10 1 10/01/02 11.31 4.59
-13.31539 -70.30889 2002 10 2 10/02/02 12.02 1.44
-13.31539 -70.30889 2002 10 3 10/03/02 10.9 0.59
-13.31539 -70.30889 2002 10 4 10/04/02 10.77 1.26
-13.31539 -70.30889 2002 10 5 10/05/02 11 0.04
-13.31539 -70.30889 2002 10 6 10/06/02 11.54 0.02
-13.31539 -70.30889 2002 10 7 10/07/02 10.15 1.91
-13.31539 -70.30889 2002 10 8 10/08/02 10.52 6.27
-13.31539 -70.30889 2002 10 9 10/09/02 8.7 0.97
-13.31539 -70.30889 2002 10 10 10/10/02 9.94 5.18
-13.31539 -70.30889 2002 10 11 10/11/02 10.95 1.72
-13.31539 -70.30889 2002 10 12 10/12/02 8.63 0.03
-13.31539 -70.30889 2002 10 13 Err:502 5.44 0.33
-13.31539 -70.30889 2002 10 14 Err:502 9.32 0.35
-13.31539 -70.30889 2002 10 15 Err:502 7.31 3.71
-13.31539 -70.30889 2002 10 16 Err:502 10.88 6.64
-13.31539 -70.30889 2002 10 17 Err:502 11.62 5.35
-13.31539 -70.30889 2002 10 18 Err:502 7.93 7.17
-13.31539 -70.30889 2002 10 19 Err:502 9.85 5.54
-13.31539 -70.30889 2002 10 20 Err:502 9.81 0.04
-13.31539 -70.30889 2002 10 21 Err:502 7.65 0.65
-13.31539 -70.30889 2002 10 22 Err:502 9.24 9.06
-13.31539 -70.30889 2002 10 23 Err:502 11.38 1.66
-13.31539 -70.30889 2002 10 24 Err:502 9.31 1.05
-13.31539 -70.30889 2002 10 25 Err:502 8.05 1.14
-13.31539 -70.30889 2002 10 26 Err:502 8.13 0.57
-13.31539 -70.30889 2002 10 27 Err:502 8.9 0.53
-13.31539 -70.30889 2002 10 28 Err:502 6.81 0.41
-13.31539 -70.30889 2002 10 29 Err:502 7.22 0.98
-13.31539 -70.30889 2002 10 30 Err:502 8.62 22.88
-13.31539 -70.30889 2002 10 31 Err:502 5.81 33.81
-13.31539 -70.30889 2002 11 1 11/01/02 7.48 3.73
-13.31539 -70.30889 2002 11 2 11/02/02 7.28 2.77
-13.31539 -70.30889 2002 11 3 11/03/02 6.51 0.2
-13.31539 -70.30889 2002 11 4 11/04/02 5.5 7.95
-13.31539 -70.30889 2002 11 5 11/05/02 5.23 15.19
-13.31539 -70.30889 2002 11 6 11/06/02 7.71 0.01
-13.31539 -70.30889 2002 11 7 11/07/02 11.31 0
-13.31539 -70.30889 2002 11 8 11/08/02 10.16 0
-13.31539 -70.30889 2002 11 9 11/09/02 9.67 0.23
-13.31539 -70.30889 2002 11 10 11/10/02 5.91 4.27
-13.31539 -70.30889 2002 11 11 11/11/02 4.68 5.16
-13.31539 -70.30889 2002 11 12 11/12/02 3.22 2.34
-13.31539 -70.30889 2002 11 13 Err:502 8.54 0.63
-13.31539 -70.30889 2002 11 14 Err:502 8.09 4.01
-13.31539 -70.30889 2002 11 15 Err:502 7.42 0.86
-13.31539 -70.30889 2002 11 16 Err:502 9.27 2
-13.31539 -70.30889 2002 11 17 Err:502 10.12 1.16
-13.31539 -70.30889 2002 11 18 Err:502 8.99 0.33
-13.31539 -70.30889 2002 11 19 Err:502 8.99 1.06
-13.31539 -70.30889 2002 11 20 Err:502 9.79 0.75
-13.31539 -70.30889 2002 11 21 Err:502 10.08 1.87
-13.31539 -70.30889 2002 11 22 Err:502 11.64 0.89
-13.31539 -70.30889 2002 11 23 Err:502 10.37 1
-13.31539 -70.30889 2002 11 24 Err:502 9.49 6.29
-13.31539 -70.30889 2002 11 25 Err:502 9.11 3.56
-13.31539 -70.30889 2002 11 26 Err:502 9 8.12
-13.31539 -70.30889 2002 11 27 Err:502 7.6 3.5
-13.31539 -70.30889 2002 11 28 Err:502 9.03 8.59
-13.31539 -70.30889 2002 11 29 Err:502 8.44 7.69
-13.31539 -70.30889 2002 11 30 Err:502 8.92 2.72
-13.31539 -70.30889 2002 12 1 12/01/02 9.48 4.23
-13.31539 -70.30889 2002 12 2 12/02/02 8.2 3.18
-13.31539 -70.30889 2002 12 3 12/03/02 6.09 5.34
-13.31539 -70.30889 2002 12 4 12/04/02 8.18 14.95
-13.31539 -70.30889 2002 12 5 12/05/02 7.91 21.96
-13.31539 -70.30889 2002 12 6 12/06/02 3.93 14.71
-13.31539 -70.30889 2002 12 7 12/07/02 8.06 5.65
-13.31539 -70.30889 2002 12 8 12/08/02 3.75 3.23
-13.31539 -70.30889 2002 12 9 12/09/02 5.42 6.76
-13.31539 -70.30889 2002 12 10 12/10/02 5.68 1.21
-13.31539 -70.30889 2002 12 11 12/11/02 5.32 4.25
-13.31539 -70.30889 2002 12 12 12/12/02 5.55 0.35
-13.31539 -70.30889 2002 12 13 Err:502 7.28 0.07
-13.31539 -70.30889 2002 12 14 Err:502 4.67 2.03
-13.31539 -70.30889 2002 12 15 Err:502 6.36 27.75
-13.31539 -70.30889 2002 12 16 Err:502 4.92 19.02
-13.31539 -70.30889 2002 12 17 Err:502 4.05 2.14
-13.31539 -70.30889 2002 12 18 Err:502 6 2.92
-13.31539 -70.30889 2002 12 19 Err:502 6.8 3.37
-13.31539 -70.30889 2002 12 20 Err:502 5.5 13.13
-13.31539 -70.30889 2002 12 21 Err:502 3.6 31.78
-13.31539 -70.30889 2002 12 22 Err:502 4.71 11.52
-13.31539 -70.30889 2002 12 23 Err:502 5.8 0.15
-13.31539 -70.30889 2002 12 24 Err:502 4.47 18.4
-13.31539 -70.30889 2002 12 25 Err:502 3.03 17.82
-13.31539 -70.30889 2002 12 26 Err:502 7.35 9.12
-13.31539 -70.30889 2002 12 27 Err:502 6.33 1.32
-13.31539 -70.30889 2002 12 28 Err:502 5.59 1.53
-13.31539 -70.30889 2002 12 29 Err:502 5.57 1.46
-13.31539 -70.30889 2002 12 30 Err:502 4.68 10.25
-13.31539 -70.30889 2002 12 31 Err:502 5.03 1.42
-13.31539 -70.30889 2003 1 1 01/01/03 5.12 2.47
-13.31539 -70.30889 2003 1 2 01/02/03 4.54 2
-13.31539 -70.30889 2003 1 3 01/03/03 4.01 0.19
-13.31539 -70.30889 2003 1 4 01/04/03 6.35 0.03
-13.31539 -70.30889 2003 1 5 01/05/03 5.91 1.77
-13.31539 -70.30889 2003 1 6 01/06/03 6.23 6.64
-13.31539 -70.30889 2003 1 7 01/07/03 5.9 1.17
-13.31539 -70.30889 2003 1 8 01/08/03 6.03 0.36
-13.31539 -70.30889 2003 1 9 01/09/03 3.86 1.48
-13.31539 -70.30889 2003 1 10 01/10/03 4.57 4.44
-13.31539 -70.30889 2003 1 11 01/11/03 4.79 4.04
-13.31539 -70.30889 2003 1 12 01/12/03 4.59 1.86
-13.31539 -70.30889 2003 1 13 Err:502 2.83 6.36
-13.31539 -70.30889 2003 1 14 Err:502 5.29 6.56
-13.31539 -70.30889 2003 1 15 Err:502 4.47 1.58
-13.31539 -70.30889 2003 1 16 Err:502 4.71 5.72
-13.31539 -70.30889 2003 1 17 Err:502 5.12 2.66
-13.31539 -70.30889 2003 1 18 Err:502 4.65 5.08
-13.31539 -70.30889 2003 1 19 Err:502 2.88 9.71
-13.31539 -70.30889 2003 1 20 Err:502 4.29 2.93
-13.31539 -70.30889 2003 1 21 Err:502 7.17 1.59
-13.31539 -70.30889 2003 1 22 Err:502 5.69 0.89
-13.31539 -70.30889 2003 1 23 Err:502 5.48 2.81
-13.31539 -70.30889 2003 1 24 Err:502 4.13 13.72
-13.31539 -70.30889 2003 1 25 Err:502 5.87 3.67
-13.31539 -70.30889 2003 1 26 Err:502 7.27 0.71
-13.31539 -70.30889 2003 1 27 Err:502 4.28 3.7
-13.31539 -70.30889 2003 1 28 Err:502 4.07 13.03
-13.31539 -70.30889 2003 1 29 Err:502 8.34 5.22
-13.31539 -70.30889 2003 1 30 Err:502 5.41 10.37
-13.31539 -70.30889 2003 1 31 Err:502 8.19 0.29
-13.31539 -70.30889 2003 2 1 02/01/03 7.85 0.05
-13.31539 -70.30889 2003 2 2 02/02/03 4.89 12.07
-13.31539 -70.30889 2003 2 3 02/03/03 6.21 12.03
-13.31539 -70.30889 2003 2 4 02/04/03 4.62 2.8
-13.31539 -70.30889 2003 2 5 02/05/03 4.57 0.68
-13.31539 -70.30889 2003 2 6 02/06/03 3.29 4.61
-13.31539 -70.30889 2003 2 7 02/07/03 6.66 6.3
-13.31539 -70.30889 2003 2 8 02/08/03 3.59 11.83
-13.31539 -70.30889 2003 2 9 02/09/03 3.15 3.55
-13.31539 -70.30889 2003 2 10 02/10/03 6.61 0.3
-13.31539 -70.30889 2003 2 11 02/11/03 7.14 0.22
-13.31539 -70.30889 2003 2 12 02/12/03 4.96 1.01
-13.31539 -70.30889 2003 2 13 Err:502 4.5 2.05
-13.31539 -70.30889 2003 2 14 Err:502 2.71 5.87
-13.31539 -70.30889 2003 2 15 Err:502 7.41 0.7
-13.31539 -70.30889 2003 2 16 Err:502 6.78 4.24
-13.31539 -70.30889 2003 2 17 Err:502 4.81 3.69
-13.31539 -70.30889 2003 2 18 Err:502 4.61 4.04
-13.31539 -70.30889 2003 2 19 Err:502 5.5 0.88
-13.31539 -70.30889 2003 2 20 Err:502 7.04 11.97
-13.31539 -70.30889 2003 2 21 Err:502 5.26 15.56
-13.31539 -70.30889 2003 2 22 Err:502 5.18 11.05
-13.31539 -70.30889 2003 2 23 Err:502 7.31 1.52
-13.31539 -70.30889 2003 2 24 Err:502 7.5 3.17
-13.31539 -70.30889 2003 2 25 Err:502 7.33 0.69
-13.31539 -70.30889 2003 2 26 Err:502 7.58 9.48
-13.31539 -70.30889 2003 2 27 Err:502 5.94 17.32
-13.31539 -70.30889 2003 2 28 Err:502 6.53 9.5
-13.31539 -70.30889 2003 3 1 03/01/03 6.49 12.37
-13.31539 -70.30889 2003 3 2 03/02/03 3.21 4.2
-13.31539 -70.30889 2003 3 3 03/03/03 5.82 15.53
-13.31539 -70.30889 2003 3 4 03/04/03 3.49 13.74
-13.31539 -70.30889 2003 3 5 03/05/03 6.07 1.42
-13.31539 -70.30889 2003 3 6 03/06/03 6.85 0.48
-13.31539 -70.30889 2003 3 7 03/07/03 5.69 1.26
-13.31539 -70.30889 2003 3 8 03/08/03 3.24 0.63
-13.31539 -70.30889 2003 3 9 03/09/03 7.06 0.06
-13.31539 -70.30889 2003 3 10 03/10/03 4.99 11.28
-13.31539 -70.30889 2003 3 11 03/11/03 4.28 1.59
-13.31539 -70.30889 2003 3 12 03/12/03 4.14 17.49
-13.31539 -70.30889 2003 3 13 Err:502 5.72 1.8
-13.31539 -70.30889 2003 3 14 Err:502 5.58 7.09
-13.31539 -70.30889 2003 3 15 Err:502 3.74 12.51
-13.31539 -70.30889 2003 3 16 Err:502 3.34 3.37
-13.31539 -70.30889 2003 3 17 Err:502 5.48 8.46
-13.31539 -70.30889 2003 3 18 Err:502 5.2 4.64
-13.31539 -70.30889 2003 3 19 Err:502 4.03 9.11
-13.31539 -70.30889 2003 3 20 Err:502 6.16 5.47
-13.31539 -70.30889 2003 3 21 Err:502 2.74 8.16
-13.31539 -70.30889 2003 3 22 Err:502 6.19 0.37
-13.31539 -70.30889 2003 3 23 Err:502 6.8 0.02
-13.31539 -70.30889 2003 3 24 Err:502 6.62 5.42
-13.31539 -70.30889 2003 3 25 Err:502 8.72 0.68
-13.31539 -70.30889 2003 3 26 Err:502 8.25 0.24
-13.31539 -70.30889 2003 3 27 Err:502 5.27 1.65
-13.31539 -70.30889 2003 3 28 Err:502 4.58 7.03
-13.31539 -70.30889 2003 3 29 Err:502 6.35 0.94
-13.31539 -70.30889 2003 3 30 Err:502 5.48 0.25
-13.31539 -70.30889 2003 3 31 Err:502 3.25 15.83
-13.31539 -70.30889 2003 4 1 04/01/03 4.23 17.32
-13.31539 -70.30889 2003 4 2 04/02/03 4.94 7.23
-13.31539 -70.30889 2003 4 3 04/03/03 6.68 1.84
-13.31539 -70.30889 2003 4 4 04/04/03 5.49 7.96
-13.31539 -70.30889 2003 4 5 04/05/03 4.94 40.23
-13.31539 -70.30889 2003 4 6 04/06/03 3.42 14.63
-13.31539 -70.30889 2003 4 7 04/07/03 6.22 0.18
-13.31539 -70.30889 2003 4 8 04/08/03 5.33 0.02
-13.31539 -70.30889 2003 4 9 04/09/03 5.07 0.42
-13.31539 -70.30889 2003 4 10 04/10/03 5.47 5.98
-13.31539 -70.30889 2003 4 11 04/11/03 4.16 0.71
-13.31539 -70.30889 2003 4 12 04/12/03 6.07 0.26
-13.31539 -70.30889 2003 4 13 Err:502 6.29 0.42
-13.31539 -70.30889 2003 4 14 Err:502 6.47 0.11
-13.31539 -70.30889 2003 4 15 Err:502 7.01 0
-13.31539 -70.30889 2003 4 16 Err:502 7.32 0.01
-13.31539 -70.30889 2003 4 17 Err:502 6.07 0.01
-13.31539 -70.30889 2003 4 18 Err:502 6.11 1.01
-13.31539 -70.30889 2003 4 19 Err:502 3.86 4.15
-13.31539 -70.30889 2003 4 20 Err:502 3.22 14.32
-13.31539 -70.30889 2003 4 21 Err:502 7.06 0.37
-13.31539 -70.30889 2003 4 22 Err:502 7.17 0.02
-13.31539 -70.30889 2003 4 23 Err:502 7.23 2.14
-13.31539 -70.30889 2003 4 24 Err:502 6.59 0.19
-13.31539 -70.30889 2003 4 25 Err:502 5.55 0.01
-13.31539 -70.30889 2003 4 26 Err:502 5.61 0.55
-13.31539 -70.30889 2003 4 27 Err:502 6.91 0.11
-13.31539 -70.30889 2003 4 28 Err:502 6.92 0.1
-13.31539 -70.30889 2003 4 29 Err:502 6.5 0
-13.31539 -70.30889 2003 4 30 Err:502 6.53 0.01
-13.31539 -70.30889 2003 5 1 05/01/03 7.11 0.18
-13.31539 -70.30889 2003 5 2 05/02/03 5.87 0.08
-13.31539 -70.30889 2003 5 3 05/03/03 5.55 1.55
-13.31539 -70.30889 2003 5 4 05/04/03 6.9 0.25
-13.31539 -70.30889 2003 5 5 05/05/03 6.66 0.13
-13.31539 -70.30889 2003 5 6 05/06/03 3.68 0.02
-13.31539 -70.30889 2003 5 7 05/07/03 6 0
-13.31539 -70.30889 2003 5 8 05/08/03 6.57 0
-13.31539 -70.30889 2003 5 9 05/09/03 8.32 0
-13.31539 -70.30889 2003 5 10 05/10/03 8.43 0
-13.31539 -70.30889 2003 5 11 05/11/03 6.55 0
-13.31539 -70.30889 2003 5 12 05/12/03 8.81 0
-13.31539 -70.30889 2003 5 13 Err:502 9.09 0
-13.31539 -70.30889 2003 5 14 Err:502 7.89 0
-13.31539 -70.30889 2003 5 15 Err:502 8.35 0
-13.31539 -70.30889 2003 5 16 Err:502 7.96 0
-13.31539 -70.30889 2003 5 17 Err:502 8.25 0.01
-13.31539 -70.30889 2003 5 18 Err:502 7.21 0.97
-13.31539 -70.30889 2003 5 19 Err:502 7.83 1.42
-13.31539 -70.30889 2003 5 20 Err:502 5.28 0.09
-13.31539 -70.30889 2003 5 21 Err:502 8.4 0
-13.31539 -70.30889 2003 5 22 Err:502 8.72 0
-13.31539 -70.30889 2003 5 23 Err:502 7.54 0.63
-13.31539 -70.30889 2003 5 24 Err:502 4.33 1.76
-13.31539 -70.30889 2003 5 25 Err:502 6.08 8.11
-13.31539 -70.30889 2003 5 26 Err:502 6.89 1.97
-13.31539 -70.30889 2003 5 27 Err:502 4.3 5.33
-13.31539 -70.30889 2003 5 28 Err:502 5.13 1.19
-13.31539 -70.30889 2003 5 29 Err:502 6.93 0.8
-13.31539 -70.30889 2003 5 30 Err:502 7.11 0.02
-13.31539 -70.30889 2003 5 31 Err:502 8.06 0
-13.31539 -70.30889 2003 6 1 06/01/03 8.09 0.01
-13.31539 -70.30889 2003 6 2 06/02/03 6.88 2.83
-13.31539 -70.30889 2003 6 3 06/03/03 5.82 3.49
-13.31539 -70.30889 2003 6 4 06/04/03 5.96 6.13
-13.31539 -70.30889 2003 6 5 06/05/03 8.34 6.93
-13.31539 -70.30889 2003 6 6 06/06/03 10.17 0
-13.31539 -70.30889 2003 6 7 06/07/03 7.53 0.18
-13.31539 -70.30889 2003 6 8 06/08/03 7.12 0.12
-13.31539 -70.30889 2003 6 9 06/09/03 6.62 0
-13.31539 -70.30889 2003 6 10 06/10/03 7.66 0
-13.31539 -70.30889 2003 6 11 06/11/03 7.53 0.13
-13.31539 -70.30889 2003 6 12 06/12/03 7.16 1.04
-13.31539 -70.30889 2003 6 13 Err:502 7.47 0
-13.31539 -70.30889 2003 6 14 Err:502 8.41 0.05
-13.31539 -70.30889 2003 6 15 Err:502 7.9 0.42
-13.31539 -70.30889 2003 6 16 Err:502 6.88 1.3
-13.31539 -70.30889 2003 6 17 Err:502 4.6 8.01
-13.31539 -70.30889 2003 6 18 Err:502 6.94 9.34
-13.31539 -70.30889 2003 6 19 Err:502 5.9 17.39
-13.31539 -70.30889 2003 6 20 Err:502 8.62 1.03
-13.31539 -70.30889 2003 6 21 Err:502 9.15 0.12
-13.31539 -70.30889 2003 6 22 Err:502 7.98 0
-13.31539 -70.30889 2003 6 23 Err:502 9 0
-13.31539 -70.30889 2003 6 24 Err:502 6.96 0
-13.31539 -70.30889 2003 6 25 Err:502 7.88 0
-13.31539 -70.30889 2003 6 26 Err:502 6.33 0
-13.31539 -70.30889 2003 6 27 Err:502 7.29 2.11
-13.31539 -70.30889 2003 6 28 Err:502 6.24 2.67
-13.31539 -70.30889 2003 6 29 Err:502 7.99 4.16
-13.31539 -70.30889 2003 6 30 Err:502 7.79 0.22
-13.31539 -70.30889 2003 7 1 07/01/03 8.07 0
-13.31539 -70.30889 2003 7 2 07/02/03 7.04 0.55
-13.31539 -70.30889 2003 7 3 07/03/03 9.85 0.64
-13.31539 -70.30889 2003 7 4 07/04/03 8.23 0
-13.31539 -70.30889 2003 7 5 07/05/03 10 0
-13.31539 -70.30889 2003 7 6 07/06/03 9.47 0
-13.31539 -70.30889 2003 7 7 07/07/03 7.9 0.03
-13.31539 -70.30889 2003 7 8 07/08/03 8.74 0.02
-13.31539 -70.30889 2003 7 9 07/09/03 8.39 0.26
-13.31539 -70.30889 2003 7 10 07/10/03 8.72 1.73
-13.31539 -70.30889 2003 7 11 07/11/03 5.61 0.55
-13.31539 -70.30889 2003 7 12 07/12/03 7.63 0.06
-13.31539 -70.30889 2003 7 13 Err:502 9.48 0
-13.31539 -70.30889 2003 7 14 Err:502 10.64 0
-13.31539 -70.30889 2003 7 15 Err:502 11.17 0.04
-13.31539 -70.30889 2003 7 16 Err:502 6.83 0.36
-13.31539 -70.30889 2003 7 17 Err:502 8.7 0.47
-13.31539 -70.30889 2003 7 18 Err:502 11.55 0
-13.31539 -70.30889 2003 7 19 Err:502 11.44 0
-13.31539 -70.30889 2003 7 20 Err:502 11.54 0
-13.31539 -70.30889 2003 7 21 Err:502 10.95 0
-13.31539 -70.30889 2003 7 22 Err:502 9.04 0
-13.31539 -70.30889 2003 7 23 Err:502 8.95 0
-13.31539 -70.30889 2003 7 24 Err:502 8.33 0
-13.31539 -70.30889 2003 7 25 Err:502 6.5 0.01
-13.31539 -70.30889 2003 7 26 Err:502 8.25 0.08
-13.31539 -70.30889 2003 7 27 Err:502 10.92 0.06
-13.31539 -70.30889 2003 7 28 Err:502 11.63 0
-13.31539 -70.30889 2003 7 29 Err:502 10.95 0.2
-13.31539 -70.30889 2003 7 30 Err:502 10.06 0.62
-13.31539 -70.30889 2003 7 31 Err:502 10.97 0
-13.31539 -70.30889 2003 8 1 08/01/03 10.12 0
-13.31539 -70.30889 2003 8 2 08/02/03 9.42 0
-13.31539 -70.30889 2003 8 3 08/03/03 9.27 0.02
-13.31539 -70.30889 2003 8 4 08/04/03 9.9 0.01
-13.31539 -70.30889 2003 8 5 08/05/03 10.04 0.02
-13.31539 -70.30889 2003 8 6 08/06/03 9.81 2.01
-13.31539 -70.30889 2003 8 7 08/07/03 9.43 4.08
-13.31539 -70.30889 2003 8 8 08/08/03 6.15 3.88
-13.31539 -70.30889 2003 8 9 08/09/03 4.28 11.09
-13.31539 -70.30889 2003 8 10 08/10/03 8.94 0.04
-13.31539 -70.30889 2003 8 11 08/11/03 11.05 0.02
-13.31539 -70.30889 2003 8 12 08/12/03 12.04 0
-13.31539 -70.30889 2003 8 13 Err:502 12.41 0
-13.31539 -70.30889 2003 8 14 Err:502 11.54 0
-13.31539 -70.30889 2003 8 15 Err:502 10.97 0.01
-13.31539 -70.30889 2003 8 16 Err:502 6.72 0.02
-13.31539 -70.30889 2003 8 17 Err:502 8.3 0
-13.31539 -70.30889 2003 8 18 Err:502 11.39 0
-13.31539 -70.30889 2003 8 19 Err:502 12.19 0
-13.31539 -70.30889 2003 8 20 Err:502 10.15 0
-13.31539 -70.30889 2003 8 21 Err:502 9.78 0
-13.31539 -70.30889 2003 8 22 Err:502 10.05 0.29
-13.31539 -70.30889 2003 8 23 Err:502 9.49 1.28
-13.31539 -70.30889 2003 8 24 Err:502 9.6 1.97
-13.31539 -70.30889 2003 8 25 Err:502 5.2 6.03
-13.31539 -70.30889 2003 8 26 Err:502 10.93 0.1
-13.31539 -70.30889 2003 8 27 Err:502 11.99 0.01
-13.31539 -70.30889 2003 8 28 Err:502 11.08 0
-13.31539 -70.30889 2003 8 29 Err:502 11.1 0
-13.31539 -70.30889 2003 8 30 Err:502 12.58 0
-13.31539 -70.30889 2003 8 31 Err:502 13.15 0
-13.31539 -70.30889 2003 9 1 09/01/03 11.72 0
-13.31539 -70.30889 2003 9 2 09/02/03 10.27 0
-13.31539 -70.30889 2003 9 3 09/03/03 9.8 0
-13.31539 -70.30889 2003 9 4 09/04/03 8.24 0
-13.31539 -70.30889 2003 9 5 09/05/03 9.81 0.7
-13.31539 -70.30889 2003 9 6 09/06/03 10.65 1.06
-13.31539 -70.30889 2003 9 7 09/07/03 7.32 0.21
-13.31539 -70.30889 2003 9 8 09/08/03 7.62 2.17
-13.31539 -70.30889 2003 9 9 09/09/03 9.93 5.36
-13.31539 -70.30889 2003 9 10 09/10/03 6.12 4.21
-13.31539 -70.30889 2003 9 11 09/11/03 10.76 0.1
-13.31539 -70.30889 2003 9 12 09/12/03 13.32 0
-13.31539 -70.30889 2003 9 13 Err:502 11.37 1.21
-13.31539 -70.30889 2003 9 14 Err:502 11.03 0.51
-13.31539 -70.30889 2003 9 15 Err:502 10.71 0.26
-13.31539 -70.30889 2003 9 16 Err:502 8.55 4.53
-13.31539 -70.30889 2003 9 17 Err:502 10.61 2.63
-13.31539 -70.30889 2003 9 18 Err:502 11.8 0
-13.31539 -70.30889 2003 9 19 Err:502 10.93 4.18
-13.31539 -70.30889 2003 9 20 Err:502 9.79 6.53
-13.31539 -70.30889 2003 9 21 Err:502 11.94 0.7
-13.31539 -70.30889 2003 9 22 Err:502 10.39 0.03
-13.31539 -70.30889 2003 9 23 Err:502 11.09 0.49
-13.31539 -70.30889 2003 9 24 Err:502 10.71 2.49
-13.31539 -70.30889 2003 9 25 Err:502 6.65 29.51
-13.31539 -70.30889 2003 9 26 Err:502 7.66 1.73
-13.31539 -70.30889 2003 9 27 Err:502 9.66 0
-13.31539 -70.30889 2003 9 28 Err:502 9.45 0.35
-13.31539 -70.30889 2003 9 29 Err:502 7.71 2.23
-13.31539 -70.30889 2003 9 30 Err:502 9.87 0
-13.31539 -70.30889 2003 10 1 10/01/03 8.7 0.21
-13.31539 -70.30889 2003 10 2 10/02/03 9.1 0.58
-13.31539 -70.30889 2003 10 3 10/03/03 5.98 20.09
-13.31539 -70.30889 2003 10 4 10/04/03 10.88 1.37
-13.31539 -70.30889 2003 10 5 10/05/03 6.18 3.59
-13.31539 -70.30889 2003 10 6 10/06/03 7.37 3.49
-13.31539 -70.30889 2003 10 7 10/07/03 4.15 12.3
-13.31539 -70.30889 2003 10 8 10/08/03 9.89 0
-13.31539 -70.30889 2003 10 9 10/09/03 9.26 0
-13.31539 -70.30889 2003 10 10 10/10/03 5.14 0.71
-13.31539 -70.30889 2003 10 11 10/11/03 3.87 20.62
-13.31539 -70.30889 2003 10 12 10/12/03 5.94 0.72
-13.31539 -70.30889 2003 10 13 Err:502 8.18 2.57
-13.31539 -70.30889 2003 10 14 Err:502 10.37 0.1
-13.31539 -70.30889 2003 10 15 Err:502 10.82 0
-13.31539 -70.30889 2003 10 16 Err:502 10.48 0
-13.31539 -70.30889 2003 10 17 Err:502 9.49 0
-13.31539 -70.30889 2003 10 18 Err:502 9.9 0.49
-13.31539 -70.30889 2003 10 19 Err:502 7.68 0.8
-13.31539 -70.30889 2003 10 20 Err:502 8.58 2.2
-13.31539 -70.30889 2003 10 21 Err:502 7.96 1.74
-13.31539 -70.30889 2003 10 22 Err:502 10.39 0.89
-13.31539 -70.30889 2003 10 23 Err:502 5.51 22.26
-13.31539 -70.30889 2003 10 24 Err:502 6.97 4.75
-13.31539 -70.30889 2003 10 25 Err:502 7.33 3.8
-13.31539 -70.30889 2003 10 26 Err:502 6.54 1.79
-13.31539 -70.30889 2003 10 27 Err:502 6.57 1.67
-13.31539 -70.30889 2003 10 28 Err:502 4.6 9.02
-13.31539 -70.30889 2003 10 29 Err:502 8.77 1.02
-13.31539 -70.30889 2003 10 30 Err:502 9.64 0.82
-13.31539 -70.30889 2003 10 31 Err:502 6.53 2.18
-13.31539 -70.30889 2003 11 1 11/01/03 4.42 17.15
-13.31539 -70.30889 2003 11 2 11/02/03 4.92 9
-13.31539 -70.30889 2003 11 3 11/03/03 8.95 3.57
-13.31539 -70.30889 2003 11 4 11/04/03 9.6 0.21
-13.31539 -70.30889 2003 11 5 11/05/03 5.96 0.38
-13.31539 -70.30889 2003 11 6 11/06/03 8.74 0.21
-13.31539 -70.30889 2003 11 7 11/07/03 9.5 0
-13.31539 -70.30889 2003 11 8 11/08/03 8.54 0
-13.31539 -70.30889 2003 11 9 11/09/03 9.65 0
-13.31539 -70.30889 2003 11 10 11/10/03 6.86 2.19
-13.31539 -70.30889 2003 11 11 11/11/03 9.8 0.21
-13.31539 -70.30889 2003 11 12 11/12/03 9.92 0.11
-13.31539 -70.30889 2003 11 13 Err:502 10.33 1.35
-13.31539 -70.30889 2003 11 14 Err:502 5.54 2.58
-13.31539 -70.30889 2003 11 15 Err:502 8.1 0.11
-13.31539 -70.30889 2003 11 16 Err:502 9.95 0.09
-13.31539 -70.30889 2003 11 17 Err:502 7 0.65
-13.31539 -70.30889 2003 11 18 Err:502 9.28 1.68
-13.31539 -70.30889 2003 11 19 Err:502 7.99 1.42
-13.31539 -70.30889 2003 11 20 Err:502 9.61 0.91
-13.31539 -70.30889 2003 11 21 Err:502 10.42 0.9
-13.31539 -70.30889 2003 11 22 Err:502 11.25 0
-13.31539 -70.30889 2003 11 23 Err:502 8.92 0.09
-13.31539 -70.30889 2003 11 24 Err:502 9.69 0.04
-13.31539 -70.30889 2003 11 25 Err:502 4.99 4.4
-13.31539 -70.30889 2003 11 26 Err:502 7.09 5.18
-13.31539 -70.30889 2003 11 27 Err:502 9.67 0.04
-13.31539 -70.30889 2003 11 28 Err:502 10.29 0.02
-13.31539 -70.30889 2003 11 29 Err:502 8.18 0.7
-13.31539 -70.30889 2003 11 30 Err:502 8.2 1.24
-13.31539 -70.30889 2003 12 1 12/01/03 8.08 2.99
-13.31539 -70.30889 2003 12 2 12/02/03 9.85 0.69
-13.31539 -70.30889 2003 12 3 12/03/03 7.43 0.1
-13.31539 -70.30889 2003 12 4 12/04/03 6.65 4.73
-13.31539 -70.30889 2003 12 5 12/05/03 10.58 0.58
-13.31539 -70.30889 2003 12 6 12/06/03 8.84 9.49
-13.31539 -70.30889 2003 12 7 12/07/03 9.82 1.4
-13.31539 -70.30889 2003 12 8 12/08/03 11.04 0.17
-13.31539 -70.30889 2003 12 9 12/09/03 6.37 4.71
-13.31539 -70.30889 2003 12 10 12/10/03 4.55 5.53
-13.31539 -70.30889 2003 12 11 12/11/03 6.36 19.83
-13.31539 -70.30889 2003 12 12 12/12/03 3.32 22.22
-13.31539 -70.30889 2003 12 13 Err:502 3.53 15.08
-13.31539 -70.30889 2003 12 14 Err:502 4.96 3.37
-13.31539 -70.30889 2003 12 15 Err:502 6.87 4.12
-13.31539 -70.30889 2003 12 16 Err:502 7.11 5.18
-13.31539 -70.30889 2003 12 17 Err:502 4.17 4.84
-13.31539 -70.30889 2003 12 18 Err:502 6.04 0.05
-13.31539 -70.30889 2003 12 19 Err:502 8.93 0.19
-13.31539 -70.30889 2003 12 20 Err:502 6.96 2.61
-13.31539 -70.30889 2003 12 21 Err:502 7.26 5.31
-13.31539 -70.30889 2003 12 22 Err:502 8.5 0.26
-13.31539 -70.30889 2003 12 23 Err:502 7.45 6.11
-13.31539 -70.30889 2003 12 24 Err:502 2.96 9.71
-13.31539 -70.30889 2003 12 25 Err:502 4.05 1.93
-13.31539 -70.30889 2003 12 26 Err:502 7.31 3.28
-13.31539 -70.30889 2003 12 27 Err:502 8.14 3.77
-13.31539 -70.30889 2003 12 28 Err:502 3.36 12.65
-13.31539 -70.30889 2003 12 29 Err:502 2.8 24.77
-13.31539 -70.30889 2003 12 30 Err:502 5.24 4.25
-13.31539 -70.30889 2003 12 31 Err:502 5.49 3.72
-13.31539 -70.30889 2004 1 1 01/01/04 6.59 0.64
-13.31539 -70.30889 2004 1 2 01/02/04 3.28 1.44
-13.31539 -70.30889 2004 1 3 01/03/04 4.96 2.23
-13.31539 -70.30889 2004 1 4 01/04/04 4.18 20.18
-13.31539 -70.30889 2004 1 5 01/05/04 4.16 33.37
-13.31539 -70.30889 2004 1 6 01/06/04 3.51 19.26
-13.31539 -70.30889 2004 1 7 01/07/04 6.6 3.87
-13.31539 -70.30889 2004 1 8 01/08/04 6.24 4.06
-13.31539 -70.30889 2004 1 9 01/09/04 3.63 6.04
-13.31539 -70.30889 2004 1 10 01/10/04 4.57 1.69
-13.31539 -70.30889 2004 1 11 01/11/04 3 6.6
-13.31539 -70.30889 2004 1 12 01/12/04 3.62 7.88
-13.31539 -70.30889 2004 1 13 Err:502 4.89 8.61
-13.31539 -70.30889 2004 1 14 Err:502 4.01 1.7
-13.31539 -70.30889 2004 1 15 Err:502 4.15 39.88
-13.31539 -70.30889 2004 1 16 Err:502 4.79 7.27
-13.31539 -70.30889 2004 1 17 Err:502 8.86 5.52
-13.31539 -70.30889 2004 1 18 Err:502 7.58 1.26
-13.31539 -70.30889 2004 1 19 Err:502 5.9 0.63
-13.31539 -70.30889 2004 1 20 Err:502 5.2 0.79
-13.31539 -70.30889 2004 1 21 Err:502 4.76 9.89
-13.31539 -70.30889 2004 1 22 Err:502 3.23 12.44
-13.31539 -70.30889 2004 1 23 Err:502 5.15 3.27
-13.31539 -70.30889 2004 1 24 Err:502 7.18 1.93
-13.31539 -70.30889 2004 1 25 Err:502 7.3 1.43
-13.31539 -70.30889 2004 1 26 Err:502 6.82 0.23
-13.31539 -70.30889 2004 1 27 Err:502 6.75 0.18
-13.31539 -70.30889 2004 1 28 Err:502 6.12 0.79
-13.31539 -70.30889 2004 1 29 Err:502 5.06 0.44
-13.31539 -70.30889 2004 1 30 Err:502 5.06 0.75
-13.31539 -70.30889 2004 1 31 Err:502 6.18 1.08
-13.31539 -70.30889 2004 2 1 02/01/04 7.04 0.8
-13.31539 -70.30889 2004 2 2 02/02/04 4.93 3.58
-13.31539 -70.30889 2004 2 3 02/03/04 4.46 2.03
-13.31539 -70.30889 2004 2 4 02/04/04 4.52 2.67
-13.31539 -70.30889 2004 2 5 02/05/04 4.19 1.85
-13.31539 -70.30889 2004 2 6 02/06/04 4.81 3.52
-13.31539 -70.30889 2004 2 7 02/07/04 5.88 9.23
-13.31539 -70.30889 2004 2 8 02/08/04 5.79 1.26
-13.31539 -70.30889 2004 2 9 02/09/04 5.67 2.32
-13.31539 -70.30889 2004 2 10 02/10/04 6.32 5.88
-13.31539 -70.30889 2004 2 11 02/11/04 2.77 24.78
-13.31539 -70.30889 2004 2 12 02/12/04 6.69 3.02
-13.31539 -70.30889 2004 2 13 Err:502 5.7 2.93
-13.31539 -70.30889 2004 2 14 Err:502 2.67 8.44
-13.31539 -70.30889 2004 2 15 Err:502 3.44 21.48
-13.31539 -70.30889 2004 2 16 Err:502 3.83 7.9
-13.31539 -70.30889 2004 2 17 Err:502 6.08 2.39
-13.31539 -70.30889 2004 2 18 Err:502 4.92 7.67
-13.31539 -70.30889 2004 2 19 Err:502 3.81 16.99
-13.31539 -70.30889 2004 2 20 Err:502 3.71 4.27
-13.31539 -70.30889 2004 2 21 Err:502 4.77 0.09
-13.31539 -70.30889 2004 2 22 Err:502 6.57 0.1
-13.31539 -70.30889 2004 2 23 Err:502 7.14 0.67
-13.31539 -70.30889 2004 2 24 Err:502 7.05 0.03
-13.31539 -70.30889 2004 2 25 Err:502 8.8 0.02
-13.31539 -70.30889 2004 2 26 Err:502 8.09 0.22
-13.31539 -70.30889 2004 2 27 Err:502 6.25 0.25
-13.31539 -70.30889 2004 2 28 Err:502 5.42 0
-13.31539 -70.30889 2004 2 29 Err:502 6.1 0
-13.31539 -70.30889 2004 3 1 03/01/04 7 0
-13.31539 -70.30889 2004 3 2 03/02/04 4.82 0
-13.31539 -70.30889 2004 3 3 03/03/04 4.1 2.05
-13.31539 -70.30889 2004 3 4 03/04/04 4.8 7.03
-13.31539 -70.30889 2004 3 5 03/05/04 5.23 1.82
-13.31539 -70.30889 2004 3 6 03/06/04 6.92 3.24
-13.31539 -70.30889 2004 3 7 03/07/04 5.38 0.34
-13.31539 -70.30889 2004 3 8 03/08/04 4.63 2.24
-13.31539 -70.30889 2004 3 9 03/09/04 6.42 0.14
-13.31539 -70.30889 2004 3 10 03/10/04 7.12 0.49
-13.31539 -70.30889 2004 3 11 03/11/04 6.77 0.52
-13.31539 -70.30889 2004 3 12 03/12/04 7.46 0.26
-13.31539 -70.30889 2004 3 13 Err:502 6.38 0.11
-13.31539 -70.30889 2004 3 14 Err:502 5.82 0.04
-13.31539 -70.30889 2004 3 15 Err:502 4.93 0.46
-13.31539 -70.30889 2004 3 16 Err:502 5.88 0.33
-13.31539 -70.30889 2004 3 17 Err:502 6.5 0.52
-13.31539 -70.30889 2004 3 18 Err:502 6.34 0.35
-13.31539 -70.30889 2004 3 19 Err:502 3.65 21.17
-13.31539 -70.30889 2004 3 20 Err:502 5.11 7.61
-13.31539 -70.30889 2004 3 21 Err:502 3.86 0.79
-13.31539 -70.30889 2004 3 22 Err:502 5.09 0.66
-13.31539 -70.30889 2004 3 23 Err:502 6.12 0.26
-13.31539 -70.30889 2004 3 24 Err:502 7.29 5.17
-13.31539 -70.30889 2004 3 25 Err:502 4 1.93
-13.31539 -70.30889 2004 3 26 Err:502 6.58 4.79
-13.31539 -70.30889 2004 3 27 Err:502 7.45 0.52
-13.31539 -70.30889 2004 3 28 Err:502 3.77 13.1
-13.31539 -70.30889 2004 3 29 Err:502 4.43 9.26
-13.31539 -70.30889 2004 3 30 Err:502 4.62 7.58
-13.31539 -70.30889 2004 3 31 Err:502 7.79 0.5
-13.31539 -70.30889 2004 4 1 04/01/04 6.46 0.25
-13.31539 -70.30889 2004 4 2 04/02/04 5.57 0.08
-13.31539 -70.30889 2004 4 3 04/03/04 6.62 0.2
-13.31539 -70.30889 2004 4 4 04/04/04 5.32 0.12
-13.31539 -70.30889 2004 4 5 04/05/04 5.67 0.81
-13.31539 -70.30889 2004 4 6 04/06/04 7.75 1.36
-13.31539 -70.30889 2004 4 7 04/07/04 5.73 0.29
-13.31539 -70.30889 2004 4 8 04/08/04 5.01 0.77
-13.31539 -70.30889 2004 4 9 04/09/04 3.62 30.99
-13.31539 -70.30889 2004 4 10 04/10/04 7.12 0.1
-13.31539 -70.30889 2004 4 11 04/11/04 8.26 0.03
-13.31539 -70.30889 2004 4 12 04/12/04 7.56 0.04
-13.31539 -70.30889 2004 4 13 Err:502 8.18 0.02
-13.31539 -70.30889 2004 4 14 Err:502 5.79 3.34
-13.31539 -70.30889 2004 4 15 Err:502 3.82 10.93
-13.31539 -70.30889 2004 4 16 Err:502 4.25 5.98
-13.31539 -70.30889 2004 4 17 Err:502 5.88 2.51
-13.31539 -70.30889 2004 4 18 Err:502 4.51 4.41
-13.31539 -70.30889 2004 4 19 Err:502 7.01 0.91
-13.31539 -70.30889 2004 4 20 Err:502 5.07 1.76
-13.31539 -70.30889 2004 4 21 Err:502 6.86 0.05
-13.31539 -70.30889 2004 4 22 Err:502 6.31 0.03
-13.31539 -70.30889 2004 4 23 Err:502 5.7 2.54
-13.31539 -70.30889 2004 4 24 Err:502 6.76 1.1
-13.31539 -70.30889 2004 4 25 Err:502 3.37 1.34
-13.31539 -70.30889 2004 4 26 Err:502 6.82 0.03
-13.31539 -70.30889 2004 4 27 Err:502 6.61 0.02
-13.31539 -70.30889 2004 4 28 Err:502 9.41 0
-13.31539 -70.30889 2004 4 29 Err:502 7.52 0.05
-13.31539 -70.30889 2004 4 30 Err:502 5.82 4.06
-13.31539 -70.30889 2004 5 1 05/01/04 6.17 0.95
-13.31539 -70.30889 2004 5 2 05/02/04 6.8 0.04
-13.31539 -70.30889 2004 5 3 05/03/04 5.13 2.44
-13.31539 -70.30889 2004 5 4 05/04/04 5.1 2.69
-13.31539 -70.30889 2004 5 5 05/05/04 5.47 0.84
-13.31539 -70.30889 2004 5 6 05/06/04 7.26 0.01
-13.31539 -70.30889 2004 5 7 05/07/04 8.39 0.01
-13.31539 -70.30889 2004 5 8 05/08/04 9.31 0
-13.31539 -70.30889 2004 5 9 05/09/04 10.09 0.03
-13.31539 -70.30889 2004 5 10 05/10/04 10.42 0.01
-13.31539 -70.30889 2004 5 11 05/11/04 9.47 0
-13.31539 -70.30889 2004 5 12 05/12/04 9.06 0.02
-13.31539 -70.30889 2004 5 13 Err:502 6.92 0.51
-13.31539 -70.30889 2004 5 14 Err:502 6.3 1.3
-13.31539 -70.30889 2004 5 15 Err:502 7.19 0.25
-13.31539 -70.30889 2004 5 16 Err:502 9.96 0
-13.31539 -70.30889 2004 5 17 Err:502 9.45 0.07
-13.31539 -70.30889 2004 5 18 Err:502 6.31 0.04
-13.31539 -70.30889 2004 5 19 Err:502 8.34 0
-13.31539 -70.30889 2004 5 20 Err:502 8.07 0
-13.31539 -70.30889 2004 5 21 Err:502 8.63 0
-13.31539 -70.30889 2004 5 22 Err:502 6.4 0
-13.31539 -70.30889 2004 5 23 Err:502 8.56 0.19
-13.31539 -70.30889 2004 5 24 Err:502 6.77 2.75
-13.31539 -70.30889 2004 5 25 Err:502 5.07 1.54
-13.31539 -70.30889 2004 5 26 Err:502 5.08 0.48
-13.31539 -70.30889 2004 5 27 Err:502 4.54 0.09
-13.31539 -70.30889 2004 5 28 Err:502 9.07 0.2
-13.31539 -70.30889 2004 5 29 Err:502 9.09 0
-13.31539 -70.30889 2004 5 30 Err:502 6.83 0.02
-13.31539 -70.30889 2004 5 31 Err:502 8.88 0.03
-13.31539 -70.30889 2004 6 1 06/01/04 6.42 0
-13.31539 -70.30889 2004 6 2 06/02/04 6.73 0.08
-13.31539 -70.30889 2004 6 3 06/03/04 7.89 0.01
-13.31539 -70.30889 2004 6 4 06/04/04 9.65 0
-13.31539 -70.30889 2004 6 5 06/05/04 9.57 0
-13.31539 -70.30889 2004 6 6 06/06/04 8.09 0.01
-13.31539 -70.30889 2004 6 7 06/07/04 7.61 0.06
-13.31539 -70.30889 2004 6 8 06/08/04 6.63 0.11
-13.31539 -70.30889 2004 6 9 06/09/04 7.14 0
-13.31539 -70.30889 2004 6 10 06/10/04 7.49 1.79
-13.31539 -70.30889 2004 6 11 06/11/04 8.28 3.83
-13.31539 -70.30889 2004 6 12 06/12/04 7.73 4.44
-13.31539 -70.30889 2004 6 13 Err:502 9.01 0.05
-13.31539 -70.30889 2004 6 14 Err:502 10.51 0
-13.31539 -70.30889 2004 6 15 Err:502 9.18 0
-13.31539 -70.30889 2004 6 16 Err:502 10.81 0
-13.31539 -70.30889 2004 6 17 Err:502 11.44 0
-13.31539 -70.30889 2004 6 18 Err:502 10.05 0
-13.31539 -70.30889 2004 6 19 Err:502 10.17 0
-13.31539 -70.30889 2004 6 20 Err:502 9.09 0
-13.31539 -70.30889 2004 6 21 Err:502 6.46 0.01
-13.31539 -70.30889 2004 6 22 Err:502 9.2 0.22
-13.31539 -70.30889 2004 6 23 Err:502 8.25 0.65
-13.31539 -70.30889 2004 6 24 Err:502 8.93 0.43
-13.31539 -70.30889 2004 6 25 Err:502 8.6 0.14
-13.31539 -70.30889 2004 6 26 Err:502 7.65 4.67
-13.31539 -70.30889 2004 6 27 Err:502 7.64 1.99
-13.31539 -70.30889 2004 6 28 Err:502 5.33 0.09
-13.31539 -70.30889 2004 6 29 Err:502 9.3 0.13
-13.31539 -70.30889 2004 6 30 Err:502 9.78 0
-13.31539 -70.30889 2004 7 1 07/01/04 10.49 1.25
-13.31539 -70.30889 2004 7 2 07/02/04 9.35 1.14
-13.31539 -70.30889 2004 7 3 07/03/04 9.68 2.09
-13.31539 -70.30889 2004 7 4 07/04/04 9.44 0.13
-13.31539 -70.30889 2004 7 5 07/05/04 7.51 2.92
-13.31539 -70.30889 2004 7 6 07/06/04 9.74 0.01
-13.31539 -70.30889 2004 7 7 07/07/04 8.63 0.01
-13.31539 -70.30889 2004 7 8 07/08/04 8.8 0.37
-13.31539 -70.30889 2004 7 9 07/09/04 9.83 0.43
-13.31539 -70.30889 2004 7 10 07/10/04 9.82 0.34
-13.31539 -70.30889 2004 7 11 07/11/04 5.13 3.29
-13.31539 -70.30889 2004 7 12 07/12/04 11.35 0
-13.31539 -70.30889 2004 7 13 Err:502 11.53 0
-13.31539 -70.30889 2004 7 14 Err:502 9.74 0
-13.31539 -70.30889 2004 7 15 Err:502 8.41 1.52
-13.31539 -70.30889 2004 7 16 Err:502 8.86 1.19
-13.31539 -70.30889 2004 7 17 Err:502 7.62 8.46
-13.31539 -70.30889 2004 7 18 Err:502 8.31 0.12
-13.31539 -70.30889 2004 7 19 Err:502 11.26 0.1
-13.31539 -70.30889 2004 7 20 Err:502 10.51 0
-13.31539 -70.30889 2004 7 21 Err:502 9.94 0
-13.31539 -70.30889 2004 7 22 Err:502 9.87 0
-13.31539 -70.30889 2004 7 23 Err:502 9.03 0
-13.31539 -70.30889 2004 7 24 Err:502 9.13 0
-13.31539 -70.30889 2004 7 25 Err:502 8.24 0.17
-13.31539 -70.30889 2004 7 26 Err:502 8.8 1.08
-13.31539 -70.30889 2004 7 27 Err:502 9.99 0.35
-13.31539 -70.30889 2004 7 28 Err:502 5.3 1.29
-13.31539 -70.30889 2004 7 29 Err:502 7.75 2.12
-13.31539 -70.30889 2004 7 30 Err:502 6.28 12.18
-13.31539 -70.30889 2004 7 31 Err:502 10.89 0
-13.31539 -70.30889 2004 8 1 08/01/04 11.41 0
-13.31539 -70.30889 2004 8 2 08/02/04 12.1 0
-13.31539 -70.30889 2004 8 3 08/03/04 11.34 0
-13.31539 -70.30889 2004 8 4 08/04/04 10.33 0
-13.31539 -70.30889 2004 8 5 08/05/04 9.21 0
-13.31539 -70.30889 2004 8 6 08/06/04 10.76 0.04
-13.31539 -70.30889 2004 8 7 08/07/04 8.69 0.61
-13.31539 -70.30889 2004 8 8 08/08/04 8.84 0
-13.31539 -70.30889 2004 8 9 08/09/04 9.52 0
-13.31539 -70.30889 2004 8 10 08/10/04 13.2 0
-13.31539 -70.30889 2004 8 11 08/11/04 12.28 0
-13.31539 -70.30889 2004 8 12 08/12/04 11.09 0
-13.31539 -70.30889 2004 8 13 Err:502 11.67 0
-13.31539 -70.30889 2004 8 14 Err:502 12.15 0
-13.31539 -70.30889 2004 8 15 Err:502 11.88 0
-13.31539 -70.30889 2004 8 16 Err:502 9.63 0.22
-13.31539 -70.30889 2004 8 17 Err:502 10.71 0.18
-13.31539 -70.30889 2004 8 18 Err:502 8.71 0.08
-13.31539 -70.30889 2004 8 19 Err:502 9.61 0.73
-13.31539 -70.30889 2004 8 20 Err:502 11.05 0.09
-13.31539 -70.30889 2004 8 21 Err:502 8.69 1.98
-13.31539 -70.30889 2004 8 22 Err:502 8.04 12.09
-13.31539 -70.30889 2004 8 23 Err:502 9.08 1.55
-13.31539 -70.30889 2004 8 24 Err:502 7.31 3.99
-13.31539 -70.30889 2004 8 25 Err:502 6.02 3.13
-13.31539 -70.30889 2004 8 26 Err:502 7.31 0.95
-13.31539 -70.30889 2004 8 27 Err:502 11.54 0.1
-13.31539 -70.30889 2004 8 28 Err:502 7.42 0.01
-13.31539 -70.30889 2004 8 29 Err:502 8.44 6.85
-13.31539 -70.30889 2004 8 30 Err:502 9.17 0.66
-13.31539 -70.30889 2004 8 31 Err:502 8.88 0.67
-13.31539 -70.30889 2004 9 1 09/01/04 11.27 0.01
-13.31539 -70.30889 2004 9 2 09/02/04 11.07 0.01
-13.31539 -70.30889 2004 9 3 09/03/04 9.9 1.32
-13.31539 -70.30889 2004 9 4 09/04/04 8.38 0.04
-13.31539 -70.30889 2004 9 5 09/05/04 10.13 0.2
-13.31539 -70.30889 2004 9 6 09/06/04 6.44 2.49
-13.31539 -70.30889 2004 9 7 09/07/04 10.25 0.79
-13.31539 -70.30889 2004 9 8 09/08/04 8.92 1.47
-13.31539 -70.30889 2004 9 9 09/09/04 10.43 2.9
-13.31539 -70.30889 2004 9 10 09/10/04 10.76 0.62
-13.31539 -70.30889 2004 9 11 09/11/04 9.01 0
-13.31539 -70.30889 2004 9 12 09/12/04 8.01 0
-13.31539 -70.30889 2004 9 13 Err:502 10.18 0
-13.31539 -70.30889 2004 9 14 Err:502 12.15 0
-13.31539 -70.30889 2004 9 15 Err:502 12.35 0
-13.31539 -70.30889 2004 9 16 Err:502 9.45 0
-13.31539 -70.30889 2004 9 17 Err:502 5.35 0
-13.31539 -70.30889 2004 9 18 Err:502 11.29 0
-13.31539 -70.30889 2004 9 19 Err:502 9.75 0.89
-13.31539 -70.30889 2004 9 20 Err:502 12.35 1.94
-13.31539 -70.30889 2004 9 21 Err:502 12.18 0.01
-13.31539 -70.30889 2004 9 22 Err:502 11.57 0.02
-13.31539 -70.30889 2004 9 23 Err:502 11.09 1.35
-13.31539 -70.30889 2004 9 24 Err:502 9.85 1.93
-13.31539 -70.30889 2004 9 25 Err:502 11.95 0.1
-13.31539 -70.30889 2004 9 26 Err:502 11.62 0.01
-13.31539 -70.30889 2004 9 27 Err:502 8.48 1.11
-13.31539 -70.30889 2004 9 28 Err:502 8.83 0.83
-13.31539 -70.30889 2004 9 29 Err:502 9.1 2.36
-13.31539 -70.30889 2004 9 30 Err:502 7.07 8.28
-13.31539 -70.30889 2004 10 1 10/01/04 9.44 2.43
-13.31539 -70.30889 2004 10 2 10/02/04 8.59 0.21
-13.31539 -70.30889 2004 10 3 10/03/04 10.48 0.11
-13.31539 -70.30889 2004 10 4 10/04/04 6.07 3.22
-13.31539 -70.30889 2004 10 5 10/05/04 9.96 4.33
-13.31539 -70.30889 2004 10 6 10/06/04 11.43 0
-13.31539 -70.30889 2004 10 7 10/07/04 12.03 1.06
-13.31539 -70.30889 2004 10 8 10/08/04 10.97 0.8
-13.31539 -70.30889 2004 10 9 10/09/04 9.28 0.88
-13.31539 -70.30889 2004 10 10 10/10/04 10.5 2.64
-13.31539 -70.30889 2004 10 11 10/11/04 10.57 3.22
-13.31539 -70.30889 2004 10 12 10/12/04 10.85 3.17
-13.31539 -70.30889 2004 10 13 Err:502 7.49 1.73
-13.31539 -70.30889 2004 10 14 Err:502 9.14 4.21
-13.31539 -70.30889 2004 10 15 Err:502 12.1 0.85
-13.31539 -70.30889 2004 10 16 Err:502 11.77 0
-13.31539 -70.30889 2004 10 17 Err:502 10.44 0
-13.31539 -70.30889 2004 10 18 Err:502 8.09 0
-13.31539 -70.30889 2004 10 19 Err:502 8.32 10.42
-13.31539 -70.30889 2004 10 20 Err:502 5.77 13.97
-13.31539 -70.30889 2004 10 21 Err:502 10.38 0.29
-13.31539 -70.30889 2004 10 22 Err:502 8.94 0.74
-13.31539 -70.30889 2004 10 23 Err:502 9.28 0.29
-13.31539 -70.30889 2004 10 24 Err:502 9.07 0
-13.31539 -70.30889 2004 10 25 Err:502 9.66 0.41
-13.31539 -70.30889 2004 10 26 Err:502 11.81 0.09
-13.31539 -70.30889 2004 10 27 Err:502 7.6 0.12
-13.31539 -70.30889 2004 10 28 Err:502 9.41 0.17
-13.31539 -70.30889 2004 10 29 Err:502 10.49 0.58
-13.31539 -70.30889 2004 10 30 Err:502 10.98 0.28
-13.31539 -70.30889 2004 10 31 Err:502 8.45 3.21
-13.31539 -70.30889 2004 11 1 11/01/04 6.11 2.88
-13.31539 -70.30889 2004 11 2 11/02/04 9.35 1.52
-13.31539 -70.30889 2004 11 3 11/03/04 8.33 0.01
-13.31539 -70.30889 2004 11 4 11/04/04 8.07 5.99
-13.31539 -70.30889 2004 11 5 11/05/04 9 3.08
-13.31539 -70.30889 2004 11 6 11/06/04 7.7 7.28
-13.31539 -70.30889 2004 11 7 11/07/04 6.61 3.5
-13.31539 -70.30889 2004 11 8 11/08/04 11 0.12
-13.31539 -70.30889 2004 11 9 11/09/04 9.39 0.31
-13.31539 -70.30889 2004 11 10 11/10/04 7.52 0.61
-13.31539 -70.30889 2004 11 11 11/11/04 7.26 4.67
-13.31539 -70.30889 2004 11 12 11/12/04 5.57 10.45
-13.31539 -70.30889 2004 11 13 Err:502 9.79 0.3
-13.31539 -70.30889 2004 11 14 Err:502 7.07 14.78
-13.31539 -70.30889 2004 11 15 Err:502 8.45 2.41
-13.31539 -70.30889 2004 11 16 Err:502 5.48 3.11
-13.31539 -70.30889 2004 11 17 Err:502 4.56 1.92
-13.31539 -70.30889 2004 11 18 Err:502 8.26 1.46
-13.31539 -70.30889 2004 11 19 Err:502 4.52 2.16
-13.31539 -70.30889 2004 11 20 Err:502 10.07 3.28
-13.31539 -70.30889 2004 11 21 Err:502 8.89 1.11
-13.31539 -70.30889 2004 11 22 Err:502 10.55 2.3
-13.31539 -70.30889 2004 11 23 Err:502 7.67 0.25
-13.31539 -70.30889 2004 11 24 Err:502 5.56 1.64
-13.31539 -70.30889 2004 11 25 Err:502 9.64 1.32
-13.31539 -70.30889 2004 11 26 Err:502 8.23 1.05
-13.31539 -70.30889 2004 11 27 Err:502 8.67 0.46
-13.31539 -70.30889 2004 11 28 Err:502 8.61 7.67
-13.31539 -70.30889 2004 11 29 Err:502 4.51 7.51
-13.31539 -70.30889 2004 11 30 Err:502 9.83 4.24
-13.31539 -70.30889 2004 12 1 12/01/04 5.93 4.05
-13.31539 -70.30889 2004 12 2 12/02/04 7.26 3.89
-13.31539 -70.30889 2004 12 3 12/03/04 8.96 0.65
-13.31539 -70.30889 2004 12 4 12/04/04 5.32 5.81
-13.31539 -70.30889 2004 12 5 12/05/04 5.26 7.29
-13.31539 -70.30889 2004 12 6 12/06/04 9.34 0.06
-13.31539 -70.30889 2004 12 7 12/07/04 7.89 0.01
-13.31539 -70.30889 2004 12 8 12/08/04 4.79 0.85
-13.31539 -70.30889 2004 12 9 12/09/04 6.12 4.48
-13.31539 -70.30889 2004 12 10 12/10/04 8.51 11.09
-13.31539 -70.30889 2004 12 11 12/11/04 4.42 1.44
-13.31539 -70.30889 2004 12 12 12/12/04 9.29 0.33
-13.31539 -70.30889 2004 12 13 Err:502 6.86 0.86
-13.31539 -70.30889 2004 12 14 Err:502 4.3 4.5
-13.31539 -70.30889 2004 12 15 Err:502 6.58 8.01
-13.31539 -70.30889 2004 12 16 Err:502 6.62 0.75
-13.31539 -70.30889 2004 12 17 Err:502 4.9 8.93
-13.31539 -70.30889 2004 12 18 Err:502 4.72 4.6
-13.31539 -70.30889 2004 12 19 Err:502 7 2.61
-13.31539 -70.30889 2004 12 20 Err:502 8.53 2.1
-13.31539 -70.30889 2004 12 21 Err:502 5.72 2.54
-13.31539 -70.30889 2004 12 22 Err:502 9.49 0.89
-13.31539 -70.30889 2004 12 23 Err:502 6.3 1.93
-13.31539 -70.30889 2004 12 24 Err:502 7.53 4.97
-13.31539 -70.30889 2004 12 25 Err:502 4.26 23.2
-13.31539 -70.30889 2004 12 26 Err:502 6.19 13.62
-13.31539 -70.30889 2004 12 27 Err:502 6.84 1.27
-13.31539 -70.30889 2004 12 28 Err:502 7.65 0.09
-13.31539 -70.30889 2004 12 29 Err:502 7.64 14.81
-13.31539 -70.30889 2004 12 30 Err:502 4.64 36.36
-13.31539 -70.30889 2004 12 31 Err:502 5.9 5.67
-13.31539 -70.30889 2005 1 1 01/01/05 7.62 3.89
-13.31539 -70.30889 2005 1 2 01/02/05 6.14 3.01
-13.31539 -70.30889 2005 1 3 01/03/05 3.47 8.55
-13.31539 -70.30889 2005 1 4 01/04/05 6.43 3.28
-13.31539 -70.30889 2005 1 5 01/05/05 9.12 0.03
-13.31539 -70.30889 2005 1 6 01/06/05 6.25 5.13
-13.31539 -70.30889 2005 1 7 01/07/05 6.97 5.08
-13.31539 -70.30889 2005 1 8 01/08/05 7.93 0.28
-13.31539 -70.30889 2005 1 9 01/09/05 8.9 0.37
-13.31539 -70.30889 2005 1 10 01/10/05 6.04 1.3
-13.31539 -70.30889 2005 1 11 01/11/05 4.28 5.91
-13.31539 -70.30889 2005 1 12 01/12/05 5.25 2.3
-13.31539 -70.30889 2005 1 13 Err:502 7.46 1.73
-13.31539 -70.30889 2005 1 14 Err:502 5.95 0.56
-13.31539 -70.30889 2005 1 15 Err:502 7.89 0.14
-13.31539 -70.30889 2005 1 16 Err:502 3.23 26.22
-13.31539 -70.30889 2005 1 17 Err:502 3.56 9.71
-13.31539 -70.30889 2005 1 18 Err:502 7.92 0.84
-13.31539 -70.30889 2005 1 19 Err:502 8.07 0.1
-13.31539 -70.30889 2005 1 20 Err:502 3.14 1.96
-13.31539 -70.30889 2005 1 21 Err:502 5.95 2.71
-13.31539 -70.30889 2005 1 22 Err:502 5.74 0.01
-13.31539 -70.30889 2005 1 23 Err:502 6.23 0.16
-13.31539 -70.30889 2005 1 24 Err:502 2.92 18.17
-13.31539 -70.30889 2005 1 25 Err:502 5.71 1.15
-13.31539 -70.30889 2005 1 26 Err:502 3.9 15.73
-13.31539 -70.30889 2005 1 27 Err:502 5.8 9.02
-13.31539 -70.30889 2005 1 28 Err:502 6.49 0.09
-13.31539 -70.30889 2005 1 29 Err:502 5.72 0.04
-13.31539 -70.30889 2005 1 30 Err:502 6 0.21
-13.31539 -70.30889 2005 1 31 Err:502 5.3 4.25
-13.31539 -70.30889 2005 2 1 02/01/05 3.94 16
-13.31539 -70.30889 2005 2 2 02/02/05 5.1 0.81
-13.31539 -70.30889 2005 2 3 02/03/05 7.21 0.05
-13.31539 -70.30889 2005 2 4 02/04/05 8.44 0.45
-13.31539 -70.30889 2005 2 5 02/05/05 8.41 1.64
-13.31539 -70.30889 2005 2 6 02/06/05 8.82 0.3
-13.31539 -70.30889 2005 2 7 02/07/05 8.11 0.06
-13.31539 -70.30889 2005 2 8 02/08/05 5.55 7.82
-13.31539 -70.30889 2005 2 9 02/09/05 5.17 43.28
-13.31539 -70.30889 2005 2 10 02/10/05 5.67 6.68
-13.31539 -70.30889 2005 2 11 02/11/05 6.31 8.37
-13.31539 -70.30889 2005 2 12 02/12/05 4.3 7.95
-13.31539 -70.30889 2005 2 13 Err:502 6.35 17.43
-13.31539 -70.30889 2005 2 14 Err:502 6.61 1.86
-13.31539 -70.30889 2005 2 15 Err:502 5.15 9.39
-13.31539 -70.30889 2005 2 16 Err:502 3.87 6.74
-13.31539 -70.30889 2005 2 17 Err:502 6.36 9.07
-13.31539 -70.30889 2005 2 18 Err:502 6.78 2.06
-13.31539 -70.30889 2005 2 19 Err:502 6.87 1.21
-13.31539 -70.30889 2005 2 20 Err:502 4.38 7.43
-13.31539 -70.30889 2005 2 21 Err:502 6.28 4.2
-13.31539 -70.30889 2005 2 22 Err:502 5.79 1.45
-13.31539 -70.30889 2005 2 23 Err:502 4.73 0.55
-13.31539 -70.30889 2005 2 24 Err:502 4.28 6.32
-13.31539 -70.30889 2005 2 25 Err:502 4.55 21.61
-13.31539 -70.30889 2005 2 26 Err:502 6.92 0.91
-13.31539 -70.30889 2005 2 27 Err:502 3.94 0.23
-13.31539 -70.30889 2005 2 28 Err:502 4.64 1.23
-13.31539 -70.30889 2005 3 1 03/01/05 5.26 1.75
-13.31539 -70.30889 2005 3 2 03/02/05 6.09 0.24
-13.31539 -70.30889 2005 3 3 03/03/05 7.22 2.63
-13.31539 -70.30889 2005 3 4 03/04/05 7.87 0.64
-13.31539 -70.30889 2005 3 5 03/05/05 8.01 0.14
-13.31539 -70.30889 2005 3 6 03/06/05 5.64 0.1
-13.31539 -70.30889 2005 3 7 03/07/05 5.23 2.37
-13.31539 -70.30889 2005 3 8 03/08/05 6.97 0.67
-13.31539 -70.30889 2005 3 9 03/09/05 5.62 2.25
-13.31539 -70.30889 2005 3 10 03/10/05 3.55 6.97
-13.31539 -70.30889 2005 3 11 03/11/05 5.72 8.6
-13.31539 -70.30889 2005 3 12 03/12/05 4.06 2.35
-13.31539 -70.30889 2005 3 13 Err:502 5.68 1.52
-13.31539 -70.30889 2005 3 14 Err:502 4.34 1.01
-13.31539 -70.30889 2005 3 15 Err:502 6.62 1.83
-13.31539 -70.30889 2005 3 16 Err:502 8.24 0.6
-13.31539 -70.30889 2005 3 17 Err:502 6.9 0
-13.31539 -70.30889 2005 3 18 Err:502 5.56 0.7
-13.31539 -70.30889 2005 3 19 Err:502 4.26 5.33
-13.31539 -70.30889 2005 3 20 Err:502 7.67 0.12
-13.31539 -70.30889 2005 3 21 Err:502 7.61 3.44
-13.31539 -70.30889 2005 3 22 Err:502 7.3 5.28
-13.31539 -70.30889 2005 3 23 Err:502 4.8 19.18
-13.31539 -70.30889 2005 3 24 Err:502 4.43 1.25
-13.31539 -70.30889 2005 3 25 Err:502 7.85 0.26
-13.31539 -70.30889 2005 3 26 Err:502 8.71 0.06
-13.31539 -70.30889 2005 3 27 Err:502 5.32 0.85
-13.31539 -70.30889 2005 3 28 Err:502 5.12 2.2
-13.31539 -70.30889 2005 3 29 Err:502 8.27 1.74
-13.31539 -70.30889 2005 3 30 Err:502 3.18 8.2
-13.31539 -70.30889 2005 3 31 Err:502 4.21 9.77
-13.31539 -70.30889 2005 4 1 04/01/05 6.67 3.95
-13.31539 -70.30889 2005 4 2 04/02/05 7.37 1.01
-13.31539 -70.30889 2005 4 3 04/03/05 3.68 22.25
-13.31539 -70.30889 2005 4 4 04/04/05 5.55 5.82
-13.31539 -70.30889 2005 4 5 04/05/05 7.04 0
-13.31539 -70.30889 2005 4 6 04/06/05 7.46 0
-13.31539 -70.30889 2005 4 7 04/07/05 5.43 0.04
-13.31539 -70.30889 2005 4 8 04/08/05 5.75 3.13
-13.31539 -70.30889 2005 4 9 04/09/05 6.78 0.15
-13.31539 -70.30889 2005 4 10 04/10/05 7.6 0
-13.31539 -70.30889 2005 4 11 04/11/05 7.31 0
-13.31539 -70.30889 2005 4 12 04/12/05 4.86 1.62
-13.31539 -70.30889 2005 4 13 Err:502 7.17 1.65
-13.31539 -70.30889 2005 4 14 Err:502 7.24 0.48
-13.31539 -70.30889 2005 4 15 Err:502 8.09 0.26
-13.31539 -70.30889 2005 4 16 Err:502 8.93 0.07
-13.31539 -70.30889 2005 4 17 Err:502 7.46 0.76
-13.31539 -70.30889 2005 4 18 Err:502 4.9 0.93
-13.31539 -70.30889 2005 4 19 Err:502 9.74 0.04
-13.31539 -70.30889 2005 4 20 Err:502 5.82 1.75
-13.31539 -70.30889 2005 4 21 Err:502 7.67 0.28
-13.31539 -70.30889 2005 4 22 Err:502 5.13 0.14
-13.31539 -70.30889 2005 4 23 Err:502 5.37 0.06
-13.31539 -70.30889 2005 4 24 Err:502 6.07 0.12
-13.31539 -70.30889 2005 4 25 Err:502 7.23 10.14
-13.31539 -70.30889 2005 4 26 Err:502 5.43 0.28
-13.31539 -70.30889 2005 4 27 Err:502 8.57 0
-13.31539 -70.30889 2005 4 28 Err:502 10.46 0
-13.31539 -70.30889 2005 4 29 Err:502 9.92 0
-13.31539 -70.30889 2005 4 30 Err:502 9.08 0
-13.31539 -70.30889 2005 5 1 05/01/05 10.09 0
-13.31539 -70.30889 2005 5 2 05/02/05 9.49 0
-13.31539 -70.30889 2005 5 3 05/03/05 9.51 0
-13.31539 -70.30889 2005 5 4 05/04/05 10.14 0
-13.31539 -70.30889 2005 5 5 05/05/05 7.11 1.02
-13.31539 -70.30889 2005 5 6 05/06/05 7.88 1.35
-13.31539 -70.30889 2005 5 7 05/07/05 6.11 0.17
-13.31539 -70.30889 2005 5 8 05/08/05 5.94 0.09
-13.31539 -70.30889 2005 5 9 05/09/05 8.37 0.03
-13.31539 -70.30889 2005 5 10 05/10/05 10.91 0
-13.31539 -70.30889 2005 5 11 05/11/05 7.89 0
-13.31539 -70.30889 2005 5 12 05/12/05 9.65 0
-13.31539 -70.30889 2005 5 13 Err:502 8.55 0
-13.31539 -70.30889 2005 5 14 Err:502 7.74 0.16
-13.31539 -70.30889 2005 5 15 Err:502 9.63 0.58
-13.31539 -70.30889 2005 5 16 Err:502 7.44 3.64
-13.31539 -70.30889 2005 5 17 Err:502 7.48 0.39
-13.31539 -70.30889 2005 5 18 Err:502 9.39 0
-13.31539 -70.30889 2005 5 19 Err:502 8.6 0.05
-13.31539 -70.30889 2005 5 20 Err:502 7.38 0.62
-13.31539 -70.30889 2005 5 21 Err:502 4.56 13.23
-13.31539 -70.30889 2005 5 22 Err:502 2.79 19.71
-13.31539 -70.30889 2005 5 23 Err:502 7.58 0.87
-13.31539 -70.30889 2005 5 24 Err:502 8.95 0.03
-13.31539 -70.30889 2005 5 25 Err:502 8.78 0.34
-13.31539 -70.30889 2005 5 26 Err:502 4.94 0.4
-13.31539 -70.30889 2005 5 27 Err:502 7.7 0
-13.31539 -70.30889 2005 5 28 Err:502 5.27 0
-13.31539 -70.30889 2005 5 29 Err:502 6.28 0
-13.31539 -70.30889 2005 5 30 Err:502 5.4 0.69
-13.31539 -70.30889 2005 5 31 Err:502 9.47 1.03
-13.31539 -70.30889 2005 6 1 06/01/05 7.83 0
-13.31539 -70.30889 2005 6 2 06/02/05 8.28 0
-13.31539 -70.30889 2005 6 3 06/03/05 6.84 0.02
-13.31539 -70.30889 2005 6 4 06/04/05 3.56 7.86
-13.31539 -70.30889 2005 6 5 06/05/05 7.29 4.52
-13.31539 -70.30889 2005 6 6 06/06/05 6.65 0
-13.31539 -70.30889 2005 6 7 06/07/05 7.93 0
-13.31539 -70.30889 2005 6 8 06/08/05 9.06 0
-13.31539 -70.30889 2005 6 9 06/09/05 8.79 0
-13.31539 -70.30889 2005 6 10 06/10/05 9.49 0.61
-13.31539 -70.30889 2005 6 11 06/11/05 9.31 0.74
-13.31539 -70.30889 2005 6 12 06/12/05 8.05 6.95
-13.31539 -70.30889 2005 6 13 Err:502 5.25 1.88
-13.31539 -70.30889 2005 6 14 Err:502 8.86 2.34
-13.31539 -70.30889 2005 6 15 Err:502 7.5 1.44
-13.31539 -70.30889 2005 6 16 Err:502 7.17 0.78
-13.31539 -70.30889 2005 6 17 Err:502 9.17 0
-13.31539 -70.30889 2005 6 18 Err:502 9.07 0
-13.31539 -70.30889 2005 6 19 Err:502 8.43 0.01
-13.31539 -70.30889 2005 6 20 Err:502 6.8 0.59
-13.31539 -70.30889 2005 6 21 Err:502 4.96 2.74
-13.31539 -70.30889 2005 6 22 Err:502 8.02 0.61
-13.31539 -70.30889 2005 6 23 Err:502 8.88 0
-13.31539 -70.30889 2005 6 24 Err:502 9.36 0
-13.31539 -70.30889 2005 6 25 Err:502 9.53 0
-13.31539 -70.30889 2005 6 26 Err:502 7.97 0
-13.31539 -70.30889 2005 6 27 Err:502 11.41 0
-13.31539 -70.30889 2005 6 28 Err:502 8.51 0
-13.31539 -70.30889 2005 6 29 Err:502 9 0
-13.31539 -70.30889 2005 6 30 Err:502 8.61 0.25
-13.31539 -70.30889 2005 7 1 07/01/05 7.15 0.82
-13.31539 -70.30889 2005 7 2 07/02/05 7.25 0
-13.31539 -70.30889 2005 7 3 07/03/05 9.62 0
-13.31539 -70.30889 2005 7 4 07/04/05 9.13 0
-13.31539 -70.30889 2005 7 5 07/05/05 5.6 0.08
-13.31539 -70.30889 2005 7 6 07/06/05 7.39 0.03
-13.31539 -70.30889 2005 7 7 07/07/05 7.9 0
-13.31539 -70.30889 2005 7 8 07/08/05 11.06 0
-13.31539 -70.30889 2005 7 9 07/09/05 10.43 0
-13.31539 -70.30889 2005 7 10 07/10/05 11.13 0
-13.31539 -70.30889 2005 7 11 07/11/05 11.64 0
-13.31539 -70.30889 2005 7 12 07/12/05 11.18 0
-13.31539 -70.30889 2005 7 13 Err:502 11.61 0
-13.31539 -70.30889 2005 7 14 Err:502 11.18 0
-13.31539 -70.30889 2005 7 15 Err:502 11.4 0
-13.31539 -70.30889 2005 7 16 Err:502 10.45 0
-13.31539 -70.30889 2005 7 17 Err:502 10.35 0.99
-13.31539 -70.30889 2005 7 18 Err:502 5.98 4.6
-13.31539 -70.30889 2005 7 19 Err:502 6.7 2.12
-13.31539 -70.30889 2005 7 20 Err:502 11.97 0.01
-13.31539 -70.30889 2005 7 21 Err:502 11.78 0
-13.31539 -70.30889 2005 7 22 Err:502 11.14 0
-13.31539 -70.30889 2005 7 23 Err:502 9.63 0
-13.31539 -70.30889 2005 7 24 Err:502 7.52 0
-13.31539 -70.30889 2005 7 25 Err:502 7.16 0
-13.31539 -70.30889 2005 7 26 Err:502 10.21 0.02
-13.31539 -70.30889 2005 7 27 Err:502 11.25 0.01
-13.31539 -70.30889 2005 7 28 Err:502 10.64 0
-13.31539 -70.30889 2005 7 29 Err:502 10.79 0
-13.31539 -70.30889 2005 7 30 Err:502 11.68 0
-13.31539 -70.30889 2005 7 31 Err:502 11.66 0
-13.31539 -70.30889 2005 8 1 08/01/05 11.34 0
-13.31539 -70.30889 2005 8 2 08/02/05 10.92 0
-13.31539 -70.30889 2005 8 3 08/03/05 9.4 0
-13.31539 -70.30889 2005 8 4 08/04/05 9.53 0
-13.31539 -70.30889 2005 8 5 08/05/05 8.58 0.4
-13.31539 -70.30889 2005 8 6 08/06/05 9.8 2.04
-13.31539 -70.30889 2005 8 7 08/07/05 9.9 0.25
-13.31539 -70.30889 2005 8 8 08/08/05 7.61 0.5
-13.31539 -70.30889 2005 8 9 08/09/05 8.31 0
-13.31539 -70.30889 2005 8 10 08/10/05 11.06 0
-13.31539 -70.30889 2005 8 11 08/11/05 13.68 0
-13.31539 -70.30889 2005 8 12 08/12/05 13.37 0
-13.31539 -70.30889 2005 8 13 Err:502 12.61 0
-13.31539 -70.30889 2005 8 14 Err:502 13.18 0
-13.31539 -70.30889 2005 8 15 Err:502 11.75 0
-13.31539 -70.30889 2005 8 16 Err:502 11.17 0
-13.31539 -70.30889 2005 8 17 Err:502 10.97 0.18
-13.31539 -70.30889 2005 8 18 Err:502 10.99 1.26
-13.31539 -70.30889 2005 8 19 Err:502 9.04 0.01
-13.31539 -70.30889 2005 8 20 Err:502 9.48 0.4
-13.31539 -70.30889 2005 8 21 Err:502 9.6 0.09
-13.31539 -70.30889 2005 8 22 Err:502 8.85 0
-13.31539 -70.30889 2005 8 23 Err:502 8.62 0
-13.31539 -70.30889 2005 8 24 Err:502 7.16 1.18
-13.31539 -70.30889 2005 8 25 Err:502 5.95 14.35
-13.31539 -70.30889 2005 8 26 Err:502 8.8 0
-13.31539 -70.30889 2005 8 27 Err:502 12.03 0
-13.31539 -70.30889 2005 8 28 Err:502 10.19 0
-13.31539 -70.30889 2005 8 29 Err:502 9.57 0.01
-13.31539 -70.30889 2005 8 30 Err:502 7.84 2.28
-13.31539 -70.30889 2005 8 31 Err:502 9.18 0.89
-13.31539 -70.30889 2005 9 1 09/01/05 7.88 0.56
-13.31539 -70.30889 2005 9 2 09/02/05 8.82 1.41
-13.31539 -70.30889 2005 9 3 09/03/05 12.99 0
-13.31539 -70.30889 2005 9 4 09/04/05 12.29 0
-13.31539 -70.30889 2005 9 5 09/05/05 9.82 0
-13.31539 -70.30889 2005 9 6 09/06/05 3.11 0.01
-13.31539 -70.30889 2005 9 7 09/07/05 9.6 0.52
-13.31539 -70.30889 2005 9 8 09/08/05 11.42 0.33
-13.31539 -70.30889 2005 9 9 09/09/05 9.6 0.33
-13.31539 -70.30889 2005 9 10 09/10/05 11.56 0
-13.31539 -70.30889 2005 9 11 09/11/05 11.08 0.01
-13.31539 -70.30889 2005 9 12 09/12/05 7.1 0.09
-13.31539 -70.30889 2005 9 13 Err:502 7.37 0.91
-13.31539 -70.30889 2005 9 14 Err:502 11.64 3.29
-13.31539 -70.30889 2005 9 15 Err:502 13.37 0.58
-13.31539 -70.30889 2005 9 16 Err:502 11.02 0.01
-13.31539 -70.30889 2005 9 17 Err:502 9.65 0
-13.31539 -70.30889 2005 9 18 Err:502 11.43 0
-13.31539 -70.30889 2005 9 19 Err:502 12.17 0
-13.31539 -70.30889 2005 9 20 Err:502 12.9 0
-13.31539 -70.30889 2005 9 21 Err:502 11.09 0
-13.31539 -70.30889 2005 9 22 Err:502 4.94 0
-13.31539 -70.30889 2005 9 23 Err:502 12.53 0
-13.31539 -70.30889 2005 9 24 Err:502 9.7 0
-13.31539 -70.30889 2005 9 25 Err:502 12.04 4.72
-13.31539 -70.30889 2005 9 26 Err:502 4.25 7.23
-13.31539 -70.30889 2005 9 27 Err:502 12.81 0.11
-13.31539 -70.30889 2005 9 28 Err:502 13.23 0
-13.31539 -70.30889 2005 9 29 Err:502 12.75 0.03
-13.31539 -70.30889 2005 9 30 Err:502 8.99 0.25
-13.31539 -70.30889 2005 10 1 10/01/05 9.29 0.58
-13.31539 -70.30889 2005 10 2 10/02/05 6.21 2.67
-13.31539 -70.30889 2005 10 3 10/03/05 12.3 2.11
-13.31539 -70.30889 2005 10 4 10/04/05 9.5 1.14
-13.31539 -70.30889 2005 10 5 10/05/05 6.55 4.25
-13.31539 -70.30889 2005 10 6 10/06/05 4.92 5.28
-13.31539 -70.30889 2005 10 7 10/07/05 10.28 3.95
-13.31539 -70.30889 2005 10 8 10/08/05 7.83 3.38
-13.31539 -70.30889 2005 10 9 10/09/05 8.63 5.76
-13.31539 -70.30889 2005 10 10 10/10/05 9.72 0.4
-13.31539 -70.30889 2005 10 11 10/11/05 10.97 0.04
-13.31539 -70.30889 2005 10 12 10/12/05 8.95 0
-13.31539 -70.30889 2005 10 13 Err:502 7.28 0.34
-13.31539 -70.30889 2005 10 14 Err:502 8.85 4.53
-13.31539 -70.30889 2005 10 15 Err:502 5.32 12.16
-13.31539 -70.30889 2005 10 16 Err:502 7.41 5.58
-13.31539 -70.30889 2005 10 17 Err:502 8.18 5.13
-13.31539 -70.30889 2005 10 18 Err:502 5.14 7.28
-13.31539 -70.30889 2005 10 19 Err:502 4.61 0.69
-13.31539 -70.30889 2005 10 20 Err:502 10.36 0.66
-13.31539 -70.30889 2005 10 21 Err:502 9.64 0.15
-13.31539 -70.30889 2005 10 22 Err:502 8.75 0.06
-13.31539 -70.30889 2005 10 23 Err:502 7.49 12.54
-13.31539 -70.30889 2005 10 24 Err:502 5.86 3.03
-13.31539 -70.30889 2005 10 25 Err:502 9.66 3.59
-13.31539 -70.30889 2005 10 26 Err:502 5.98 4.76
-13.31539 -70.30889 2005 10 27 Err:502 7.21 0.55
-13.31539 -70.30889 2005 10 28 Err:502 7.96 0.07
-13.31539 -70.30889 2005 10 29 Err:502 5.91 1.29
-13.31539 -70.30889 2005 10 30 Err:502 6.37 2.64
-13.31539 -70.30889 2005 10 31 Err:502 7.02 4.1
-13.31539 -70.30889 2005 11 1 11/01/05 9.5 0.05
-13.31539 -70.30889 2005 11 2 11/02/05 9.91 0
-13.31539 -70.30889 2005 11 3 11/03/05 9.52 0
-13.31539 -70.30889 2005 11 4 11/04/05 10.05 0
-13.31539 -70.30889 2005 11 5 11/05/05 10.12 0.11
-13.31539 -70.30889 2005 11 6 11/06/05 9.49 0.68
-13.31539 -70.30889 2005 11 7 11/07/05 3.95 13.4
-13.31539 -70.30889 2005 11 8 11/08/05 4.13 15.87
-13.31539 -70.30889 2005 11 9 11/09/05 9.49 3.35
-13.31539 -70.30889 2005 11 10 11/10/05 8.38 0.62
-13.31539 -70.30889 2005 11 11 11/11/05 8.53 4.76
-13.31539 -70.30889 2005 11 12 11/12/05 5.01 5.56
-13.31539 -70.30889 2005 11 13 Err:502 9.19 0.73
-13.31539 -70.30889 2005 11 14 Err:502 7.14 0.2
-13.31539 -70.30889 2005 11 15 Err:502 7.42 2.54
-13.31539 -70.30889 2005 11 16 Err:502 5.17 1.11
-13.31539 -70.30889 2005 11 17 Err:502 4.69 0.04
-13.31539 -70.30889 2005 11 18 Err:502 6.83 0.79
-13.31539 -70.30889 2005 11 19 Err:502 5.64 7.45
-13.31539 -70.30889 2005 11 20 Err:502 3.77 8.96
-13.31539 -70.30889 2005 11 21 Err:502 9.2 2.28
-13.31539 -70.30889 2005 11 22 Err:502 6.57 4.8
-13.31539 -70.30889 2005 11 23 Err:502 5.05 3.28
-13.31539 -70.30889 2005 11 24 Err:502 5.4 12.4
-13.31539 -70.30889 2005 11 25 Err:502 3.3 17.78
-13.31539 -70.30889 2005 11 26 Err:502 6.86 3.24
-13.31539 -70.30889 2005 11 27 Err:502 7.41 1.93
-13.31539 -70.30889 2005 11 28 Err:502 6.13 0.1
-13.31539 -70.30889 2005 11 29 Err:502 6.49 0.04
-13.31539 -70.30889 2005 11 30 Err:502 4.85 2.64
-13.31539 -70.30889 2005 12 1 12/01/05 3.62 13.1
-13.31539 -70.30889 2005 12 2 12/02/05 7.81 2.22
-13.31539 -70.30889 2005 12 3 12/03/05 6.26 1.87
-13.31539 -70.30889 2005 12 4 12/04/05 6.96 1.73
-13.31539 -70.30889 2005 12 5 12/05/05 6.96 1.23
-13.31539 -70.30889 2005 12 6 12/06/05 8.44 0.41
-13.31539 -70.30889 2005 12 7 12/07/05 3.85 50.79
-13.31539 -70.30889 2005 12 8 12/08/05 8.3 1.87
-13.31539 -70.30889 2005 12 9 12/09/05 6.47 0.29
-13.31539 -70.30889 2005 12 10 12/10/05 7.66 8
-13.31539 -70.30889 2005 12 11 12/11/05 3.57 21.8
-13.31539 -70.30889 2005 12 12 12/12/05 7.09 2.95
-13.31539 -70.30889 2005 12 13 Err:502 7.26 3.21
-13.31539 -70.30889 2005 12 14 Err:502 6.65 6.14
-13.31539 -70.30889 2005 12 15 Err:502 3.94 8.87
-13.31539 -70.30889 2005 12 16 Err:502 6.01 3.41
-13.31539 -70.30889 2005 12 17 Err:502 5.49 0.85
-13.31539 -70.30889 2005 12 18 Err:502 3.66 4.22
-13.31539 -70.30889 2005 12 19 Err:502 5.7 2.22
-13.31539 -70.30889 2005 12 20 Err:502 4.04 17.01
-13.31539 -70.30889 2005 12 21 Err:502 4.64 11.91
-13.31539 -70.30889 2005 12 22 Err:502 6.09 0.3
-13.31539 -70.30889 2005 12 23 Err:502 5.15 0
-13.31539 -70.30889 2005 12 24 Err:502 4.37 6.09
-13.31539 -70.30889 2005 12 25 Err:502 3.89 10.64
-13.31539 -70.30889 2005 12 26 Err:502 6.12 4.07
-13.31539 -70.30889 2005 12 27 Err:502 5.55 7.09
-13.31539 -70.30889 2005 12 28 Err:502 6.32 5.59
-13.31539 -70.30889 2005 12 29 Err:502 3.41 12.39
-13.31539 -70.30889 2005 12 30 Err:502 5.36 1.3
-13.31539 -70.30889 2005 12 31 Err:502 7.53 1.06
-13.31539 -70.30889 2006 1 1 01/01/06 4.52 12.8
-13.31539 -70.30889 2006 1 2 01/02/06 2.91 12.59
-13.31539 -70.30889 2006 1 3 01/03/06 3.48 2.34
-13.31539 -70.30889 2006 1 4 01/04/06 6.31 1.49
-13.31539 -70.30889 2006 1 5 01/05/06 4.98 1.38
-13.31539 -70.30889 2006 1 6 01/06/06 7.1 0.17
-13.31539 -70.30889 2006 1 7 01/07/06 7.78 0
-13.31539 -70.30889 2006 1 8 01/08/06 7.39 0.25
-13.31539 -70.30889 2006 1 9 01/09/06 4.1 4.91
-13.31539 -70.30889 2006 1 10 01/10/06 3.77 2.82
-13.31539 -70.30889 2006 1 11 01/11/06 3.3 15.6
-13.31539 -70.30889 2006 1 12 01/12/06 2.86 46.38
-13.31539 -70.30889 2006 1 13 Err:502 4.58 26.97
-13.31539 -70.30889 2006 1 14 Err:502 3.38 23.05
-13.31539 -70.30889 2006 1 15 Err:502 5.27 40.84
-13.31539 -70.30889 2006 1 16 Err:502 5.23 13.22
-13.31539 -70.30889 2006 1 17 Err:502 2.98 10.4
-13.31539 -70.30889 2006 1 18 Err:502 5.37 24.23
-13.31539 -70.30889 2006 1 19 Err:502 7.28 8.21
-13.31539 -70.30889 2006 1 20 Err:502 4.17 8.6
-13.31539 -70.30889 2006 1 21 Err:502 4.34 19.37
-13.31539 -70.30889 2006 1 22 Err:502 4.06 12.18
-13.31539 -70.30889 2006 1 23 Err:502 5.57 3.96
-13.31539 -70.30889 2006 1 24 Err:502 4.54 13
-13.31539 -70.30889 2006 1 25 Err:502 5.55 5.93
-13.31539 -70.30889 2006 1 26 Err:502 6.27 1.57
-13.31539 -70.30889 2006 1 27 Err:502 3.77 1.4
-13.31539 -70.30889 2006 1 28 Err:502 6.51 1.81
-13.31539 -70.30889 2006 1 29 Err:502 5.12 1.17
-13.31539 -70.30889 2006 1 30 Err:502 6.27 0.45
-13.31539 -70.30889 2006 1 31 Err:502 4.75 1.43
-13.31539 -70.30889 2006 2 1 02/01/06 3.57 23.81
-13.31539 -70.30889 2006 2 2 02/02/06 5.45 1.22
-13.31539 -70.30889 2006 2 3 02/03/06 4.47 8.48
-13.31539 -70.30889 2006 2 4 02/04/06 4.39 0.32
-13.31539 -70.30889 2006 2 5 02/05/06 4.26 1.87
-13.31539 -70.30889 2006 2 6 02/06/06 3.76 9.39
-13.31539 -70.30889 2006 2 7 02/07/06 4.71 11.02
-13.31539 -70.30889 2006 2 8 02/08/06 4.56 3.25
-13.31539 -70.30889 2006 2 9 02/09/06 5.65 0.49
-13.31539 -70.30889 2006 2 10 02/10/06 2.79 10.04
-13.31539 -70.30889 2006 2 11 02/11/06 4.85 3.96
-13.31539 -70.30889 2006 2 12 02/12/06 4.3 2.43
-13.31539 -70.30889 2006 2 13 Err:502 7.91 6.31
-13.31539 -70.30889 2006 2 14 Err:502 5.74 9.73
-13.31539 -70.30889 2006 2 15 Err:502 5.19 2.41
-13.31539 -70.30889 2006 2 16 Err:502 8.71 0.2
-13.31539 -70.30889 2006 2 17 Err:502 6.13 5.32
-13.31539 -70.30889 2006 2 18 Err:502 5.96 12.75
-13.31539 -70.30889 2006 2 19 Err:502 4.88 3.03
-13.31539 -70.30889 2006 2 20 Err:502 2.99 7.08
-13.31539 -70.30889 2006 2 21 Err:502 4.67 0.98
-13.31539 -70.30889 2006 2 22 Err:502 6.78 14.4
-13.31539 -70.30889 2006 2 23 Err:502 5.08 3
-13.31539 -70.30889 2006 2 24 Err:502 6.12 0.93
-13.31539 -70.30889 2006 2 25 Err:502 3.14 9.64
-13.31539 -70.30889 2006 2 26 Err:502 4.08 5.41
-13.31539 -70.30889 2006 2 27 Err:502 5.01 0.61
-13.31539 -70.30889 2006 2 28 Err:502 4.15 0.16
-13.31539 -70.30889 2006 3 1 03/01/06 5.93 3.26
-13.31539 -70.30889 2006 3 2 03/02/06 4.88 6.57
-13.31539 -70.30889 2006 3 3 03/03/06 5.11 3.04
-13.31539 -70.30889 2006 3 4 03/04/06 4.55 0.75
-13.31539 -70.30889 2006 3 5 03/05/06 6.64 0.04
-13.31539 -70.30889 2006 3 6 03/06/06 6.18 0.85
-13.31539 -70.30889 2006 3 7 03/07/06 4.2 0.75
-13.31539 -70.30889 2006 3 8 03/08/06 5.63 0.09
-13.31539 -70.30889 2006 3 9 03/09/06 5.18 0.85
-13.31539 -70.30889 2006 3 10 03/10/06 4.76 2.49
-13.31539 -70.30889 2006 3 11 03/11/06 4.81 0.74
-13.31539 -70.30889 2006 3 12 03/12/06 6.01 0.17
-13.31539 -70.30889 2006 3 13 Err:502 3.19 2.12
-13.31539 -70.30889 2006 3 14 Err:502 4.01 0.56
-13.31539 -70.30889 2006 3 15 Err:502 5.71 0.08
-13.31539 -70.30889 2006 3 16 Err:502 4.35 5.91
-13.31539 -70.30889 2006 3 17 Err:502 6.01 3.55
-13.31539 -70.30889 2006 3 18 Err:502 3.77 31.52
-13.31539 -70.30889 2006 3 19 Err:502 5.59 3.03
-13.31539 -70.30889 2006 3 20 Err:502 5.39 2.6
-13.31539 -70.30889 2006 3 21 Err:502 5.25 4.61
-13.31539 -70.30889 2006 3 22 Err:502 5.04 10.29
-13.31539 -70.30889 2006 3 23 Err:502 4.75 6.07
-13.31539 -70.30889 2006 3 24 Err:502 4.18 2.8
-13.31539 -70.30889 2006 3 25 Err:502 4.86 2.43
-13.31539 -70.30889 2006 3 26 Err:502 4.31 4.19
-13.31539 -70.30889 2006 3 27 Err:502 4.95 3.79
-13.31539 -70.30889 2006 3 28 Err:502 5.05 0.61
-13.31539 -70.30889 2006 3 29 Err:502 6.07 4.1
-13.31539 -70.30889 2006 3 30 Err:502 4.58 4.61
-13.31539 -70.30889 2006 3 31 Err:502 5.65 6.13
-13.31539 -70.30889 2006 4 1 04/01/06 3.97 11.64
-13.31539 -70.30889 2006 4 2 04/02/06 5.91 2.03
-13.31539 -70.30889 2006 4 3 04/03/06 5.23 12.91
-13.31539 -70.30889 2006 4 4 04/04/06 5.41 13.73
-13.31539 -70.30889 2006 4 5 04/05/06 6.7 12.9
-13.31539 -70.30889 2006 4 6 04/06/06 4.46 8.45
-13.31539 -70.30889 2006 4 7 04/07/06 4.18 23.76
-13.31539 -70.30889 2006 4 8 04/08/06 3.5 6.14
-13.31539 -70.30889 2006 4 9 04/09/06 4.88 22.61
-13.31539 -70.30889 2006 4 10 04/10/06 3.33 40.59
-13.31539 -70.30889 2006 4 11 04/11/06 5.53 2.5
-13.31539 -70.30889 2006 4 12 04/12/06 4.19 0.37
-13.31539 -70.30889 2006 4 13 Err:502 5.36 0.11
-13.31539 -70.30889 2006 4 14 Err:502 5.88 0.28
-13.31539 -70.30889 2006 4 15 Err:502 3.6 3.49
-13.31539 -70.30889 2006 4 16 Err:502 4.28 5.45
-13.31539 -70.30889 2006 4 17 Err:502 4.66 2.18
-13.31539 -70.30889 2006 4 18 Err:502 6.19 0.53
-13.31539 -70.30889 2006 4 19 Err:502 7.65 0.14
-13.31539 -70.30889 2006 4 20 Err:502 7.24 0
-13.31539 -70.30889 2006 4 21 Err:502 5.58 0.11
-13.31539 -70.30889 2006 4 22 Err:502 6.37 0.12
-13.31539 -70.30889 2006 4 23 Err:502 5.57 0.01
-13.31539 -70.30889 2006 4 24 Err:502 5.21 0.01
-13.31539 -70.30889 2006 4 25 Err:502 4.28 0.05
-13.31539 -70.30889 2006 4 26 Err:502 6.15 1.66
-13.31539 -70.30889 2006 4 27 Err:502 6.91 0.17
-13.31539 -70.30889 2006 4 28 Err:502 6.92 0
-13.31539 -70.30889 2006 4 29 Err:502 4.74 4.39
-13.31539 -70.30889 2006 4 30 Err:502 7.4 0.38
-13.31539 -70.30889 2006 5 1 05/01/06 6.22 0.01
-13.31539 -70.30889 2006 5 2 05/02/06 6.12 0
-13.31539 -70.30889 2006 5 3 05/03/06 5.8 0
-13.31539 -70.30889 2006 5 4 05/04/06 6.77 0.03
-13.31539 -70.30889 2006 5 5 05/05/06 7.54 0.01
-13.31539 -70.30889 2006 5 6 05/06/06 7.39 0
-13.31539 -70.30889 2006 5 7 05/07/06 6.16 0.21
-13.31539 -70.30889 2006 5 8 05/08/06 4.94 0.03
-13.31539 -70.30889 2006 5 9 05/09/06 5.97 0.01
-13.31539 -70.30889 2006 5 10 05/10/06 7.06 0
-13.31539 -70.30889 2006 5 11 05/11/06 8.07 0
-13.31539 -70.30889 2006 5 12 05/12/06 7.81 0
-13.31539 -70.30889 2006 5 13 Err:502 7.71 0
-13.31539 -70.30889 2006 5 14 Err:502 8.35 0
-13.31539 -70.30889 2006 5 15 Err:502 8.71 0
-13.31539 -70.30889 2006 5 16 Err:502 9.21 0
-13.31539 -70.30889 2006 5 17 Err:502 7.85 0
-13.31539 -70.30889 2006 5 18 Err:502 6.24 0.05
-13.31539 -70.30889 2006 5 19 Err:502 5.51 0.22
-13.31539 -70.30889 2006 5 20 Err:502 4.92 0.11
-13.31539 -70.30889 2006 5 21 Err:502 5.25 4.61
-13.31539 -70.30889 2006 5 22 Err:502 5.72 3.2
-13.31539 -70.30889 2006 5 23 Err:502 7.05 0.2
-13.31539 -70.30889 2006 5 24 Err:502 7.99 0
-13.31539 -70.30889 2006 5 25 Err:502 8.59 0
-13.31539 -70.30889 2006 5 26 Err:502 8.57 0
-13.31539 -70.30889 2006 5 27 Err:502 8.41 0
-13.31539 -70.30889 2006 5 28 Err:502 8.09 0
-13.31539 -70.30889 2006 5 29 Err:502 8.12 0
-13.31539 -70.30889 2006 5 30 Err:502 7.75 0
-13.31539 -70.30889 2006 5 31 Err:502 5.83 0.71
-13.31539 -70.30889 2006 6 1 06/01/06 6.4 1.09
-13.31539 -70.30889 2006 6 2 06/02/06 7.72 0.01
-13.31539 -70.30889 2006 6 3 06/03/06 5.88 1.39
-13.31539 -70.30889 2006 6 4 06/04/06 5.16 3.6
-13.31539 -70.30889 2006 6 5 06/05/06 3.32 2.56
-13.31539 -70.30889 2006 6 6 06/06/06 7.07 0.91
-13.31539 -70.30889 2006 6 7 06/07/06 5.49 2.06
-13.31539 -70.30889 2006 6 8 06/08/06 6.28 0.73
-13.31539 -70.30889 2006 6 9 06/09/06 5.9 1.11
-13.31539 -70.30889 2006 6 10 06/10/06 5.42 4.81
-13.31539 -70.30889 2006 6 11 06/11/06 4 12.84
-13.31539 -70.30889 2006 6 12 06/12/06 6.01 0.38
-13.31539 -70.30889 2006 6 13 Err:502 7.63 0
-13.31539 -70.30889 2006 6 14 Err:502 7.57 0.7
-13.31539 -70.30889 2006 6 15 Err:502 7.44 0
-13.31539 -70.30889 2006 6 16 Err:502 6.98 0
-13.31539 -70.30889 2006 6 17 Err:502 7.72 0
-13.31539 -70.30889 2006 6 18 Err:502 7.81 0
-13.31539 -70.30889 2006 6 19 Err:502 7.43 0
-13.31539 -70.30889 2006 6 20 Err:502 6.7 0
-13.31539 -70.30889 2006 6 21 Err:502 5.16 0
-13.31539 -70.30889 2006 6 22 Err:502 6.95 2.2
-13.31539 -70.30889 2006 6 23 Err:502 4.56 2.22
-13.31539 -70.30889 2006 6 24 Err:502 7.43 1.27
-13.31539 -70.30889 2006 6 25 Err:502 6.97 0.37
-13.31539 -70.30889 2006 6 26 Err:502 7.62 0.07
-13.31539 -70.30889 2006 6 27 Err:502 5.59 0.48
-13.31539 -70.30889 2006 6 28 Err:502 6.5 0.94
-13.31539 -70.30889 2006 6 29 Err:502 5.36 0.06
-13.31539 -70.30889 2006 6 30 Err:502 7.97 0
-13.31539 -70.30889 2006 7 1 07/01/06 6.62 0
-13.31539 -70.30889 2006 7 2 07/02/06 9.22 0.04
-13.31539 -70.30889 2006 7 3 07/03/06 8.49 0.05
-13.31539 -70.30889 2006 7 4 07/04/06 9.64 0
-13.31539 -70.30889 2006 7 5 07/05/06 9.64 0
-13.31539 -70.30889 2006 7 6 07/06/06 10.3 0
-13.31539 -70.30889 2006 7 7 07/07/06 10.48 0
-13.31539 -70.30889 2006 7 8 07/08/06 11.08 0
-13.31539 -70.30889 2006 7 9 07/09/06 10.71 0
-13.31539 -70.30889 2006 7 10 07/10/06 9.15 0
-13.31539 -70.30889 2006 7 11 07/11/06 8.35 0
-13.31539 -70.30889 2006 7 12 07/12/06 9.77 0
-13.31539 -70.30889 2006 7 13 Err:502 8.18 0.01
-13.31539 -70.30889 2006 7 14 Err:502 7.64 0.15
-13.31539 -70.30889 2006 7 15 Err:502 7.78 0.13
-13.31539 -70.30889 2006 7 16 Err:502 8.63 0.03
-13.31539 -70.30889 2006 7 17 Err:502 9.75 0
-13.31539 -70.30889 2006 7 18 Err:502 10.35 0
-13.31539 -70.30889 2006 7 19 Err:502 10.36 0
-13.31539 -70.30889 2006 7 20 Err:502 11.11 0
-13.31539 -70.30889 2006 7 21 Err:502 10.83 0
-13.31539 -70.30889 2006 7 22 Err:502 11.11 0
-13.31539 -70.30889 2006 7 23 Err:502 11.24 0.01
-13.31539 -70.30889 2006 7 24 Err:502 10.57 0.18
-13.31539 -70.30889 2006 7 25 Err:502 9.72 0.11
-13.31539 -70.30889 2006 7 26 Err:502 10.24 0.07
-13.31539 -70.30889 2006 7 27 Err:502 8.05 0.04
-13.31539 -70.30889 2006 7 28 Err:502 9.24 0.01
-13.31539 -70.30889 2006 7 29 Err:502 7.03 0.17
-13.31539 -70.30889 2006 7 30 Err:502 5.78 0.78
-13.31539 -70.30889 2006 7 31 Err:502 8.52 0.21
-13.31539 -70.30889 2006 8 1 08/01/06 11.31 0
-13.31539 -70.30889 2006 8 2 08/02/06 10.93 0
-13.31539 -70.30889 2006 8 3 08/03/06 10.19 0
-13.31539 -70.30889 2006 8 4 08/04/06 9.4 0
-13.31539 -70.30889 2006 8 5 08/05/06 8.92 0
-13.31539 -70.30889 2006 8 6 08/06/06 8.7 0
-13.31539 -70.30889 2006 8 7 08/07/06 10 0
-13.31539 -70.30889 2006 8 8 08/08/06 9.78 0
-13.31539 -70.30889 2006 8 9 08/09/06 9.56 0.46
-13.31539 -70.30889 2006 8 10 08/10/06 7.34 1
-13.31539 -70.30889 2006 8 11 08/11/06 9.57 0
-13.31539 -70.30889 2006 8 12 08/12/06 11.13 0
-13.31539 -70.30889 2006 8 13 Err:502 9.61 0
-13.31539 -70.30889 2006 8 14 Err:502 10.92 0
-13.31539 -70.30889 2006 8 15 Err:502 10.08 0
-13.31539 -70.30889 2006 8 16 Err:502 6.23 1.01
-13.31539 -70.30889 2006 8 17 Err:502 3.35 6.01
-13.31539 -70.30889 2006 8 18 Err:502 8.99 2.41
-13.31539 -70.30889 2006 8 19 Err:502 9.47 0.01
-13.31539 -70.30889 2006 8 20 Err:502 10.52 1.02
-13.31539 -70.30889 2006 8 21 Err:502 9.33 0.78
-13.31539 -70.30889 2006 8 22 Err:502 11.84 0
-13.31539 -70.30889 2006 8 23 Err:502 10.57 0
-13.31539 -70.30889 2006 8 24 Err:502 11.38 0
-13.31539 -70.30889 2006 8 25 Err:502 9.84 0
-13.31539 -70.30889 2006 8 26 Err:502 10.18 0
-13.31539 -70.30889 2006 8 27 Err:502 9.51 0
-13.31539 -70.30889 2006 8 28 Err:502 9.94 0.11
-13.31539 -70.30889 2006 8 29 Err:502 3.88 0.33
-13.31539 -70.30889 2006 8 30 Err:502 12.4 0.01
-13.31539 -70.30889 2006 8 31 Err:502 10.68 0
-13.31539 -70.30889 2006 9 1 09/01/06 8.2 0.38
-13.31539 -70.30889 2006 9 2 09/02/06 8.5 0.69
-13.31539 -70.30889 2006 9 3 09/03/06 4.01 1.39
-13.31539 -70.30889 2006 9 4 09/04/06 5.68 0.33
-13.31539 -70.30889 2006 9 5 09/05/06 11.06 0
-13.31539 -70.30889 2006 9 6 09/06/06 12.67 0
-13.31539 -70.30889 2006 9 7 09/07/06 12.92 0
-13.31539 -70.30889 2006 9 8 09/08/06 12.29 0.01
-13.31539 -70.30889 2006 9 9 09/09/06 8.63 0.13
-13.31539 -70.30889 2006 9 10 09/10/06 6.12 0.2
-13.31539 -70.30889 2006 9 11 09/11/06 10.87 0
-13.31539 -70.30889 2006 9 12 09/12/06 9.56 0
-13.31539 -70.30889 2006 9 13 Err:502 6.63 0
-13.31539 -70.30889 2006 9 14 Err:502 5.8 0.07
-13.31539 -70.30889 2006 9 15 Err:502 11.09 0.01
-13.31539 -70.30889 2006 9 16 Err:502 8.98 0.05
-13.31539 -70.30889 2006 9 17 Err:502 3.88 0.01
-13.31539 -70.30889 2006 9 18 Err:502 12.84 0
-13.31539 -70.30889 2006 9 19 Err:502 10.59 0
-13.31539 -70.30889 2006 9 20 Err:502 9.45 0.98
-13.31539 -70.30889 2006 9 21 Err:502 8.67 1.49
-13.31539 -70.30889 2006 9 22 Err:502 6.8 0.06
-13.31539 -70.30889 2006 9 23 Err:502 9.65 7.03
-13.31539 -70.30889 2006 9 24 Err:502 4.17 4.84
-13.31539 -70.30889 2006 9 25 Err:502 10.49 0.14
-13.31539 -70.30889 2006 9 26 Err:502 12.15 0.48
-13.31539 -70.30889 2006 9 27 Err:502 11.71 0.55
-13.31539 -70.30889 2006 9 28 Err:502 5.99 14.68
-13.31539 -70.30889 2006 9 29 Err:502 6.48 11.42
-13.31539 -70.30889 2006 9 30 Err:502 10.08 0.05
-13.31539 -70.30889 2006 10 1 10/01/06 8.15 0.24
-13.31539 -70.30889 2006 10 2 10/02/06 7.67 7.38
-13.31539 -70.30889 2006 10 3 10/03/06 6.22 4.32
-13.31539 -70.30889 2006 10 4 10/04/06 10.63 1.59
-13.31539 -70.30889 2006 10 5 10/05/06 6.42 3.16
-13.31539 -70.30889 2006 10 6 10/06/06 7.39 2.99
-13.31539 -70.30889 2006 10 7 10/07/06 9.68 1.79
-13.31539 -70.30889 2006 10 8 10/08/06 8.99 1.31
-13.31539 -70.30889 2006 10 9 10/09/06 8.32 0.37
-13.31539 -70.30889 2006 10 10 10/10/06 8.93 1.43
-13.31539 -70.30889 2006 10 11 10/11/06 10.52 4.26
-13.31539 -70.30889 2006 10 12 10/12/06 8.94 6.41
-13.31539 -70.30889 2006 10 13 Err:502 9.56 2.81
-13.31539 -70.30889 2006 10 14 Err:502 6.88 0.03
-13.31539 -70.30889 2006 10 15 Err:502 9.06 0.29
-13.31539 -70.30889 2006 10 16 Err:502 7.16 20.57
-13.31539 -70.30889 2006 10 17 Err:502 8.41 0.89
-13.31539 -70.30889 2006 10 18 Err:502 7.74 0.18
-13.31539 -70.30889 2006 10 19 Err:502 7.31 2.37
-13.31539 -70.30889 2006 10 20 Err:502 6.79 3.43
-13.31539 -70.30889 2006 10 21 Err:502 5.31 8.84
-13.31539 -70.30889 2006 10 22 Err:502 9.18 2.41
-13.31539 -70.30889 2006 10 23 Err:502 7.89 1.77
-13.31539 -70.30889 2006 10 24 Err:502 6.66 0.5
-13.31539 -70.30889 2006 10 25 Err:502 6.65 8.53
-13.31539 -70.30889 2006 10 26 Err:502 6.25 2.73
-13.31539 -70.30889 2006 10 27 Err:502 6.07 1.96
-13.31539 -70.30889 2006 10 28 Err:502 3.77 10.1
-13.31539 -70.30889 2006 10 29 Err:502 6.27 3.15
-13.31539 -70.30889 2006 10 30 Err:502 7.58 0.59
-13.31539 -70.30889 2006 10 31 Err:502 9.3 0.87
-13.31539 -70.30889 2006 11 1 11/01/06 8.23 0.44
-13.31539 -70.30889 2006 11 2 11/02/06 6.59 8.61
-13.31539 -70.30889 2006 11 3 11/03/06 3.3 18.63
-13.31539 -70.30889 2006 11 4 11/04/06 5.46 6.29
-13.31539 -70.30889 2006 11 5 11/05/06 4.97 1.29
-13.31539 -70.30889 2006 11 6 11/06/06 7.8 1.45
-13.31539 -70.30889 2006 11 7 11/07/06 3.65 6.52
-13.31539 -70.30889 2006 11 8 11/08/06 5.61 3.13
-13.31539 -70.30889 2006 11 9 11/09/06 7.52 0.43
-13.31539 -70.30889 2006 11 10 11/10/06 6.62 0.47
-13.31539 -70.30889 2006 11 11 11/11/06 7.28 0.41
-13.31539 -70.30889 2006 11 12 11/12/06 9.79 0
-13.31539 -70.30889 2006 11 13 Err:502 10.55 0
-13.31539 -70.30889 2006 11 14 Err:502 8.64 0
-13.31539 -70.30889 2006 11 15 Err:502 8.81 0
-13.31539 -70.30889 2006 11 16 Err:502 8.97 0.8
-13.31539 -70.30889 2006 11 17 Err:502 9.32 0.39
-13.31539 -70.30889 2006 11 18 Err:502 8.06 0.21
-13.31539 -70.30889 2006 11 19 Err:502 4.88 4.25
-13.31539 -70.30889 2006 11 20 Err:502 9.18 0.21
-13.31539 -70.30889 2006 11 21 Err:502 7.77 0
-13.31539 -70.30889 2006 11 22 Err:502 9.24 0.13
-13.31539 -70.30889 2006 11 23 Err:502 6.2 0.86
-13.31539 -70.30889 2006 11 24 Err:502 8.9 0.95
-13.31539 -70.30889 2006 11 25 Err:502 8.36 0.13
-13.31539 -70.30889 2006 11 26 Err:502 7.96 1.1
-13.31539 -70.30889 2006 11 27 Err:502 8.47 1.8
-13.31539 -70.30889 2006 11 28 Err:502 7.33 2.66
-13.31539 -70.30889 2006 11 29 Err:502 5.7 6.07
-13.31539 -70.30889 2006 11 30 Err:502 4.78 9.52
-13.31539 -70.30889 2006 12 1 12/01/06 8.12 0.2
-13.31539 -70.30889 2006 12 2 12/02/06 7.44 0.2
-13.31539 -70.30889 2006 12 3 12/03/06 9.3 0.29
-13.31539 -70.30889 2006 12 4 12/04/06 4.08 20.26
-13.31539 -70.30889 2006 12 5 12/05/06 5.48 5.41
-13.31539 -70.30889 2006 12 6 12/06/06 7.02 8.65
-13.31539 -70.30889 2006 12 7 12/07/06 5.51 2.16
-13.31539 -70.30889 2006 12 8 12/08/06 5.99 0.49
-13.31539 -70.30889 2006 12 9 12/09/06 8.26 0.34
-13.31539 -70.30889 2006 12 10 12/10/06 8.39 15.16
-13.31539 -70.30889 2006 12 11 12/11/06 6.3 8.46
-13.31539 -70.30889 2006 12 12 12/12/06 7.48 3.89
-13.31539 -70.30889 2006 12 13 Err:502 8.42 4.77
-13.31539 -70.30889 2006 12 14 Err:502 7.05 0.73
-13.31539 -70.30889 2006 12 15 Err:502 4.92 2.52
-13.31539 -70.30889 2006 12 16 Err:502 6.61 1.45
-13.31539 -70.30889 2006 12 17 Err:502 7.6 10.59
-13.31539 -70.30889 2006 12 18 Err:502 7.3 5.91
-13.31539 -70.30889 2006 12 19 Err:502 4.33 12.78
-13.31539 -70.30889 2006 12 20 Err:502 5.04 5.95
-13.31539 -70.30889 2006 12 21 Err:502 5.69 16.6
-13.31539 -70.30889 2006 12 22 Err:502 6.65 9.41
-13.31539 -70.30889 2006 12 23 Err:502 6.91 4.66
-13.31539 -70.30889 2006 12 24 Err:502 7.08 0.21
-13.31539 -70.30889 2006 12 25 Err:502 5.4 4.27
-13.31539 -70.30889 2006 12 26 Err:502 4.88 11.13
-13.31539 -70.30889 2006 12 27 Err:502 6.37 1.2
-13.31539 -70.30889 2006 12 28 Err:502 5.35 6.86
-13.31539 -70.30889 2006 12 29 Err:502 7.64 4
-13.31539 -70.30889 2006 12 30 Err:502 5.06 3.9
-13.31539 -70.30889 2006 12 31 Err:502 3.84 0.64
-13.31539 -70.30889 2007 1 1 01/01/07 6.78 0.26
-13.31539 -70.30889 2007 1 2 01/02/07 5.82 12.17
-13.31539 -70.30889 2007 1 3 01/03/07 7.49 7.66
-13.31539 -70.30889 2007 1 4 01/04/07 8.6 0.74
-13.31539 -70.30889 2007 1 5 01/05/07 8.4 0.19
-13.31539 -70.30889 2007 1 6 01/06/07 8.06 0.07
-13.31539 -70.30889 2007 1 7 01/07/07 4.95 15.4
-13.31539 -70.30889 2007 1 8 01/08/07 4.05 15.75
-13.31539 -70.30889 2007 1 9 01/09/07 6.98 0.63
-13.31539 -70.30889 2007 1 10 01/10/07 6.49 28.44
-13.31539 -70.30889 2007 1 11 01/11/07 5.56 14.18
-13.31539 -70.30889 2007 1 12 01/12/07 5.37 4.06
-13.31539 -70.30889 2007 1 13 Err:502 6.31 1.38
-13.31539 -70.30889 2007 1 14 Err:502 4.99 9.41
-13.31539 -70.30889 2007 1 15 Err:502 2.77 25.83
-13.31539 -70.30889 2007 1 16 Err:502 4.35 6.04
-13.31539 -70.30889 2007 1 17 Err:502 4.18 4.82
-13.31539 -70.30889 2007 1 18 Err:502 5.7 3.28
-13.31539 -70.30889 2007 1 19 Err:502 6.27 0.82
-13.31539 -70.30889 2007 1 20 Err:502 3.83 14.09
-13.31539 -70.30889 2007 1 21 Err:502 4.17 23.48
-13.31539 -70.30889 2007 1 22 Err:502 6.63 0.97
-13.31539 -70.30889 2007 1 23 Err:502 6.96 0.1
-13.31539 -70.30889 2007 1 24 Err:502 3.29 1.32
-13.31539 -70.30889 2007 1 25 Err:502 4.57 5.79
-13.31539 -70.30889 2007 1 26 Err:502 5.23 2.28
-13.31539 -70.30889 2007 1 27 Err:502 6.1 0.23
-13.31539 -70.30889 2007 1 28 Err:502 3.05 0.03
-13.31539 -70.30889 2007 1 29 Err:502 6.32 0.04
-13.31539 -70.30889 2007 1 30 Err:502 6.05 1.17
-13.31539 -70.30889 2007 1 31 Err:502 3.53 14.15
-13.31539 -70.30889 2007 2 1 02/01/07 3.57 15.12
-13.31539 -70.30889 2007 2 2 02/02/07 6.51 4.43
-13.31539 -70.30889 2007 2 3 02/03/07 6.33 0.53
-13.31539 -70.30889 2007 2 4 02/04/07 4.85 4.17
-13.31539 -70.30889 2007 2 5 02/05/07 4.54 0.88
-13.31539 -70.30889 2007 2 6 02/06/07 5.34 0
-13.31539 -70.30889 2007 2 7 02/07/07 4.73 4.4
-13.31539 -70.30889 2007 2 8 02/08/07 2.57 27.64
-13.31539 -70.30889 2007 2 9 02/09/07 3.6 9.5
-13.31539 -70.30889 2007 2 10 02/10/07 3.45 7.54
-13.31539 -70.30889 2007 2 11 02/11/07 5.83 14.63
-13.31539 -70.30889 2007 2 12 02/12/07 4.84 2.27
-13.31539 -70.30889 2007 2 13 Err:502 6.1 0.35
-13.31539 -70.30889 2007 2 14 Err:502 5.07 3.16
-13.31539 -70.30889 2007 2 15 Err:502 3.58 34.63
-13.31539 -70.30889 2007 2 16 Err:502 3.83 17.03
-13.31539 -70.30889 2007 2 17 Err:502 5.11 28.36
-13.31539 -70.30889 2007 2 18 Err:502 6.83 3.19
-13.31539 -70.30889 2007 2 19 Err:502 3.52 22.75
-13.31539 -70.30889 2007 2 20 Err:502 5.05 16.82
-13.31539 -70.30889 2007 2 21 Err:502 4.69 17.33
-13.31539 -70.30889 2007 2 22 Err:502 7.47 3.47
-13.31539 -70.30889 2007 2 23 Err:502 5.44 36.35
-13.31539 -70.30889 2007 2 24 Err:502 5.86 4.12
-13.31539 -70.30889 2007 2 25 Err:502 6.33 7.36
-13.31539 -70.30889 2007 2 26 Err:502 6.78 2.66
-13.31539 -70.30889 2007 2 27 Err:502 6.14 0.07
-13.31539 -70.30889 2007 2 28 Err:502 4.8 17.67
-13.31539 -70.30889 2007 3 1 03/01/07 3.68 16.32
-13.31539 -70.30889 2007 3 2 03/02/07 4.5 16.42
-13.31539 -70.30889 2007 3 3 03/03/07 4.27 14.75
-13.31539 -70.30889 2007 3 4 03/04/07 5.4 6.15
-13.31539 -70.30889 2007 3 5 03/05/07 6.99 0.53
-13.31539 -70.30889 2007 3 6 03/06/07 3.8 1.46
-13.31539 -70.30889 2007 3 7 03/07/07 6.43 0.49
-13.31539 -70.30889 2007 3 8 03/08/07 5.71 0.99
-13.31539 -70.30889 2007 3 9 03/09/07 5.47 6.11
-13.31539 -70.30889 2007 3 10 03/10/07 4.58 1.56
-13.31539 -70.30889 2007 3 11 03/11/07 4.5 24.51
-13.31539 -70.30889 2007 3 12 03/12/07 4.03 5.76
-13.31539 -70.30889 2007 3 13 Err:502 5.17 1.01
-13.31539 -70.30889 2007 3 14 Err:502 4.66 5.27
-13.31539 -70.30889 2007 3 15 Err:502 5.25 7.89
-13.31539 -70.30889 2007 3 16 Err:502 2.94 5.54
-13.31539 -70.30889 2007 3 17 Err:502 4.47 2.65
-13.31539 -70.30889 2007 3 18 Err:502 5.43 1.59
-13.31539 -70.30889 2007 3 19 Err:502 6.64 0.48
-13.31539 -70.30889 2007 3 20 Err:502 6.25 0.43
-13.31539 -70.30889 2007 3 21 Err:502 7.11 1.81
-13.31539 -70.30889 2007 3 22 Err:502 7.4 0.67
-13.31539 -70.30889 2007 3 23 Err:502 6.41 2.71
-13.31539 -70.30889 2007 3 24 Err:502 3.69 1.48
-13.31539 -70.30889 2007 3 25 Err:502 7.12 0.19
-13.31539 -70.30889 2007 3 26 Err:502 6.93 0.05
-13.31539 -70.30889 2007 3 27 Err:502 4.28 0.16
-13.31539 -70.30889 2007 3 28 Err:502 4.61 0.63
-13.31539 -70.30889 2007 3 29 Err:502 6.4 0.33
-13.31539 -70.30889 2007 3 30 Err:502 6.04 0.61
-13.31539 -70.30889 2007 3 31 Err:502 6.48 0.16
-13.31539 -70.30889 2007 4 1 04/01/07 4.32 4.65
-13.31539 -70.30889 2007 4 2 04/02/07 7.65 0.49
-13.31539 -70.30889 2007 4 3 04/03/07 4.42 0.4
-13.31539 -70.30889 2007 4 4 04/04/07 5.41 1.14
-13.31539 -70.30889 2007 4 5 04/05/07 4.11 4.36
-13.31539 -70.30889 2007 4 6 04/06/07 4.55 22.67
-13.31539 -70.30889 2007 4 7 04/07/07 6.33 1.45
-13.31539 -70.30889 2007 4 8 04/08/07 4.66 14.03
-13.31539 -70.30889 2007 4 9 04/09/07 4.97 0.72
-13.31539 -70.30889 2007 4 10 04/10/07 6.28 0.1
-13.31539 -70.30889 2007 4 11 04/11/07 5.66 0.35
-13.31539 -70.30889 2007 4 12 04/12/07 5.12 0.08
-13.31539 -70.30889 2007 4 13 Err:502 4.07 4.59
-13.31539 -70.30889 2007 4 14 Err:502 5.47 0.07
-13.31539 -70.30889 2007 4 15 Err:502 5.88 1.92
-13.31539 -70.30889 2007 4 16 Err:502 3.73 8.94
-13.31539 -70.30889 2007 4 17 Err:502 4.02 1.27
-13.31539 -70.30889 2007 4 18 Err:502 6.5 0.84
-13.31539 -70.30889 2007 4 19 Err:502 6.27 0.11
-13.31539 -70.30889 2007 4 20 Err:502 4.75 0.42
-13.31539 -70.30889 2007 4 21 Err:502 4.79 11.56
-13.31539 -70.30889 2007 4 22 Err:502 5.79 14.38
-13.31539 -70.30889 2007 4 23 Err:502 6.41 2.02
-13.31539 -70.30889 2007 4 24 Err:502 6.41 1.34
-13.31539 -70.30889 2007 4 25 Err:502 6.04 0.51
-13.31539 -70.30889 2007 4 26 Err:502 4.62 13.17
-13.31539 -70.30889 2007 4 27 Err:502 5 45.1
-13.31539 -70.30889 2007 4 28 Err:502 6.06 0.35
-13.31539 -70.30889 2007 4 29 Err:502 7.06 0
-13.31539 -70.30889 2007 4 30 Err:502 7.63 0
-13.31539 -70.30889 2007 5 1 05/01/07 7.33 0
-13.31539 -70.30889 2007 5 2 05/02/07 6.55 0
-13.31539 -70.30889 2007 5 3 05/03/07 5.33 0.09
-13.31539 -70.30889 2007 5 4 05/04/07 6.41 0.01
-13.31539 -70.30889 2007 5 5 05/05/07 6.56 0
-13.31539 -70.30889 2007 5 6 05/06/07 5.35 2.55
-13.31539 -70.30889 2007 5 7 05/07/07 5.64 0.26
-13.31539 -70.30889 2007 5 8 05/08/07 5.39 7.97
-13.31539 -70.30889 2007 5 9 05/09/07 3.44 5.44
-13.31539 -70.30889 2007 5 10 05/10/07 7.15 0.13
-13.31539 -70.30889 2007 5 11 05/11/07 7.9 0
-13.31539 -70.30889 2007 5 12 05/12/07 6.49 0.05
-13.31539 -70.30889 2007 5 13 Err:502 7.3 0
-13.31539 -70.30889 2007 5 14 Err:502 7 0
-13.31539 -70.30889 2007 5 15 Err:502 6.95 0
-13.31539 -70.30889 2007 5 16 Err:502 4.79 0
-13.31539 -70.30889 2007 5 17 Err:502 5.37 15.18
-13.31539 -70.30889 2007 5 18 Err:502 4.1 3.61
-13.31539 -70.30889 2007 5 19 Err:502 4.52 2.05
-13.31539 -70.30889 2007 5 20 Err:502 6.33 0.06
-13.31539 -70.30889 2007 5 21 Err:502 5.69 0
-13.31539 -70.30889 2007 5 22 Err:502 6.15 0.02
-13.31539 -70.30889 2007 5 23 Err:502 8.46 25.3
-13.31539 -70.30889 2007 5 24 Err:502 4.19 4.01
-13.31539 -70.30889 2007 5 25 Err:502 7.26 0
-13.31539 -70.30889 2007 5 26 Err:502 8.75 0
-13.31539 -70.30889 2007 5 27 Err:502 7.86 0
-13.31539 -70.30889 2007 5 28 Err:502 6.73 0.04
-13.31539 -70.30889 2007 5 29 Err:502 4.97 0.14
-13.31539 -70.30889 2007 5 30 Err:502 5.01 0
-13.31539 -70.30889 2007 5 31 Err:502 7.89 0
-13.31539 -70.30889 2007 6 1 06/01/07 7.5 0
-13.31539 -70.30889 2007 6 2 06/02/07 5.92 0
-13.31539 -70.30889 2007 6 3 06/03/07 4.7 0.03
-13.31539 -70.30889 2007 6 4 06/04/07 4.41 0
-13.31539 -70.30889 2007 6 5 06/05/07 7.59 0
-13.31539 -70.30889 2007 6 6 06/06/07 7.23 0
-13.31539 -70.30889 2007 6 7 06/07/07 6.56 0
-13.31539 -70.30889 2007 6 8 06/08/07 7 0
-13.31539 -70.30889 2007 6 9 06/09/07 6.76 0
-13.31539 -70.30889 2007 6 10 06/10/07 7.05 0
-13.31539 -70.30889 2007 6 11 06/11/07 7.04 0
-13.31539 -70.30889 2007 6 12 06/12/07 6.14 0
-13.31539 -70.30889 2007 6 13 Err:502 6.75 0
-13.31539 -70.30889 2007 6 14 Err:502 6.17 0
-13.31539 -70.30889 2007 6 15 Err:502 6.09 0
-13.31539 -70.30889 2007 6 16 Err:502 8.15 0
-13.31539 -70.30889 2007 6 17 Err:502 6.56 0
-13.31539 -70.30889 2007 6 18 Err:502 7.03 0.03
-13.31539 -70.30889 2007 6 19 Err:502 7.33 1.88
-13.31539 -70.30889 2007 6 20 Err:502 6.96 1.57
-13.31539 -70.30889 2007 6 21 Err:502 7.69 0
-13.31539 -70.30889 2007 6 22 Err:502 7.29 0
-13.31539 -70.30889 2007 6 23 Err:502 5.98 0
-13.31539 -70.30889 2007 6 24 Err:502 6.87 0.42
-13.31539 -70.30889 2007 6 25 Err:502 6.11 0
-13.31539 -70.30889 2007 6 26 Err:502 8.38 0.19
-13.31539 -70.30889 2007 6 27 Err:502 8.1 0.07
-13.31539 -70.30889 2007 6 28 Err:502 7.16 0
-13.31539 -70.30889 2007 6 29 Err:502 7.02 0
-13.31539 -70.30889 2007 6 30 Err:502 8.69 0
-13.31539 -70.30889 2007 7 1 07/01/07 8.46 0
-13.31539 -70.30889 2007 7 2 07/02/07 9.37 0
-13.31539 -70.30889 2007 7 3 07/03/07 9.08 0
-13.31539 -70.30889 2007 7 4 07/04/07 9.24 0
-13.31539 -70.30889 2007 7 5 07/05/07 10.13 0
-13.31539 -70.30889 2007 7 6 07/06/07 9.03 0
-13.31539 -70.30889 2007 7 7 07/07/07 8.77 0
-13.31539 -70.30889 2007 7 8 07/08/07 7.78 0.04
-13.31539 -70.30889 2007 7 9 07/09/07 6.21 7.42
-13.31539 -70.30889 2007 7 10 07/10/07 7.83 0.61
-13.31539 -70.30889 2007 7 11 07/11/07 9.03 0
-13.31539 -70.30889 2007 7 12 07/12/07 5.84 0
-13.31539 -70.30889 2007 7 13 Err:502 9.1 0
-13.31539 -70.30889 2007 7 14 Err:502 8.95 0
-13.31539 -70.30889 2007 7 15 Err:502 8.43 0
-13.31539 -70.30889 2007 7 16 Err:502 8.84 0
-13.31539 -70.30889 2007 7 17 Err:502 6.9 2.1
-13.31539 -70.30889 2007 7 18 Err:502 2.88 15.72
-13.31539 -70.30889 2007 7 19 Err:502 7.62 0.42
-13.31539 -70.30889 2007 7 20 Err:502 8.23 0
-13.31539 -70.30889 2007 7 21 Err:502 7.73 0
-13.31539 -70.30889 2007 7 22 Err:502 9.91 0
-13.31539 -70.30889 2007 7 23 Err:502 6.93 0.01
-13.31539 -70.30889 2007 7 24 Err:502 8.45 0.01
-13.31539 -70.30889 2007 7 25 Err:502 11.36 24.5
-13.31539 -70.30889 2007 7 26 Err:502 5.6 1.85
-13.31539 -70.30889 2007 7 27 Err:502 9.45 0.01
-13.31539 -70.30889 2007 7 28 Err:502 11.17 0
-13.31539 -70.30889 2007 7 29 Err:502 9.92 0
-13.31539 -70.30889 2007 7 30 Err:502 9.49 0
-13.31539 -70.30889 2007 7 31 Err:502 11.58 0
-13.31539 -70.30889 2007 8 1 08/01/07 9.62 0
-13.31539 -70.30889 2007 8 2 08/02/07 8.15 0
-13.31539 -70.30889 2007 8 3 08/03/07 9.01 0
-13.31539 -70.30889 2007 8 4 08/04/07 8.65 0
-13.31539 -70.30889 2007 8 5 08/05/07 8.82 0
-13.31539 -70.30889 2007 8 6 08/06/07 10.54 0
-13.31539 -70.30889 2007 8 7 08/07/07 9.78 0
-13.31539 -70.30889 2007 8 8 08/08/07 8.39 0
-13.31539 -70.30889 2007 8 9 08/09/07 8.94 0
-13.31539 -70.30889 2007 8 10 08/10/07 7.87 0
-13.31539 -70.30889 2007 8 11 08/11/07 7.98 0
-13.31539 -70.30889 2007 8 12 08/12/07 10.89 0
-13.31539 -70.30889 2007 8 13 Err:502 11.72 0
-13.31539 -70.30889 2007 8 14 Err:502 11.5 0
-13.31539 -70.30889 2007 8 15 Err:502 11.37 0
-13.31539 -70.30889 2007 8 16 Err:502 6.6 0.02
-13.31539 -70.30889 2007 8 17 Err:502 7.65 0.26
-13.31539 -70.30889 2007 8 18 Err:502 9.74 0
-13.31539 -70.30889 2007 8 19 Err:502 11.83 0
-13.31539 -70.30889 2007 8 20 Err:502 10.81 0.02
-13.31539 -70.30889 2007 8 21 Err:502 12.25 0
-13.31539 -70.30889 2007 8 22 Err:502 11.56 0
-13.31539 -70.30889 2007 8 23 Err:502 12.24 0
-13.31539 -70.30889 2007 8 24 Err:502 12.12 0
-13.31539 -70.30889 2007 8 25 Err:502 10.26 0
-13.31539 -70.30889 2007 8 26 Err:502 8.05 0.97
-13.31539 -70.30889 2007 8 27 Err:502 10.01 2.21
-13.31539 -70.30889 2007 8 28 Err:502 9.16 0.17
-13.31539 -70.30889 2007 8 29 Err:502 5.42 0
-13.31539 -70.30889 2007 8 30 Err:502 10.76 0
-13.31539 -70.30889 2007 8 31 Err:502 12.79 0
-13.31539 -70.30889 2007 9 1 09/01/07 12.28 0
-13.31539 -70.30889 2007 9 2 09/02/07 11.62 0
-13.31539 -70.30889 2007 9 3 09/03/07 10.85 0.17
-13.31539 -70.30889 2007 9 4 09/04/07 4.95 0.16
-13.31539 -70.30889 2007 9 5 09/05/07 8.37 0.13
-13.31539 -70.30889 2007 9 6 09/06/07 12.25 0
-13.31539 -70.30889 2007 9 7 09/07/07 6.61 0.11
-13.31539 -70.30889 2007 9 8 09/08/07 9.91 0.02
-13.31539 -70.30889 2007 9 9 09/09/07 11.2 0.31
-13.31539 -70.30889 2007 9 10 09/10/07 10.92 0.07
-13.31539 -70.30889 2007 9 11 09/11/07 9.96 2.59
-13.31539 -70.30889 2007 9 12 09/12/07 10.18 9.42
-13.31539 -70.30889 2007 9 13 Err:502 13.36 2.46
-13.31539 -70.30889 2007 9 14 Err:502 9.8 0
-13.31539 -70.30889 2007 9 15 Err:502 10.48 0
-13.31539 -70.30889 2007 9 16 Err:502 11.5 1.19
-13.31539 -70.30889 2007 9 17 Err:502 10.98 0.48
-13.31539 -70.30889 2007 9 18 Err:502 4.4 0
-13.31539 -70.30889 2007 9 19 Err:502 9.94 0.33
-13.31539 -70.30889 2007 9 20 Err:502 5.86 0.25
-13.31539 -70.30889 2007 9 21 Err:502 8.39 0.39
-13.31539 -70.30889 2007 9 22 Err:502 10.25 0.01
-13.31539 -70.30889 2007 9 23 Err:502 11.38 0
-13.31539 -70.30889 2007 9 24 Err:502 9.9 0.64
-13.31539 -70.30889 2007 9 25 Err:502 9.4 0.02
-13.31539 -70.30889 2007 9 26 Err:502 12.4 0
-13.31539 -70.30889 2007 9 27 Err:502 11.87 0.1
-13.31539 -70.30889 2007 9 28 Err:502 10.97 0.01
-13.31539 -70.30889 2007 9 29 Err:502 12.87 0
-13.31539 -70.30889 2007 9 30 Err:502 11.62 0
-13.31539 -70.30889 2007 10 1 10/01/07 11.44 0
-13.31539 -70.30889 2007 10 2 10/02/07 10.31 0
-13.31539 -70.30889 2007 10 3 10/03/07 10.49 0.01
-13.31539 -70.30889 2007 10 4 10/04/07 10.46 0
-13.31539 -70.30889 2007 10 5 10/05/07 6.92 0
-13.31539 -70.30889 2007 10 6 10/06/07 7.91 0
-13.31539 -70.30889 2007 10 7 10/07/07 6.68 5.5
-13.31539 -70.30889 2007 10 8 10/08/07 3.15 1.73
-13.31539 -70.30889 2007 10 9 10/09/07 12.88 0
-13.31539 -70.30889 2007 10 10 10/10/07 10.02 0.64
-13.31539 -70.30889 2007 10 11 10/11/07 9.89 1.71
-13.31539 -70.30889 2007 10 12 10/12/07 5.48 0.37
-13.31539 -70.30889 2007 10 13 Err:502 4.72 28.03
-13.31539 -70.30889 2007 10 14 Err:502 4.86 10.82
-13.31539 -70.30889 2007 10 15 Err:502 4.93 0.16
-13.31539 -70.30889 2007 10 16 Err:502 10.34 0.07
-13.31539 -70.30889 2007 10 17 Err:502 6.7 1.66
-13.31539 -70.30889 2007 10 18 Err:502 6.61 0.9
-13.31539 -70.30889 2007 10 19 Err:502 10.46 0.23
-13.31539 -70.30889 2007 10 20 Err:502 9.6 0
-13.31539 -70.30889 2007 10 21 Err:502 9.64 0
-13.31539 -70.30889 2007 10 22 Err:502 5.51 2.52
-13.31539 -70.30889 2007 10 23 Err:502 9.94 1.37
-13.31539 -70.30889 2007 10 24 Err:502 4.36 3
-13.31539 -70.30889 2007 10 25 Err:502 10.7 0.11
-13.31539 -70.30889 2007 10 26 Err:502 6.63 10.86
-13.31539 -70.30889 2007 10 27 Err:502 4.13 8.1
-13.31539 -70.30889 2007 10 28 Err:502 9.36 2.33
-13.31539 -70.30889 2007 10 29 Err:502 10.29 0.36
-13.31539 -70.30889 2007 10 30 Err:502 10.89 2.2
-13.31539 -70.30889 2007 10 31 Err:502 9.67 1.88
-13.31539 -70.30889 2007 11 1 11/01/07 7.1 0.32
-13.31539 -70.30889 2007 11 2 11/02/07 8.26 14.91
-13.31539 -70.30889 2007 11 3 11/03/07 5.28 11.28
-13.31539 -70.30889 2007 11 4 11/04/07 6.84 5.6
-13.31539 -70.30889 2007 11 5 11/05/07 5.3 22.09
-13.31539 -70.30889 2007 11 6 11/06/07 7.79 1.19
-13.31539 -70.30889 2007 11 7 11/07/07 4.5 2.72
-13.31539 -70.30889 2007 11 8 11/08/07 8.15 1.47
-13.31539 -70.30889 2007 11 9 11/09/07 8.65 0.1
-13.31539 -70.30889 2007 11 10 11/10/07 7.42 1.39
-13.31539 -70.30889 2007 11 11 11/11/07 5.02 12.15
-13.31539 -70.30889 2007 11 12 11/12/07 3.64 13.6
-13.31539 -70.30889 2007 11 13 Err:502 7.86 0
-13.31539 -70.30889 2007 11 14 Err:502 7.49 0.81
-13.31539 -70.30889 2007 11 15 Err:502 5.6 24.69
-13.31539 -70.30889 2007 11 16 Err:502 5.07 8
-13.31539 -70.30889 2007 11 17 Err:502 8.49 0.42
-13.31539 -70.30889 2007 11 18 Err:502 8.88 0
-13.31539 -70.30889 2007 11 19 Err:502 4.92 20.02
-13.31539 -70.30889 2007 11 20 Err:502 4.35 20.78
-13.31539 -70.30889 2007 11 21 Err:502 4.77 4.37
-13.31539 -70.30889 2007 11 22 Err:502 6.47 15.89
-13.31539 -70.30889 2007 11 23 Err:502 7.13 1.54
-13.31539 -70.30889 2007 11 24 Err:502 5.62 1.32
-13.31539 -70.30889 2007 11 25 Err:502 5.54 0.54
-13.31539 -70.30889 2007 11 26 Err:502 5.29 2.49
-13.31539 -70.30889 2007 11 27 Err:502 4.3 4.91
-13.31539 -70.30889 2007 11 28 Err:502 4.51 2.81
-13.31539 -70.30889 2007 11 29 Err:502 4.81 1.12
-13.31539 -70.30889 2007 11 30 Err:502 7.09 0.71
-13.31539 -70.30889 2007 12 1 12/01/07 5.44 2.62
-13.31539 -70.30889 2007 12 2 12/02/07 5.28 5.49
-13.31539 -70.30889 2007 12 3 12/03/07 6.87 0.64
-13.31539 -70.30889 2007 12 4 12/04/07 7.97 0
-13.31539 -70.30889 2007 12 5 12/05/07 5.35 2.71
-13.31539 -70.30889 2007 12 6 12/06/07 2.91 15.76
-13.31539 -70.30889 2007 12 7 12/07/07 6.25 0.5
-13.31539 -70.30889 2007 12 8 12/08/07 8.25 0.01
-13.31539 -70.30889 2007 12 9 12/09/07 5.29 2.3
-13.31539 -70.30889 2007 12 10 12/10/07 7.39 1.68
-13.31539 -70.30889 2007 12 11 12/11/07 4.26 2.37
-13.31539 -70.30889 2007 12 12 12/12/07 2.35 6.92
-13.31539 -70.30889 2007 12 13 Err:502 6.89 2.72
-13.31539 -70.30889 2007 12 14 Err:502 7.9 2
-13.31539 -70.30889 2007 12 15 Err:502 2.67 7.41
-13.31539 -70.30889 2007 12 16 Err:502 4.39 9.53
-13.31539 -70.30889 2007 12 17 Err:502 5.69 8.78
-13.31539 -70.30889 2007 12 18 Err:502 6.14 13.69
-13.31539 -70.30889 2007 12 19 Err:502 3.49 22.99
-13.31539 -70.30889 2007 12 20 Err:502 6.74 0.12
-13.31539 -70.30889 2007 12 21 Err:502 7.41 0
-13.31539 -70.30889 2007 12 22 Err:502 5.74 0.94
-13.31539 -70.30889 2007 12 23 Err:502 7.63 0.14
-13.31539 -70.30889 2007 12 24 Err:502 7.64 0.09
-13.31539 -70.30889 2007 12 25 Err:502 5.28 9.21
-13.31539 -70.30889 2007 12 26 Err:502 6.64 2.83
-13.31539 -70.30889 2007 12 27 Err:502 5.31 3.84
-13.31539 -70.30889 2007 12 28 Err:502 5.82 9.8
-13.31539 -70.30889 2007 12 29 Err:502 7.23 1.55
-13.31539 -70.30889 2007 12 30 Err:502 5.9 0.34
-13.31539 -70.30889 2007 12 31 Err:502 4.13 3.52
-13.31539 -70.30889 2008 1 1 01/01/08 4.5 1.56
-13.31539 -70.30889 2008 1 2 01/02/08 4.02 7.09
-13.31539 -70.30889 2008 1 3 01/03/08 4 11.77
-13.31539 -70.30889 2008 1 4 01/04/08 4.61 5.18
-13.31539 -70.30889 2008 1 5 01/05/08 5.49 6.91
-13.31539 -70.30889 2008 1 6 01/06/08 4.7 5.46
-13.31539 -70.30889 2008 1 7 01/07/08 6.17 0.89
-13.31539 -70.30889 2008 1 8 01/08/08 6.39 0.18
-13.31539 -70.30889 2008 1 9 01/09/08 3.71 9.48
-13.31539 -70.30889 2008 1 10 01/10/08 2.8 29.57
-13.31539 -70.30889 2008 1 11 01/11/08 6.02 6.36
-13.31539 -70.30889 2008 1 12 01/12/08 4.72 7.68
-13.31539 -70.30889 2008 1 13 Err:502 6.78 17.06
-13.31539 -70.30889 2008 1 14 Err:502 3.8 23.69
-13.31539 -70.30889 2008 1 15 Err:502 4.95 2.26
-13.31539 -70.30889 2008 1 16 Err:502 6.17 0.34
-13.31539 -70.30889 2008 1 17 Err:502 3.95 22.33
-13.31539 -70.30889 2008 1 18 Err:502 4.06 1.61
-13.31539 -70.30889 2008 1 19 Err:502 4.5 7.83
-13.31539 -70.30889 2008 1 20 Err:502 3.61 5.65
-13.31539 -70.30889 2008 1 21 Err:502 4.96 2.66
-13.31539 -70.30889 2008 1 22 Err:502 3.78 5.84
-13.31539 -70.30889 2008 1 23 Err:502 3.53 136.8
-13.31539 -70.30889 2008 1 24 Err:502 4.66 23.05
-13.31539 -70.30889 2008 1 25 Err:502 6.21 13.24
-13.31539 -70.30889 2008 1 26 Err:502 5.19 3.42
-13.31539 -70.30889 2008 1 27 Err:502 4.33 17.74
-13.31539 -70.30889 2008 1 28 Err:502 3.52 17.28
-13.31539 -70.30889 2008 1 29 Err:502 5.92 15.54
-13.31539 -70.30889 2008 1 30 Err:502 5.34 2.9
-13.31539 -70.30889 2008 1 31 Err:502 4.84 7.04
-13.31539 -70.30889 2008 2 1 02/01/08 5.02 26.37
-13.31539 -70.30889 2008 2 2 02/02/08 3.75 38.01
-13.31539 -70.30889 2008 2 3 02/03/08 3.62 12.55
-13.31539 -70.30889 2008 2 4 02/04/08 7.7 0.18
-13.31539 -70.30889 2008 2 5 02/05/08 7.19 0.09
-13.31539 -70.30889 2008 2 6 02/06/08 7.66 0
-13.31539 -70.30889 2008 2 7 02/07/08 6.8 0.54
-13.31539 -70.30889 2008 2 8 02/08/08 5.16 0.11
-13.31539 -70.30889 2008 2 9 02/09/08 4.11 0.94
-13.31539 -70.30889 2008 2 10 02/10/08 5.14 2.73
-13.31539 -70.30889 2008 2 11 02/11/08 3.93 24.05
-13.31539 -70.30889 2008 2 12 02/12/08 4.53 2.82
-13.31539 -70.30889 2008 2 13 Err:502 7.76 0
-13.31539 -70.30889 2008 2 14 Err:502 8.11 0
-13.31539 -70.30889 2008 2 15 Err:502 5.67 0.75
-13.31539 -70.30889 2008 2 16 Err:502 6.5 2.49
-13.31539 -70.30889 2008 2 17 Err:502 4 1.55
-13.31539 -70.30889 2008 2 18 Err:502 5.02 16.8
-13.31539 -70.30889 2008 2 19 Err:502 4.38 7.95
-13.31539 -70.30889 2008 2 20 Err:502 6.28 1.48
-13.31539 -70.30889 2008 2 21 Err:502 5.06 5.89
-13.31539 -70.30889 2008 2 22 Err:502 5.48 8.85
-13.31539 -70.30889 2008 2 23 Err:502 5.42 13.02
-13.31539 -70.30889 2008 2 24 Err:502 6.11 12.25
-13.31539 -70.30889 2008 2 25 Err:502 4.74 4.93
-13.31539 -70.30889 2008 2 26 Err:502 4.67 0.43
-13.31539 -70.30889 2008 2 27 Err:502 4.41 10.77
-13.31539 -70.30889 2008 2 28 Err:502 4.06 9.32
-13.31539 -70.30889 2008 2 29 Err:502 6.88 2.12
-13.31539 -70.30889 2008 3 1 03/01/08 5.06 3.2
-13.31539 -70.30889 2008 3 2 03/02/08 3.33 1.62
-13.31539 -70.30889 2008 3 3 03/03/08 5.18 2.85
-13.31539 -70.30889 2008 3 4 03/04/08 5.54 1.57
-13.31539 -70.30889 2008 3 5 03/05/08 3.34 3.47
-13.31539 -70.30889 2008 3 6 03/06/08 2.83 5.28
-13.31539 -70.30889 2008 3 7 03/07/08 4.04 6.03
-13.31539 -70.30889 2008 3 8 03/08/08 4.87 1.43
-13.31539 -70.30889 2008 3 9 03/09/08 6.14 1.17
-13.31539 -70.30889 2008 3 10 03/10/08 5.37 1.65
-13.31539 -70.30889 2008 3 11 03/11/08 5.92 0.85
-13.31539 -70.30889 2008 3 12 03/12/08 4.63 1.32
-13.31539 -70.30889 2008 3 13 Err:502 4.85 3.55
-13.31539 -70.30889 2008 3 14 Err:502 5.16 7.05
-13.31539 -70.30889 2008 3 15 Err:502 5.36 0.24
-13.31539 -70.30889 2008 3 16 Err:502 7.94 0
-13.31539 -70.30889 2008 3 17 Err:502 7.74 0.11
-13.31539 -70.30889 2008 3 18 Err:502 5.18 0.63
-13.31539 -70.30889 2008 3 19 Err:502 6.23 0.68
-13.31539 -70.30889 2008 3 20 Err:502 7.54 0.19
-13.31539 -70.30889 2008 3 21 Err:502 5.52 0.09
-13.31539 -70.30889 2008 3 22 Err:502 6.38 3.5
-13.31539 -70.30889 2008 3 23 Err:502 4.35 2.87
-13.31539 -70.30889 2008 3 24 Err:502 6.63 0.47
-13.31539 -70.30889 2008 3 25 Err:502 5.28 0.1
-13.31539 -70.30889 2008 3 26 Err:502 6.62 0
-13.31539 -70.30889 2008 3 27 Err:502 5.88 0
-13.31539 -70.30889 2008 3 28 Err:502 4.58 20.42
-13.31539 -70.30889 2008 3 29 Err:502 3.43 5.38
-13.31539 -70.30889 2008 3 30 Err:502 4.67 6.91
-13.31539 -70.30889 2008 3 31 Err:502 4.7 22.73
-13.31539 -70.30889 2008 4 1 04/01/08 5.22 14.67
-13.31539 -70.30889 2008 4 2 04/02/08 3.98 0.81
-13.31539 -70.30889 2008 4 3 04/03/08 3.13 0.32
-13.31539 -70.30889 2008 4 4 04/04/08 5.17 0.01
-13.31539 -70.30889 2008 4 5 04/05/08 6.39 0
-13.31539 -70.30889 2008 4 6 04/06/08 7.07 0.13
-13.31539 -70.30889 2008 4 7 04/07/08 5.79 4.56
-13.31539 -70.30889 2008 4 8 04/08/08 4.57 1.64
-13.31539 -70.30889 2008 4 9 04/09/08 4.27 0
-13.31539 -70.30889 2008 4 10 04/10/08 5.85 0.17
-13.31539 -70.30889 2008 4 11 04/11/08 6.63 0.06
-13.31539 -70.30889 2008 4 12 04/12/08 4.97 0
-13.31539 -70.30889 2008 4 13 Err:502 6.89 0
-13.31539 -70.30889 2008 4 14 Err:502 5.31 3.27
-13.31539 -70.30889 2008 4 15 Err:502 3.75 2.5
-13.31539 -70.30889 2008 4 16 Err:502 6.59 0.05
-13.31539 -70.30889 2008 4 17 Err:502 7.6 0
-13.31539 -70.30889 2008 4 18 Err:502 7.67 0
-13.31539 -70.30889 2008 4 19 Err:502 6.81 0
-13.31539 -70.30889 2008 4 20 Err:502 4.35 0.01
-13.31539 -70.30889 2008 4 21 Err:502 7.33 0.06
-13.31539 -70.30889 2008 4 22 Err:502 4.9 2.08
-13.31539 -70.30889 2008 4 23 Err:502 6.78 0.37
-13.31539 -70.30889 2008 4 24 Err:502 6.69 0.08
-13.31539 -70.30889 2008 4 25 Err:502 5.46 0
-13.31539 -70.30889 2008 4 26 Err:502 4.7 0.01
-13.31539 -70.30889 2008 4 27 Err:502 5.1 0.02
-13.31539 -70.30889 2008 4 28 Err:502 4.4 0
-13.31539 -70.30889 2008 4 29 Err:502 4.12 0.11
-13.31539 -70.30889 2008 4 30 Err:502 5.97 0.61
-13.31539 -70.30889 2008 5 1 05/01/08 5.74 0.01
-13.31539 -70.30889 2008 5 2 05/02/08 4.56 0
-13.31539 -70.30889 2008 5 3 05/03/08 7.09 0
-13.31539 -70.30889 2008 5 4 05/04/08 7.66 0
-13.31539 -70.30889 2008 5 5 05/05/08 8.89 0
-13.31539 -70.30889 2008 5 6 05/06/08 9.36 0
-13.31539 -70.30889 2008 5 7 05/07/08 8.43 0
-13.31539 -70.30889 2008 5 8 05/08/08 6.79 0.04
-13.31539 -70.30889 2008 5 9 05/09/08 7.43 7.81
-13.31539 -70.30889 2008 5 10 05/10/08 3.16 5.89
-13.31539 -70.30889 2008 5 11 05/11/08 5.4 2.43
-13.31539 -70.30889 2008 5 12 05/12/08 5.79 1.03
-13.31539 -70.30889 2008 5 13 Err:502 7.48 0.35
-13.31539 -70.30889 2008 5 14 Err:502 7.02 0.01
-13.31539 -70.30889 2008 5 15 Err:502 8.23 0
-13.31539 -70.30889 2008 5 16 Err:502 7.23 0
-13.31539 -70.30889 2008 5 17 Err:502 7.12 0
-13.31539 -70.30889 2008 5 18 Err:502 5.7 0.21
-13.31539 -70.30889 2008 5 19 Err:502 6.39 0.06
-13.31539 -70.30889 2008 5 20 Err:502 7.66 0
-13.31539 -70.30889 2008 5 21 Err:502 6.35 0
-13.31539 -70.30889 2008 5 22 Err:502 6.69 0.46
-13.31539 -70.30889 2008 5 23 Err:502 7.51 0.02
-13.31539 -70.30889 2008 5 24 Err:502 4.71 9.31
-13.31539 -70.30889 2008 5 25 Err:502 6.2 1.49
-13.31539 -70.30889 2008 5 26 Err:502 5.58 1.93
-13.31539 -70.30889 2008 5 27 Err:502 5.24 3.05
-13.31539 -70.30889 2008 5 28 Err:502 6.94 0.57
-13.31539 -70.30889 2008 5 29 Err:502 4.31 11.33
-13.31539 -70.30889 2008 5 30 Err:502 7.91 7.71
-13.31539 -70.30889 2008 5 31 Err:502 6.95 0
-13.31539 -70.30889 2008 6 1 06/01/08 7.96 0
-13.31539 -70.30889 2008 6 2 06/02/08 8.3 0
-13.31539 -70.30889 2008 6 3 06/03/08 7.88 0
-13.31539 -70.30889 2008 6 4 06/04/08 8.69 0
-13.31539 -70.30889 2008 6 5 06/05/08 8.43 0
-13.31539 -70.30889 2008 6 6 06/06/08 6.87 0
-13.31539 -70.30889 2008 6 7 06/07/08 7.37 0
-13.31539 -70.30889 2008 6 8 06/08/08 7.26 0
-13.31539 -70.30889 2008 6 9 06/09/08 7.77 0.24
-13.31539 -70.30889 2008 6 10 06/10/08 5.8 0.41
-13.31539 -70.30889 2008 6 11 06/11/08 7.03 0.02
-13.31539 -70.30889 2008 6 12 06/12/08 5.54 0.56
-13.31539 -70.30889 2008 6 13 Err:502 6.26 0.05
-13.31539 -70.30889 2008 6 14 Err:502 7.02 0
-13.31539 -70.30889 2008 6 15 Err:502 6.41 0.17
-13.31539 -70.30889 2008 6 16 Err:502 6.48 0.25
-13.31539 -70.30889 2008 6 17 Err:502 9.87 0
-13.31539 -70.30889 2008 6 18 Err:502 10.77 0
-13.31539 -70.30889 2008 6 19 Err:502 9.59 0
-13.31539 -70.30889 2008 6 20 Err:502 8.12 0
-13.31539 -70.30889 2008 6 21 Err:502 7.67 0
-13.31539 -70.30889 2008 6 22 Err:502 4.96 0
-13.31539 -70.30889 2008 6 23 Err:502 5.63 0
-13.31539 -70.30889 2008 6 24 Err:502 8.14 0
-13.31539 -70.30889 2008 6 25 Err:502 8.92 0
-13.31539 -70.30889 2008 6 26 Err:502 8.76 0
-13.31539 -70.30889 2008 6 27 Err:502 6.44 0
-13.31539 -70.30889 2008 6 28 Err:502 7.23 0
-13.31539 -70.30889 2008 6 29 Err:502 8.62 0
-13.31539 -70.30889 2008 6 30 Err:502 9.75 0
-13.31539 -70.30889 2008 7 1 07/01/08 9.81 0
-13.31539 -70.30889 2008 7 2 07/02/08 8.74 0
-13.31539 -70.30889 2008 7 3 07/03/08 7.84 0
-13.31539 -70.30889 2008 7 4 07/04/08 8.6 0.01
-13.31539 -70.30889 2008 7 5 07/05/08 10.82 0
-13.31539 -70.30889 2008 7 6 07/06/08 7.68 0
-13.31539 -70.30889 2008 7 7 07/07/08 6.08 0.02
-13.31539 -70.30889 2008 7 8 07/08/08 6.54 0.49
-13.31539 -70.30889 2008 7 9 07/09/08 6.26 0.06
-13.31539 -70.30889 2008 7 10 07/10/08 7.47 0.1
-13.31539 -70.30889 2008 7 11 07/11/08 8.41 0.04
-13.31539 -70.30889 2008 7 12 07/12/08 8.43 0
-13.31539 -70.30889 2008 7 13 Err:502 8.92 0
-13.31539 -70.30889 2008 7 14 Err:502 6.7 0.48
-13.31539 -70.30889 2008 7 15 Err:502 9.71 0.02
-13.31539 -70.30889 2008 7 16 Err:502 7.92 0
-13.31539 -70.30889 2008 7 17 Err:502 8.85 0
-13.31539 -70.30889 2008 7 18 Err:502 7.04 0.17
-13.31539 -70.30889 2008 7 19 Err:502 8.94 0.01
-13.31539 -70.30889 2008 7 20 Err:502 9.87 0
-13.31539 -70.30889 2008 7 21 Err:502 9.81 0
-13.31539 -70.30889 2008 7 22 Err:502 7.28 0
-13.31539 -70.30889 2008 7 23 Err:502 8.63 4.32
-13.31539 -70.30889 2008 7 24 Err:502 7.37 0.67
-13.31539 -70.30889 2008 7 25 Err:502 9.17 0
-13.31539 -70.30889 2008 7 26 Err:502 7.93 0
-13.31539 -70.30889 2008 7 27 Err:502 8.5 0
-13.31539 -70.30889 2008 7 28 Err:502 8.58 1.83
-13.31539 -70.30889 2008 7 29 Err:502 10.18 0.13
-13.31539 -70.30889 2008 7 30 Err:502 9.25 0
-13.31539 -70.30889 2008 7 31 Err:502 9.23 0.03
-13.31539 -70.30889 2008 8 1 08/01/08 8.57 3.66
-13.31539 -70.30889 2008 8 2 08/02/08 9.26 2.93
-13.31539 -70.30889 2008 8 3 08/03/08 6.71 6.05
-13.31539 -70.30889 2008 8 4 08/04/08 7.16 1.32
-13.31539 -70.30889 2008 8 5 08/05/08 9.69 0.2
-13.31539 -70.30889 2008 8 6 08/06/08 8.93 0.28
-13.31539 -70.30889 2008 8 7 08/07/08 8.61 0.59
-13.31539 -70.30889 2008 8 8 08/08/08 7.86 1.51
-13.31539 -70.30889 2008 8 9 08/09/08 7.64 0.01
-13.31539 -70.30889 2008 8 10 08/10/08 11.34 0
-13.31539 -70.30889 2008 8 11 08/11/08 10.61 0
-13.31539 -70.30889 2008 8 12 08/12/08 8.69 0
-13.31539 -70.30889 2008 8 13 Err:502 7.53 5.27
-13.31539 -70.30889 2008 8 14 Err:502 9.97 0.45
-13.31539 -70.30889 2008 8 15 Err:502 10.25 0
-13.31539 -70.30889 2008 8 16 Err:502 8.23 0
-13.31539 -70.30889 2008 8 17 Err:502 8.84 0
-13.31539 -70.30889 2008 8 18 Err:502 7.27 0.01
-13.31539 -70.30889 2008 8 19 Err:502 6.97 0
-13.31539 -70.30889 2008 8 20 Err:502 8.02 0.99
-13.31539 -70.30889 2008 8 21 Err:502 8.75 0.39
-13.31539 -70.30889 2008 8 22 Err:502 10.49 0
-13.31539 -70.30889 2008 8 23 Err:502 8.08 0
-13.31539 -70.30889 2008 8 24 Err:502 10.2 0
-13.31539 -70.30889 2008 8 25 Err:502 11.34 0
-13.31539 -70.30889 2008 8 26 Err:502 11.58 0
-13.31539 -70.30889 2008 8 27 Err:502 8.21 0
-13.31539 -70.30889 2008 8 28 Err:502 8.17 0.97
-13.31539 -70.30889 2008 8 29 Err:502 6.87 8.44
-13.31539 -70.30889 2008 8 30 Err:502 12.48 0.36
-13.31539 -70.30889 2008 8 31 Err:502 13.63 0
-13.31539 -70.30889 2008 9 1 09/01/08 12.9 0
-13.31539 -70.30889 2008 9 2 09/02/08 12.53 0
-13.31539 -70.30889 2008 9 3 09/03/08 10.79 0
-13.31539 -70.30889 2008 9 4 09/04/08 4.92 2.66
-13.31539 -70.30889 2008 9 5 09/05/08 8.72 0.25
-13.31539 -70.30889 2008 9 6 09/06/08 9.48 0
-13.31539 -70.30889 2008 9 7 09/07/08 3.81 0
-13.31539 -70.30889 2008 9 8 09/08/08 9.88 0
-13.31539 -70.30889 2008 9 9 09/09/08 13.25 0
-13.31539 -70.30889 2008 9 10 09/10/08 12.12 0.05
-13.31539 -70.30889 2008 9 11 09/11/08 10.15 0.01
-13.31539 -70.30889 2008 9 12 09/12/08 9.3 4.84
-13.31539 -70.30889 2008 9 13 Err:502 6.23 3.11
-13.31539 -70.30889 2008 9 14 Err:502 9.38 0.33
-13.31539 -70.30889 2008 9 15 Err:502 12.02 1.69
-13.31539 -70.30889 2008 9 16 Err:502 10.72 0.68
-13.31539 -70.30889 2008 9 17 Err:502 11.79 0
-13.31539 -70.30889 2008 9 18 Err:502 11.32 0
-13.31539 -70.30889 2008 9 19 Err:502 11.76 0.16
-13.31539 -70.30889 2008 9 20 Err:502 8.86 2.52
-13.31539 -70.30889 2008 9 21 Err:502 4.11 2.45
-13.31539 -70.30889 2008 9 22 Err:502 12.79 0.01
-13.31539 -70.30889 2008 9 23 Err:502 11.47 0
-13.31539 -70.30889 2008 9 24 Err:502 10.28 0.4
-13.31539 -70.30889 2008 9 25 Err:502 11.34 2.01
-13.31539 -70.30889 2008 9 26 Err:502 6.4 0.01
-13.31539 -70.30889 2008 9 27 Err:502 10.15 0.31
-13.31539 -70.30889 2008 9 28 Err:502 11.69 1.16
-13.31539 -70.30889 2008 9 29 Err:502 10.12 5.78
-13.31539 -70.30889 2008 9 30 Err:502 7.83 0.11
-13.31539 -70.30889 2008 10 1 10/01/08 9.37 1.97
-13.31539 -70.30889 2008 10 2 10/02/08 10.34 0.06
-13.31539 -70.30889 2008 10 3 10/03/08 7.84 3.16
-13.31539 -70.30889 2008 10 4 10/04/08 6.12 3.61
-13.31539 -70.30889 2008 10 5 10/05/08 4.4 9.72
-13.31539 -70.30889 2008 10 6 10/06/08 9.21 1.32
-13.31539 -70.30889 2008 10 7 10/07/08 9.26 4.5
-13.31539 -70.30889 2008 10 8 10/08/08 10.48 3.74
-13.31539 -70.30889 2008 10 9 10/09/08 11.57 0.05
-13.31539 -70.30889 2008 10 10 10/10/08 11.35 0
-13.31539 -70.30889 2008 10 11 10/11/08 10.87 0
-13.31539 -70.30889 2008 10 12 10/12/08 9.64 0
-13.31539 -70.30889 2008 10 13 Err:502 9.49 0
-13.31539 -70.30889 2008 10 14 Err:502 10.67 0.68
-13.31539 -70.30889 2008 10 15 Err:502 12.29 0.45
-13.31539 -70.30889 2008 10 16 Err:502 10.13 0
-13.31539 -70.30889 2008 10 17 Err:502 10.3 0.03
-13.31539 -70.30889 2008 10 18 Err:502 7.48 2.25
-13.31539 -70.30889 2008 10 19 Err:502 7.8 0.11
-13.31539 -70.30889 2008 10 20 Err:502 9.38 0.02
-13.31539 -70.30889 2008 10 21 Err:502 10.78 0.89
-13.31539 -70.30889 2008 10 22 Err:502 7.9 1.92
-13.31539 -70.30889 2008 10 23 Err:502 9.96 0.44
-13.31539 -70.30889 2008 10 24 Err:502 12.52 0.07
-13.31539 -70.30889 2008 10 25 Err:502 10.75 1.78
-13.31539 -70.30889 2008 10 26 Err:502 8.37 8.92
-13.31539 -70.30889 2008 10 27 Err:502 6.31 4.96
-13.31539 -70.30889 2008 10 28 Err:502 10.53 0.26
-13.31539 -70.30889 2008 10 29 Err:502 7.77 0.12
-13.31539 -70.30889 2008 10 30 Err:502 10.3 0.85
-13.31539 -70.30889 2008 10 31 Err:502 6.2 3.74
-13.31539 -70.30889 2008 11 1 11/01/08 10.93 0.48
-13.31539 -70.30889 2008 11 2 11/02/08 6.47 0.9
-13.31539 -70.30889 2008 11 3 11/03/08 6.58 5.86
-13.31539 -70.30889 2008 11 4 11/04/08 9.2 0.21
-13.31539 -70.30889 2008 11 5 11/05/08 9.9 0
-13.31539 -70.30889 2008 11 6 11/06/08 6.96 0
-13.31539 -70.30889 2008 11 7 11/07/08 10.82 1.58
-13.31539 -70.30889 2008 11 8 11/08/08 8.54 0.25
-13.31539 -70.30889 2008 11 9 11/09/08 12.28 0
-13.31539 -70.30889 2008 11 10 11/10/08 5.43 23.8
-13.31539 -70.30889 2008 11 11 11/11/08 6.18 8.74
-13.31539 -70.30889 2008 11 12 11/12/08 3.77 7.11
-13.31539 -70.30889 2008 11 13 Err:502 4.59 2.9
-13.31539 -70.30889 2008 11 14 Err:502 10.48 0.09
-13.31539 -70.30889 2008 11 15 Err:502 8.73 0
-13.31539 -70.30889 2008 11 16 Err:502 6.89 15.6
-13.31539 -70.30889 2008 11 17 Err:502 4.87 5.03
-13.31539 -70.30889 2008 11 18 Err:502 8.9 0.01
-13.31539 -70.30889 2008 11 19 Err:502 10.35 0.06
-13.31539 -70.30889 2008 11 20 Err:502 7.56 0.06
-13.31539 -70.30889 2008 11 21 Err:502 9.57 0.38
-13.31539 -70.30889 2008 11 22 Err:502 9.86 4.37
-13.31539 -70.30889 2008 11 23 Err:502 7.35 1.19
-13.31539 -70.30889 2008 11 24 Err:502 7.34 0
-13.31539 -70.30889 2008 11 25 Err:502 8.99 0.04
-13.31539 -70.30889 2008 11 26 Err:502 7.38 0.01
-13.31539 -70.30889 2008 11 27 Err:502 7.85 0.29
-13.31539 -70.30889 2008 11 28 Err:502 8.82 1.39
-13.31539 -70.30889 2008 11 29 Err:502 9.18 0.02
-13.31539 -70.30889 2008 11 30 Err:502 7.18 3.86
-13.31539 -70.30889 2008 12 1 12/01/08 5.55 0.32
-13.31539 -70.30889 2008 12 2 12/02/08 5.98 12.19
-13.31539 -70.30889 2008 12 3 12/03/08 5.68 29.36
-13.31539 -70.30889 2008 12 4 12/04/08 9.07 0.02
-13.31539 -70.30889 2008 12 5 12/05/08 8.3 0
-13.31539 -70.30889 2008 12 6 12/06/08 8.13 0.17
-13.31539 -70.30889 2008 12 7 12/07/08 5.97 0.22
-13.31539 -70.30889 2008 12 8 12/08/08 5.26 0.62
-13.31539 -70.30889 2008 12 9 12/09/08 7.81 1.11
-13.31539 -70.30889 2008 12 10 12/10/08 9.05 0.41
-13.31539 -70.30889 2008 12 11 12/11/08 3.9 7.01
-13.31539 -70.30889 2008 12 12 12/12/08 4.19 4.69
-13.31539 -70.30889 2008 12 13 Err:502 8.48 19.59
-13.31539 -70.30889 2008 12 14 Err:502 6.83 17.42
-13.31539 -70.30889 2008 12 15 Err:502 3.37 30.43
-13.31539 -70.30889 2008 12 16 Err:502 2.95 23.63
-13.31539 -70.30889 2008 12 17 Err:502 6.36 1.92
-13.31539 -70.30889 2008 12 18 Err:502 4.6 1.17
-13.31539 -70.30889 2008 12 19 Err:502 5.97 16.33
-13.31539 -70.30889 2008 12 20 Err:502 3.49 5.25
-13.31539 -70.30889 2008 12 21 Err:502 7.74 0
-13.31539 -70.30889 2008 12 22 Err:502 3.99 1.86
-13.31539 -70.30889 2008 12 23 Err:502 3.67 2.55
-13.31539 -70.30889 2008 12 24 Err:502 4.45 1.17
-13.31539 -70.30889 2008 12 25 Err:502 6.73 8.33
-13.31539 -70.30889 2008 12 26 Err:502 3.57 26.33
-13.31539 -70.30889 2008 12 27 Err:502 3.75 4.73
-13.31539 -70.30889 2008 12 28 Err:502 3.75 4.89
-13.31539 -70.30889 2008 12 29 Err:502 3.27 24.12
-13.31539 -70.30889 2008 12 30 Err:502 4.96 5.87
-13.31539 -70.30889 2008 12 31 Err:502 5.37 8.18
-13.31539 -70.30889 2009 1 1 01/01/09 5.96 6.56
-13.31539 -70.30889 2009 1 2 01/02/09 4.38 1.22
-13.31539 -70.30889 2009 1 3 01/03/09 4.33 24.32
-13.31539 -70.30889 2009 1 4 01/04/09 3.13 37.38
-13.31539 -70.30889 2009 1 5 01/05/09 5.32 4.92
-13.31539 -70.30889 2009 1 6 01/06/09 7.02 1.22
-13.31539 -70.30889 2009 1 7 01/07/09 4.52 3.61
-13.31539 -70.30889 2009 1 8 01/08/09 4.32 3.62
-13.31539 -70.30889 2009 1 9 01/09/09 4.62 2.1
-13.31539 -70.30889 2009 1 10 01/10/09 3.85 2.34
-13.31539 -70.30889 2009 1 11 01/11/09 4.02 6.8
-13.31539 -70.30889 2009 1 12 01/12/09 5.81 6.62
-13.31539 -70.30889 2009 1 13 Err:502 6.54 0.04
-13.31539 -70.30889 2009 1 14 Err:502 5.47 0.01
-13.31539 -70.30889 2009 1 15 Err:502 5.38 0.69
-13.31539 -70.30889 2009 1 16 Err:502 4.36 16.13
-13.31539 -70.30889 2009 1 17 Err:502 2.98 42.22
-13.31539 -70.30889 2009 1 18 Err:502 5.63 4.53
-13.31539 -70.30889 2009 1 19 Err:502 6.01 1.29
-13.31539 -70.30889 2009 1 20 Err:502 3.95 3.51
-13.31539 -70.30889 2009 1 21 Err:502 5.35 0.38
-13.31539 -70.30889 2009 1 22 Err:502 7.15 0.95
-13.31539 -70.30889 2009 1 23 Err:502 7.8 0.18
-13.31539 -70.30889 2009 1 24 Err:502 7.35 0.15
-13.31539 -70.30889 2009 1 25 Err:502 7.35 0.07
-13.31539 -70.30889 2009 1 26 Err:502 5.92 8.79
-13.31539 -70.30889 2009 1 27 Err:502 4.59 5.94
-13.31539 -70.30889 2009 1 28 Err:502 7 2.57
-13.31539 -70.30889 2009 1 29 Err:502 5.36 0.12
-13.31539 -70.30889 2009 1 30 Err:502 5.43 0.08
-13.31539 -70.30889 2009 1 31 Err:502 4.58 0.01
-13.31539 -70.30889 2009 2 1 02/01/09 3.21 34.91
-13.31539 -70.30889 2009 2 2 02/02/09 4.47 5.9
-13.31539 -70.30889 2009 2 3 02/03/09 5.38 2.3
-13.31539 -70.30889 2009 2 4 02/04/09 3.7 0.5
-13.31539 -70.30889 2009 2 5 02/05/09 5.83 2.85
-13.31539 -70.30889 2009 2 6 02/06/09 5.44 0.36
-13.31539 -70.30889 2009 2 7 02/07/09 3.66 0.14
-13.31539 -70.30889 2009 2 8 02/08/09 5.23 7.93
-13.31539 -70.30889 2009 2 9 02/09/09 4.03 8.66
-13.31539 -70.30889 2009 2 10 02/10/09 5.04 3.59
-13.31539 -70.30889 2009 2 11 02/11/09 5.91 10.66
-13.31539 -70.30889 2009 2 12 02/12/09 5.4 10.98
-13.31539 -70.30889 2009 2 13 Err:502 4.45 1.39
-13.31539 -70.30889 2009 2 14 Err:502 5.38 19.51
-13.31539 -70.30889 2009 2 15 Err:502 2.48 36.32
-13.31539 -70.30889 2009 2 16 Err:502 5.62 4.94
-13.31539 -70.30889 2009 2 17 Err:502 3.83 32.91
-13.31539 -70.30889 2009 2 18 Err:502 6.6 4.51
-13.31539 -70.30889 2009 2 19 Err:502 6.33 6.42
-13.31539 -70.30889 2009 2 20 Err:502 2.87 7.92
-13.31539 -70.30889 2009 2 21 Err:502 6.02 22.69
-13.31539 -70.30889 2009 2 22 Err:502 3.8 9.32
-13.31539 -70.30889 2009 2 23 Err:502 3.48 8.31
-13.31539 -70.30889 2009 2 24 Err:502 5.5 3.47
-13.31539 -70.30889 2009 2 25 Err:502 3.76 8.25
-13.31539 -70.30889 2009 2 26 Err:502 4.57 7.57
-13.31539 -70.30889 2009 2 27 Err:502 7.41 4.21
-13.31539 -70.30889 2009 2 28 Err:502 5.51 2.91
-13.31539 -70.30889 2009 3 1 03/01/09 4.49 3.44
-13.31539 -70.30889 2009 3 2 03/02/09 6.18 3.87
-13.31539 -70.30889 2009 3 3 03/03/09 4.17 5.78
-13.31539 -70.30889 2009 3 4 03/04/09 6.04 0.18
-13.31539 -70.30889 2009 3 5 03/05/09 4.72 3.65
-13.31539 -70.30889 2009 3 6 03/06/09 6.44 0.36
-13.31539 -70.30889 2009 3 7 03/07/09 5.54 0.31
-13.31539 -70.30889 2009 3 8 03/08/09 3.08 8.71
-13.31539 -70.30889 2009 3 9 03/09/09 5.04 10.34
-13.31539 -70.30889 2009 3 10 03/10/09 4.81 0.88
-13.31539 -70.30889 2009 3 11 03/11/09 5.85 3.87
-13.31539 -70.30889 2009 3 12 03/12/09 3.18 10.31
-13.31539 -70.30889 2009 3 13 Err:502 3.51 13.25
-13.31539 -70.30889 2009 3 14 Err:502 7 1.79
-13.31539 -70.30889 2009 3 15 Err:502 6.78 0.02
-13.31539 -70.30889 2009 3 16 Err:502 7.65 0.16
-13.31539 -70.30889 2009 3 17 Err:502 6.38 0
-13.31539 -70.30889 2009 3 18 Err:502 5.98 2.43
-13.31539 -70.30889 2009 3 19 Err:502 5.94 0.25
-13.31539 -70.30889 2009 3 20 Err:502 5.72 0.5
-13.31539 -70.30889 2009 3 21 Err:502 6.06 1.04
-13.31539 -70.30889 2009 3 22 Err:502 5.22 5.28
-13.31539 -70.30889 2009 3 23 Err:502 4.81 6.73
-13.31539 -70.30889 2009 3 24 Err:502 2.57 38
-13.31539 -70.30889 2009 3 25 Err:502 4.1 14.67
-13.31539 -70.30889 2009 3 26 Err:502 4.3 13.04
-13.31539 -70.30889 2009 3 27 Err:502 4.74 5.53
-13.31539 -70.30889 2009 3 28 Err:502 5.14 3.52
-13.31539 -70.30889 2009 3 29 Err:502 4.72 1.22
-13.31539 -70.30889 2009 3 30 Err:502 4.56 0.15
-13.31539 -70.30889 2009 3 31 Err:502 5.12 3.11
-13.31539 -70.30889 2009 4 1 04/01/09 5.77 3.91
-13.31539 -70.30889 2009 4 2 04/02/09 6.09 2.38
-13.31539 -70.30889 2009 4 3 04/03/09 5.78 0.86
-13.31539 -70.30889 2009 4 4 04/04/09 4.31 3.16
-13.31539 -70.30889 2009 4 5 04/05/09 3.61 6.93
-13.31539 -70.30889 2009 4 6 04/06/09 3.86 0.77
-13.31539 -70.30889 2009 4 7 04/07/09 4.68 11.99
-13.31539 -70.30889 2009 4 8 04/08/09 4.66 5.58
-13.31539 -70.30889 2009 4 9 04/09/09 5.17 3.45
-13.31539 -70.30889 2009 4 10 04/10/09 4.7 4.04
-13.31539 -70.30889 2009 4 11 04/11/09 6.05 0.01
-13.31539 -70.30889 2009 4 12 04/12/09 7.12 8.42
-13.31539 -70.30889 2009 4 13 Err:502 7.03 3.53
-13.31539 -70.30889 2009 4 14 Err:502 6.58 8.65
-13.31539 -70.30889 2009 4 15 Err:502 7.89 0.07
-13.31539 -70.30889 2009 4 16 Err:502 7.72 0.42
-13.31539 -70.30889 2009 4 17 Err:502 7.44 0.23
-13.31539 -70.30889 2009 4 18 Err:502 7.13 2.12
-13.31539 -70.30889 2009 4 19 Err:502 6.05 6.98
-13.31539 -70.30889 2009 4 20 Err:502 5.02 0.14
-13.31539 -70.30889 2009 4 21 Err:502 5.32 1.14
-13.31539 -70.30889 2009 4 22 Err:502 4.82 3.28
-13.31539 -70.30889 2009 4 23 Err:502 5.4 0.6
-13.31539 -70.30889 2009 4 24 Err:502 4.62 14.95
-13.31539 -70.30889 2009 4 25 Err:502 3.68 4.98
-13.31539 -70.30889 2009 4 26 Err:502 5.52 0
-13.31539 -70.30889 2009 4 27 Err:502 6.01 0
-13.31539 -70.30889 2009 4 28 Err:502 6.83 0
-13.31539 -70.30889 2009 4 29 Err:502 7.14 0
-13.31539 -70.30889 2009 4 30 Err:502 4.39 0.87
-13.31539 -70.30889 2009 5 1 05/01/09 4.16 0.08
-13.31539 -70.30889 2009 5 2 05/02/09 6.84 0
-13.31539 -70.30889 2009 5 3 05/03/09 6.2 0
-13.31539 -70.30889 2009 5 4 05/04/09 6.31 0.3
-13.31539 -70.30889 2009 5 5 05/05/09 4.44 14.79
-13.31539 -70.30889 2009 5 6 05/06/09 4.18 1.39
-13.31539 -70.30889 2009 5 7 05/07/09 4.59 0
-13.31539 -70.30889 2009 5 8 05/08/09 5.94 0
-13.31539 -70.30889 2009 5 9 05/09/09 6.49 0
-13.31539 -70.30889 2009 5 10 05/10/09 4.96 0.3
-13.31539 -70.30889 2009 5 11 05/11/09 6.34 0.03
-13.31539 -70.30889 2009 5 12 05/12/09 5.71 0.05
-13.31539 -70.30889 2009 5 13 Err:502 4.87 0.21
-13.31539 -70.30889 2009 5 14 Err:502 5.08 4.29
-13.31539 -70.30889 2009 5 15 Err:502 5.32 6.11
-13.31539 -70.30889 2009 5 16 Err:502 3.32 0.86
-13.31539 -70.30889 2009 5 17 Err:502 8.09 0
-13.31539 -70.30889 2009 5 18 Err:502 5.22 0
-13.31539 -70.30889 2009 5 19 Err:502 6.86 2.19
-13.31539 -70.30889 2009 5 20 Err:502 6.42 0.09
-13.31539 -70.30889 2009 5 21 Err:502 7.27 0
-13.31539 -70.30889 2009 5 22 Err:502 4.68 0.06
-13.31539 -70.30889 2009 5 23 Err:502 5.13 8.8
-13.31539 -70.30889 2009 5 24 Err:502 6.42 1.01
-13.31539 -70.30889 2009 5 25 Err:502 6.5 0
-13.31539 -70.30889 2009 5 26 Err:502 4.97 9.22
-13.31539 -70.30889 2009 5 27 Err:502 3.23 0.51
-13.31539 -70.30889 2009 5 28 Err:502 3.9 6.84
-13.31539 -70.30889 2009 5 29 Err:502 3.81 0.36
-13.31539 -70.30889 2009 5 30 Err:502 6.34 0.13
-13.31539 -70.30889 2009 5 31 Err:502 4.29 4.99
-13.31539 -70.30889 2009 6 1 06/01/09 5.3 2.62
-13.31539 -70.30889 2009 6 2 06/02/09 3.84 0.02
-13.31539 -70.30889 2009 6 3 06/03/09 6.91 0
-13.31539 -70.30889 2009 6 4 06/04/09 9.34 0
-13.31539 -70.30889 2009 6 5 06/05/09 8.85 0
-13.31539 -70.30889 2009 6 6 06/06/09 8.07 0
-13.31539 -70.30889 2009 6 7 06/07/09 6.86 0
-13.31539 -70.30889 2009 6 8 06/08/09 6.8 0
-13.31539 -70.30889 2009 6 9 06/09/09 6.87 0.01
-13.31539 -70.30889 2009 6 10 06/10/09 6.85 1.28
-13.31539 -70.30889 2009 6 11 06/11/09 3.3 14.39
-13.31539 -70.30889 2009 6 12 06/12/09 4.55 3.82
-13.31539 -70.30889 2009 6 13 Err:502 7.76 0
-13.31539 -70.30889 2009 6 14 Err:502 7.76 0
-13.31539 -70.30889 2009 6 15 Err:502 8.36 0
-13.31539 -70.30889 2009 6 16 Err:502 6.33 0
-13.31539 -70.30889 2009 6 17 Err:502 4.5 0.07
-13.31539 -70.30889 2009 6 18 Err:502 5.07 0.05
-13.31539 -70.30889 2009 6 19 Err:502 6.2 0.05
-13.31539 -70.30889 2009 6 20 Err:502 6.38 0
-13.31539 -70.30889 2009 6 21 Err:502 4.99 0
-13.31539 -70.30889 2009 6 22 Err:502 6.84 0.01
-13.31539 -70.30889 2009 6 23 Err:502 5.14 4.51
-13.31539 -70.30889 2009 6 24 Err:502 6.38 4.82
-13.31539 -70.30889 2009 6 25 Err:502 6.33 0.47
-13.31539 -70.30889 2009 6 26 Err:502 6.81 0.01
-13.31539 -70.30889 2009 6 27 Err:502 7.57 0
-13.31539 -70.30889 2009 6 28 Err:502 8.46 0
-13.31539 -70.30889 2009 6 29 Err:502 7.87 0
-13.31539 -70.30889 2009 6 30 Err:502 5.92 0
-13.31539 -70.30889 2009 7 1 07/01/09 7.9 0.01
-13.31539 -70.30889 2009 7 2 07/02/09 6.64 21.62
-13.31539 -70.30889 2009 7 3 07/03/09 4.71 29.11
-13.31539 -70.30889 2009 7 4 07/04/09 5.43 1.93
-13.31539 -70.30889 2009 7 5 07/05/09 6.17 2.65
-13.31539 -70.30889 2009 7 6 07/06/09 5.73 0.23
-13.31539 -70.30889 2009 7 7 07/07/09 4.95 0
-13.31539 -70.30889 2009 7 8 07/08/09 5.71 6.73
-13.31539 -70.30889 2009 7 9 07/09/09 5.43 12.8
-13.31539 -70.30889 2009 7 10 07/10/09 6.59 0.45
-13.31539 -70.30889 2009 7 11 07/11/09 4.36 28.21
-13.31539 -70.30889 2009 7 12 07/12/09 4.62 7.32
-13.31539 -70.30889 2009 7 13 Err:502 8.1 0
-13.31539 -70.30889 2009 7 14 Err:502 6.53 0.01
-13.31539 -70.30889 2009 7 15 Err:502 6.91 0
-13.31539 -70.30889 2009 7 16 Err:502 6.23 0
-13.31539 -70.30889 2009 7 17 Err:502 6.01 0
-13.31539 -70.30889 2009 7 18 Err:502 7.78 0
-13.31539 -70.30889 2009 7 19 Err:502 6.18 0
-13.31539 -70.30889 2009 7 20 Err:502 6.67 0
-13.31539 -70.30889 2009 7 21 Err:502 7.14 0
-13.31539 -70.30889 2009 7 22 Err:502 6.55 0.54
-13.31539 -70.30889 2009 7 23 Err:502 5.06 0.02
-13.31539 -70.30889 2009 7 24 Err:502 6.4 1.82
-13.31539 -70.30889 2009 7 25 Err:502 7.02 0.05
-13.31539 -70.30889 2009 7 26 Err:502 7.62 0.73
-13.31539 -70.30889 2009 7 27 Err:502 9.06 0.01
-13.31539 -70.30889 2009 7 28 Err:502 7.97 0
-13.31539 -70.30889 2009 7 29 Err:502 6.65 0
-13.31539 -70.30889 2009 7 30 Err:502 6.65 0
-13.31539 -70.30889 2009 7 31 Err:502 7.52 0
-13.31539 -70.30889 2009 8 1 08/01/09 7.52 0.05
-13.31539 -70.30889 2009 8 2 08/02/09 5.14 0.5
-13.31539 -70.30889 2009 8 3 08/03/09 6.69 0.08
-13.31539 -70.30889 2009 8 4 08/04/09 7.57 0
-13.31539 -70.30889 2009 8 5 08/05/09 7.57 0
-13.31539 -70.30889 2009 8 6 08/06/09 7.2 0
-13.31539 -70.30889 2009 8 7 08/07/09 9.18 0
-13.31539 -70.30889 2009 8 8 08/08/09 8.64 0.32
-13.31539 -70.30889 2009 8 9 08/09/09 7.4 1.15
-13.31539 -70.30889 2009 8 10 08/10/09 6.45 0.04
-13.31539 -70.30889 2009 8 11 08/11/09 8.49 0
-13.31539 -70.30889 2009 8 12 08/12/09 10.31 0
-13.31539 -70.30889 2009 8 13 Err:502 9.75 0
-13.31539 -70.30889 2009 8 14 Err:502 8.64 0
-13.31539 -70.30889 2009 8 15 Err:502 9.18 0
-13.31539 -70.30889 2009 8 16 Err:502 8.77 0
-13.31539 -70.30889 2009 8 17 Err:502 7.7 0.28
-13.31539 -70.30889 2009 8 18 Err:502 4.74 16.89
-13.31539 -70.30889 2009 8 19 Err:502 6.51 2.78
-13.31539 -70.30889 2009 8 20 Err:502 7.18 0.07
-13.31539 -70.30889 2009 8 21 Err:502 8.57 0.02
-13.31539 -70.30889 2009 8 22 Err:502 9.79 0
-13.31539 -70.30889 2009 8 23 Err:502 9.19 0.07
-13.31539 -70.30889 2009 8 24 Err:502 6.77 7.31
-13.31539 -70.30889 2009 8 25 Err:502 9.21 3.04
-13.31539 -70.30889 2009 8 26 Err:502 8.79 0.18
-13.31539 -70.30889 2009 8 27 Err:502 8.03 0
-13.31539 -70.30889 2009 8 28 Err:502 9.05 0
-13.31539 -70.30889 2009 8 29 Err:502 9.24 0
-13.31539 -70.30889 2009 8 30 Err:502 7.81 0
-13.31539 -70.30889 2009 8 31 Err:502 7.48 0
-13.31539 -70.30889 2009 9 1 09/01/09 9.18 0
-13.31539 -70.30889 2009 9 2 09/02/09 9.14 0.01
-13.31539 -70.30889 2009 9 3 09/03/09 6.84 0.09
-13.31539 -70.30889 2009 9 4 09/04/09 6.9 0
-13.31539 -70.30889 2009 9 5 09/05/09 10.65 0
-13.31539 -70.30889 2009 9 6 09/06/09 10.35 0
-13.31539 -70.30889 2009 9 7 09/07/09 9.71 0
-13.31539 -70.30889 2009 9 8 09/08/09 9.54 0
-13.31539 -70.30889 2009 9 9 09/09/09 5.82 1.68
-13.31539 -70.30889 2009 9 10 09/10/09 7.24 3.39
-13.31539 -70.30889 2009 9 11 09/11/09 6.39 0.06
-13.31539 -70.30889 2009 9 12 09/12/09 10.74 0
-13.31539 -70.30889 2009 9 13 Err:502 11.06 0
-13.31539 -70.30889 2009 9 14 Err:502 11.22 0
-13.31539 -70.30889 2009 9 15 Err:502 10.25 0
-13.31539 -70.30889 2009 9 16 Err:502 6.75 2.41
-13.31539 -70.30889 2009 9 17 Err:502 10.14 0.03
-13.31539 -70.30889 2009 9 18 Err:502 10.23 0.02
-13.31539 -70.30889 2009 9 19 Err:502 5.79 7.11
-13.31539 -70.30889 2009 9 20 Err:502 7.9 3.26
-13.31539 -70.30889 2009 9 21 Err:502 7.04 0.99
-13.31539 -70.30889 2009 9 22 Err:502 10.77 0.66
-13.31539 -70.30889 2009 9 23 Err:502 8.26 2.57
-13.31539 -70.30889 2009 9 24 Err:502 5.99 6.52
-13.31539 -70.30889 2009 9 25 Err:502 11.67 0.12
-13.31539 -70.30889 2009 9 26 Err:502 11.13 0
-13.31539 -70.30889 2009 9 27 Err:502 10.46 0.37
-13.31539 -70.30889 2009 9 28 Err:502 9.88 1.16
-13.31539 -70.30889 2009 9 29 Err:502 8.28 3.82
-13.31539 -70.30889 2009 9 30 Err:502 9.29 0.28
-13.31539 -70.30889 2009 10 1 10/01/09 10.25 0.82
-13.31539 -70.30889 2009 10 2 10/02/09 10.29 1.16
-13.31539 -70.30889 2009 10 3 10/03/09 9.57 1.16
-13.31539 -70.30889 2009 10 4 10/04/09 8.56 0.17
-13.31539 -70.30889 2009 10 5 10/05/09 9.6 0
-13.31539 -70.30889 2009 10 6 10/06/09 9.51 0
-13.31539 -70.30889 2009 10 7 10/07/09 8.81 0.46
-13.31539 -70.30889 2009 10 8 10/08/09 7.77 0.01
-13.31539 -70.30889 2009 10 9 10/09/09 10.58 0
-13.31539 -70.30889 2009 10 10 10/10/09 8.31 0
-13.31539 -70.30889 2009 10 11 10/11/09 5.9 0
-13.31539 -70.30889 2009 10 12 10/12/09 6.61 0.1
-13.31539 -70.30889 2009 10 13 Err:502 7.26 2.05
-13.31539 -70.30889 2009 10 14 Err:502 9.34 0.16
-13.31539 -70.30889 2009 10 15 Err:502 12.01 0
-13.31539 -70.30889 2009 10 16 Err:502 8.86 0.03
-13.31539 -70.30889 2009 10 17 Err:502 7.34 0.02
-13.31539 -70.30889 2009 10 18 Err:502 4.94 1.51
-13.31539 -70.30889 2009 10 19 Err:502 8.82 0.16
-13.31539 -70.30889 2009 10 20 Err:502 7.97 0.61
-13.31539 -70.30889 2009 10 21 Err:502 4.1 1.12
-13.31539 -70.30889 2009 10 22 Err:502 9.46 0.1
-13.31539 -70.30889 2009 10 23 Err:502 7.87 0.14
-13.31539 -70.30889 2009 10 24 Err:502 8.88 3.72
-13.31539 -70.30889 2009 10 25 Err:502 8.43 0.74
-13.31539 -70.30889 2009 10 26 Err:502 8.82 7.94
-13.31539 -70.30889 2009 10 27 Err:502 3.72 37.61
-13.31539 -70.30889 2009 10 28 Err:502 4.76 2.39
-13.31539 -70.30889 2009 10 29 Err:502 10.25 0
-13.31539 -70.30889 2009 10 30 Err:502 9.12 0
-13.31539 -70.30889 2009 10 31 Err:502 9.58 0
-13.31539 -70.30889 2009 11 1 11/01/09 9.26 0
-13.31539 -70.30889 2009 11 2 11/02/09 10.4 0.24
-13.31539 -70.30889 2009 11 3 11/03/09 8.27 0.5
-13.31539 -70.30889 2009 11 4 11/04/09 4.9 3.98
-13.31539 -70.30889 2009 11 5 11/05/09 7.53 2.13
-13.31539 -70.30889 2009 11 6 11/06/09 3.64 2.59
-13.31539 -70.30889 2009 11 7 11/07/09 4.57 10.32
-13.31539 -70.30889 2009 11 8 11/08/09 6.48 17.01
-13.31539 -70.30889 2009 11 9 11/09/09 4.85 11.81
-13.31539 -70.30889 2009 11 10 11/10/09 8.04 0.4
-13.31539 -70.30889 2009 11 11 11/11/09 6.08 1.49
-13.31539 -70.30889 2009 11 12 11/12/09 4.47 3.43
-13.31539 -70.30889 2009 11 13 Err:502 6.21 3.8
-13.31539 -70.30889 2009 11 14 Err:502 4.22 3.77
-13.31539 -70.30889 2009 11 15 Err:502 4.49 1.8
-13.31539 -70.30889 2009 11 16 Err:502 3.61 20.09
-13.31539 -70.30889 2009 11 17 Err:502 6.53 10.69
-13.31539 -70.30889 2009 11 18 Err:502 8.09 1.83
-13.31539 -70.30889 2009 11 19 Err:502 7.47 0.57
-13.31539 -70.30889 2009 11 20 Err:502 6.7 1.25
-13.31539 -70.30889 2009 11 21 Err:502 3.57 3.63
-13.31539 -70.30889 2009 11 22 Err:502 4.7 4.45
-13.31539 -70.30889 2009 11 23 Err:502 5.23 0.85
-13.31539 -70.30889 2009 11 24 Err:502 4.91 4.26
-13.31539 -70.30889 2009 11 25 Err:502 4.44 2.02
-13.31539 -70.30889 2009 11 26 Err:502 3.96 1.81
-13.31539 -70.30889 2009 11 27 Err:502 4.29 4.96
-13.31539 -70.30889 2009 11 28 Err:502 7.03 2.46
-13.31539 -70.30889 2009 11 29 Err:502 4.16 1.17
-13.31539 -70.30889 2009 11 30 Err:502 6.31 2.06
-13.31539 -70.30889 2009 12 1 12/01/09 4.11 3.37
-13.31539 -70.30889 2009 12 2 12/02/09 3.98 5.01
-13.31539 -70.30889 2009 12 3 12/03/09 6.05 6.15
-13.31539 -70.30889 2009 12 4 12/04/09 2.59 12.97
-13.31539 -70.30889 2009 12 5 12/05/09 3.44 15.01
-13.31539 -70.30889 2009 12 6 12/06/09 2.74 6.99
-13.31539 -70.30889 2009 12 7 12/07/09 5.55 4.32
-13.31539 -70.30889 2009 12 8 12/08/09 3.27 5.77
-13.31539 -70.30889 2009 12 9 12/09/09 6 2.03
-13.31539 -70.30889 2009 12 10 12/10/09 5.86 2.83
-13.31539 -70.30889 2009 12 11 12/11/09 6.11 1.65
-13.31539 -70.30889 2009 12 12 12/12/09 3.44 3.01
-13.31539 -70.30889 2009 12 13 Err:502 3.17 5.54
-13.31539 -70.30889 2009 12 14 Err:502 7.76 0.24
-13.31539 -70.30889 2009 12 15 Err:502 8.11 0.71
-13.31539 -70.30889 2009 12 16 Err:502 6.99 0.82
-13.31539 -70.30889 2009 12 17 Err:502 5.6 3.51
-13.31539 -70.30889 2009 12 18 Err:502 4.13 1.5
-13.31539 -70.30889 2009 12 19 Err:502 5.21 1.19
-13.31539 -70.30889 2009 12 20 Err:502 5.01 10.83
-13.31539 -70.30889 2009 12 21 Err:502 4.52 19.42
-13.31539 -70.30889 2009 12 22 Err:502 3.5 14.82
-13.31539 -70.30889 2009 12 23 Err:502 4.62 1.72
-13.31539 -70.30889 2009 12 24 Err:502 5.51 4.17
-13.31539 -70.30889 2009 12 25 Err:502 3.15 7.61
-13.31539 -70.30889 2009 12 26 Err:502 3.79 7.79
-13.31539 -70.30889 2009 12 27 Err:502 6.37 0.07
-13.31539 -70.30889 2009 12 28 Err:502 4.4 1.33
-13.31539 -70.30889 2009 12 29 Err:502 4.51 1.1
-13.31539 -70.30889 2009 12 30 Err:502 2.76 16.38
-13.31539 -70.30889 2009 12 31 Err:502 4.41 1.74
-13.31539 -70.30889 2010 1 1 01/01/10 5.28 0.09
-13.31539 -70.30889 2010 1 2 01/02/10 5.99 0
-13.31539 -70.30889 2010 1 3 01/03/10 4.03 7.44
-13.31539 -70.30889 2010 1 4 01/04/10 3.71 7.33
-13.31539 -70.30889 2010 1 5 01/05/10 6.84 0.08
-13.31539 -70.30889 2010 1 6 01/06/10 5.17 2.6
-13.31539 -70.30889 2010 1 7 01/07/10 6.38 0.42
-13.31539 -70.30889 2010 1 8 01/08/10 4.82 1.06
-13.31539 -70.30889 2010 1 9 01/09/10 4.1 2.15
-13.31539 -70.30889 2010 1 10 01/10/10 3.14 8.7
-13.31539 -70.30889 2010 1 11 01/11/10 5.92 7.83
-13.31539 -70.30889 2010 1 12 01/12/10 4.82 0.57
-13.31539 -70.30889 2010 1 13 Err:502 4.96 1.58
-13.31539 -70.30889 2010 1 14 Err:502 3.64 6.89
-13.31539 -70.30889 2010 1 15 Err:502 3.34 13.16
-13.31539 -70.30889 2010 1 16 Err:502 5.63 3.33
-13.31539 -70.30889 2010 1 17 Err:502 6.08 0.81
-13.31539 -70.30889 2010 1 18 Err:502 3.03 2.13
-13.31539 -70.30889 2010 1 19 Err:502 5.5 1.02
-13.31539 -70.30889 2010 1 20 Err:502 3.48 6.47
-13.31539 -70.30889 2010 1 21 Err:502 2.96 25.6
-13.31539 -70.30889 2010 1 22 Err:502 6.08 1.54
-13.31539 -70.30889 2010 1 23 Err:502 5.89 4.64
-13.31539 -70.30889 2010 1 24 Err:502 4.05 16.26
-13.31539 -70.30889 2010 1 25 Err:502 5.29 18.8
-13.31539 -70.30889 2010 1 26 Err:502 5.26 4.27
-13.31539 -70.30889 2010 1 27 Err:502 4.74 1.29
-13.31539 -70.30889 2010 1 28 Err:502 5.63 1.93
-13.31539 -70.30889 2010 1 29 Err:502 3.72 5.18
-13.31539 -70.30889 2010 1 30 Err:502 5.12 1.03
-13.31539 -70.30889 2010 1 31 Err:502 4.94 7.11
-13.31539 -70.30889 2010 2 1 02/01/10 3.59 6.94
-13.31539 -70.30889 2010 2 2 02/02/10 5.79 10.54
-13.31539 -70.30889 2010 2 3 02/03/10 5.87 1.41
-13.31539 -70.30889 2010 2 4 02/04/10 4.83 7.25
-13.31539 -70.30889 2010 2 5 02/05/10 3.14 11.8
-13.31539 -70.30889 2010 2 6 02/06/10 5.59 1.7
-13.31539 -70.30889 2010 2 7 02/07/10 6.43 0.03
-13.31539 -70.30889 2010 2 8 02/08/10 6.8 2.8
-13.31539 -70.30889 2010 2 9 02/09/10 3.83 0.8
-13.31539 -70.30889 2010 2 10 02/10/10 4.92 0.5
-13.31539 -70.30889 2010 2 11 02/11/10 3.62 8.28
-13.31539 -70.30889 2010 2 12 02/12/10 4.6 5.88
-13.31539 -70.30889 2010 2 13 Err:502 5.47 0.33
-13.31539 -70.30889 2010 2 14 Err:502 4.53 46.4
-13.31539 -70.30889 2010 2 15 Err:502 3.92 15.06
-13.31539 -70.30889 2010 2 16 Err:502 3.51 5.32
-13.31539 -70.30889 2010 2 17 Err:502 3.8 19.76
-13.31539 -70.30889 2010 2 18 Err:502 4 4.94
-13.31539 -70.30889 2010 2 19 Err:502 5.27 3.09
-13.31539 -70.30889 2010 2 20 Err:502 4.46 4.5
-13.31539 -70.30889 2010 2 21 Err:502 4.07 9.37
-13.31539 -70.30889 2010 2 22 Err:502 3.85 5.9
-13.31539 -70.30889 2010 2 23 Err:502 4.74 5.21
-13.31539 -70.30889 2010 2 24 Err:502 5.32 4.16
-13.31539 -70.30889 2010 2 25 Err:502 4.87 6.13
-13.31539 -70.30889 2010 2 26 Err:502 5.39 4.34
-13.31539 -70.30889 2010 2 27 Err:502 3.69 14.81
-13.31539 -70.30889 2010 2 28 Err:502 4.35 25.65
-13.31539 -70.30889 2010 3 1 03/01/10 2.73 5.59
-13.31539 -70.30889 2010 3 2 03/02/10 5.66 10.57
-13.31539 -70.30889 2010 3 3 03/03/10 4.79 6.31
-13.31539 -70.30889 2010 3 4 03/04/10 3.91 39.47
-13.31539 -70.30889 2010 3 5 03/05/10 3.89 32.48
-13.31539 -70.30889 2010 3 6 03/06/10 6.47 5.81
-13.31539 -70.30889 2010 3 7 03/07/10 7.21 0.14
-13.31539 -70.30889 2010 3 8 03/08/10 6.8 0.17
-13.31539 -70.30889 2010 3 9 03/09/10 6.69 0.03
-13.31539 -70.30889 2010 3 10 03/10/10 6.16 0.87
-13.31539 -70.30889 2010 3 11 03/11/10 4.47 0.29
-13.31539 -70.30889 2010 3 12 03/12/10 5.32 16.81
-13.31539 -70.30889 2010 3 13 Err:502 5.94 6.4
-13.31539 -70.30889 2010 3 14 Err:502 4.83 6.34
-13.31539 -70.30889 2010 3 15 Err:502 4.22 7.64
-13.31539 -70.30889 2010 3 16 Err:502 3.49 3.18
-13.31539 -70.30889 2010 3 17 Err:502 6.63 0.96
-13.31539 -70.30889 2010 3 18 Err:502 4.18 3.05
-13.31539 -70.30889 2010 3 19 Err:502 3.9 0.56
-13.31539 -70.30889 2010 3 20 Err:502 5.35 0
-13.31539 -70.30889 2010 3 21 Err:502 5.67 0.14
-13.31539 -70.30889 2010 3 22 Err:502 4.21 0.01
-13.31539 -70.30889 2010 3 23 Err:502 3.81 0.04
-13.31539 -70.30889 2010 3 24 Err:502 4.21 35.38
-13.31539 -70.30889 2010 3 25 Err:502 2.76 15.81
-13.31539 -70.30889 2010 3 26 Err:502 6.83 0.57
-13.31539 -70.30889 2010 3 27 Err:502 5.98 0.09
-13.31539 -70.30889 2010 3 28 Err:502 4.77 6.57
-13.31539 -70.30889 2010 3 29 Err:502 6.6 0.56
-13.31539 -70.30889 2010 3 30 Err:502 5.95 2.01
-13.31539 -70.30889 2010 3 31 Err:502 4.31 0.63
-13.31539 -70.30889 2010 4 1 04/01/10 7.15 0.27
-13.31539 -70.30889 2010 4 2 04/02/10 5.6 0.17
-13.31539 -70.30889 2010 4 3 04/03/10 5.53 2.13
-13.31539 -70.30889 2010 4 4 04/04/10 4.33 1.15
-13.31539 -70.30889 2010 4 5 04/05/10 4.57 0.1
-13.31539 -70.30889 2010 4 6 04/06/10 5.89 0.47
-13.31539 -70.30889 2010 4 7 04/07/10 6.81 0.24
-13.31539 -70.30889 2010 4 8 04/08/10 6.73 0.16
-13.31539 -70.30889 2010 4 9 04/09/10 6.2 0.02
-13.31539 -70.30889 2010 4 10 04/10/10 6.68 0.61
-13.31539 -70.30889 2010 4 11 04/11/10 6.63 0.06
-13.31539 -70.30889 2010 4 12 04/12/10 6.43 0
-13.31539 -70.30889 2010 4 13 Err:502 7.32 0
-13.31539 -70.30889 2010 4 14 Err:502 8.67 0
-13.31539 -70.30889 2010 4 15 Err:502 5.96 0.02
-13.31539 -70.30889 2010 4 16 Err:502 5.5 0.41
-13.31539 -70.30889 2010 4 17 Err:502 5.73 0
-13.31539 -70.30889 2010 4 18 Err:502 6.51 0
-13.31539 -70.30889 2010 4 19 Err:502 3.93 0.48
-13.31539 -70.30889 2010 4 20 Err:502 4.38 0
-13.31539 -70.30889 2010 4 21 Err:502 4.85 0
-13.31539 -70.30889 2010 4 22 Err:502 4.94 0.04
-13.31539 -70.30889 2010 4 23 Err:502 6.32 0.48
-13.31539 -70.30889 2010 4 24 Err:502 5.75 0.05
-13.31539 -70.30889 2010 4 25 Err:502 5.24 0
-13.31539 -70.30889 2010 4 26 Err:502 3.95 1.31
-13.31539 -70.30889 2010 4 27 Err:502 3.63 1.64
-13.31539 -70.30889 2010 4 28 Err:502 4.27 0.28
-13.31539 -70.30889 2010 4 29 Err:502 4.14 16.69
-13.31539 -70.30889 2010 4 30 Err:502 5.36 7.93
-13.31539 -70.30889 2010 5 1 05/01/10 7.12 0.53
-13.31539 -70.30889 2010 5 2 05/02/10 7.68 0.01
-13.31539 -70.30889 2010 5 3 05/03/10 7.14 0.45
-13.31539 -70.30889 2010 5 4 05/04/10 4.47 1.03
-13.31539 -70.30889 2010 5 5 05/05/10 5.06 0.06
-13.31539 -70.30889 2010 5 6 05/06/10 7.36 0
-13.31539 -70.30889 2010 5 7 05/07/10 4.63 0.07
-13.31539 -70.30889 2010 5 8 05/08/10 6.96 0.06
-13.31539 -70.30889 2010 5 9 05/09/10 4.49 0.02
-13.31539 -70.30889 2010 5 10 05/10/10 6.1 0
-13.31539 -70.30889 2010 5 11 05/11/10 6.49 0
-13.31539 -70.30889 2010 5 12 05/12/10 7.52 0
-13.31539 -70.30889 2010 5 13 Err:502 8.48 0
-13.31539 -70.30889 2010 5 14 Err:502 9.66 0
-13.31539 -70.30889 2010 5 15 Err:502 9.23 0
-13.31539 -70.30889 2010 5 16 Err:502 8.33 0
-13.31539 -70.30889 2010 5 17 Err:502 7.7 0
-13.31539 -70.30889 2010 5 18 Err:502 6.59 0.05
-13.31539 -70.30889 2010 5 19 Err:502 4.74 0.01
-13.31539 -70.30889 2010 5 20 Err:502 5.54 0
-13.31539 -70.30889 2010 5 21 Err:502 5.74 0
-13.31539 -70.30889 2010 5 22 Err:502 7.06 0
-13.31539 -70.30889 2010 5 23 Err:502 4.68 0.13
-13.31539 -70.30889 2010 5 24 Err:502 6.52 0.12
-13.31539 -70.30889 2010 5 25 Err:502 3.81 0.15
-13.31539 -70.30889 2010 5 26 Err:502 4.19 0.94
-13.31539 -70.30889 2010 5 27 Err:502 6.67 0.39
-13.31539 -70.30889 2010 5 28 Err:502 6.59 0.06
-13.31539 -70.30889 2010 5 29 Err:502 7.56 0
-13.31539 -70.30889 2010 5 30 Err:502 6.61 0.12
-13.31539 -70.30889 2010 5 31 Err:502 6.19 0.27
-13.31539 -70.30889 2010 6 1 06/01/10 6.63 0
-13.31539 -70.30889 2010 6 2 06/02/10 9.06 0
-13.31539 -70.30889 2010 6 3 06/03/10 10.4 0
-13.31539 -70.30889 2010 6 4 06/04/10 8.83 0
-13.31539 -70.30889 2010 6 5 06/05/10 6.21 0
-13.31539 -70.30889 2010 6 6 06/06/10 6.68 0
-13.31539 -70.30889 2010 6 7 06/07/10 8.97 0
-13.31539 -70.30889 2010 6 8 06/08/10 8.38 0
-13.31539 -70.30889 2010 6 9 06/09/10 9.18 0
-13.31539 -70.30889 2010 6 10 06/10/10 8.03 0
-13.31539 -70.30889 2010 6 11 06/11/10 8.29 0
-13.31539 -70.30889 2010 6 12 06/12/10 9.11 0
-13.31539 -70.30889 2010 6 13 Err:502 8.91 0
-13.31539 -70.30889 2010 6 14 Err:502 10.17 0
-13.31539 -70.30889 2010 6 15 Err:502 9.5 0
-13.31539 -70.30889 2010 6 16 Err:502 8.46 0.02
-13.31539 -70.30889 2010 6 17 Err:502 7.88 0.05
-13.31539 -70.30889 2010 6 18 Err:502 7 0.1
-13.31539 -70.30889 2010 6 19 Err:502 7.8 0
-13.31539 -70.30889 2010 6 20 Err:502 5.3 0.76
-13.31539 -70.30889 2010 6 21 Err:502 9.7 0.05
-13.31539 -70.30889 2010 6 22 Err:502 7.78 0.08
-13.31539 -70.30889 2010 6 23 Err:502 8.44 0
-13.31539 -70.30889 2010 6 24 Err:502 6.16 0
-13.31539 -70.30889 2010 6 25 Err:502 9.72 0
-13.31539 -70.30889 2010 6 26 Err:502 8.82 0
-13.31539 -70.30889 2010 6 27 Err:502 7.45 0
-13.31539 -70.30889 2010 6 28 Err:502 8.94 0.04
-13.31539 -70.30889 2010 6 29 Err:502 8.16 0.01
-13.31539 -70.30889 2010 6 30 Err:502 10.33 0
-13.31539 -70.30889 2010 7 1 07/01/10 10.26 0
-13.31539 -70.30889 2010 7 2 07/02/10 10.37 0
-13.31539 -70.30889 2010 7 3 07/03/10 10.5 0
-13.31539 -70.30889 2010 7 4 07/04/10 9.41 0
-13.31539 -70.30889 2010 7 5 07/05/10 10.06 0
-13.31539 -70.30889 2010 7 6 07/06/10 9.53 0.01
-13.31539 -70.30889 2010 7 7 07/07/10 3.7 4
-13.31539 -70.30889 2010 7 8 07/08/10 5.56 8.05
-13.31539 -70.30889 2010 7 9 07/09/10 6.27 0.48
-13.31539 -70.30889 2010 7 10 07/10/10 7.63 4.01
-13.31539 -70.30889 2010 7 11 07/11/10 9.68 0.06
-13.31539 -70.30889 2010 7 12 07/12/10 9.77 0
-13.31539 -70.30889 2010 7 13 Err:502 5.72 5.08
-13.31539 -70.30889 2010 7 14 Err:502 4.37 10.84
-13.31539 -70.30889 2010 7 15 Err:502 4.78 1.71
-13.31539 -70.30889 2010 7 16 Err:502 5.35 3.82
-13.31539 -70.30889 2010 7 17 Err:502 6.66 0.52
-13.31539 -70.30889 2010 7 18 Err:502 11.41 0
-13.31539 -70.30889 2010 7 19 Err:502 11.99 0
-13.31539 -70.30889 2010 7 20 Err:502 11.2 0
-13.31539 -70.30889 2010 7 21 Err:502 11.03 0
-13.31539 -70.30889 2010 7 22 Err:502 9.38 0
-13.31539 -70.30889 2010 7 23 Err:502 9.21 0
-13.31539 -70.30889 2010 7 24 Err:502 9.11 0
-13.31539 -70.30889 2010 7 25 Err:502 7.92 0
-13.31539 -70.30889 2010 7 26 Err:502 10.81 0
-13.31539 -70.30889 2010 7 27 Err:502 7.33 0
-13.31539 -70.30889 2010 7 28 Err:502 10.65 0
-13.31539 -70.30889 2010 7 29 Err:502 9.7 0
-13.31539 -70.30889 2010 7 30 Err:502 10.65 0
-13.31539 -70.30889 2010 7 31 Err:502 9.5 0.01
-13.31539 -70.30889 2010 8 1 08/01/10 5.68 0.01
-13.31539 -70.30889 2010 8 2 08/02/10 7.24 0
-13.31539 -70.30889 2010 8 3 08/03/10 7.43 0
-13.31539 -70.30889 2010 8 4 08/04/10 9.67 0
-13.31539 -70.30889 2010 8 5 08/05/10 10.27 0
-13.31539 -70.30889 2010 8 6 08/06/10 12.76 0
-13.31539 -70.30889 2010 8 7 08/07/10 14.06 0
-13.31539 -70.30889 2010 8 8 08/08/10 12.7 0
-13.31539 -70.30889 2010 8 9 08/09/10 12.91 0
-13.31539 -70.30889 2010 8 10 08/10/10 11.42 0
-13.31539 -70.30889 2010 8 11 08/11/10 11.41 0
-13.31539 -70.30889 2010 8 12 08/12/10 11.28 0
-13.31539 -70.30889 2010 8 13 Err:502 5.53 0
-13.31539 -70.30889 2010 8 14 Err:502 8.55 0
-13.31539 -70.30889 2010 8 15 Err:502 11.38 0
-13.31539 -70.30889 2010 8 16 Err:502 11.71 0
-13.31539 -70.30889 2010 8 17 Err:502 10.92 0
-13.31539 -70.30889 2010 8 18 Err:502 11.46 0
-13.31539 -70.30889 2010 8 19 Err:502 11.18 0
-13.31539 -70.30889 2010 8 20 Err:502 12.88 0
-13.31539 -70.30889 2010 8 21 Err:502 11.65 0
-13.31539 -70.30889 2010 8 22 Err:502 10.19 0
-13.31539 -70.30889 2010 8 23 Err:502 11.18 0
-13.31539 -70.30889 2010 8 24 Err:502 10.23 0
-13.31539 -70.30889 2010 8 25 Err:502 8.49 0
-13.31539 -70.30889 2010 8 26 Err:502 8.39 0.17
-13.31539 -70.30889 2010 8 27 Err:502 4.32 12.12
-13.31539 -70.30889 2010 8 28 Err:502 7.65 8.31
-13.31539 -70.30889 2010 8 29 Err:502 10.55 0.57
-13.31539 -70.30889 2010 8 30 Err:502 8.41 0.52
-13.31539 -70.30889 2010 8 31 Err:502 5.5 9.5
-13.31539 -70.30889 2010 9 1 09/01/10 7.73 2.83
-13.31539 -70.30889 2010 9 2 09/02/10 10.6 0.11
-13.31539 -70.30889 2010 9 3 09/03/10 11.04 0.01
-13.31539 -70.30889 2010 9 4 09/04/10 4.67 8.31
-13.31539 -70.30889 2010 9 5 09/05/10 5.38 14.74
-13.31539 -70.30889 2010 9 6 09/06/10 9.68 0
-13.31539 -70.30889 2010 9 7 09/07/10 10.74 0.15
-13.31539 -70.30889 2010 9 8 09/08/10 11.61 0.01
-13.31539 -70.30889 2010 9 9 09/09/10 9.84 0
-13.31539 -70.30889 2010 9 10 09/10/10 11.05 0
-13.31539 -70.30889 2010 9 11 09/11/10 8.9 0
-13.31539 -70.30889 2010 9 12 09/12/10 8.52 0
-13.31539 -70.30889 2010 9 13 Err:502 7.94 0
-13.31539 -70.30889 2010 9 14 Err:502 6.32 0.07
-13.31539 -70.30889 2010 9 15 Err:502 9.01 0.02
-13.31539 -70.30889 2010 9 16 Err:502 12.91 0
-13.31539 -70.30889 2010 9 17 Err:502 13.3 0
-13.31539 -70.30889 2010 9 18 Err:502 12.09 0.02
-13.31539 -70.30889 2010 9 19 Err:502 10.95 0.36
-13.31539 -70.30889 2010 9 20 Err:502 10.82 0
-13.31539 -70.30889 2010 9 21 Err:502 9.97 0
-13.31539 -70.30889 2010 9 22 Err:502 10.35 0
-13.31539 -70.30889 2010 9 23 Err:502 9.07 0
-13.31539 -70.30889 2010 9 24 Err:502 8.03 0.01
-13.31539 -70.30889 2010 9 25 Err:502 8.76 0.47
-13.31539 -70.30889 2010 9 26 Err:502 11.19 0.51
-13.31539 -70.30889 2010 9 27 Err:502 9.34 0.03
-13.31539 -70.30889 2010 9 28 Err:502 10.15 0
-13.31539 -70.30889 2010 9 29 Err:502 9.19 0.15
-13.31539 -70.30889 2010 9 30 Err:502 10.81 0.12
-13.31539 -70.30889 2010 10 1 10/01/10 6.95 0.37
-13.31539 -70.30889 2010 10 2 10/02/10 8.46 7.21
-13.31539 -70.30889 2010 10 3 10/03/10 4.93 5.03
-13.31539 -70.30889 2010 10 4 10/04/10 14.21 0
-13.31539 -70.30889 2010 10 5 10/05/10 12.75 1.03
-13.31539 -70.30889 2010 10 6 10/06/10 10.38 0.71
-13.31539 -70.30889 2010 10 7 10/07/10 10.83 0.79
-13.31539 -70.30889 2010 10 8 10/08/10 6.91 13.6
-13.31539 -70.30889 2010 10 9 10/09/10 8.65 0.19
-13.31539 -70.30889 2010 10 10 10/10/10 9.47 0.83
-13.31539 -70.30889 2010 10 11 10/11/10 10.48 0.16
-13.31539 -70.30889 2010 10 12 10/12/10 6.15 0.67
-13.31539 -70.30889 2010 10 13 Err:502 11.86 0.15
-13.31539 -70.30889 2010 10 14 Err:502 11.52 0.04
-13.31539 -70.30889 2010 10 15 Err:502 6.68 19.3
-13.31539 -70.30889 2010 10 16 Err:502 8.15 7.67
-13.31539 -70.30889 2010 10 17 Err:502 6.17 13.21
-13.31539 -70.30889 2010 10 18 Err:502 8.56 1.04
-13.31539 -70.30889 2010 10 19 Err:502 9.25 0.49
-13.31539 -70.30889 2010 10 20 Err:502 9.92 0
-13.31539 -70.30889 2010 10 21 Err:502 8.17 4.4
-13.31539 -70.30889 2010 10 22 Err:502 7.58 3.01
-13.31539 -70.30889 2010 10 23 Err:502 5.6 1.84
-13.31539 -70.30889 2010 10 24 Err:502 5.96 6.76
-13.31539 -70.30889 2010 10 25 Err:502 5.45 2.1
-13.31539 -70.30889 2010 10 26 Err:502 7.18 9.35
-13.31539 -70.30889 2010 10 27 Err:502 10.08 0.48
-13.31539 -70.30889 2010 10 28 Err:502 8.52 0
-13.31539 -70.30889 2010 10 29 Err:502 4.6 0
-13.31539 -70.30889 2010 10 30 Err:502 6.76 3.7
-13.31539 -70.30889 2010 10 31 Err:502 9.06 1.37
-13.31539 -70.30889 2010 11 1 11/01/10 4.93 4.62
-13.31539 -70.30889 2010 11 2 11/02/10 10.41 0.38
-13.31539 -70.30889 2010 11 3 11/03/10 12.1 0
-13.31539 -70.30889 2010 11 4 11/04/10 11.42 0
-13.31539 -70.30889 2010 11 5 11/05/10 7.31 0.04
-13.31539 -70.30889 2010 11 6 11/06/10 4.07 4.48
-13.31539 -70.30889 2010 11 7 11/07/10 11.64 0.07
-13.31539 -70.30889 2010 11 8 11/08/10 9.67 0
-13.31539 -70.30889 2010 11 9 11/09/10 6 0.6
-13.31539 -70.30889 2010 11 10 11/10/10 5.39 14.22
-13.31539 -70.30889 2010 11 11 11/11/10 6.89 1.18
-13.31539 -70.30889 2010 11 12 11/12/10 10.2 0.32
-13.31539 -70.30889 2010 11 13 Err:502 8.76 0.03
-13.31539 -70.30889 2010 11 14 Err:502 9 0
-13.31539 -70.30889 2010 11 15 Err:502 8.5 0.2
-13.31539 -70.30889 2010 11 16 Err:502 5.31 1.38
-13.31539 -70.30889 2010 11 17 Err:502 4.33 2.64
-13.31539 -70.30889 2010 11 18 Err:502 5.51 0.9
-13.31539 -70.30889 2010 11 19 Err:502 8.24 0.92
-13.31539 -70.30889 2010 11 20 Err:502 6.08 0.06
-13.31539 -70.30889 2010 11 21 Err:502 7.06 2.31
-13.31539 -70.30889 2010 11 22 Err:502 10.06 0.08
-13.31539 -70.30889 2010 11 23 Err:502 6.58 26.21
-13.31539 -70.30889 2010 11 24 Err:502 2.89 32.7
-13.31539 -70.30889 2010 11 25 Err:502 4.3 10.83
-13.31539 -70.30889 2010 11 26 Err:502 7.9 0.48
-13.31539 -70.30889 2010 11 27 Err:502 7.16 0.01
-13.31539 -70.30889 2010 11 28 Err:502 5.02 0.18
-13.31539 -70.30889 2010 11 29 Err:502 3.99 2.77
-13.31539 -70.30889 2010 11 30 Err:502 3.58 10.44
-13.31539 -70.30889 2010 12 1 12/01/10 4.15 1.93
-13.31539 -70.30889 2010 12 2 12/02/10 5.92 0.05
-13.31539 -70.30889 2010 12 3 12/03/10 4.64 1.41
-13.31539 -70.30889 2010 12 4 12/04/10 3.37 2.09
-13.31539 -70.30889 2010 12 5 12/05/10 7 0.48
-13.31539 -70.30889 2010 12 6 12/06/10 8.56 0.69
-13.31539 -70.30889 2010 12 7 12/07/10 5.28 1
-13.31539 -70.30889 2010 12 8 12/08/10 5.59 0.13
-13.31539 -70.30889 2010 12 9 12/09/10 4.76 7.58
-13.31539 -70.30889 2010 12 10 12/10/10 6.4 0.76
-13.31539 -70.30889 2010 12 11 12/11/10 7.15 0.91
-13.31539 -70.30889 2010 12 12 12/12/10 9 0.09
-13.31539 -70.30889 2010 12 13 Err:502 3.93 20.97
-13.31539 -70.30889 2010 12 14 Err:502 4.73 23.44
-13.31539 -70.30889 2010 12 15 Err:502 9.17 0.6
-13.31539 -70.30889 2010 12 16 Err:502 6.86 1.58
-13.31539 -70.30889 2010 12 17 Err:502 7.56 0.3
-13.31539 -70.30889 2010 12 18 Err:502 3.78 8.28
-13.31539 -70.30889 2010 12 19 Err:502 6.7 0.66
-13.31539 -70.30889 2010 12 20 Err:502 5.03 22.64
-13.31539 -70.30889 2010 12 21 Err:502 3.23 71.87
-13.31539 -70.30889 2010 12 22 Err:502 4.76 2.2
-13.31539 -70.30889 2010 12 23 Err:502 5.56 3.8
-13.31539 -70.30889 2010 12 24 Err:502 5.62 2.12
-13.31539 -70.30889 2010 12 25 Err:502 4.96 4.48
-13.31539 -70.30889 2010 12 26 Err:502 3.79 19.08
-13.31539 -70.30889 2010 12 27 Err:502 4.57 9.03
-13.31539 -70.30889 2010 12 28 Err:502 4.97 2.97
-13.31539 -70.30889 2010 12 29 Err:502 4.93 1.78
-13.31539 -70.30889 2010 12 30 Err:502 3.23 1.01
-13.31539 -70.30889 2010 12 31 Err:502 4.5 2.05
-13.31539 -70.30889 2011 1 1 01/01/11 4.67 6.18
-13.31539 -70.30889 2011 1 2 01/02/11 3.55 22.44
-13.31539 -70.30889 2011 1 3 01/03/11 6.3 1.19
-13.31539 -70.30889 2011 1 4 01/04/11 3.94 0.58
-13.31539 -70.30889 2011 1 5 01/05/11 3.04 11.59
-13.31539 -70.30889 2011 1 6 01/06/11 4.32 0.95
-13.31539 -70.30889 2011 1 7 01/07/11 3.27 21.4
-13.31539 -70.30889 2011 1 8 01/08/11 5.12 0.9
-13.31539 -70.30889 2011 1 9 01/09/11 3.8 0.18
-13.31539 -70.30889 2011 1 10 01/10/11 5.68 4.09
-13.31539 -70.30889 2011 1 11 01/11/11 5.33 2.31
-13.31539 -70.30889 2011 1 12 01/12/11 4.55 34.38
-13.31539 -70.30889 2011 1 13 Err:502 3.45 4.86
-13.31539 -70.30889 2011 1 14 Err:502 4.18 4.22
-13.31539 -70.30889 2011 1 15 Err:502 5.52 1.5
-13.31539 -70.30889 2011 1 16 Err:502 4.93 0.88
-13.31539 -70.30889 2011 1 17 Err:502 5.99 0.05
-13.31539 -70.30889 2011 1 18 Err:502 2.96 0.3
-13.31539 -70.30889 2011 1 19 Err:502 4.31 2.16
-13.31539 -70.30889 2011 1 20 Err:502 3.63 4.32
-13.31539 -70.30889 2011 1 21 Err:502 4.29 6.46
-13.31539 -70.30889 2011 1 22 Err:502 4.37 24.67
-13.31539 -70.30889 2011 1 23 Err:502 6.16 3.33
-13.31539 -70.30889 2011 1 24 Err:502 4.06 10.73
-13.31539 -70.30889 2011 1 25 Err:502 5.5 8.78
-13.31539 -70.30889 2011 1 26 Err:502 4.59 7.51
-13.31539 -70.30889 2011 1 27 Err:502 6.45 23.3
-13.31539 -70.30889 2011 1 28 Err:502 6.16 4.98
-13.31539 -70.30889 2011 1 29 Err:502 4.62 1.47
-13.31539 -70.30889 2011 1 30 Err:502 4.19 0.7
-13.31539 -70.30889 2011 1 31 Err:502 5.29 0.29
-13.31539 -70.30889 2011 2 1 02/01/11 5.31 1.21
-13.31539 -70.30889 2011 2 2 02/02/11 4.76 10.53
-13.31539 -70.30889 2011 2 3 02/03/11 5.39 8.08
-13.31539 -70.30889 2011 2 4 02/04/11 5.28 8.86
-13.31539 -70.30889 2011 2 5 02/05/11 2.74 10.1
-13.31539 -70.30889 2011 2 6 02/06/11 3.93 12.42
-13.31539 -70.30889 2011 2 7 02/07/11 5.86 6.25
-13.31539 -70.30889 2011 2 8 02/08/11 4.95 1.49
-13.31539 -70.30889 2011 2 9 02/09/11 5.27 7.04
-13.31539 -70.30889 2011 2 10 02/10/11 2.3 10.93
-13.31539 -70.30889 2011 2 11 02/11/11 5.71 10.63
-13.31539 -70.30889 2011 2 12 02/12/11 3.64 16.79
-13.31539 -70.30889 2011 2 13 Err:502 7.01 18.1
-13.31539 -70.30889 2011 2 14 Err:502 3.18 37.23
-13.31539 -70.30889 2011 2 15 Err:502 6.94 3.68
-13.31539 -70.30889 2011 2 16 Err:502 7.06 0.2
-13.31539 -70.30889 2011 2 17 Err:502 7.5 2.41
-13.31539 -70.30889 2011 2 18 Err:502 3.62 12.09
-13.31539 -70.30889 2011 2 19 Err:502 5.04 6.56
-13.31539 -70.30889 2011 2 20 Err:502 4.43 32.36
-13.31539 -70.30889 2011 2 21 Err:502 5.52 25.05
-13.31539 -70.30889 2011 2 22 Err:502 3.92 28.31
-13.31539 -70.30889 2011 2 23 Err:502 5.07 10.56
-13.31539 -70.30889 2011 2 24 Err:502 3.46 5.71
-13.31539 -70.30889 2011 2 25 Err:502 5.91 3.67
-13.31539 -70.30889 2011 2 26 Err:502 6.21 8.69
-13.31539 -70.30889 2011 2 27 Err:502 5.52 4.38
-13.31539 -70.30889 2011 2 28 Err:502 4.84 3.52
-13.31539 -70.30889 2011 3 1 03/01/11 6.04 5.6
-13.31539 -70.30889 2011 3 2 03/02/11 4.86 2
-13.31539 -70.30889 2011 3 3 03/03/11 6.09 9.7
-13.31539 -70.30889 2011 3 4 03/04/11 7.22 2.69
-13.31539 -70.30889 2011 3 5 03/05/11 6.38 3.56
-13.31539 -70.30889 2011 3 6 03/06/11 6.17 1.47
-13.31539 -70.30889 2011 3 7 03/07/11 5.68 1.2
-13.31539 -70.30889 2011 3 8 03/08/11 4.31 0.29
-13.31539 -70.30889 2011 3 9 03/09/11 6.57 6.26
-13.31539 -70.30889 2011 3 10 03/10/11 3.71 8.17
-13.31539 -70.30889 2011 3 11 03/11/11 3.89 30.38
-13.31539 -70.30889 2011 3 12 03/12/11 4.09 10.21
-13.31539 -70.30889 2011 3 13 Err:502 5.87 1.47
-13.31539 -70.30889 2011 3 14 Err:502 6.08 4.22
-13.31539 -70.30889 2011 3 15 Err:502 4.76 3.1
-13.31539 -70.30889 2011 3 16 Err:502 4.39 1
-13.31539 -70.30889 2011 3 17 Err:502 6.09 2.71
-13.31539 -70.30889 2011 3 18 Err:502 4.36 1.87
-13.31539 -70.30889 2011 3 19 Err:502 3.05 7.5
-13.31539 -70.30889 2011 3 20 Err:502 6.67 0.82
-13.31539 -70.30889 2011 3 21 Err:502 5.86 10.83
-13.31539 -70.30889 2011 3 22 Err:502 4.33 0.58
-13.31539 -70.30889 2011 3 23 Err:502 6.91 0.28
-13.31539 -70.30889 2011 3 24 Err:502 4.76 6.05
-13.31539 -70.30889 2011 3 25 Err:502 5.35 2.86
-13.31539 -70.30889 2011 3 26 Err:502 4.59 6.65
-13.31539 -70.30889 2011 3 27 Err:502 3.8 15.76
-13.31539 -70.30889 2011 3 28 Err:502 3.73 3.34
-13.31539 -70.30889 2011 3 29 Err:502 3.66 4.87
-13.31539 -70.30889 2011 3 30 Err:502 5.46 0.28
-13.31539 -70.30889 2011 3 31 Err:502 4.09 0.17
-13.31539 -70.30889 2011 4 1 04/01/11 5.79 0.02
-13.31539 -70.30889 2011 4 2 04/02/11 4.79 4.26
-13.31539 -70.30889 2011 4 3 04/03/11 4.37 30.06
-13.31539 -70.30889 2011 4 4 04/04/11 4.33 21.64
-13.31539 -70.30889 2011 4 5 04/05/11 3.36 34.69
-13.31539 -70.30889 2011 4 6 04/06/11 4.2 25.88
-13.31539 -70.30889 2011 4 7 04/07/11 6.39 1.08
-13.31539 -70.30889 2011 4 8 04/08/11 4.64 12.62
-13.31539 -70.30889 2011 4 9 04/09/11 3.86 5.35
-13.31539 -70.30889 2011 4 10 04/10/11 7.09 0
-13.31539 -70.30889 2011 4 11 04/11/11 6.7 0.24
-13.31539 -70.30889 2011 4 12 04/12/11 6.52 0.24
-13.31539 -70.30889 2011 4 13 Err:502 5.51 0.01
-13.31539 -70.30889 2011 4 14 Err:502 5.98 0
-13.31539 -70.30889 2011 4 15 Err:502 4.37 1.92
-13.31539 -70.30889 2011 4 16 Err:502 4.44 10.15
-13.31539 -70.30889 2011 4 17 Err:502 6.1 2.71
-13.31539 -70.30889 2011 4 18 Err:502 5.93 0.83
-13.31539 -70.30889 2011 4 19 Err:502 6.09 0.06
-13.31539 -70.30889 2011 4 20 Err:502 6.31 1.63
-13.31539 -70.30889 2011 4 21 Err:502 6 0.51
-13.31539 -70.30889 2011 4 22 Err:502 5.88 0
-13.31539 -70.30889 2011 4 23 Err:502 6.11 0.46
-13.31539 -70.30889 2011 4 24 Err:502 3.88 0.28
-13.31539 -70.30889 2011 4 25 Err:502 4.81 0
-13.31539 -70.30889 2011 4 26 Err:502 5.89 0.68
-13.31539 -70.30889 2011 4 27 Err:502 4.29 0.03
-13.31539 -70.30889 2011 4 28 Err:502 6.51 0.8
-13.31539 -70.30889 2011 4 29 Err:502 4.83 4.96
-13.31539 -70.30889 2011 4 30 Err:502 2.99 0.43
-13.31539 -70.30889 2011 5 1 05/01/11 4.1 0.1
-13.31539 -70.30889 2011 5 2 05/02/11 4.94 0.01
-13.31539 -70.30889 2011 5 3 05/03/11 6.43 0
-13.31539 -70.30889 2011 5 4 05/04/11 7.84 0.32
-13.31539 -70.30889 2011 5 5 05/05/11 8.37 0
-13.31539 -70.30889 2011 5 6 05/06/11 9.21 0
-13.31539 -70.30889 2011 5 7 05/07/11 8.05 0
-13.31539 -70.30889 2011 5 8 05/08/11 6.6 0
-13.31539 -70.30889 2011 5 9 05/09/11 6.55 15.93
-13.31539 -70.30889 2011 5 10 05/10/11 5.63 0.24
-13.31539 -70.30889 2011 5 11 05/11/11 5.81 4.3
-13.31539 -70.30889 2011 5 12 05/12/11 6.99 2.15
-13.31539 -70.30889 2011 5 13 Err:502 6.17 0.06
-13.31539 -70.30889 2011 5 14 Err:502 5.14 0.02
-13.31539 -70.30889 2011 5 15 Err:502 6.19 0
-13.31539 -70.30889 2011 5 16 Err:502 5.28 0
-13.31539 -70.30889 2011 5 17 Err:502 6.27 0
-13.31539 -70.30889 2011 5 18 Err:502 6.21 0
-13.31539 -70.30889 2011 5 19 Err:502 6.38 0
-13.31539 -70.30889 2011 5 20 Err:502 7.13 0
-13.31539 -70.30889 2011 5 21 Err:502 5.71 0.48
-13.31539 -70.30889 2011 5 22 Err:502 5.5 0.58
-13.31539 -70.30889 2011 5 23 Err:502 4.18 9.13
-13.31539 -70.30889 2011 5 24 Err:502 5.84 0.39
-13.31539 -70.30889 2011 5 25 Err:502 4.67 13.39
-13.31539 -70.30889 2011 5 26 Err:502 4.87 26.88
-13.31539 -70.30889 2011 5 27 Err:502 5.13 5.16
-13.31539 -70.30889 2011 5 28 Err:502 7.07 0
-13.31539 -70.30889 2011 5 29 Err:502 6.77 0
-13.31539 -70.30889 2011 5 30 Err:502 7.2 0
-13.31539 -70.30889 2011 5 31 Err:502 7.71 0
-13.31539 -70.30889 2011 6 1 06/01/11 6.47 0
-13.31539 -70.30889 2011 6 2 06/02/11 6.71 0
-13.31539 -70.30889 2011 6 3 06/03/11 5.52 0
-13.31539 -70.30889 2011 6 4 06/04/11 6.45 0
-13.31539 -70.30889 2011 6 5 06/05/11 5.34 0
-13.31539 -70.30889 2011 6 6 06/06/11 6.88 0
-13.31539 -70.30889 2011 6 7 06/07/11 6.34 0
-13.31539 -70.30889 2011 6 8 06/08/11 6.22 0
-13.31539 -70.30889 2011 6 9 06/09/11 6.88 0.04
-13.31539 -70.30889 2011 6 10 06/10/11 4.1 25.62
-13.31539 -70.30889 2011 6 11 06/11/11 4.92 1
-13.31539 -70.30889 2011 6 12 06/12/11 7.26 0
-13.31539 -70.30889 2011 6 13 Err:502 5.52 0.09
-13.31539 -70.30889 2011 6 14 Err:502 7.1 0.01
-13.31539 -70.30889 2011 6 15 Err:502 5.54 0
-13.31539 -70.30889 2011 6 16 Err:502 6 0.01
-13.31539 -70.30889 2011 6 17 Err:502 6.26 0
-13.31539 -70.30889 2011 6 18 Err:502 4.64 0.2
-13.31539 -70.30889 2011 6 19 Err:502 6.83 2.17
-13.31539 -70.30889 2011 6 20 Err:502 6.28 1.21
-13.31539 -70.30889 2011 6 21 Err:502 6.2 0
-13.31539 -70.30889 2011 6 22 Err:502 5.75 0
-13.31539 -70.30889 2011 6 23 Err:502 4.49 2.36
-13.31539 -70.30889 2011 6 24 Err:502 6.4 1.46
-13.31539 -70.30889 2011 6 25 Err:502 4.84 10.98
-13.31539 -70.30889 2011 6 26 Err:502 5.25 0.4
-13.31539 -70.30889 2011 6 27 Err:502 6.06 0
-13.31539 -70.30889 2011 6 28 Err:502 8.29 0
-13.31539 -70.30889 2011 6 29 Err:502 6.13 0.03
-13.31539 -70.30889 2011 6 30 Err:502 5.24 1.18
-13.31539 -70.30889 2011 7 1 07/01/11 4.72 9.07
-13.31539 -70.30889 2011 7 2 07/02/11 3.82 8.89
-13.31539 -70.30889 2011 7 3 07/03/11 5.84 0.55
-13.31539 -70.30889 2011 7 4 07/04/11 5.5 0.02
-13.31539 -70.30889 2011 7 5 07/05/11 8.03 0
-13.31539 -70.30889 2011 7 6 07/06/11 7.76 0
-13.31539 -70.30889 2011 7 7 07/07/11 7.32 0
-13.31539 -70.30889 2011 7 8 07/08/11 7.81 0
-13.31539 -70.30889 2011 7 9 07/09/11 7.74 0
-13.31539 -70.30889 2011 7 10 07/10/11 7.81 0
-13.31539 -70.30889 2011 7 11 07/11/11 5.44 0
-13.31539 -70.30889 2011 7 12 07/12/11 6.68 0
-13.31539 -70.30889 2011 7 13 Err:502 5.09 0
-13.31539 -70.30889 2011 7 14 Err:502 5.45 0
-13.31539 -70.30889 2011 7 15 Err:502 7.12 0.02
-13.31539 -70.30889 2011 7 16 Err:502 6.75 0.05
-13.31539 -70.30889 2011 7 17 Err:502 6.92 3.79
-13.31539 -70.30889 2011 7 18 Err:502 6.89 0.7
-13.31539 -70.30889 2011 7 19 Err:502 5.41 0.66
-13.31539 -70.30889 2011 7 20 Err:502 7.66 0.85
-13.31539 -70.30889 2011 7 21 Err:502 7.44 0.38
-13.31539 -70.30889 2011 7 22 Err:502 4.77 0.03
-13.31539 -70.30889 2011 7 23 Err:502 8.96 0
-13.31539 -70.30889 2011 7 24 Err:502 9.14 0
-13.31539 -70.30889 2011 7 25 Err:502 8.09 0
-13.31539 -70.30889 2011 7 26 Err:502 7.65 0
-13.31539 -70.30889 2011 7 27 Err:502 8.83 0
-13.31539 -70.30889 2011 7 28 Err:502 9.4 0
-13.31539 -70.30889 2011 7 29 Err:502 9.38 0
-13.31539 -70.30889 2011 7 30 Err:502 7.17 0.09
-13.31539 -70.30889 2011 7 31 Err:502 6.35 5.48
-13.31539 -70.30889 2011 8 1 08/01/11 8.15 0.47
-13.31539 -70.30889 2011 8 2 08/02/11 6.95 2.6
-13.31539 -70.30889 2011 8 3 08/03/11 7.07 11.02
-13.31539 -70.30889 2011 8 4 08/04/11 5.49 2.5
-13.31539 -70.30889 2011 8 5 08/05/11 9.94 0
-13.31539 -70.30889 2011 8 6 08/06/11 9.46 0
-13.31539 -70.30889 2011 8 7 08/07/11 9.45 0
-13.31539 -70.30889 2011 8 8 08/08/11 8.9 0
-13.31539 -70.30889 2011 8 9 08/09/11 7.26 0
-13.31539 -70.30889 2011 8 10 08/10/11 8.11 0
-13.31539 -70.30889 2011 8 11 08/11/11 9.59 0
-13.31539 -70.30889 2011 8 12 08/12/11 8.79 0
-13.31539 -70.30889 2011 8 13 Err:502 8.66 0
-13.31539 -70.30889 2011 8 14 Err:502 8.61 0.03
-13.31539 -70.30889 2011 8 15 Err:502 10.17 0.02
-13.31539 -70.30889 2011 8 16 Err:502 9.92 0
-13.31539 -70.30889 2011 8 17 Err:502 9.32 0
-13.31539 -70.30889 2011 8 18 Err:502 9.62 0
-13.31539 -70.30889 2011 8 19 Err:502 9.5 0
-13.31539 -70.30889 2011 8 20 Err:502 8.2 2.81
-13.31539 -70.30889 2011 8 21 Err:502 5.9 1.65
-13.31539 -70.30889 2011 8 22 Err:502 10.41 0
-13.31539 -70.30889 2011 8 23 Err:502 11.3 0
-13.31539 -70.30889 2011 8 24 Err:502 12.86 0
-13.31539 -70.30889 2011 8 25 Err:502 11.76 0
-13.31539 -70.30889 2011 8 26 Err:502 8.37 0
-13.31539 -70.30889 2011 8 27 Err:502 10.54 0
-13.31539 -70.30889 2011 8 28 Err:502 10.1 0
-13.31539 -70.30889 2011 8 29 Err:502 10.56 0
-13.31539 -70.30889 2011 8 30 Err:502 8.31 0.01
-13.31539 -70.30889 2011 8 31 Err:502 8.51 2.87
-13.31539 -70.30889 2011 9 1 09/01/11 10.12 0
-13.31539 -70.30889 2011 9 2 09/02/11 12.81 0
-13.31539 -70.30889 2011 9 3 09/03/11 11.42 0
-13.31539 -70.30889 2011 9 4 09/04/11 11.59 0
-13.31539 -70.30889 2011 9 5 09/05/11 8.86 0
-13.31539 -70.30889 2011 9 6 09/06/11 7.79 2.55
-13.31539 -70.30889 2011 9 7 09/07/11 9.55 3.55
-13.31539 -70.30889 2011 9 8 09/08/11 7.72 6.4
-13.31539 -70.30889 2011 9 9 09/09/11 5.7 10.73
-13.31539 -70.30889 2011 9 10 09/10/11 3.78 0.75
-13.31539 -70.30889 2011 9 11 09/11/11 9.32 6.33
-13.31539 -70.30889 2011 9 12 09/12/11 10.72 0
-13.31539 -70.30889 2011 9 13 Err:502 12.22 0.23
-13.31539 -70.30889 2011 9 14 Err:502 10 0.91
-13.31539 -70.30889 2011 9 15 Err:502 9.41 0.27
-13.31539 -70.30889 2011 9 16 Err:502 8.73 0.04
-13.31539 -70.30889 2011 9 17 Err:502 7.88 0.68
-13.31539 -70.30889 2011 9 18 Err:502 10.52 0.2
-13.31539 -70.30889 2011 9 19 Err:502 6.11 0.68
-13.31539 -70.30889 2011 9 20 Err:502 10.8 0.89
-13.31539 -70.30889 2011 9 21 Err:502 9.57 1.57
-13.31539 -70.30889 2011 9 22 Err:502 11.53 0.07
-13.31539 -70.30889 2011 9 23 Err:502 8.08 9.05
-13.31539 -70.30889 2011 9 24 Err:502 6.35 3.63
-13.31539 -70.30889 2011 9 25 Err:502 11.79 0.17
-13.31539 -70.30889 2011 9 26 Err:502 11.59 0.05
-13.31539 -70.30889 2011 9 27 Err:502 12.23 2.07
-13.31539 -70.30889 2011 9 28 Err:502 11.32 1.3
-13.31539 -70.30889 2011 9 29 Err:502 9.27 0.65
-13.31539 -70.30889 2011 9 30 Err:502 7.33 1.54
-13.31539 -70.30889 2011 10 1 10/01/11 10.06 0.27
-13.31539 -70.30889 2011 10 2 10/02/11 7.08 0
-13.31539 -70.30889 2011 10 3 10/03/11 9.45 0.13
-13.31539 -70.30889 2011 10 4 10/04/11 9.87 0.07
-13.31539 -70.30889 2011 10 5 10/05/11 9.15 0.13
-13.31539 -70.30889 2011 10 6 10/06/11 5.38 0.84
-13.31539 -70.30889 2011 10 7 10/07/11 6.05 35.21
-13.31539 -70.30889 2011 10 8 10/08/11 7.61 10.1
-13.31539 -70.30889 2011 10 9 10/09/11 7.78 1.14
-13.31539 -70.30889 2011 10 10 10/10/11 7.98 2.55
-13.31539 -70.30889 2011 10 11 10/11/11 8.03 1.35
-13.31539 -70.30889 2011 10 12 10/12/11 7.91 5.68
-13.31539 -70.30889 2011 10 13 Err:502 9.37 0.09
-13.31539 -70.30889 2011 10 14 Err:502 8.29 0.04
-13.31539 -70.30889 2011 10 15 Err:502 8.32 0.01
-13.31539 -70.30889 2011 10 16 Err:502 6.05 11.4
-13.31539 -70.30889 2011 10 17 Err:502 4.13 5.15
-13.31539 -70.30889 2011 10 18 Err:502 7.97 0
-13.31539 -70.30889 2011 10 19 Err:502 9.16 0
-13.31539 -70.30889 2011 10 20 Err:502 8.29 0
-13.31539 -70.30889 2011 10 21 Err:502 11.51 0
-13.31539 -70.30889 2011 10 22 Err:502 10.88 0
-13.31539 -70.30889 2011 10 23 Err:502 10.63 0.01
-13.31539 -70.30889 2011 10 24 Err:502 10.08 0
-13.31539 -70.30889 2011 10 25 Err:502 7.85 5.23
-13.31539 -70.30889 2011 10 26 Err:502 4.96 20.49
-13.31539 -70.30889 2011 10 27 Err:502 7.9 1.34
-13.31539 -70.30889 2011 10 28 Err:502 9.28 0
-13.31539 -70.30889 2011 10 29 Err:502 8.49 6.31
-13.31539 -70.30889 2011 10 30 Err:502 6.02 31.32
-13.31539 -70.30889 2011 10 31 Err:502 2.77 10.58
-13.31539 -70.30889 2011 11 1 11/01/11 7.68 1.24
-13.31539 -70.30889 2011 11 2 11/02/11 9.36 0
-13.31539 -70.30889 2011 11 3 11/03/11 9.06 1.37
-13.31539 -70.30889 2011 11 4 11/04/11 9.63 1.57
-13.31539 -70.30889 2011 11 5 11/05/11 10.02 5.18
-13.31539 -70.30889 2011 11 6 11/06/11 6.11 0.8
-13.31539 -70.30889 2011 11 7 11/07/11 9.84 0
-13.31539 -70.30889 2011 11 8 11/08/11 10.49 0
-13.31539 -70.30889 2011 11 9 11/09/11 9.51 0.68
-13.31539 -70.30889 2011 11 10 11/10/11 6.9 0.12
-13.31539 -70.30889 2011 11 11 11/11/11 8.29 16.75
-13.31539 -70.30889 2011 11 12 11/12/11 8.38 7.03
-13.31539 -70.30889 2011 11 13 Err:502 7.87 0
-13.31539 -70.30889 2011 11 14 Err:502 7.01 6.14
-13.31539 -70.30889 2011 11 15 Err:502 6.4 1.66
-13.31539 -70.30889 2011 11 16 Err:502 5.74 0
-13.31539 -70.30889 2011 11 17 Err:502 8.99 1.41
-13.31539 -70.30889 2011 11 18 Err:502 4.79 3.46
-13.31539 -70.30889 2011 11 19 Err:502 6.48 4.39
-13.31539 -70.30889 2011 11 20 Err:502 5.58 0.94
-13.31539 -70.30889 2011 11 21 Err:502 7.17 0.86
-13.31539 -70.30889 2011 11 22 Err:502 5.97 15.21
-13.31539 -70.30889 2011 11 23 Err:502 6.38 0.26
-13.31539 -70.30889 2011 11 24 Err:502 9.37 0
-13.31539 -70.30889 2011 11 25 Err:502 5.51 2.03
-13.31539 -70.30889 2011 11 26 Err:502 8.24 4.26
-13.31539 -70.30889 2011 11 27 Err:502 5.95 10.32
-13.31539 -70.30889 2011 11 28 Err:502 8.49 0.04
-13.31539 -70.30889 2011 11 29 Err:502 9.96 0.24
-13.31539 -70.30889 2011 11 30 Err:502 7.26 23.74
-13.31539 -70.30889 2011 12 1 12/01/11 7.31 12.97
-13.31539 -70.30889 2011 12 2 12/02/11 7.42 1.09
-13.31539 -70.30889 2011 12 3 12/03/11 8.6 0
-13.31539 -70.30889 2011 12 4 12/04/11 6.65 2.7
-13.31539 -70.30889 2011 12 5 12/05/11 3.95 93.44
-13.31539 -70.30889 2011 12 6 12/06/11 6.69 15.84
-13.31539 -70.30889 2011 12 7 12/07/11 5.7 2.88
-13.31539 -70.30889 2011 12 8 12/08/11 6.17 3.77
-13.31539 -70.30889 2011 12 9 12/09/11 3.43 59.27
-13.31539 -70.30889 2011 12 10 12/10/11 3.63 13.42
-13.31539 -70.30889 2011 12 11 12/11/11 5.95 0.55
-13.31539 -70.30889 2011 12 12 12/12/11 3.65 2.66
-13.31539 -70.30889 2011 12 13 Err:502 3.71 13.32
-13.31539 -70.30889 2011 12 14 Err:502 2.47 17.73
-13.31539 -70.30889 2011 12 15 Err:502 4.8 1.74
-13.31539 -70.30889 2011 12 16 Err:502 6.47 1.42
-13.31539 -70.30889 2011 12 17 Err:502 4.96 31.03
-13.31539 -70.30889 2011 12 18 Err:502 3.64 6.7
-13.31539 -70.30889 2011 12 19 Err:502 5.44 1.64
-13.31539 -70.30889 2011 12 20 Err:502 6.85 0
-13.31539 -70.30889 2011 12 21 Err:502 5.53 5.57
-13.31539 -70.30889 2011 12 22 Err:502 3.46 3.28
-13.31539 -70.30889 2011 12 23 Err:502 5.86 1.97
-13.31539 -70.30889 2011 12 24 Err:502 4.87 1.69
-13.31539 -70.30889 2011 12 25 Err:502 3.42 14.1
-13.31539 -70.30889 2011 12 26 Err:502 5.61 9.12
-13.31539 -70.30889 2011 12 27 Err:502 6.29 0.04
-13.31539 -70.30889 2011 12 28 Err:502 5.55 1.2
-13.31539 -70.30889 2011 12 29 Err:502 5.26 0.23
-13.31539 -70.30889 2011 12 30 Err:502 4.78 5.2
-13.31539 -70.30889 2011 12 31 Err:502 6.1 3.97
-13.31539 -70.30889 2012 1 1 01/01/12 3.77 11.02
-13.31539 -70.30889 2012 1 2 01/02/12 2.9 20.81
-13.31539 -70.30889 2012 1 3 01/03/12 5.92 0.08
-13.31539 -70.30889 2012 1 4 01/04/12 6.69 0
-13.31539 -70.30889 2012 1 5 01/05/12 7.9 0.72
-13.31539 -70.30889 2012 1 6 01/06/12 5.23 0.72
-13.31539 -70.30889 2012 1 7 01/07/12 4.06 24.38
-13.31539 -70.30889 2012 1 8 01/08/12 5.23 2.88
-13.31539 -70.30889 2012 1 9 01/09/12 6.27 0.55
-13.31539 -70.30889 2012 1 10 01/10/12 5.03 4.66
-13.31539 -70.30889 2012 1 11 01/11/12 3.92 4.42
-13.31539 -70.30889 2012 1 12 01/12/12 5.69 3.99
-13.31539 -70.30889 2012 1 13 Err:502 3.57 10.42
-13.31539 -70.30889 2012 1 14 Err:502 3.66 3.65
-13.31539 -70.30889 2012 1 15 Err:502 6.18 1.01
-13.31539 -70.30889 2012 1 16 Err:502 3.58 13.52
-13.31539 -70.30889 2012 1 17 Err:502 6.7 5.52
-13.31539 -70.30889 2012 1 18 Err:502 4.46 6.88
-13.31539 -70.30889 2012 1 19 Err:502 4.68 3.48
-13.31539 -70.30889 2012 1 20 Err:502 6.37 5.61
-13.31539 -70.30889 2012 1 21 Err:502 6.47 1.32
-13.31539 -70.30889 2012 1 22 Err:502 6.3 4.77
-13.31539 -70.30889 2012 1 23 Err:502 3.51 5.84
-13.31539 -70.30889 2012 1 24 Err:502 4.77 7.76
-13.31539 -70.30889 2012 1 25 Err:502 2.95 30.59
-13.31539 -70.30889 2012 1 26 Err:502 4.01 3.44
-13.31539 -70.30889 2012 1 27 Err:502 5.43 2.8
-13.31539 -70.30889 2012 1 28 Err:502 7.2 2.4
-13.31539 -70.30889 2012 1 29 Err:502 4.31 3.76
-13.31539 -70.30889 2012 1 30 Err:502 6.32 1.33
-13.31539 -70.30889 2012 1 31 Err:502 4.82 0.18
-13.31539 -70.30889 2012 2 1 02/01/12 5.52 0.85
-13.31539 -70.30889 2012 2 2 02/02/12 3.72 63.41
-13.31539 -70.30889 2012 2 3 02/03/12 5.23 17.27
-13.31539 -70.30889 2012 2 4 02/04/12 5.61 39.59
-13.31539 -70.30889 2012 2 5 02/05/12 5.38 10.66
-13.31539 -70.30889 2012 2 6 02/06/12 4.91 8.09
-13.31539 -70.30889 2012 2 7 02/07/12 6.3 1.59
-13.31539 -70.30889 2012 2 8 02/08/12 6.09 0.03
-13.31539 -70.30889 2012 2 9 02/09/12 6.51 0
-13.31539 -70.30889 2012 2 10 02/10/12 4.05 14.05
-13.31539 -70.30889 2012 2 11 02/11/12 5.37 2.22
-13.31539 -70.30889 2012 2 12 02/12/12 7.06 1.1
-13.31539 -70.30889 2012 2 13 Err:502 4.16 13.25
-13.31539 -70.30889 2012 2 14 Err:502 3.44 23.62
-13.31539 -70.30889 2012 2 15 Err:502 4.91 25.09
-13.31539 -70.30889 2012 2 16 Err:502 3.84 5.97
-13.31539 -70.30889 2012 2 17 Err:502 4.58 2.76
-13.31539 -70.30889 2012 2 18 Err:502 4.14 20.92
-13.31539 -70.30889 2012 2 19 Err:502 5.83 2.83
-13.31539 -70.30889 2012 2 20 Err:502 6.13 1.57
-13.31539 -70.30889 2012 2 21 Err:502 3.53 0.7
-13.31539 -70.30889 2012 2 22 Err:502 2.69 11.36
-13.31539 -70.30889 2012 2 23 Err:502 5.15 10.6
-13.31539 -70.30889 2012 2 24 Err:502 4.56 5.21
-13.31539 -70.30889 2012 2 25 Err:502 4.04 1.72
-13.31539 -70.30889 2012 2 26 Err:502 3.95 5.54
-13.31539 -70.30889 2012 2 27 Err:502 2.73 4.57
-13.31539 -70.30889 2012 2 28 Err:502 5.26 2.95
-13.31539 -70.30889 2012 2 29 Err:502 5.59 2.3
-13.31539 -70.30889 2012 3 1 03/01/12 6.27 0.76
-13.31539 -70.30889 2012 3 2 03/02/12 2.49 20.84
-13.31539 -70.30889 2012 3 3 03/03/12 6.29 9.17
-13.31539 -70.30889 2012 3 4 03/04/12 5.85 1.57
-13.31539 -70.30889 2012 3 5 03/05/12 4.72 14.61
-13.31539 -70.30889 2012 3 6 03/06/12 5.56 11.1
-13.31539 -70.30889 2012 3 7 03/07/12 5.16 13.92
-13.31539 -70.30889 2012 3 8 03/08/12 7.8 1.61
-13.31539 -70.30889 2012 3 9 03/09/12 7.26 6.82
-13.31539 -70.30889 2012 3 10 03/10/12 7.45 1.48
-13.31539 -70.30889 2012 3 11 03/11/12 6.51 1.48
-13.31539 -70.30889 2012 3 12 03/12/12 5.87 3.97
-13.31539 -70.30889 2012 3 13 Err:502 6.32 0.64
-13.31539 -70.30889 2012 3 14 Err:502 4.36 13.65
-13.31539 -70.30889 2012 3 15 Err:502 3.65 6.29
-13.31539 -70.30889 2012 3 16 Err:502 5.39 0.85
-13.31539 -70.30889 2012 3 17 Err:502 7.35 0.3
-13.31539 -70.30889 2012 3 18 Err:502 6.21 0.06
-13.31539 -70.30889 2012 3 19 Err:502 4.98 4.73
-13.31539 -70.30889 2012 3 20 Err:502 4.15 2.16
-13.31539 -70.30889 2012 3 21 Err:502 4.34 0.07
-13.31539 -70.30889 2012 3 22 Err:502 4.54 0
-13.31539 -70.30889 2012 3 23 Err:502 3.06 26.48
-13.31539 -70.30889 2012 3 24 Err:502 3.26 23.31
-13.31539 -70.30889 2012 3 25 Err:502 4.13 2.15
-13.31539 -70.30889 2012 3 26 Err:502 5.96 0.96
-13.31539 -70.30889 2012 3 27 Err:502 4.35 12.01
-13.31539 -70.30889 2012 3 28 Err:502 4.57 6.08
-13.31539 -70.30889 2012 3 29 Err:502 5.85 0.25
-13.31539 -70.30889 2012 3 30 Err:502 7.76 0.3
-13.31539 -70.30889 2012 3 31 Err:502 6.72 0.13
-13.31539 -70.30889 2012 4 1 04/01/12 6.63 0.63
-13.31539 -70.30889 2012 4 2 04/02/12 4.86 3.33
-13.31539 -70.30889 2012 4 3 04/03/12 5.06 2.6
-13.31539 -70.30889 2012 4 4 04/04/12 3.69 0.7
-13.31539 -70.30889 2012 4 5 04/05/12 4.93 0.02
-13.31539 -70.30889 2012 4 6 04/06/12 6.52 3.49
-13.31539 -70.30889 2012 4 7 04/07/12 5.11 3.29
-13.31539 -70.30889 2012 4 8 04/08/12 3.27 16.2
-13.31539 -70.30889 2012 4 9 04/09/12 5.57 2.53
-13.31539 -70.30889 2012 4 10 04/10/12 3.27 6.01
-13.31539 -70.30889 2012 4 11 04/11/12 5.63 0.87
-13.31539 -70.30889 2012 4 12 04/12/12 6.01 0.69
-13.31539 -70.30889 2012 4 13 Err:502 5.75 0.13
-13.31539 -70.30889 2012 4 14 Err:502 6.06 1.11
-13.31539 -70.30889 2012 4 15 Err:502 3.38 25.68
-13.31539 -70.30889 2012 4 16 Err:502 4.34 3.06
-13.31539 -70.30889 2012 4 17 Err:502 5.76 1.3
-13.31539 -70.30889 2012 4 18 Err:502 5.87 1.25
-13.31539 -70.30889 2012 4 19 Err:502 5.13 0.08
-13.31539 -70.30889 2012 4 20 Err:502 6.82 0
-13.31539 -70.30889 2012 4 21 Err:502 4.69 2.04
-13.31539 -70.30889 2012 4 22 Err:502 2.96 21.27
-13.31539 -70.30889 2012 4 23 Err:502 5.61 1.88
-13.31539 -70.30889 2012 4 24 Err:502 4.59 0.25
-13.31539 -70.30889 2012 4 25 Err:502 4.87 6.5
-13.31539 -70.30889 2012 4 26 Err:502 5.01 1.9
-13.31539 -70.30889 2012 4 27 Err:502 5.12 0.71
-13.31539 -70.30889 2012 4 28 Err:502 6.14 0.78
-13.31539 -70.30889 2012 4 29 Err:502 4.51 0.35
-13.31539 -70.30889 2012 4 30 Err:502 4.45 1.61
-13.31539 -70.30889 2012 5 1 05/01/12 5.82 0.07
-13.31539 -70.30889 2012 5 2 05/02/12 7.73 0
-13.31539 -70.30889 2012 5 3 05/03/12 7.39 0
-13.31539 -70.30889 2012 5 4 05/04/12 7.18 0
-13.31539 -70.30889 2012 5 5 05/05/12 7.23 0
-13.31539 -70.30889 2012 5 6 05/06/12 7.17 0
-13.31539 -70.30889 2012 5 7 05/07/12 6.62 0
-13.31539 -70.30889 2012 5 8 05/08/12 6.41 0
-13.31539 -70.30889 2012 5 9 05/09/12 6.07 0
-13.31539 -70.30889 2012 5 10 05/10/12 7.17 0
-13.31539 -70.30889 2012 5 11 05/11/12 6.91 0
-13.31539 -70.30889 2012 5 12 05/12/12 6.49 0.01
-13.31539 -70.30889 2012 5 13 Err:502 4.25 1.8
-13.31539 -70.30889 2012 5 14 Err:502 5.25 1.08
-13.31539 -70.30889 2012 5 15 Err:502 2.9 11.52
-13.31539 -70.30889 2012 5 16 Err:502 4.95 3.07
-13.31539 -70.30889 2012 5 17 Err:502 4.47 0.54
-13.31539 -70.30889 2012 5 18 Err:502 4.56 2.04
-13.31539 -70.30889 2012 5 19 Err:502 2.2 7.74
-13.31539 -70.30889 2012 5 20 Err:502 5.36 1.86
-13.31539 -70.30889 2012 5 21 Err:502 3.65 11.86
-13.31539 -70.30889 2012 5 22 Err:502 5.94 0.74
-13.31539 -70.30889 2012 5 23 Err:502 2.85 14.83
-13.31539 -70.30889 2012 5 24 Err:502 4.01 9.84
-13.31539 -70.30889 2012 5 25 Err:502 2.99 7.96
-13.31539 -70.30889 2012 5 26 Err:502 6.38 0.09
-13.31539 -70.30889 2012 5 27 Err:502 6.38 0
-13.31539 -70.30889 2012 5 28 Err:502 5.96 0.01
-13.31539 -70.30889 2012 5 29 Err:502 4.28 0
-13.31539 -70.30889 2012 5 30 Err:502 5.1 0
-13.31539 -70.30889 2012 5 31 Err:502 4.8 0
-13.31539 -70.30889 2012 6 1 06/01/12 6.9 0.01
-13.31539 -70.30889 2012 6 2 06/02/12 6.96 0
-13.31539 -70.30889 2012 6 3 06/03/12 6.24 0
-13.31539 -70.30889 2012 6 4 06/04/12 5.41 0.15
-13.31539 -70.30889 2012 6 5 06/05/12 5.71 5.4
-13.31539 -70.30889 2012 6 6 06/06/12 4 2.18
-13.31539 -70.30889 2012 6 7 06/07/12 5.12 0.69
-13.31539 -70.30889 2012 6 8 06/08/12 6.73 0.33
-13.31539 -70.30889 2012 6 9 06/09/12 7.51 0.1
-13.31539 -70.30889 2012 6 10 06/10/12 8.39 0
-13.31539 -70.30889 2012 6 11 06/11/12 7.69 0
-13.31539 -70.30889 2012 6 12 06/12/12 7.24 0
-13.31539 -70.30889 2012 6 13 Err:502 6.7 0
-13.31539 -70.30889 2012 6 14 Err:502 6.3 0
-13.31539 -70.30889 2012 6 15 Err:502 6.05 0
-13.31539 -70.30889 2012 6 16 Err:502 3.15 20.88
-13.31539 -70.30889 2012 6 17 Err:502 5.96 7.59
-13.31539 -70.30889 2012 6 18 Err:502 5.09 1.13
-13.31539 -70.30889 2012 6 19 Err:502 6.19 0.05
-13.31539 -70.30889 2012 6 20 Err:502 6.38 0.04
-13.31539 -70.30889 2012 6 21 Err:502 5.66 0.06
-13.31539 -70.30889 2012 6 22 Err:502 4.73 30.28
-13.31539 -70.30889 2012 6 23 Err:502 4.01 2
-13.31539 -70.30889 2012 6 24 Err:502 6.82 0
-13.31539 -70.30889 2012 6 25 Err:502 5.8 7.97
-13.31539 -70.30889 2012 6 26 Err:502 6.08 0.41
-13.31539 -70.30889 2012 6 27 Err:502 6.03 0
-13.31539 -70.30889 2012 6 28 Err:502 6.74 0
-13.31539 -70.30889 2012 6 29 Err:502 5.48 0
-13.31539 -70.30889 2012 6 30 Err:502 5.53 0.5
-13.31539 -70.30889 2012 7 1 07/01/12 5.15 0
-13.31539 -70.30889 2012 7 2 07/02/12 5.66 0.01
-13.31539 -70.30889 2012 7 3 07/03/12 3.74 0.02
-13.31539 -70.30889 2012 7 4 07/04/12 5.71 0.01
-13.31539 -70.30889 2012 7 5 07/05/12 6.93 0.01
-13.31539 -70.30889 2012 7 6 07/06/12 6.92 0
-13.31539 -70.30889 2012 7 7 07/07/12 5.57 0.19
-13.31539 -70.30889 2012 7 8 07/08/12 4.66 0.03
-13.31539 -70.30889 2012 7 9 07/09/12 9.59 0
-13.31539 -70.30889 2012 7 10 07/10/12 7.71 0
-13.31539 -70.30889 2012 7 11 07/11/12 7.81 0
-13.31539 -70.30889 2012 7 12 07/12/12 8.14 0
-13.31539 -70.30889 2012 7 13 Err:502 6.69 0
-13.31539 -70.30889 2012 7 14 Err:502 6.31 0
-13.31539 -70.30889 2012 7 15 Err:502 5.2 0
-13.31539 -70.30889 2012 7 16 Err:502 5.3 0
-13.31539 -70.30889 2012 7 17 Err:502 5.62 0
-13.31539 -70.30889 2012 7 18 Err:502 7.87 0
-13.31539 -70.30889 2012 7 19 Err:502 10.07 0
-13.31539 -70.30889 2012 7 20 Err:502 10.23 0
-13.31539 -70.30889 2012 7 21 Err:502 9.8 0
-13.31539 -70.30889 2012 7 22 Err:502 9.07 0
-13.31539 -70.30889 2012 7 23 Err:502 9.07 0
-13.31539 -70.30889 2012 7 24 Err:502 8.86 0
-13.31539 -70.30889 2012 7 25 Err:502 5.76 0
-13.31539 -70.30889 2012 7 26 Err:502 6.75 0.01
-13.31539 -70.30889 2012 7 27 Err:502 7.05 2.86
-13.31539 -70.30889 2012 7 28 Err:502 7.26 0.02
-13.31539 -70.30889 2012 7 29 Err:502 7.58 0
-13.31539 -70.30889 2012 7 30 Err:502 6.02 0.12
-13.31539 -70.30889 2012 7 31 Err:502 7.2 0
-13.31539 -70.30889 2012 8 1 08/01/12 8.95 0
-13.31539 -70.30889 2012 8 2 08/02/12 9.74 0
-13.31539 -70.30889 2012 8 3 08/03/12 8.23 0
-13.31539 -70.30889 2012 8 4 08/04/12 7.12 0
-13.31539 -70.30889 2012 8 5 08/05/12 7.97 0
-13.31539 -70.30889 2012 8 6 08/06/12 8.7 0
-13.31539 -70.30889 2012 8 7 08/07/12 9.58 0
-13.31539 -70.30889 2012 8 8 08/08/12 10.57 0
-13.31539 -70.30889 2012 8 9 08/09/12 11.07 0
-13.31539 -70.30889 2012 8 10 08/10/12 11.39 0
-13.31539 -70.30889 2012 8 11 08/11/12 11.21 0
-13.31539 -70.30889 2012 8 12 08/12/12 10.83 0
-13.31539 -70.30889 2012 8 13 Err:502 6.28 1.61
-13.31539 -70.30889 2012 8 14 Err:502 9.94 0.07
-13.31539 -70.30889 2012 8 15 Err:502 8.12 0
-13.31539 -70.30889 2012 8 16 Err:502 9.81 0
-13.31539 -70.30889 2012 8 17 Err:502 8.81 0
-13.31539 -70.30889 2012 8 18 Err:502 8.18 0
-13.31539 -70.30889 2012 8 19 Err:502 5.59 0.05
-13.31539 -70.30889 2012 8 20 Err:502 10.84 0
-13.31539 -70.30889 2012 8 21 Err:502 6.77 0.01
-13.31539 -70.30889 2012 8 22 Err:502 9.33 1.1
-13.31539 -70.30889 2012 8 23 Err:502 9.17 0.03
-13.31539 -70.30889 2012 8 24 Err:502 3.91 0.05
-13.31539 -70.30889 2012 8 25 Err:502 5.98 3.27
-13.31539 -70.30889 2012 8 26 Err:502 9.09 0.02
-13.31539 -70.30889 2012 8 27 Err:502 8.57 0
-13.31539 -70.30889 2012 8 28 Err:502 9.29 0
-13.31539 -70.30889 2012 8 29 Err:502 11.69 0
-13.31539 -70.30889 2012 8 30 Err:502 12.91 0
-13.31539 -70.30889 2012 8 31 Err:502 13.06 0
-13.31539 -70.30889 2012 9 1 09/01/12 12.54 0
-13.31539 -70.30889 2012 9 2 09/02/12 12.29 0
-13.31539 -70.30889 2012 9 3 09/03/12 10.34 0
-13.31539 -70.30889 2012 9 4 09/04/12 11.45 0
-13.31539 -70.30889 2012 9 5 09/05/12 11.06 0
-13.31539 -70.30889 2012 9 6 09/06/12 10.53 0
-13.31539 -70.30889 2012 9 7 09/07/12 10.37 0
-13.31539 -70.30889 2012 9 8 09/08/12 11.05 0.27
-13.31539 -70.30889 2012 9 9 09/09/12 6.97 1
-13.31539 -70.30889 2012 9 10 09/10/12 10.39 0
-13.31539 -70.30889 2012 9 11 09/11/12 9.85 0
-13.31539 -70.30889 2012 9 12 09/12/12 10.31 0
-13.31539 -70.30889 2012 9 13 Err:502 9.81 1.68
-13.31539 -70.30889 2012 9 14 Err:502 11.83 0.2
-13.31539 -70.30889 2012 9 15 Err:502 11.85 0
-13.31539 -70.30889 2012 9 16 Err:502 10.08 0
-13.31539 -70.30889 2012 9 17 Err:502 10.23 0
-13.31539 -70.30889 2012 9 18 Err:502 9.5 0
-13.31539 -70.30889 2012 9 19 Err:502 8.26 4
-13.31539 -70.30889 2012 9 20 Err:502 6.99 6.5
-13.31539 -70.30889 2012 9 21 Err:502 4.89 11.97
-13.31539 -70.30889 2012 9 22 Err:502 5.02 5.81
-13.31539 -70.30889 2012 9 23 Err:502 10.59 1.45
-13.31539 -70.30889 2012 9 24 Err:502 7.18 0
-13.31539 -70.30889 2012 9 25 Err:502 6.05 15.3
-13.31539 -70.30889 2012 9 26 Err:502 7.03 37.89
-13.31539 -70.30889 2012 9 27 Err:502 8.23 2.18
-13.31539 -70.30889 2012 9 28 Err:502 10.13 0.24
-13.31539 -70.30889 2012 9 29 Err:502 8.37 0
-13.31539 -70.30889 2012 9 30 Err:502 6.44 4.72
-13.31539 -70.30889 2012 10 1 10/01/12 8.41 4.06
-13.31539 -70.30889 2012 10 2 10/02/12 6.22 14.06
-13.31539 -70.30889 2012 10 3 10/03/12 5.06 16.18
-13.31539 -70.30889 2012 10 4 10/04/12 6.03 16.44
-13.31539 -70.30889 2012 10 5 10/05/12 2.78 16.23
-13.31539 -70.30889 2012 10 6 10/06/12 6.02 6.85
-13.31539 -70.30889 2012 10 7 10/07/12 5.93 0.12
-13.31539 -70.30889 2012 10 8 10/08/12 8.14 0.15
-13.31539 -70.30889 2012 10 9 10/09/12 6.13 0.04
-13.31539 -70.30889 2012 10 10 10/10/12 4.61 17.31
-13.31539 -70.30889 2012 10 11 10/11/12 3.09 25.49
-13.31539 -70.30889 2012 10 12 10/12/12 7.27 0.16
-13.31539 -70.30889 2012 10 13 Err:502 8.47 0
-13.31539 -70.30889 2012 10 14 Err:502 9.03 0
-13.31539 -70.30889 2012 10 15 Err:502 6.35 0.67
-13.31539 -70.30889 2012 10 16 Err:502 6.09 0.25
-13.31539 -70.30889 2012 10 17 Err:502 4.93 19.16
-13.31539 -70.30889 2012 10 18 Err:502 5.58 0.98
-13.31539 -70.30889 2012 10 19 Err:502 7.11 0.84
-13.31539 -70.30889 2012 10 20 Err:502 5.29 1.38
-13.31539 -70.30889 2012 10 21 Err:502 5.78 0.56
-13.31539 -70.30889 2012 10 22 Err:502 4.3 0.44
-13.31539 -70.30889 2012 10 23 Err:502 4.64 0
-13.31539 -70.30889 2012 10 24 Err:502 4.16 0
-13.31539 -70.30889 2012 10 25 Err:502 5.61 12.84
-13.31539 -70.30889 2012 10 26 Err:502 4.86 1.71
-13.31539 -70.30889 2012 10 27 Err:502 3.47 15.61
-13.31539 -70.30889 2012 10 28 Err:502 5.88 1.65
-13.31539 -70.30889 2012 10 29 Err:502 6.53 0.15
-13.31539 -70.30889 2012 10 30 Err:502 6.05 0
-13.31539 -70.30889 2012 10 31 Err:502 5.52 0.24
-13.31539 -70.30889 2012 11 1 11/01/12 5.78 1.43
-13.31539 -70.30889 2012 11 2 11/02/12 5.15 2.29
-13.31539 -70.30889 2012 11 3 11/03/12 4.86 1.07
-13.31539 -70.30889 2012 11 4 11/04/12 4.66 0.02
-13.31539 -70.30889 2012 11 5 11/05/12 4.31 1.95
-13.31539 -70.30889 2012 11 6 11/06/12 3.6 4.86
-13.31539 -70.30889 2012 11 7 11/07/12 6.73 1.99
-13.31539 -70.30889 2012 11 8 11/08/12 7.81 0.19
-13.31539 -70.30889 2012 11 9 11/09/12 7.54 0
-13.31539 -70.30889 2012 11 10 11/10/12 5.71 0
-13.31539 -70.30889 2012 11 11 11/11/12 6.86 0.12
-13.31539 -70.30889 2012 11 12 11/12/12 4.8 2.06
-13.31539 -70.30889 2012 11 13 Err:502 6.7 0.11
-13.31539 -70.30889 2012 11 14 Err:502 6.65 10.08
-13.31539 -70.30889 2012 11 15 Err:502 6.41 5.57
-13.31539 -70.30889 2012 11 16 Err:502 4.21 1.82
-13.31539 -70.30889 2012 11 17 Err:502 5.71 5.85
-13.31539 -70.30889 2012 11 18 Err:502 5.08 8
-13.31539 -70.30889 2012 11 19 Err:502 6.93 5.7
-13.31539 -70.30889 2012 11 20 Err:502 5.99 5.04
-13.31539 -70.30889 2012 11 21 Err:502 5.79 2.44
-13.31539 -70.30889 2012 11 22 Err:502 8 0.21
-13.31539 -70.30889 2012 11 23 Err:502 3.24 4.83
-13.31539 -70.30889 2012 11 24 Err:502 4.34 0.82
-13.31539 -70.30889 2012 11 25 Err:502 4.4 1.18
-13.31539 -70.30889 2012 11 26 Err:502 5.93 0.24
-13.31539 -70.30889 2012 11 27 Err:502 5.53 0
-13.31539 -70.30889 2012 11 28 Err:502 5.5 0
-13.31539 -70.30889 2012 11 29 Err:502 3.8 2.52
-13.31539 -70.30889 2012 11 30 Err:502 4.7 3.73
-13.31539 -70.30889 2012 12 1 12/01/12 5.31 9.81
-13.31539 -70.30889 2012 12 2 12/02/12 6.03 1
-13.31539 -70.30889 2012 12 3 12/03/12 6.19 8.66
-13.31539 -70.30889 2012 12 4 12/04/12 4.29 2.11
-13.31539 -70.30889 2012 12 5 12/05/12 3.63 20.09
-13.31539 -70.30889 2012 12 6 12/06/12 5.85 0.64
-13.31539 -70.30889 2012 12 7 12/07/12 5.46 5.31
-13.31539 -70.30889 2012 12 8 12/08/12 3.67 4.23
-13.31539 -70.30889 2012 12 9 12/09/12 3.43 30.49
-13.31539 -70.30889 2012 12 10 12/10/12 4.3 18.92
-13.31539 -70.30889 2012 12 11 12/11/12 4.82 2.78
-13.31539 -70.30889 2012 12 12 12/12/12 4.36 7.77
-13.31539 -70.30889 2012 12 13 Err:502 3.7 14.85
-13.31539 -70.30889 2012 12 14 Err:502 4.73 9.13
-13.31539 -70.30889 2012 12 15 Err:502 2.49 16.51
-13.31539 -70.30889 2012 12 16 Err:502 3.52 9.65
-13.31539 -70.30889 2012 12 17 Err:502 5.51 10.27
-13.31539 -70.30889 2012 12 18 Err:502 5.14 6.04
-13.31539 -70.30889 2012 12 19 Err:502 5.04 0.62
-13.31539 -70.30889 2012 12 20 Err:502 5.84 1.25
-13.31539 -70.30889 2012 12 21 Err:502 2.69 17.09
-13.31539 -70.30889 2012 12 22 Err:502 4.12 5.82
-13.31539 -70.30889 2012 12 23 Err:502 6.5 3.37
-13.31539 -70.30889 2012 12 24 Err:502 5.69 0.65
-13.31539 -70.30889 2012 12 25 Err:502 4.38 4.99
-13.31539 -70.30889 2012 12 26 Err:502 4.92 24.85
-13.31539 -70.30889 2012 12 27 Err:502 3.46 34.96
-13.31539 -70.30889 2012 12 28 Err:502 4.16 37.14
-13.31539 -70.30889 2012 12 29 Err:502 3.6 17.52
-13.31539 -70.30889 2012 12 30 Err:502 4.58 9.49
-13.31539 -70.30889 2012 12 31 Err:502 5.27 19.92
-13.31539 -70.30889 2013 1 1 01/01/13 5.18 10.71
-13.31539 -70.30889 2013 1 2 01/02/13 3.51 13.7
-13.31539 -70.30889 2013 1 3 01/03/13 3.96 2.16
-13.31539 -70.30889 2013 1 4 01/04/13 5.1 1.89
-13.31539 -70.30889 2013 1 5 01/05/13 4.29 9.72
-13.31539 -70.30889 2013 1 6 01/06/13 3.29 6.3
-13.31539 -70.30889 2013 1 7 01/07/13 4.56 2.6
-13.31539 -70.30889 2013 1 8 01/08/13 5.13 1.1
-13.31539 -70.30889 2013 1 9 01/09/13 4.02 7.04
-13.31539 -70.30889 2013 1 10 01/10/13 3.83 11.75
-13.31539 -70.30889 2013 1 11 01/11/13 6.5 2.36
-13.31539 -70.30889 2013 1 12 01/12/13 7 5.03
-13.31539 -70.30889 2013 1 13 Err:502 6.94 4.22
-13.31539 -70.30889 2013 1 14 Err:502 5.13 1.77
-13.31539 -70.30889 2013 1 15 Err:502 5.64 0.61
-13.31539 -70.30889 2013 1 16 Err:502 6.04 0.54
-13.31539 -70.30889 2013 1 17 Err:502 3.97 16.71
-13.31539 -70.30889 2013 1 18 Err:502 4.73 7.67
-13.31539 -70.30889 2013 1 19 Err:502 4.63 7.32
-13.31539 -70.30889 2013 1 20 Err:502 3.15 15.92
-13.31539 -70.30889 2013 1 21 Err:502 4.28 7.44
-13.31539 -70.30889 2013 1 22 Err:502 6.03 0.76
-13.31539 -70.30889 2013 1 23 Err:502 6.74 0.48
-13.31539 -70.30889 2013 1 24 Err:502 5.8 1.25
-13.31539 -70.30889 2013 1 25 Err:502 5.82 0.77
-13.31539 -70.30889 2013 1 26 Err:502 4.22 22.71
-13.31539 -70.30889 2013 1 27 Err:502 5.03 0.12
-13.31539 -70.30889 2013 1 28 Err:502 7.1 0.02
-13.31539 -70.30889 2013 1 29 Err:502 6.01 3.72
-13.31539 -70.30889 2013 1 30 Err:502 6.38 3.21
-13.31539 -70.30889 2013 1 31 Err:502 6.07 4.01
-13.31539 -70.30889 2013 2 1 02/01/13 4.99 3.18
-13.31539 -70.30889 2013 2 2 02/02/13 4.53 11.12
-13.31539 -70.30889 2013 2 3 02/03/13 3.61 11.91
-13.31539 -70.30889 2013 2 4 02/04/13 4.89 17.3
-13.31539 -70.30889 2013 2 5 02/05/13 5.28 4.95
-13.31539 -70.30889 2013 2 6 02/06/13 5.77 6.64
-13.31539 -70.30889 2013 2 7 02/07/13 4.5 14.64
-13.31539 -70.30889 2013 2 8 02/08/13 6.84 6.54
-13.31539 -70.30889 2013 2 9 02/09/13 6.96 6.46
-13.31539 -70.30889 2013 2 10 02/10/13 6.01 5.14
-13.31539 -70.30889 2013 2 11 02/11/13 3.14 38.56
-13.31539 -70.30889 2013 2 12 02/12/13 3.71 27.58
-13.31539 -70.30889 2013 2 13 Err:502 5.03 23.83
-13.31539 -70.30889 2013 2 14 Err:502 5.76 9.93
-13.31539 -70.30889 2013 2 15 Err:502 3.94 1.27
-13.31539 -70.30889 2013 2 16 Err:502 4.79 0.62
-13.31539 -70.30889 2013 2 17 Err:502 4.63 0.1
-13.31539 -70.30889 2013 2 18 Err:502 3.3 2.3
-13.31539 -70.30889 2013 2 19 Err:502 4.87 2.84
-13.31539 -70.30889 2013 2 20 Err:502 6.46 8.11
-13.31539 -70.30889 2013 2 21 Err:502 4.04 8.79
-13.31539 -70.30889 2013 2 22 Err:502 3.83 8.97
-13.31539 -70.30889 2013 2 23 Err:502 6.02 9.09
-13.31539 -70.30889 2013 2 24 Err:502 5.93 0.17
-13.31539 -70.30889 2013 2 25 Err:502 2.77 10.77
-13.31539 -70.30889 2013 2 26 Err:502 3.34 3.29
-13.31539 -70.30889 2013 2 27 Err:502 4.27 3.81
-13.31539 -70.30889 2013 2 28 Err:502 4.46 23.67
-13.31539 -70.30889 2013 3 1 03/01/13 6.27 1.73
-13.31539 -70.30889 2013 3 2 03/02/13 4.08 1.49
-13.31539 -70.30889 2013 3 3 03/03/13 5.57 4.28
-13.31539 -70.30889 2013 3 4 03/04/13 4.05 9.7
-13.31539 -70.30889 2013 3 5 03/05/13 4.96 0.58
-13.31539 -70.30889 2013 3 6 03/06/13 6.21 1.2
-13.31539 -70.30889 2013 3 7 03/07/13 2.98 12.02
-13.31539 -70.30889 2013 3 8 03/08/13 3.75 9.54
-13.31539 -70.30889 2013 3 9 03/09/13 5.3 3
-13.31539 -70.30889 2013 3 10 03/10/13 5.42 1.27
-13.31539 -70.30889 2013 3 11 03/11/13 3 4.28
-13.31539 -70.30889 2013 3 12 03/12/13 4.18 2.39
-13.31539 -70.30889 2013 3 13 Err:502 2.83 14.52
-13.31539 -70.30889 2013 3 14 Err:502 3.41 7.75
-13.31539 -70.30889 2013 3 15 Err:502 4.66 21.88
-13.31539 -70.30889 2013 3 16 Err:502 4.11 8.78
-13.31539 -70.30889 2013 3 17 Err:502 4.94 5.07
-13.31539 -70.30889 2013 3 18 Err:502 5.56 1.57
-13.31539 -70.30889 2013 3 19 Err:502 5.82 9.65
-13.31539 -70.30889 2013 3 20 Err:502 5.43 10.29
-13.31539 -70.30889 2013 3 21 Err:502 3.72 11.78
-13.31539 -70.30889 2013 3 22 Err:502 2.57 13.82
-13.31539 -70.30889 2013 3 23 Err:502 6.14 0.83
-13.31539 -70.30889 2013 3 24 Err:502 3.01 20.93
-13.31539 -70.30889 2013 3 25 Err:502 3.7 11.64
-13.31539 -70.30889 2013 3 26 Err:502 4.53 26.94
-13.31539 -70.30889 2013 3 27 Err:502 5.66 3.56
-13.31539 -70.30889 2013 3 28 Err:502 5.77 1.02
-13.31539 -70.30889 2013 3 29 Err:502 6.8 0.38
-13.31539 -70.30889 2013 3 30 Err:502 5.7 0
-13.31539 -70.30889 2013 3 31 Err:502 5.39 0
-13.31539 -70.30889 2013 4 1 04/01/13 3.83 0
-13.31539 -70.30889 2013 4 2 04/02/13 5.24 0
-13.31539 -70.30889 2013 4 3 04/03/13 3.5 1.25
-13.31539 -70.30889 2013 4 4 04/04/13 3.29 1.86
-13.31539 -70.30889 2013 4 5 04/05/13 5.95 0.75
-13.31539 -70.30889 2013 4 6 04/06/13 5.12 1.75
-13.31539 -70.30889 2013 4 7 04/07/13 3.45 14.79
-13.31539 -70.30889 2013 4 8 04/08/13 4.46 15.31
-13.31539 -70.30889 2013 4 9 04/09/13 3.99 1.14
-13.31539 -70.30889 2013 4 10 04/10/13 5.36 0.41
-13.31539 -70.30889 2013 4 11 04/11/13 4.06 2.14
-13.31539 -70.30889 2013 4 12 04/12/13 4.06 0.33
-13.31539 -70.30889 2013 4 13 Err:502 5.34 17.22
-13.31539 -70.30889 2013 4 14 Err:502 4.66 1.67
-13.31539 -70.30889 2013 4 15 Err:502 6.99 0.06
-13.31539 -70.30889 2013 4 16 Err:502 6.04 0
-13.31539 -70.30889 2013 4 17 Err:502 5.76 0.14
-13.31539 -70.30889 2013 4 18 Err:502 6.72 0.01
-13.31539 -70.30889 2013 4 19 Err:502 7.31 0.14
-13.31539 -70.30889 2013 4 20 Err:502 7.12 0.02
-13.31539 -70.30889 2013 4 21 Err:502 6.8 0
-13.31539 -70.30889 2013 4 22 Err:502 7.12 0
-13.31539 -70.30889 2013 4 23 Err:502 6.84 0
-13.31539 -70.30889 2013 4 24 Err:502 7.71 0
-13.31539 -70.30889 2013 4 25 Err:502 7.38 0
-13.31539 -70.30889 2013 4 26 Err:502 7.79 0
-13.31539 -70.30889 2013 4 27 Err:502 7.26 0
-13.31539 -70.30889 2013 4 28 Err:502 6.17 0
-13.31539 -70.30889 2013 4 29 Err:502 7.03 0.47
-13.31539 -70.30889 2013 4 30 Err:502 6.71 0.01
-13.31539 -70.30889 2013 5 1 05/01/13 5.76 0.5
-13.31539 -70.30889 2013 5 2 05/02/13 5.88 0.06
-13.31539 -70.30889 2013 5 3 05/03/13 4.87 0
-13.31539 -70.30889 2013 5 4 05/04/13 4.1 2.56
-13.31539 -70.30889 2013 5 5 05/05/13 3.57 3
-13.31539 -70.30889 2013 5 6 05/06/13 5.18 0.08
-13.31539 -70.30889 2013 5 7 05/07/13 6.49 0
-13.31539 -70.30889 2013 5 8 05/08/13 6.2 0
-13.31539 -70.30889 2013 5 9 05/09/13 7.96 0
-13.31539 -70.30889 2013 5 10 05/10/13 7.03 0
-13.31539 -70.30889 2013 5 11 05/11/13 5.24 1.89
-13.31539 -70.30889 2013 5 12 05/12/13 3.06 10.48
-13.31539 -70.30889 2013 5 13 Err:502 4.3 0.49
-13.31539 -70.30889 2013 5 14 Err:502 6.27 0.05
-13.31539 -70.30889 2013 5 15 Err:502 5.18 0.05
-13.31539 -70.30889 2013 5 16 Err:502 5.9 11.95
-13.31539 -70.30889 2013 5 17 Err:502 3.49 11.76
-13.31539 -70.30889 2013 5 18 Err:502 6.5 1.38
-13.31539 -70.30889 2013 5 19 Err:502 6.57 0.02
-13.31539 -70.30889 2013 5 20 Err:502 7.29 0
-13.31539 -70.30889 2013 5 21 Err:502 6.46 0
-13.31539 -70.30889 2013 5 22 Err:502 5.55 0
-13.31539 -70.30889 2013 5 23 Err:502 6.24 0
-13.31539 -70.30889 2013 5 24 Err:502 3.19 0.1
-13.31539 -70.30889 2013 5 25 Err:502 4.43 0.09
-13.31539 -70.30889 2013 5 26 Err:502 6.88 0.02
-13.31539 -70.30889 2013 5 27 Err:502 4.97 0.35
-13.31539 -70.30889 2013 5 28 Err:502 4.98 0.14
-13.31539 -70.30889 2013 5 29 Err:502 5.76 0.35
-13.31539 -70.30889 2013 5 30 Err:502 5.13 7.05
-13.31539 -70.30889 2013 5 31 Err:502 4.62 6.03
-13.31539 -70.30889 2013 6 1 06/01/13 5 2.42
-13.31539 -70.30889 2013 6 2 06/02/13 6.01 0.05
-13.31539 -70.30889 2013 6 3 06/03/13 5.78 0.07
-13.31539 -70.30889 2013 6 4 06/04/13 5.35 0.33
-13.31539 -70.30889 2013 6 5 06/05/13 5.23 0.65
-13.31539 -70.30889 2013 6 6 06/06/13 5.85 0.19
-13.31539 -70.30889 2013 6 7 06/07/13 7.26 0.03
-13.31539 -70.30889 2013 6 8 06/08/13 7.18 0.01
-13.31539 -70.30889 2013 6 9 06/09/13 6.53 0.03
-13.31539 -70.30889 2013 6 10 06/10/13 6.14 0.05
-13.31539 -70.30889 2013 6 11 06/11/13 7.13 0.52
-13.31539 -70.30889 2013 6 12 06/12/13 5.98 0.82
-13.31539 -70.30889 2013 6 13 Err:502 7.29 0.17
-13.31539 -70.30889 2013 6 14 Err:502 7.37 0
-13.31539 -70.30889 2013 6 15 Err:502 6.18 0
-13.31539 -70.30889 2013 6 16 Err:502 6.09 0.03
-13.31539 -70.30889 2013 6 17 Err:502 6.81 0.09
-13.31539 -70.30889 2013 6 18 Err:502 5.22 0.25
-13.31539 -70.30889 2013 6 19 Err:502 4.49 2.26
-13.31539 -70.30889 2013 6 20 Err:502 6.83 1.68
-13.31539 -70.30889 2013 6 21 Err:502 6.83 0.43
-13.31539 -70.30889 2013 6 22 Err:502 6.29 0.26
-13.31539 -70.30889 2013 6 23 Err:502 7.32 1.25
-13.31539 -70.30889 2013 6 24 Err:502 5.16 11.55
-13.31539 -70.30889 2013 6 25 Err:502 5.46 11.91
-13.31539 -70.30889 2013 6 26 Err:502 4.37 12.45
-13.31539 -70.30889 2013 6 27 Err:502 5.53 2.03
-13.31539 -70.30889 2013 6 28 Err:502 5.13 0.16
-13.31539 -70.30889 2013 6 29 Err:502 5.66 0.03
-13.31539 -70.30889 2013 6 30 Err:502 5.21 0.09
-13.31539 -70.30889 2013 7 1 07/01/13 4.6 0.03
-13.31539 -70.30889 2013 7 2 07/02/13 4.71 0
-13.31539 -70.30889 2013 7 3 07/03/13 6.21 1.93
-13.31539 -70.30889 2013 7 4 07/04/13 6.25 0.29
-13.31539 -70.30889 2013 7 5 07/05/13 3.55 11.56
-13.31539 -70.30889 2013 7 6 07/06/13 6.4 0.09
-13.31539 -70.30889 2013 7 7 07/07/13 7.14 0
-13.31539 -70.30889 2013 7 8 07/08/13 7.52 0
-13.31539 -70.30889 2013 7 9 07/09/13 6.08 0.08
-13.31539 -70.30889 2013 7 10 07/10/13 7.68 0
-13.31539 -70.30889 2013 7 11 07/11/13 7.17 0
-13.31539 -70.30889 2013 7 12 07/12/13 5.71 0
-13.31539 -70.30889 2013 7 13 Err:502 5.34 0
-13.31539 -70.30889 2013 7 14 Err:502 7.21 0
-13.31539 -70.30889 2013 7 15 Err:502 8.41 0.31
-13.31539 -70.30889 2013 7 16 Err:502 9.08 0.04
-13.31539 -70.30889 2013 7 17 Err:502 6.71 0
-13.31539 -70.30889 2013 7 18 Err:502 7.89 0
-13.31539 -70.30889 2013 7 19 Err:502 8.35 0
-13.31539 -70.30889 2013 7 20 Err:502 8.24 0
-13.31539 -70.30889 2013 7 21 Err:502 7.19 0
-13.31539 -70.30889 2013 7 22 Err:502 6.75 5.19
-13.31539 -70.30889 2013 7 23 Err:502 6.81 1.83
-13.31539 -70.30889 2013 7 24 Err:502 6.44 0
-13.31539 -70.30889 2013 7 25 Err:502 9.59 0
-13.31539 -70.30889 2013 7 26 Err:502 11.87 0
-13.31539 -70.30889 2013 7 27 Err:502 11.59 0
-13.31539 -70.30889 2013 7 28 Err:502 10.15 0
-13.31539 -70.30889 2013 7 29 Err:502 10.66 0
-13.31539 -70.30889 2013 7 30 Err:502 10.76 0
-13.31539 -70.30889 2013 7 31 Err:502 9.54 0
-13.31539 -70.30889 2013 8 1 08/01/13 9.57 0
-13.31539 -70.30889 2013 8 2 08/02/13 7.9 0
-13.31539 -70.30889 2013 8 3 08/03/13 9.02 0
-13.31539 -70.30889 2013 8 4 08/04/13 8.54 0
-13.31539 -70.30889 2013 8 5 08/05/13 8.27 0
-13.31539 -70.30889 2013 8 6 08/06/13 7.07 0
-13.31539 -70.30889 2013 8 7 08/07/13 7.3 0
-13.31539 -70.30889 2013 8 8 08/08/13 9.53 0
-13.31539 -70.30889 2013 8 9 08/09/13 6.77 6.15
-13.31539 -70.30889 2013 8 10 08/10/13 5.17 20.79
-13.31539 -70.30889 2013 8 11 08/11/13 10.22 0
-13.31539 -70.30889 2013 8 12 08/12/13 12.04 0
-13.31539 -70.30889 2013 8 13 Err:502 10.6 0
-13.31539 -70.30889 2013 8 14 Err:502 5.61 0.02
-13.31539 -70.30889 2013 8 15 Err:502 9.62 0
-13.31539 -70.30889 2013 8 16 Err:502 11.83 0
-13.31539 -70.30889 2013 8 17 Err:502 9.92 0
-13.31539 -70.30889 2013 8 18 Err:502 10.03 0
-13.31539 -70.30889 2013 8 19 Err:502 11.52 0
-13.31539 -70.30889 2013 8 20 Err:502 10.03 0
-13.31539 -70.30889 2013 8 21 Err:502 9.73 0.01
-13.31539 -70.30889 2013 8 22 Err:502 5.66 0.05
-13.31539 -70.30889 2013 8 23 Err:502 7.98 4.42
-13.31539 -70.30889 2013 8 24 Err:502 6.81 1.96
-13.31539 -70.30889 2013 8 25 Err:502 3.87 0.75
-13.31539 -70.30889 2013 8 26 Err:502 7.61 0
-13.31539 -70.30889 2013 8 27 Err:502 7.92 0.1
-13.31539 -70.30889 2013 8 28 Err:502 10.69 0.52
-13.31539 -70.30889 2013 8 29 Err:502 12.3 0.02
-13.31539 -70.30889 2013 8 30 Err:502 13.52 0
-13.31539 -70.30889 2013 8 31 Err:502 12.62 0
-13.31539 -70.30889 2013 9 1 09/01/13 11.45 0
-13.31539 -70.30889 2013 9 2 09/02/13 12.24 0
-13.31539 -70.30889 2013 9 3 09/03/13 10.82 0
-13.31539 -70.30889 2013 9 4 09/04/13 9.62 0.19
-13.31539 -70.30889 2013 9 5 09/05/13 11.67 0
-13.31539 -70.30889 2013 9 6 09/06/13 11.26 0.01
-13.31539 -70.30889 2013 9 7 09/07/13 10.53 0.03
-13.31539 -70.30889 2013 9 8 09/08/13 10.11 0
-13.31539 -70.30889 2013 9 9 09/09/13 10.31 0
-13.31539 -70.30889 2013 9 10 09/10/13 10.7 0
-13.31539 -70.30889 2013 9 11 09/11/13 10.04 0
-13.31539 -70.30889 2013 9 12 09/12/13 7.35 0
-13.31539 -70.30889 2013 9 13 Err:502 6.28 0.91
-13.31539 -70.30889 2013 9 14 Err:502 5.16 23.68
-13.31539 -70.30889 2013 9 15 Err:502 10.8 0.8
-13.31539 -70.30889 2013 9 16 Err:502 10.67 0.02
-13.31539 -70.30889 2013 9 17 Err:502 8.79 5.98
-13.31539 -70.30889 2013 9 18 Err:502 4.52 8.89
-13.31539 -70.30889 2013 9 19 Err:502 10.26 0.48
-13.31539 -70.30889 2013 9 20 Err:502 11.93 0.07
-13.31539 -70.30889 2013 9 21 Err:502 11.82 0.01
-13.31539 -70.30889 2013 9 22 Err:502 10.57 0
-13.31539 -70.30889 2013 9 23 Err:502 3.55 22.72
-13.31539 -70.30889 2013 9 24 Err:502 4.84 6.08
-13.31539 -70.30889 2013 9 25 Err:502 8.34 0
-13.31539 -70.30889 2013 9 26 Err:502 11.74 0
-13.31539 -70.30889 2013 9 27 Err:502 10.29 0
-13.31539 -70.30889 2013 9 28 Err:502 9.27 1.46
-13.31539 -70.30889 2013 9 29 Err:502 11.47 1.12
-13.31539 -70.30889 2013 9 30 Err:502 7.36 0.27
-13.31539 -70.30889 2013 10 1 10/01/13 8.22 2.12
-13.31539 -70.30889 2013 10 2 10/02/13 4.09 4.75
-13.31539 -70.30889 2013 10 3 10/03/13 7.59 0
-13.31539 -70.30889 2013 10 4 10/04/13 9.32 9.54
-13.31539 -70.30889 2013 10 5 10/05/13 4.28 39.62
-13.31539 -70.30889 2013 10 6 10/06/13 6.2 1.04
-13.31539 -70.30889 2013 10 7 10/07/13 7.63 0.13
-13.31539 -70.30889 2013 10 8 10/08/13 4.9 0.05
-13.31539 -70.30889 2013 10 9 10/09/13 7.81 2.03
-13.31539 -70.30889 2013 10 10 10/10/13 7.45 2.9
-13.31539 -70.30889 2013 10 11 10/11/13 5.89 10.37
-13.31539 -70.30889 2013 10 12 10/12/13 6.36 16.74
-13.31539 -70.30889 2013 10 13 Err:502 7.65 9.77
-13.31539 -70.30889 2013 10 14 Err:502 6.88 15.72
-13.31539 -70.30889 2013 10 15 Err:502 7.44 24.86
-13.31539 -70.30889 2013 10 16 Err:502 5.73 15.59
-13.31539 -70.30889 2013 10 17 Err:502 6.17 0
-13.31539 -70.30889 2013 10 18 Err:502 4.63 0.54
-13.31539 -70.30889 2013 10 19 Err:502 5.36 2.04
-13.31539 -70.30889 2013 10 20 Err:502 6.94 0.69
-13.31539 -70.30889 2013 10 21 Err:502 6.14 0
-13.31539 -70.30889 2013 10 22 Err:502 6.12 0.01
-13.31539 -70.30889 2013 10 23 Err:502 3.87 5.72
-13.31539 -70.30889 2013 10 24 Err:502 4.89 2.4
-13.31539 -70.30889 2013 10 25 Err:502 3.67 5.01
-13.31539 -70.30889 2013 10 26 Err:502 6.94 6.12
-13.31539 -70.30889 2013 10 27 Err:502 4.23 11.76
-13.31539 -70.30889 2013 10 28 Err:502 4.17 23.13
-13.31539 -70.30889 2013 10 29 Err:502 7.34 0.66
-13.31539 -70.30889 2013 10 30 Err:502 3.69 23.79
-13.31539 -70.30889 2013 10 31 Err:502 5.24 8.28
-13.31539 -70.30889 2013 11 1 11/01/13 3.87 4.74
-13.31539 -70.30889 2013 11 2 11/02/13 2.54 14.06
-13.31539 -70.30889 2013 11 3 11/03/13 4.5 6.21
-13.31539 -70.30889 2013 11 4 11/04/13 5.97 1.78
-13.31539 -70.30889 2013 11 5 11/05/13 6.35 6.74
-13.31539 -70.30889 2013 11 6 11/06/13 8.13 1.43
-13.31539 -70.30889 2013 11 7 11/07/13 7.86 0
-13.31539 -70.30889 2013 11 8 11/08/13 8.66 0
-13.31539 -70.30889 2013 11 9 11/09/13 7.61 0.05
-13.31539 -70.30889 2013 11 10 11/10/13 7.15 0.1
-13.31539 -70.30889 2013 11 11 11/11/13 5.83 1.3
-13.31539 -70.30889 2013 11 12 11/12/13 3.71 35.31
-13.31539 -70.30889 2013 11 13 Err:502 5.35 8.51
-13.31539 -70.30889 2013 11 14 Err:502 4.08 0.05
-13.31539 -70.30889 2013 11 15 Err:502 8.02 0
-13.31539 -70.30889 2013 11 16 Err:502 3.45 6.45
-13.31539 -70.30889 2013 11 17 Err:502 4.39 1.11
-13.31539 -70.30889 2013 11 18 Err:502 5.79 0
-13.31539 -70.30889 2013 11 19 Err:502 6.17 0.33
-13.31539 -70.30889 2013 11 20 Err:502 3.17 5.04
-13.31539 -70.30889 2013 11 21 Err:502 3.11 15.03
-13.31539 -70.30889 2013 11 22 Err:502 3.55 3.59
-13.31539 -70.30889 2013 11 23 Err:502 7.78 1.12
-13.31539 -70.30889 2013 11 24 Err:502 7.34 0
-13.31539 -70.30889 2013 11 25 Err:502 7.46 0.13
-13.31539 -70.30889 2013 11 26 Err:502 7.35 0.09
-13.31539 -70.30889 2013 11 27 Err:502 5.32 0.41
-13.31539 -70.30889 2013 11 28 Err:502 5.25 8.97
-13.31539 -70.30889 2013 11 29 Err:502 4.39 0.62
-13.31539 -70.30889 2013 11 30 Err:502 5.06 4.31
-13.31539 -70.30889 2013 12 1 12/01/13 4.84 7.72
-13.31539 -70.30889 2013 12 2 12/02/13 3.52 14.45
-13.31539 -70.30889 2013 12 3 12/03/13 5.07 12.24
-13.31539 -70.30889 2013 12 4 12/04/13 3.75 1.99
-13.31539 -70.30889 2013 12 5 12/05/13 7.03 0.2
-13.31539 -70.30889 2013 12 6 12/06/13 4.34 2.97
-13.31539 -70.30889 2013 12 7 12/07/13 4.96 11.66
-13.31539 -70.30889 2013 12 8 12/08/13 4.07 7.36
-13.31539 -70.30889 2013 12 9 12/09/13 3.26 12.77
-13.31539 -70.30889 2013 12 10 12/10/13 4.58 14.05
-13.31539 -70.30889 2013 12 11 12/11/13 4.75 5.26
-13.31539 -70.30889 2013 12 12 12/12/13 3.73 12.96
-13.31539 -70.30889 2013 12 13 Err:502 4.49 0.96
-13.31539 -70.30889 2013 12 14 Err:502 3.51 43.9
-13.31539 -70.30889 2013 12 15 Err:502 5.18 9.64
-13.31539 -70.30889 2013 12 16 Err:502 5.48 3.56
-13.31539 -70.30889 2013 12 17 Err:502 2.92 12.34
-13.31539 -70.30889 2013 12 18 Err:502 3.87 12.57
-13.31539 -70.30889 2013 12 19 Err:502 2.64 18.64
-13.31539 -70.30889 2013 12 20 Err:502 3.11 33.91
-13.31539 -70.30889 2013 12 21 Err:502 5.98 2.43
-13.31539 -70.30889 2013 12 22 Err:502 5.54 2.75
-13.31539 -70.30889 2013 12 23 Err:502 6.25 8.66
-13.31539 -70.30889 2013 12 24 Err:502 7.27 3.68
-13.31539 -70.30889 2013 12 25 Err:502 6.95 6.56
-13.31539 -70.30889 2013 12 26 Err:502 7.81 0.02
-13.31539 -70.30889 2013 12 27 Err:502 4.31 8.02
-13.31539 -70.30889 2013 12 28 Err:502 5.75 1.34
-13.31539 -70.30889 2013 12 29 Err:502 4.98 2.36
-13.31539 -70.30889 2013 12 30 Err:502 5.09 1.3
-13.31539 -70.30889 2013 12 31 Err:502 4.25 0.87
-13.31539 -70.30889 2014 1 1 01/01/14 2.81 1.91
-13.31539 -70.30889 2014 1 2 01/02/14 4.57 10.72
-13.31539 -70.30889 2014 1 3 01/03/14 5.04 20.8
-13.31539 -70.30889 2014 1 4 01/04/14 3.19 32.15
-13.31539 -70.30889 2014 1 5 01/05/14 6.65 1.16
-13.31539 -70.30889 2014 1 6 01/06/14 5.26 24.3
-13.31539 -70.30889 2014 1 7 01/07/14 3.09 13.38
-13.31539 -70.30889 2014 1 8 01/08/14 5.87 10.13
-13.31539 -70.30889 2014 1 9 01/09/14 5.36 13.15
-13.31539 -70.30889 2014 1 10 01/10/14 6.09 15.98
-13.31539 -70.30889 2014 1 11 01/11/14 6.51 5.34
-13.31539 -70.30889 2014 1 12 01/12/14 4.01 20.8
-13.31539 -70.30889 2014 1 13 Err:502 5.27 2.17
-13.31539 -70.30889 2014 1 14 Err:502 6.65 1.23
-13.31539 -70.30889 2014 1 15 Err:502 5.5 7.68
-13.31539 -70.30889 2014 1 16 Err:502 5.32 24.9
-13.31539 -70.30889 2014 1 17 Err:502 4.6 2.28
-13.31539 -70.30889 2014 1 18 Err:502 3.78 6.57
-13.31539 -70.30889 2014 1 19 Err:502 4.65 15.04
-13.31539 -70.30889 2014 1 20 Err:502 5.37 2.06
-13.31539 -70.30889 2014 1 21 Err:502 4.38 5.19
-13.31539 -70.30889 2014 1 22 Err:502 4 38.48
-13.31539 -70.30889 2014 1 23 Err:502 2.67 15.55
-13.31539 -70.30889 2014 1 24 Err:502 5.45 1.7
-13.31539 -70.30889 2014 1 25 Err:502 3.76 37.69
-13.31539 -70.30889 2014 1 26 Err:502 3.62 70.72
-13.31539 -70.30889 2014 1 27 Err:502 4.58 8.1
-13.31539 -70.30889 2014 1 28 Err:502 3.99 8.12
-13.31539 -70.30889 2014 1 29 Err:502 2.62 39.32
-13.31539 -70.30889 2014 1 30 Err:502 4.42 10.54
-13.31539 -70.30889 2014 1 31 Err:502 2.53 24.02
-13.31539 -70.30889 2014 2 1 02/01/14 4.97 19.73
-13.31539 -70.30889 2014 2 2 02/02/14 4.45 14.24
-13.31539 -70.30889 2014 2 3 02/03/14 5.15 5.37
-13.31539 -70.30889 2014 2 4 02/04/14 3.17 23.61
-13.31539 -70.30889 2014 2 5 02/05/14 4.88 5.66
-13.31539 -70.30889 2014 2 6 02/06/14 5.16 0.47
-13.31539 -70.30889 2014 2 7 02/07/14 4.01 5.28
-13.31539 -70.30889 2014 2 8 02/08/14 3.08 8.61
-13.31539 -70.30889 2014 2 9 02/09/14 4.15 10.45
-13.31539 -70.30889 2014 2 10 02/10/14 4.13 8.93
-13.31539 -70.30889 2014 2 11 02/11/14 3.26 4.77
-13.31539 -70.30889 2014 2 12 02/12/14 4.89 55.24
-13.31539 -70.30889 2014 2 13 Err:502 5.78 31.31
-13.31539 -70.30889 2014 2 14 Err:502 2.86 32.84
-13.31539 -70.30889 2014 2 15 Err:502 2.52 7.99
-13.31539 -70.30889 2014 2 16 Err:502 5.22 2.1
-13.31539 -70.30889 2014 2 17 Err:502 4.08 7.06
-13.31539 -70.30889 2014 2 18 Err:502 6.49 2.71
-13.31539 -70.30889 2014 2 19 Err:502 7.23 1.13
-13.31539 -70.30889 2014 2 20 Err:502 3.08 0.93
-13.31539 -70.30889 2014 2 21 Err:502 2.91 14.19
-13.31539 -70.30889 2014 2 22 Err:502 3.2 10.35
-13.31539 -70.30889 2014 2 23 Err:502 5.12 3.8
-13.31539 -70.30889 2014 2 24 Err:502 4.72 5.15
-13.31539 -70.30889 2014 2 25 Err:502 6.45 1.43
-13.31539 -70.30889 2014 2 26 Err:502 2.85 1.28
-13.31539 -70.30889 2014 2 27 Err:502 4.11 0.06
-13.31539 -70.30889 2014 2 28 Err:502 4.08 0.4
-13.31539 -70.30889 2014 3 1 03/01/14 6.89 0.02
-13.31539 -70.30889 2014 3 2 03/02/14 5.17 0.43
-13.31539 -70.30889 2014 3 3 03/03/14 3.01 8.89
-13.31539 -70.30889 2014 3 4 03/04/14 3.13 7.21
-13.31539 -70.30889 2014 3 5 03/05/14 6.13 0.65
-13.31539 -70.30889 2014 3 6 03/06/14 6.18 0.17
-13.31539 -70.30889 2014 3 7 03/07/14 5.07 19.45
-13.31539 -70.30889 2014 3 8 03/08/14 4.34 11.29
-13.31539 -70.30889 2014 3 9 03/09/14 4.89 0.46
-13.31539 -70.30889 2014 3 10 03/10/14 6.2 0.22
-13.31539 -70.30889 2014 3 11 03/11/14 3.61 27.17
-13.31539 -70.30889 2014 3 12 03/12/14 3.28 18.96
-13.31539 -70.30889 2014 3 13 Err:502 5.66 0.5
-13.31539 -70.30889 2014 3 14 Err:502 4.08 0.7
-13.31539 -70.30889 2014 3 15 Err:502 3.31 7.01
-13.31539 -70.30889 2014 3 16 Err:502 2 16.14
-13.31539 -70.30889 2014 3 17 Err:502 5.73 3.09
-13.31539 -70.30889 2014 3 18 Err:502 2.79 3.27
-13.31539 -70.30889 2014 3 19 Err:502 2.79 6.01
-13.31539 -70.30889 2014 3 20 Err:502 5.86 3.26
-13.31539 -70.30889 2014 3 21 Err:502 3.71 12.09
-13.31539 -70.30889 2014 3 22 Err:502 4.27 3.56
-13.31539 -70.30889 2014 3 23 Err:502 3.86 3.24
-13.31539 -70.30889 2014 3 24 Err:502 6.76 0.06
-13.31539 -70.30889 2014 3 25 Err:502 7.21 0.98
-13.31539 -70.30889 2014 3 26 Err:502 4.21 2.01
-13.31539 -70.30889 2014 3 27 Err:502 6.02 1.94
-13.31539 -70.30889 2014 3 28 Err:502 5.95 0.83
-13.31539 -70.30889 2014 3 29 Err:502 5.93 0.1
-13.31539 -70.30889 2014 3 30 Err:502 3.83 1.31
-13.31539 -70.30889 2014 3 31 Err:502 4.13 1.73
-13.31539 -70.30889 2014 4 1 04/01/14 5.18 0.18
-13.31539 -70.30889 2014 4 2 04/02/14 6.91 0.21
-13.31539 -70.30889 2014 4 3 04/03/14 4.41 0.52
-13.31539 -70.30889 2014 4 4 04/04/14 3.51 11.09
-13.31539 -70.30889 2014 4 5 04/05/14 4.72 0.24
-13.31539 -70.30889 2014 4 6 04/06/14 7.14 0.14
-13.31539 -70.30889 2014 4 7 04/07/14 4.13 0.28
-13.31539 -70.30889 2014 4 8 04/08/14 5.66 0.16
-13.31539 -70.30889 2014 4 9 04/09/14 3.85 0.24
-13.31539 -70.30889 2014 4 10 04/10/14 4.94 0.51
-13.31539 -70.30889 2014 4 11 04/11/14 5.13 1.94
-13.31539 -70.30889 2014 4 12 04/12/14 5.89 0.38
-13.31539 -70.30889 2014 4 13 Err:502 4.23 4.5
-13.31539 -70.30889 2014 4 14 Err:502 4.59 1.6
-13.31539 -70.30889 2014 4 15 Err:502 6.42 0.08
-13.31539 -70.30889 2014 4 16 Err:502 7.66 0
-13.31539 -70.30889 2014 4 17 Err:502 6.75 0.15
-13.31539 -70.30889 2014 4 18 Err:502 5.82 0.01
-13.31539 -70.30889 2014 4 19 Err:502 4.32 0.89
-13.31539 -70.30889 2014 4 20 Err:502 5.48 21.86
-13.31539 -70.30889 2014 4 21 Err:502 3.54 9.69
-13.31539 -70.30889 2014 4 22 Err:502 6.22 0.4
-13.31539 -70.30889 2014 4 23 Err:502 5.98 0.02
-13.31539 -70.30889 2014 4 24 Err:502 5.78 1.18
-13.31539 -70.30889 2014 4 25 Err:502 5.44 3.29
-13.31539 -70.30889 2014 4 26 Err:502 4.4 0.72
-13.31539 -70.30889 2014 4 27 Err:502 6.39 0
-13.31539 -70.30889 2014 4 28 Err:502 7.08 0.21
-13.31539 -70.30889 2014 4 29 Err:502 4.57 5.11
-13.31539 -70.30889 2014 4 30 Err:502 4.83 3.39
-13.31539 -70.30889 2014 5 1 05/01/14 4.88 1.09
-13.31539 -70.30889 2014 5 2 05/02/14 4.09 0.9
-13.31539 -70.30889 2014 5 3 05/03/14 5.51 6.36
-13.31539 -70.30889 2014 5 4 05/04/14 5.42 1.1
-13.31539 -70.30889 2014 5 5 05/05/14 4.78 0.6
-13.31539 -70.30889 2014 5 6 05/06/14 3.88 13.66
-13.31539 -70.30889 2014 5 7 05/07/14 5.81 4.13
-13.31539 -70.30889 2014 5 8 05/08/14 5.19 18.98
-13.31539 -70.30889 2014 5 9 05/09/14 5.67 2.1
-13.31539 -70.30889 2014 5 10 05/10/14 6.21 2.23
-13.31539 -70.30889 2014 5 11 05/11/14 6.81 0.6
-13.31539 -70.30889 2014 5 12 05/12/14 5.08 21.96
-13.31539 -70.30889 2014 5 13 Err:502 5.24 1.75
-13.31539 -70.30889 2014 5 14 Err:502 5.26 0.23
-13.31539 -70.30889 2014 5 15 Err:502 5.78 1.98
-13.31539 -70.30889 2014 5 16 Err:502 3.95 0.97
-13.31539 -70.30889 2014 5 17 Err:502 3.59 0.46
-13.31539 -70.30889 2014 5 18 Err:502 5.28 0.61
-13.31539 -70.30889 2014 5 19 Err:502 4.78 0.1
-13.31539 -70.30889 2014 5 20 Err:502 4.68 0.35
-13.31539 -70.30889 2014 5 21 Err:502 4.94 0.1
-13.31539 -70.30889 2014 5 22 Err:502 3.4 3.26
-13.31539 -70.30889 2014 5 23 Err:502 5.58 5.37
-13.31539 -70.30889 2014 5 24 Err:502 4.1 3.83
-13.31539 -70.30889 2014 5 25 Err:502 9.46 0.46
-13.31539 -70.30889 2014 5 26 Err:502 7.25 0.18
-13.31539 -70.30889 2014 5 27 Err:502 7.72 0
-13.31539 -70.30889 2014 5 28 Err:502 7.06 0
-13.31539 -70.30889 2014 5 29 Err:502 7.38 0
-13.31539 -70.30889 2014 5 30 Err:502 7.14 1.31
-13.31539 -70.30889 2014 5 31 Err:502 6.22 2.38
-13.31539 -70.30889 2014 6 1 06/01/14 4.77 1.72
-13.31539 -70.30889 2014 6 2 06/02/14 3.52 1.81
-13.31539 -70.30889 2014 6 3 06/03/14 4.95 0.54
-13.31539 -70.30889 2014 6 4 06/04/14 5.22 5.42
-13.31539 -70.30889 2014 6 5 06/05/14 5.42 1.65
-13.31539 -70.30889 2014 6 6 06/06/14 5.83 0.12
-13.31539 -70.30889 2014 6 7 06/07/14 6.76 0
-13.31539 -70.30889 2014 6 8 06/08/14 5.96 0.01
-13.31539 -70.30889 2014 6 9 06/09/14 4.9 19.18
-13.31539 -70.30889 2014 6 10 06/10/14 3.77 9.21
-13.31539 -70.30889 2014 6 11 06/11/14 6.06 0.09
-13.31539 -70.30889 2014 6 12 06/12/14 6.52 0
-13.31539 -70.30889 2014 6 13 Err:502 4.49 0
-13.31539 -70.30889 2014 6 14 Err:502 5.11 15.8
-13.31539 -70.30889 2014 6 15 Err:502 3.97 1.04
-13.31539 -70.30889 2014 6 16 Err:502 6.53 0.02
-13.31539 -70.30889 2014 6 17 Err:502 6.55 0
-13.31539 -70.30889 2014 6 18 Err:502 6.64 0
-13.31539 -70.30889 2014 6 19 Err:502 6.78 0
-13.31539 -70.30889 2014 6 20 Err:502 7.42 0
-13.31539 -70.30889 2014 6 21 Err:502 3.93 0
-13.31539 -70.30889 2014 6 22 Err:502 7.38 0
-13.31539 -70.30889 2014 6 23 Err:502 6.86 0
-13.31539 -70.30889 2014 6 24 Err:502 5.24 0.03
-13.31539 -70.30889 2014 6 25 Err:502 3.59 2.78
-13.31539 -70.30889 2014 6 26 Err:502 4.28 2.12
-13.31539 -70.30889 2014 6 27 Err:502 5.22 1.39
-13.31539 -70.30889 2014 6 28 Err:502 4.95 0.73
-13.31539 -70.30889 2014 6 29 Err:502 5.89 0
-13.31539 -70.30889 2014 6 30 Err:502 8.5 0
-13.31539 -70.30889 2014 7 1 07/01/14 8.27 0
-13.31539 -70.30889 2014 7 2 07/02/14 7.54 0
-13.31539 -70.30889 2014 7 3 07/03/14 7.33 0
-13.31539 -70.30889 2014 7 4 07/04/14 5.98 0.01
-13.31539 -70.30889 2014 7 5 07/05/14 4.85 1.47
-13.31539 -70.30889 2014 7 6 07/06/14 5.03 7.47
-13.31539 -70.30889 2014 7 7 07/07/14 4.38 13.75
-13.31539 -70.30889 2014 7 8 07/08/14 4.72 0.33
-13.31539 -70.30889 2014 7 9 07/09/14 7.18 0
-13.31539 -70.30889 2014 7 10 07/10/14 6.07 0
-13.31539 -70.30889 2014 7 11 07/11/14 7.28 0
-13.31539 -70.30889 2014 7 12 07/12/14 7.1 0
-13.31539 -70.30889 2014 7 13 Err:502 7.69 0
-13.31539 -70.30889 2014 7 14 Err:502 8.46 0
-13.31539 -70.30889 2014 7 15 Err:502 7.36 0
-13.31539 -70.30889 2014 7 16 Err:502 5.88 0
-13.31539 -70.30889 2014 7 17 Err:502 6.37 0
-13.31539 -70.30889 2014 7 18 Err:502 5.34 15.25
-13.31539 -70.30889 2014 7 19 Err:502 5.92 7.06
-13.31539 -70.30889 2014 7 20 Err:502 7.6 0.08
-13.31539 -70.30889 2014 7 21 Err:502 8.36 0
-13.31539 -70.30889 2014 7 22 Err:502 7.57 0.46
-13.31539 -70.30889 2014 7 23 Err:502 5.44 3.7
-13.31539 -70.30889 2014 7 24 Err:502 6.28 3.64
-13.31539 -70.30889 2014 7 25 Err:502 6.17 11.61
-13.31539 -70.30889 2014 7 26 Err:502 8.22 0.11
-13.31539 -70.30889 2014 7 27 Err:502 6.77 0
-13.31539 -70.30889 2014 7 28 Err:502 8.16 0
-13.31539 -70.30889 2014 7 29 Err:502 7.86 0
-13.31539 -70.30889 2014 7 30 Err:502 6.03 0.05
-13.31539 -70.30889 2014 7 31 Err:502 8.5 0
-13.31539 -70.30889 2014 8 1 08/01/14 6.69 0
-13.31539 -70.30889 2014 8 2 08/02/14 5.46 0
-13.31539 -70.30889 2014 8 3 08/03/14 8.68 0
-13.31539 -70.30889 2014 8 4 08/04/14 6.85 0
-13.31539 -70.30889 2014 8 5 08/05/14 7.32 0
-13.31539 -70.30889 2014 8 6 08/06/14 7.71 0
-13.31539 -70.30889 2014 8 7 08/07/14 5.22 6.81
-13.31539 -70.30889 2014 8 8 08/08/14 3.91 37.2
-13.31539 -70.30889 2014 8 9 08/09/14 6.62 0.05
-13.31539 -70.30889 2014 8 10 08/10/14 8.16 0.76
-13.31539 -70.30889 2014 8 11 08/11/14 7.07 0.31
-13.31539 -70.30889 2014 8 12 08/12/14 6.75 0.22
-13.31539 -70.30889 2014 8 13 Err:502 4.6 15.96
-13.31539 -70.30889 2014 8 14 Err:502 5.55 0.3
-13.31539 -70.30889 2014 8 15 Err:502 8.16 0.16
-13.31539 -70.30889 2014 8 16 Err:502 9.07 0.01
-13.31539 -70.30889 2014 8 17 Err:502 8.68 0.18
-13.31539 -70.30889 2014 8 18 Err:502 7.68 0.03
-13.31539 -70.30889 2014 8 19 Err:502 8.79 0
-13.31539 -70.30889 2014 8 20 Err:502 9.73 0
-13.31539 -70.30889 2014 8 21 Err:502 9.05 0
-13.31539 -70.30889 2014 8 22 Err:502 9.96 0
-13.31539 -70.30889 2014 8 23 Err:502 9.88 0
-13.31539 -70.30889 2014 8 24 Err:502 10.43 0
-13.31539 -70.30889 2014 8 25 Err:502 9.52 0.42
-13.31539 -70.30889 2014 8 26 Err:502 4.72 22.31
-13.31539 -70.30889 2014 8 27 Err:502 6.91 1.94
-13.31539 -70.30889 2014 8 28 Err:502 8.33 0
-13.31539 -70.30889 2014 8 29 Err:502 9.23 0.08
-13.31539 -70.30889 2014 8 30 Err:502 9.28 0
-13.31539 -70.30889 2014 8 31 Err:502 9.57 0.33
-13.31539 -70.30889 2014 9 1 09/01/14 10.27 0.35
-13.31539 -70.30889 2014 9 2 09/02/14 9.48 0.19
-13.31539 -70.30889 2014 9 3 09/03/14 9.18 0.12
-13.31539 -70.30889 2014 9 4 09/04/14 5.83 19
-13.31539 -70.30889 2014 9 5 09/05/14 7.21 1.92
-13.31539 -70.30889 2014 9 6 09/06/14 9.22 1.11
-13.31539 -70.30889 2014 9 7 09/07/14 8.51 0.25
-13.31539 -70.30889 2014 9 8 09/08/14 11.01 0.01
-13.31539 -70.30889 2014 9 9 09/09/14 10.75 0
-13.31539 -70.30889 2014 9 10 09/10/14 7.75 0.2
-13.31539 -70.30889 2014 9 11 09/11/14 4.76 3.15
-13.31539 -70.30889 2014 9 12 09/12/14 4.92 12.5
-13.31539 -70.30889 2014 9 13 Err:502 8.52 1.19
-13.31539 -70.30889 2014 9 14 Err:502 9.22 1.22
-13.31539 -70.30889 2014 9 15 Err:502 7.04 10.89
-13.31539 -70.30889 2014 9 16 Err:502 6.67 3
-13.31539 -70.30889 2014 9 17 Err:502 9.45 0
-13.31539 -70.30889 2014 9 18 Err:502 7.28 0.06
-13.31539 -70.30889 2014 9 19 Err:502 4.33 0.02
-13.31539 -70.30889 2014 9 20 Err:502 6.8 5.54
-13.31539 -70.30889 2014 9 21 Err:502 5.17 15.56
-13.31539 -70.30889 2014 9 22 Err:502 9.44 0.51
-13.31539 -70.30889 2014 9 23 Err:502 9.83 0.27
-13.31539 -70.30889 2014 9 24 Err:502 7.99 0.07
-13.31539 -70.30889 2014 9 25 Err:502 6.19 0.05
-13.31539 -70.30889 2014 9 26 Err:502 6.4 0.06
-13.31539 -70.30889 2014 9 27 Err:502 4.87 0.44
-13.31539 -70.30889 2014 9 28 Err:502 6.85 5.82
-13.31539 -70.30889 2014 9 29 Err:502 6.39 0.66
-13.31539 -70.30889 2014 9 30 Err:502 9.31 2.53
-13.31539 -70.30889 2014 10 1 10/01/14 8.82 0.49
-13.31539 -70.30889 2014 10 2 10/02/14 9.55 0.94
-13.31539 -70.30889 2014 10 3 10/03/14 8.56 0.03
-13.31539 -70.30889 2014 10 4 10/04/14 7.35 1.51
-13.31539 -70.30889 2014 10 5 10/05/14 9.09 0.39
-13.31539 -70.30889 2014 10 6 10/06/14 8.37 0.04
-13.31539 -70.30889 2014 10 7 10/07/14 7.18 4.61
-13.31539 -70.30889 2014 10 8 10/08/14 7.38 11.44
-13.31539 -70.30889 2014 10 9 10/09/14 9.55 3.41
-13.31539 -70.30889 2014 10 10 10/10/14 6.58 0
-13.31539 -70.30889 2014 10 11 10/11/14 7.56 20.96
-13.31539 -70.30889 2014 10 12 10/12/14 8.95 0.23
-13.31539 -70.30889 2014 10 13 Err:502 9.66 0
-13.31539 -70.30889 2014 10 14 Err:502 10.38 0.05
-13.31539 -70.30889 2014 10 15 Err:502 10.53 0.02
-13.31539 -70.30889 2014 10 16 Err:502 10.75 0
-13.31539 -70.30889 2014 10 17 Err:502 10.65 0
-13.31539 -70.30889 2014 10 18 Err:502 7.8 0.97
-13.31539 -70.30889 2014 10 19 Err:502 9.56 3.37
-13.31539 -70.30889 2014 10 20 Err:502 7.28 17.69
-13.31539 -70.30889 2014 10 21 Err:502 9.01 2.51
-13.31539 -70.30889 2014 10 22 Err:502 10.51 0.42
-13.31539 -70.30889 2014 10 23 Err:502 8.11 1
-13.31539 -70.30889 2014 10 24 Err:502 9.94 3.4
-13.31539 -70.30889 2014 10 25 Err:502 8.65 1.13
-13.31539 -70.30889 2014 10 26 Err:502 11.21 0.05
-13.31539 -70.30889 2014 10 27 Err:502 7.48 0.42
-13.31539 -70.30889 2014 10 28 Err:502 6.66 2.92
-13.31539 -70.30889 2014 10 29 Err:502 8.19 2.34
-13.31539 -70.30889 2014 10 30 Err:502 6.71 24.83
-13.31539 -70.30889 2014 10 31 Err:502 2.97 34.19
-13.31539 -70.30889 2014 11 1 11/01/14 6.17 4.72
-13.31539 -70.30889 2014 11 2 11/02/14 5.67 0.81
-13.31539 -70.30889 2014 11 3 11/03/14 4.65 6.06
-13.31539 -70.30889 2014 11 4 11/04/14 4.28 30.03
-13.31539 -70.30889 2014 11 5 11/05/14 5.1 9.9
-13.31539 -70.30889 2014 11 6 11/06/14 5.28 0.25
-13.31539 -70.30889 2014 11 7 11/07/14 5.22 0
-13.31539 -70.30889 2014 11 8 11/08/14 7.13 0
-13.31539 -70.30889 2014 11 9 11/09/14 3.99 0.95
-13.31539 -70.30889 2014 11 10 11/10/14 4.15 41.98
-13.31539 -70.30889 2014 11 11 11/11/14 5.08 8.94
-13.31539 -70.30889 2014 11 12 11/12/14 3.14 11.62
-13.31539 -70.30889 2014 11 13 Err:502 6.22 27.86
-13.31539 -70.30889 2014 11 14 Err:502 5.38 1.12
-13.31539 -70.30889 2014 11 15 Err:502 5.51 0
-13.31539 -70.30889 2014 11 16 Err:502 7.27 0.31
-13.31539 -70.30889 2014 11 17 Err:502 7.36 0.02
-13.31539 -70.30889 2014 11 18 Err:502 6.31 0.48
-13.31539 -70.30889 2014 11 19 Err:502 5.18 0.51
-13.31539 -70.30889 2014 11 20 Err:502 3.43 9.82
-13.31539 -70.30889 2014 11 21 Err:502 3.86 12.62
-13.31539 -70.30889 2014 11 22 Err:502 5.69 1.55
-13.31539 -70.30889 2014 11 23 Err:502 3.77 12.81
-13.31539 -70.30889 2014 11 24 Err:502 4.18 22.39
-13.31539 -70.30889 2014 11 25 Err:502 5.95 6.03
-13.31539 -70.30889 2014 11 26 Err:502 4.82 0.56
-13.31539 -70.30889 2014 11 27 Err:502 4.14 13.82
-13.31539 -70.30889 2014 11 28 Err:502 6.2 0.68
-13.31539 -70.30889 2014 11 29 Err:502 6.89 0
-13.31539 -70.30889 2014 11 30 Err:502 5.85 0.17
-13.31539 -70.30889 2014 12 1 12/01/14 2.69 2.13
-13.31539 -70.30889 2014 12 2 12/02/14 3.44 4.19
-13.31539 -70.30889 2014 12 3 12/03/14 3.77 15.41
-13.31539 -70.30889 2014 12 4 12/04/14 6.16 1.17
-13.31539 -70.30889 2014 12 5 12/05/14 7.87 0.07
-13.31539 -70.30889 2014 12 6 12/06/14 7.16 1.04
-13.31539 -70.30889 2014 12 7 12/07/14 6.29 9.19
-13.31539 -70.30889 2014 12 8 12/08/14 4.95 5.25
-13.31539 -70.30889 2014 12 9 12/09/14 6.18 1.94
-13.31539 -70.30889 2014 12 10 12/10/14 5.58 0.1
-13.31539 -70.30889 2014 12 11 12/11/14 3.12 11.15
-13.31539 -70.30889 2014 12 12 12/12/14 5.87 2.51
-13.31539 -70.30889 2014 12 13 Err:502 6.32 0.25
-13.31539 -70.30889 2014 12 14 Err:502 3.5 5.13
-13.31539 -70.30889 2014 12 15 Err:502 5.16 1.68
-13.31539 -70.30889 2014 12 16 Err:502 6.12 7.53
-13.31539 -70.30889 2014 12 17 Err:502 4.42 3.83
-13.31539 -70.30889 2014 12 18 Err:502 3.07 18.74
-13.31539 -70.30889 2014 12 19 Err:502 4.11 19.08
-13.31539 -70.30889 2014 12 20 Err:502 4.94 6.33
-13.31539 -70.30889 2014 12 21 Err:502 5.22 1.17
-13.31539 -70.30889 2014 12 22 Err:502 4.47 0.87
-13.31539 -70.30889 2014 12 23 Err:502 4.17 5.15
-13.31539 -70.30889 2014 12 24 Err:502 6.63 1.13
-13.31539 -70.30889 2014 12 25 Err:502 7.21 0.61
-13.31539 -70.30889 2014 12 26 Err:502 4.07 6.93
-13.31539 -70.30889 2014 12 27 Err:502 4.03 3.94
-13.31539 -70.30889 2014 12 28 Err:502 3.97 5.02
-13.31539 -70.30889 2014 12 29 Err:502 6.05 3.07
-13.31539 -70.30889 2014 12 30 Err:502 4.61 3.31
-13.31539 -70.30889 2014 12 31 Err:502 4.72 4.34
-13.31539 -70.30889 2015 1 1 01/01/15 5.72 4.14
-13.31539 -70.30889 2015 1 2 01/02/15 4.39 3.2
-13.31539 -70.30889 2015 1 3 01/03/15 3.51 3.72
-13.31539 -70.30889 2015 1 4 01/04/15 3.44 0.77
-13.31539 -70.30889 2015 1 5 01/05/15 7.2 4.75
-13.31539 -70.30889 2015 1 6 01/06/15 5.49 2.92
-13.31539 -70.30889 2015 1 7 01/07/15 7.76 0.1
-13.31539 -70.30889 2015 1 8 01/08/15 4.02 11.16
-13.31539 -70.30889 2015 1 9 01/09/15 7.38 0.52
-13.31539 -70.30889 2015 1 10 01/10/15 6.28 5.51
-13.31539 -70.30889 2015 1 11 01/11/15 5.95 15.65
-13.31539 -70.30889 2015 1 12 01/12/15 3.61 30.49
-13.31539 -70.30889 2015 1 13 Err:502 5.59 13.59
-13.31539 -70.30889 2015 1 14 Err:502 4.3 1.21
-13.31539 -70.30889 2015 1 15 Err:502 5.16 3.29
-13.31539 -70.30889 2015 1 16 Err:502 3.57 6.96
-13.31539 -70.30889 2015 1 17 Err:502 3.02 27.58
-13.31539 -70.30889 2015 1 18 Err:502 4.41 9.6
-13.31539 -70.30889 2015 1 19 Err:502 4.1 12.17
-13.31539 -70.30889 2015 1 20 Err:502 4.15 11.59
-13.31539 -70.30889 2015 1 21 Err:502 5.4 14.31
-13.31539 -70.30889 2015 1 22 Err:502 5.18 6.05
-13.31539 -70.30889 2015 1 23 Err:502 6.15 1.55
-13.31539 -70.30889 2015 1 24 Err:502 4.04 5.77
-13.31539 -70.30889 2015 1 25 Err:502 6.28 6.75
-13.31539 -70.30889 2015 1 26 Err:502 4.82 20.07
-13.31539 -70.30889 2015 1 27 Err:502 3.69 22.94
-13.31539 -70.30889 2015 1 28 Err:502 5.2 2.27
-13.31539 -70.30889 2015 1 29 Err:502 4.41 5.03
-13.31539 -70.30889 2015 1 30 Err:502 3.32 45.68
-13.31539 -70.30889 2015 1 31 Err:502 4.87 10.35
-13.31539 -70.30889 2015 2 1 02/01/15 7.41 1.04
-13.31539 -70.30889 2015 2 2 02/02/15 7.17 0.03
-13.31539 -70.30889 2015 2 3 02/03/15 6.25 0
-13.31539 -70.30889 2015 2 4 02/04/15 5.05 0
-13.31539 -70.30889 2015 2 5 02/05/15 3.95 0
-13.31539 -70.30889 2015 2 6 02/06/15 3.87 0.31
-13.31539 -70.30889 2015 2 7 02/07/15 3.86 3.38
-13.31539 -70.30889 2015 2 8 02/08/15 5.32 19.6
-13.31539 -70.30889 2015 2 9 02/09/15 5.6 11.79
-13.31539 -70.30889 2015 2 10 02/10/15 4.32 5.74
-13.31539 -70.30889 2015 2 11 02/11/15 3.79 5.09
-13.31539 -70.30889 2015 2 12 02/12/15 5.16 1.37
-13.31539 -70.30889 2015 2 13 Err:502 4.05 2.36
-13.31539 -70.30889 2015 2 14 Err:502 3.56 0.44
-13.31539 -70.30889 2015 2 15 Err:502 4.63 4.05
-13.31539 -70.30889 2015 2 16 Err:502 5.57 3.36
-13.31539 -70.30889 2015 2 17 Err:502 4.16 5.44
-13.31539 -70.30889 2015 2 18 Err:502 2.87 69.53
-13.31539 -70.30889 2015 2 19 Err:502 6.51 15.47
-13.31539 -70.30889 2015 2 20 Err:502 4.87 80.44
-13.31539 -70.30889 2015 2 21 Err:502 2.86 11.38
-13.31539 -70.30889 2015 2 22 Err:502 6.82 1.54
-13.31539 -70.30889 2015 2 23 Err:502 3.39 25.16
-13.31539 -70.30889 2015 2 24 Err:502 6.84 4.72
-13.31539 -70.30889 2015 2 25 Err:502 5.94 2.74
-13.31539 -70.30889 2015 2 26 Err:502 5.33 14.23
-13.31539 -70.30889 2015 2 27 Err:502 3.75 12.89
-13.31539 -70.30889 2015 2 28 Err:502 3.7 11.45
-13.31539 -70.30889 2015 3 1 03/01/15 5.27 2.94
-13.31539 -70.30889 2015 3 2 03/02/15 5.46 0.29
-13.31539 -70.30889 2015 3 3 03/03/15 4.44 2.11
-13.31539 -70.30889 2015 3 4 03/04/15 4.6 6.87
-13.31539 -70.30889 2015 3 5 03/05/15 3.78 5.33
-13.31539 -70.30889 2015 3 6 03/06/15 4.57 1.8
-13.31539 -70.30889 2015 3 7 03/07/15 6.45 0.65
-13.31539 -70.30889 2015 3 8 03/08/15 3.18 1.27
-13.31539 -70.30889 2015 3 9 03/09/15 6.89 0.35
-13.31539 -70.30889 2015 3 10 03/10/15 3.95 2.19
-13.31539 -70.30889 2015 3 11 03/11/15 4.62 0.3
-13.31539 -70.30889 2015 3 12 03/12/15 4.61 0.69
-13.31539 -70.30889 2015 3 13 Err:502 5.35 1.58
-13.31539 -70.30889 2015 3 14 Err:502 3.82 2.36
-13.31539 -70.30889 2015 3 15 Err:502 3.23 2.34
-13.31539 -70.30889 2015 3 16 Err:502 5.39 0.39
-13.31539 -70.30889 2015 3 17 Err:502 5.25 0.2
-13.31539 -70.30889 2015 3 18 Err:502 4.84 6.66
-13.31539 -70.30889 2015 3 19 Err:502 5.31 0.66
-13.31539 -70.30889 2015 3 20 Err:502 6.39 2.11
-13.31539 -70.30889 2015 3 21 Err:502 7.13 1.24
-13.31539 -70.30889 2015 3 22 Err:502 6.32 0.15
-13.31539 -70.30889 2015 3 23 Err:502 6.4 0.08
-13.31539 -70.30889 2015 3 24 Err:502 6.04 0.61
-13.31539 -70.30889 2015 3 25 Err:502 6.8 3.12
-13.31539 -70.30889 2015 3 26 Err:502 4.94 0.38
-13.31539 -70.30889 2015 3 27 Err:502 4.11 1.7
-13.31539 -70.30889 2015 3 28 Err:502 4.26 2.66
-13.31539 -70.30889 2015 3 29 Err:502 6.08 0.08
-13.31539 -70.30889 2015 3 30 Err:502 4.57 0.13
-13.31539 -70.30889 2015 3 31 Err:502 4.12 30.84
-13.31539 -70.30889 2015 4 1 04/01/15 6.49 1.56
-13.31539 -70.30889 2015 4 2 04/02/15 6.39 1.06
-13.31539 -70.30889 2015 4 3 04/03/15 6.37 2.19
-13.31539 -70.30889 2015 4 4 04/04/15 4.28 0.94
-13.31539 -70.30889 2015 4 5 04/05/15 3.27 6.36
-13.31539 -70.30889 2015 4 6 04/06/15 3.1 41.44
-13.31539 -70.30889 2015 4 7 04/07/15 5.23 6.01
-13.31539 -70.30889 2015 4 8 04/08/15 7.22 2.84
-13.31539 -70.30889 2015 4 9 04/09/15 6.58 2.35
-13.31539 -70.30889 2015 4 10 04/10/15 4.97 2.56
-13.31539 -70.30889 2015 4 11 04/11/15 4.33 0.76
-13.31539 -70.30889 2015 4 12 04/12/15 6.61 1.06
-13.31539 -70.30889 2015 4 13 Err:502 6.54 0.98
-13.31539 -70.30889 2015 4 14 Err:502 4.54 3.01
-13.31539 -70.30889 2015 4 15 Err:502 5.02 1.21
-13.31539 -70.30889 2015 4 16 Err:502 5.1 13.49
-13.31539 -70.30889 2015 4 17 Err:502 3.42 17.83
-13.31539 -70.30889 2015 4 18 Err:502 4.31 1.51
-13.31539 -70.30889 2015 4 19 Err:502 5.85 0.51
-13.31539 -70.30889 2015 4 20 Err:502 5.36 31.57
-13.31539 -70.30889 2015 4 21 Err:502 4.36 14.36
-13.31539 -70.30889 2015 4 22 Err:502 4.62 0.31
-13.31539 -70.30889 2015 4 23 Err:502 5.24 0.2
-13.31539 -70.30889 2015 4 24 Err:502 6.48 1.09
-13.31539 -70.30889 2015 4 25 Err:502 6.01 1.18
-13.31539 -70.30889 2015 4 26 Err:502 5.31 0
-13.31539 -70.30889 2015 4 27 Err:502 5.89 0.85
-13.31539 -70.30889 2015 4 28 Err:502 2.86 1.03
-13.31539 -70.30889 2015 4 29 Err:502 5.51 0.97
-13.31539 -70.30889 2015 4 30 Err:502 5.91 0.81
-13.31539 -70.30889 2015 5 1 05/01/15 6.56 0.32
-13.31539 -70.30889 2015 5 2 05/02/15 3.35 0.15
-13.31539 -70.30889 2015 5 3 05/03/15 4.68 0.11
-13.31539 -70.30889 2015 5 4 05/04/15 4.89 2.8
-13.31539 -70.30889 2015 5 5 05/05/15 4.17 5.19
-13.31539 -70.30889 2015 5 6 05/06/15 5.4 11.26
-13.31539 -70.30889 2015 5 7 05/07/15 3.48 15.31
-13.31539 -70.30889 2015 5 8 05/08/15 5.76 0.84
-13.31539 -70.30889 2015 5 9 05/09/15 6.12 0
-13.31539 -70.30889 2015 5 10 05/10/15 5.94 1.4
-13.31539 -70.30889 2015 5 11 05/11/15 3.07 20.98
-13.31539 -70.30889 2015 5 12 05/12/15 4.89 0.72
-13.31539 -70.30889 2015 5 13 Err:502 4.81 0.09
-13.31539 -70.30889 2015 5 14 Err:502 4.19 5.63
-13.31539 -70.30889 2015 5 15 Err:502 2.94 6.35
-13.31539 -70.30889 2015 5 16 Err:502 3.08 15.41
-13.31539 -70.30889 2015 5 17 Err:502 6.9 1.91
-13.31539 -70.30889 2015 5 18 Err:502 6.56 0.22
-13.31539 -70.30889 2015 5 19 Err:502 6.05 0.01
-13.31539 -70.30889 2015 5 20 Err:502 5.78 3.76
-13.31539 -70.30889 2015 5 21 Err:502 6.69 2.5
-13.31539 -70.30889 2015 5 22 Err:502 4.94 3.91
-13.31539 -70.30889 2015 5 23 Err:502 4 3.64
-13.31539 -70.30889 2015 5 24 Err:502 5.73 0.63
-13.31539 -70.30889 2015 5 25 Err:502 4.39 0.32
-13.31539 -70.30889 2015 5 26 Err:502 4.53 0
-13.31539 -70.30889 2015 5 27 Err:502 4.68 3.58
-13.31539 -70.30889 2015 5 28 Err:502 2.75 47.1
-13.31539 -70.30889 2015 5 29 Err:502 6.27 2.91
-13.31539 -70.30889 2015 5 30 Err:502 6.29 0.01
-13.31539 -70.30889 2015 5 31 Err:502 5.08 1.15
-13.31539 -70.30889 2015 6 1 06/01/15 4.19 7.34
-13.31539 -70.30889 2015 6 2 06/02/15 4.22 3.74
-13.31539 -70.30889 2015 6 3 06/03/15 5.63 0.08
-13.31539 -70.30889 2015 6 4 06/04/15 4.44 0.13
-13.31539 -70.30889 2015 6 5 06/05/15 5.77 0.03
-13.31539 -70.30889 2015 6 6 06/06/15 6.88 0
-13.31539 -70.30889 2015 6 7 06/07/15 6.99 0
-13.31539 -70.30889 2015 6 8 06/08/15 5.85 0
-13.31539 -70.30889 2015 6 9 06/09/15 3.64 3.11
-13.31539 -70.30889 2015 6 10 06/10/15 2.86 6.76
-13.31539 -70.30889 2015 6 11 06/11/15 5.03 3.29
-13.31539 -70.30889 2015 6 12 06/12/15 5.53 1.72
-13.31539 -70.30889 2015 6 13 Err:502 5.84 0.94
-13.31539 -70.30889 2015 6 14 Err:502 5.23 0.84
-13.31539 -70.30889 2015 6 15 Err:502 4.3 9.1
-13.31539 -70.30889 2015 6 16 Err:502 5.02 6.32
-13.31539 -70.30889 2015 6 17 Err:502 6.75 0
-13.31539 -70.30889 2015 6 18 Err:502 4.09 0
-13.31539 -70.30889 2015 6 19 Err:502 4.09 0
-13.31539 -70.30889 2015 6 20 Err:502 7.42 0
-13.31539 -70.30889 2015 6 21 Err:502 8.21 0
-13.31539 -70.30889 2015 6 22 Err:502 6.97 0
-13.31539 -70.30889 2015 6 23 Err:502 7.75 0
-13.31539 -70.30889 2015 6 24 Err:502 8.51 0
-13.31539 -70.30889 2015 6 25 Err:502 6.85 1.23
-13.31539 -70.30889 2015 6 26 Err:502 6.28 0.53
-13.31539 -70.30889 2015 6 27 Err:502 6.54 0.02
-13.31539 -70.30889 2015 6 28 Err:502 5.74 0.01
-13.31539 -70.30889 2015 6 29 Err:502 6.35 0.02
-13.31539 -70.30889 2015 6 30 Err:502 5.86 0.14
-13.31539 -70.30889 2015 7 1 07/01/15 4.69 0.26
-13.31539 -70.30889 2015 7 2 07/02/15 4.74 0.06
-13.31539 -70.30889 2015 7 3 07/03/15 5.91 1.55
-13.31539 -70.30889 2015 7 4 07/04/15 5.6 25.83
-13.31539 -70.30889 2015 7 5 07/05/15 6.14 2.26
-13.31539 -70.30889 2015 7 6 07/06/15 8.01 0.03
-13.31539 -70.30889 2015 7 7 07/07/15 9.62 0.06
-13.31539 -70.30889 2015 7 8 07/08/15 4.77 0.07
-13.31539 -70.30889 2015 7 9 07/09/15 6.35 0
-13.31539 -70.30889 2015 7 10 07/10/15 6.76 0
-13.31539 -70.30889 2015 7 11 07/11/15 6.4 0
-13.31539 -70.30889 2015 7 12 07/12/15 6.34 0.46
-13.31539 -70.30889 2015 7 13 Err:502 6.47 0.11
-13.31539 -70.30889 2015 7 14 Err:502 5.79 0
-13.31539 -70.30889 2015 7 15 Err:502 6.71 0
-13.31539 -70.30889 2015 7 16 Err:502 3.36 0
-13.31539 -70.30889 2015 7 17 Err:502 6.77 0
-13.31539 -70.30889 2015 7 18 Err:502 7.04 0
-13.31539 -70.30889 2015 7 19 Err:502 6.87 0
-13.31539 -70.30889 2015 7 20 Err:502 7.03 0
-13.31539 -70.30889 2015 7 21 Err:502 6.46 0
-13.31539 -70.30889 2015 7 22 Err:502 6.57 0
-13.31539 -70.30889 2015 7 23 Err:502 7.61 0
-13.31539 -70.30889 2015 7 24 Err:502 5.01 0
-13.31539 -70.30889 2015 7 25 Err:502 6.27 0
-13.31539 -70.30889 2015 7 26 Err:502 6.81 0
-13.31539 -70.30889 2015 7 27 Err:502 7.03 0
-13.31539 -70.30889 2015 7 28 Err:502 4.53 0
-13.31539 -70.30889 2015 7 29 Err:502 7.24 0
-13.31539 -70.30889 2015 7 30 Err:502 8.01 0
-13.31539 -70.30889 2015 7 31 Err:502 6.27 0
-13.31539 -70.30889 2015 8 1 08/01/15 6.49 0
-13.31539 -70.30889 2015 8 2 08/02/15 7.22 0
-13.31539 -70.30889 2015 8 3 08/03/15 6.89 0
-13.31539 -70.30889 2015 8 4 08/04/15 5.04 1.05
-13.31539 -70.30889 2015 8 5 08/05/15 6.63 3.25
-13.31539 -70.30889 2015 8 6 08/06/15 8.06 0.45
-13.31539 -70.30889 2015 8 7 08/07/15 5.88 0
-13.31539 -70.30889 2015 8 8 08/08/15 6.73 0.02
-13.31539 -70.30889 2015 8 9 08/09/15 4.43 11.6
-13.31539 -70.30889 2015 8 10 08/10/15 4.2 42.37
-13.31539 -70.30889 2015 8 11 08/11/15 8.5 2.34
-13.31539 -70.30889 2015 8 12 08/12/15 7.87 0.95
-13.31539 -70.30889 2015 8 13 Err:502 5.1 0.82
-13.31539 -70.30889 2015 8 14 Err:502 8.15 0.05
-13.31539 -70.30889 2015 8 15 Err:502 7.81 0
-13.31539 -70.30889 2015 8 16 Err:502 7.03 0.02
-13.31539 -70.30889 2015 8 17 Err:502 3.83 0.02
-13.31539 -70.30889 2015 8 18 Err:502 7.83 0.01
-13.31539 -70.30889 2015 8 19 Err:502 7.4 0
-13.31539 -70.30889 2015 8 20 Err:502 5.65 0
-13.31539 -70.30889 2015 8 21 Err:502 8.03 0
-13.31539 -70.30889 2015 8 22 Err:502 7.83 0
-13.31539 -70.30889 2015 8 23 Err:502 7.6 0.07
-13.31539 -70.30889 2015 8 24 Err:502 4.51 0.1
-13.31539 -70.30889 2015 8 25 Err:502 6.76 0
-13.31539 -70.30889 2015 8 26 Err:502 7.29 9.88
-13.31539 -70.30889 2015 8 27 Err:502 3.9 25.49
-13.31539 -70.30889 2015 8 28 Err:502 8.65 0.01
-13.31539 -70.30889 2015 8 29 Err:502 8.88 0
-13.31539 -70.30889 2015 8 30 Err:502 8.63 0
-13.31539 -70.30889 2015 8 31 Err:502 10.69 0.05
-13.31539 -70.30889 2015 9 1 09/01/15 9.68 0.01
-13.31539 -70.30889 2015 9 2 09/02/15 8.76 2.07
-13.31539 -70.30889 2015 9 3 09/03/15 9.64 0.12
-13.31539 -70.30889 2015 9 4 09/04/15 8.06 5.97
-13.31539 -70.30889 2015 9 5 09/05/15 9.57 0.82
-13.31539 -70.30889 2015 9 6 09/06/15 8.68 0.01
-13.31539 -70.30889 2015 9 7 09/07/15 8.79 0
-13.31539 -70.30889 2015 9 8 09/08/15 8.51 1.78
-13.31539 -70.30889 2015 9 9 09/09/15 9.53 0.59
-13.31539 -70.30889 2015 9 10 09/10/15 6.68 0
-13.31539 -70.30889 2015 9 11 09/11/15 5.81 2.16
-13.31539 -70.30889 2015 9 12 09/12/15 2.64 15.49
-13.31539 -70.30889 2015 9 13 Err:502 6.61 6.81
-13.31539 -70.30889 2015 9 14 Err:502 9.85 0
-13.31539 -70.30889 2015 9 15 Err:502 9.49 0
-13.31539 -70.30889 2015 9 16 Err:502 9.03 0
-13.31539 -70.30889 2015 9 17 Err:502 9.76 0
-13.31539 -70.30889 2015 9 18 Err:502 5.08 0.83
-13.31539 -70.30889 2015 9 19 Err:502 8.4 0.9
-13.31539 -70.30889 2015 9 20 Err:502 10.62 0.09
-13.31539 -70.30889 2015 9 21 Err:502 9.1 0
-13.31539 -70.30889 2015 9 22 Err:502 8.93 0.14
-13.31539 -70.30889 2015 9 23 Err:502 6.68 1.87
-13.31539 -70.30889 2015 9 24 Err:502 11.85 1.23
-13.31539 -70.30889 2015 9 25 Err:502 9.44 0.11
-13.31539 -70.30889 2015 9 26 Err:502 6.63 3.07
-13.31539 -70.30889 2015 9 27 Err:502 6.9 1.63
-13.31539 -70.30889 2015 9 28 Err:502 10.34 0.01
-13.31539 -70.30889 2015 9 29 Err:502 9.54 0.01
-13.31539 -70.30889 2015 9 30 Err:502 10.36 0.07
-13.31539 -70.30889 2015 10 1 10/01/15 6.57 0.11
-13.31539 -70.30889 2015 10 2 10/02/15 7.2 0.68
-13.31539 -70.30889 2015 10 3 10/03/15 9.22 2.95
-13.31539 -70.30889 2015 10 4 10/04/15 11.04 0.19
-13.31539 -70.30889 2015 10 5 10/05/15 10.22 0.2
-13.31539 -70.30889 2015 10 6 10/06/15 11.35 0.1
-13.31539 -70.30889 2015 10 7 10/07/15 9.52 2.32
-13.31539 -70.30889 2015 10 8 10/08/15 9.96 4.55
-13.31539 -70.30889 2015 10 9 10/09/15 10.86 4.07
-13.31539 -70.30889 2015 10 10 10/10/15 9.75 2.09
-13.31539 -70.30889 2015 10 11 10/11/15 4.49 5.62
-13.31539 -70.30889 2015 10 12 10/12/15 10.49 0.46
-13.31539 -70.30889 2015 10 13 Err:502 11.42 0
-13.31539 -70.30889 2015 10 14 Err:502 11.2 0
-13.31539 -70.30889 2015 10 15 Err:502 9.47 0
-13.31539 -70.30889 2015 10 16 Err:502 7.31 0
-13.31539 -70.30889 2015 10 17 Err:502 7.98 0.01
-13.31539 -70.30889 2015 10 18 Err:502 12.35 0
-13.31539 -70.30889 2015 10 19 Err:502 11.18 0
-13.31539 -70.30889 2015 10 20 Err:502 10.99 0.05
-13.31539 -70.30889 2015 10 21 Err:502 11.34 0.03
-13.31539 -70.30889 2015 10 22 Err:502 10.64 0
-13.31539 -70.30889 2015 10 23 Err:502 9.47 0
-13.31539 -70.30889 2015 10 24 Err:502 7.51 8.65
-13.31539 -70.30889 2015 10 25 Err:502 12.03 1.38
-13.31539 -70.30889 2015 10 26 Err:502 10.67 4.14
-13.31539 -70.30889 2015 10 27 Err:502 8.22 1.19
-13.31539 -70.30889 2015 10 28 Err:502 8.67 7.06
-13.31539 -70.30889 2015 10 29 Err:502 6.73 16.26
-13.31539 -70.30889 2015 10 30 Err:502 2.98 21.51
-13.31539 -70.30889 2015 10 31 Err:502 5.52 7.19
-13.31539 -70.30889 2015 11 1 11/01/15 4.32 33.5
-13.31539 -70.30889 2015 11 2 11/02/15 4.95 19.43
-13.31539 -70.30889 2015 11 3 11/03/15 5.28 4.17
-13.31539 -70.30889 2015 11 4 11/04/15 5.72 0.2
-13.31539 -70.30889 2015 11 5 11/05/15 4.11 5.1
-13.31539 -70.30889 2015 11 6 11/06/15 4.22 0.9
-13.31539 -70.30889 2015 11 7 11/07/15 6.42 2.98
-13.31539 -70.30889 2015 11 8 11/08/15 7.03 8.28
-13.31539 -70.30889 2015 11 9 11/09/15 7.54 1.31
-13.31539 -70.30889 2015 11 10 11/10/15 8.24 0.5
-13.31539 -70.30889 2015 11 11 11/11/15 5.41 0.16
-13.31539 -70.30889 2015 11 12 11/12/15 4.97 0.49
-13.31539 -70.30889 2015 11 13 Err:502 8.16 0.03
-13.31539 -70.30889 2015 11 14 Err:502 7.64 7.16
-13.31539 -70.30889 2015 11 15 Err:502 9.11 0.46
-13.31539 -70.30889 2015 11 16 Err:502 7.74 0.16
-13.31539 -70.30889 2015 11 17 Err:502 5.67 4.96
-13.31539 -70.30889 2015 11 18 Err:502 6.13 7.45
-13.31539 -70.30889 2015 11 19 Err:502 6.97 2.96
-13.31539 -70.30889 2015 11 20 Err:502 7.06 1.23
-13.31539 -70.30889 2015 11 21 Err:502 5.21 0.75
-13.31539 -70.30889 2015 11 22 Err:502 8.35 0
-13.31539 -70.30889 2015 11 23 Err:502 7.35 0
-13.31539 -70.30889 2015 11 24 Err:502 8.07 0
-13.31539 -70.30889 2015 11 25 Err:502 5.58 0
-13.31539 -70.30889 2015 11 26 Err:502 7.53 0.94
-13.31539 -70.30889 2015 11 27 Err:502 5.97 4.25
-13.31539 -70.30889 2015 11 28 Err:502 8.48 0.17
-13.31539 -70.30889 2015 11 29 Err:502 4.7 11.81
-13.31539 -70.30889 2015 11 30 Err:502 3.33 8.78
-13.31539 -70.30889 2015 12 1 12/01/15 5.88 0.2
-13.31539 -70.30889 2015 12 2 12/02/15 7.37 2.74
-13.31539 -70.30889 2015 12 3 12/03/15 8.51 4.55
-13.31539 -70.30889 2015 12 4 12/04/15 7.48 3.62
-13.31539 -70.30889 2015 12 5 12/05/15 7.01 2.21
-13.31539 -70.30889 2015 12 6 12/06/15 6.89 17.88
-13.31539 -70.30889 2015 12 7 12/07/15 4.29 22.3
-13.31539 -70.30889 2015 12 8 12/08/15 5.75 1.33
-13.31539 -70.30889 2015 12 9 12/09/15 6.47 0.87
-13.31539 -70.30889 2015 12 10 12/10/15 7.33 1.3
-13.31539 -70.30889 2015 12 11 12/11/15 8.07 0.79
-13.31539 -70.30889 2015 12 12 12/12/15 7.47 2.69
-13.31539 -70.30889 2015 12 13 Err:502 7.72 2.17
-13.31539 -70.30889 2015 12 14 Err:502 7.24 1.71
-13.31539 -70.30889 2015 12 15 Err:502 7.67 0.71
-13.31539 -70.30889 2015 12 16 Err:502 4.38 3.15
-13.31539 -70.30889 2015 12 17 Err:502 7.47 1.4
-13.31539 -70.30889 2015 12 18 Err:502 5.44 35.42
-13.31539 -70.30889 2015 12 19 Err:502 4.49 11.69
-13.31539 -70.30889 2015 12 20 Err:502 4.93 3.44
-13.31539 -70.30889 2015 12 21 Err:502 5.76 2.51
-13.31539 -70.30889 2015 12 22 Err:502 5.87 1.26
-13.31539 -70.30889 2015 12 23 Err:502 5.29 0.48
-13.31539 -70.30889 2015 12 24 Err:502 6.06 6.1
-13.31539 -70.30889 2015 12 25 Err:502 6.51 8.31
-13.31539 -70.30889 2015 12 26 Err:502 6.92 14.48
-13.31539 -70.30889 2015 12 27 Err:502 3.09 15.34
-13.31539 -70.30889 2015 12 28 Err:502 6.48 3.42
-13.31539 -70.30889 2015 12 29 Err:502 4.43 0.42
-13.31539 -70.30889 2015 12 30 Err:502 4.02 1.09
-13.31539 -70.30889 2015 12 31 Err:502 5.19 0.64
-13.31539 -70.30889 2016 1 1 01/01/16 4.55 36.33
-13.31539 -70.30889 2016 1 2 01/02/16 3.93 20.07
-13.31539 -70.30889 2016 1 3 01/03/16 3.51 12.19
-13.31539 -70.30889 2016 1 4 01/04/16 6.88 4.02
-13.31539 -70.30889 2016 1 5 01/05/16 6.67 4.05
-13.31539 -70.30889 2016 1 6 01/06/16 4.73 1.95
-13.31539 -70.30889 2016 1 7 01/07/16 3.87 1.88
-13.31539 -70.30889 2016 1 8 01/08/16 3.84 2.55
-13.31539 -70.30889 2016 1 9 01/09/16 4.39 10.13
-13.31539 -70.30889 2016 1 10 01/10/16 3.92 4.31
-13.31539 -70.30889 2016 1 11 01/11/16 3.63 2.97
-13.31539 -70.30889 2016 1 12 01/12/16 6.19 1.77
-13.31539 -70.30889 2016 1 13 Err:502 4.91 1.22
-13.31539 -70.30889 2016 1 14 Err:502 4.19 8.35
-13.31539 -70.30889 2016 1 15 Err:502 3.74 17.05
-13.31539 -70.30889 2016 1 16 Err:502 4.79 7.71
-13.31539 -70.30889 2016 1 17 Err:502 4.17 2.9
-13.31539 -70.30889 2016 1 18 Err:502 4.96 22.35
-13.31539 -70.30889 2016 1 19 Err:502 6.52 3.21
-13.31539 -70.30889 2016 1 20 Err:502 7.42 12
-13.31539 -70.30889 2016 1 21 Err:502 7.38 3.93
-13.31539 -70.30889 2016 1 22 Err:502 7.16 0.6
-13.31539 -70.30889 2016 1 23 Err:502 6.7 0.39
-13.31539 -70.30889 2016 1 24 Err:502 7.16 0
-13.31539 -70.30889 2016 1 25 Err:502 4.7 0.24
-13.31539 -70.30889 2016 1 26 Err:502 4.39 0.51
-13.31539 -70.30889 2016 1 27 Err:502 5.16 3.16
-13.31539 -70.30889 2016 1 28 Err:502 4.08 5.56
-13.31539 -70.30889 2016 1 29 Err:502 5.48 0.67
-13.31539 -70.30889 2016 1 30 Err:502 4.26 6.51
-13.31539 -70.30889 2016 1 31 Err:502 3.64 26.47
-13.31539 -70.30889 2016 2 1 02/01/16 3.1 20.09
-13.31539 -70.30889 2016 2 2 02/02/16 6.33 3.2
-13.31539 -70.30889 2016 2 3 02/03/16 5.3 7.99
-13.31539 -70.30889 2016 2 4 02/04/16 5.03 11.86
-13.31539 -70.30889 2016 2 5 02/05/16 2.87 9.19
-13.31539 -70.30889 2016 2 6 02/06/16 4.04 9.83
-13.31539 -70.30889 2016 2 7 02/07/16 4.84 2.21
-13.31539 -70.30889 2016 2 8 02/08/16 5.92 3.15
-13.31539 -70.30889 2016 2 9 02/09/16 4.63 3.45
-13.31539 -70.30889 2016 2 10 02/10/16 5.93 14.35
-13.31539 -70.30889 2016 2 11 02/11/16 5.74 2.38
-13.31539 -70.30889 2016 2 12 02/12/16 6.41 1.43
-13.31539 -70.30889 2016 2 13 Err:502 7.22 1.1
-13.31539 -70.30889 2016 2 14 Err:502 6.79 0.07
-13.31539 -70.30889 2016 2 15 Err:502 3.79 0.36
-13.31539 -70.30889 2016 2 16 Err:502 3.83 2.92
-13.31539 -70.30889 2016 2 17 Err:502 4.31 3.76
-13.31539 -70.30889 2016 2 18 Err:502 4.29 1.44
-13.31539 -70.30889 2016 2 19 Err:502 5.68 5.43
-13.31539 -70.30889 2016 2 20 Err:502 4.56 3.99
-13.31539 -70.30889 2016 2 21 Err:502 4.86 21.38
-13.31539 -70.30889 2016 2 22 Err:502 3.49 7.99
-13.31539 -70.30889 2016 2 23 Err:502 4.04 6.35
-13.31539 -70.30889 2016 2 24 Err:502 4.65 12.62
-13.31539 -70.30889 2016 2 25 Err:502 4.45 6.68
-13.31539 -70.30889 2016 2 26 Err:502 3.84 5.13
-13.31539 -70.30889 2016 2 27 Err:502 4.29 5.36
-13.31539 -70.30889 2016 2 28 Err:502 4.69 8.93
-13.31539 -70.30889 2016 2 29 Err:502 4.18 10.96
-13.31539 -70.30889 2016 3 1 03/01/16 6.05 0.84
-13.31539 -70.30889 2016 3 2 03/02/16 5.24 1.41
-13.31539 -70.30889 2016 3 3 03/03/16 5.58 0.31
-13.31539 -70.30889 2016 3 4 03/04/16 4.56 0.39
-13.31539 -70.30889 2016 3 5 03/05/16 5.8 66.64
-13.31539 -70.30889 2016 3 6 03/06/16 4.54 15.8
-13.31539 -70.30889 2016 3 7 03/07/16 3.22 4.76
-13.31539 -70.30889 2016 3 8 03/08/16 5.55 2.53
-13.31539 -70.30889 2016 3 9 03/09/16 5.04 0.83
-13.31539 -70.30889 2016 3 10 03/10/16 4.8 1.05
-13.31539 -70.30889 2016 3 11 03/11/16 5.01 1.62
-13.31539 -70.30889 2016 3 12 03/12/16 6.31 3.53
-13.31539 -70.30889 2016 3 13 Err:502 6.76 2.38
-13.31539 -70.30889 2016 3 14 Err:502 6.72 0.24
-13.31539 -70.30889 2016 3 15 Err:502 7.52 0
-13.31539 -70.30889 2016 3 16 Err:502 7.62 0
-13.31539 -70.30889 2016 3 17 Err:502 7.42 0
-13.31539 -70.30889 2016 3 18 Err:502 5.96 0.02
-13.31539 -70.30889 2016 3 19 Err:502 5.99 2.63
-13.31539 -70.30889 2016 3 20 Err:502 4.47 1.25
-13.31539 -70.30889 2016 3 21 Err:502 6.36 17.77
-13.31539 -70.30889 2016 3 22 Err:502 5.57 11.23
-13.31539 -70.30889 2016 3 23 Err:502 4.08 6.03
-13.31539 -70.30889 2016 3 24 Err:502 6.85 1.43
-13.31539 -70.30889 2016 3 25 Err:502 5.15 5.57
-13.31539 -70.30889 2016 3 26 Err:502 2.8 3.97
-13.31539 -70.30889 2016 3 27 Err:502 6.62 0.8
-13.31539 -70.30889 2016 3 28 Err:502 5.62 1.86
-13.31539 -70.30889 2016 3 29 Err:502 6.6 4.84
-13.31539 -70.30889 2016 3 30 Err:502 5.67 0.33
-13.31539 -70.30889 2016 3 31 Err:502 6.27 0
-13.31539 -70.30889 2016 4 1 04/01/16 6.95 0.04
-13.31539 -70.30889 2016 4 2 04/02/16 5.32 0.01
-13.31539 -70.30889 2016 4 3 04/03/16 4.7 0.07
-13.31539 -70.30889 2016 4 4 04/04/16 3.87 0.57
-13.31539 -70.30889 2016 4 5 04/05/16 6.45 20.51
-13.31539 -70.30889 2016 4 6 04/06/16 6.25 2.2
-13.31539 -70.30889 2016 4 7 04/07/16 4.6 1.96
-13.31539 -70.30889 2016 4 8 04/08/16 3.63 0.42
-13.31539 -70.30889 2016 4 9 04/09/16 4.49 1.29
-13.31539 -70.30889 2016 4 10 04/10/16 6.03 18.62
-13.31539 -70.30889 2016 4 11 04/11/16 4.24 22.07
-13.31539 -70.30889 2016 4 12 04/12/16 5.92 2.13
-13.31539 -70.30889 2016 4 13 Err:502 6.32 0
-13.31539 -70.30889 2016 4 14 Err:502 6.63 0.31
-13.31539 -70.30889 2016 4 15 Err:502 2.92 35.47
-13.31539 -70.30889 2016 4 16 Err:502 5.15 2.48
-13.31539 -70.30889 2016 4 17 Err:502 4.48 14.3
-13.31539 -70.30889 2016 4 18 Err:502 4.45 1.85
-13.31539 -70.30889 2016 4 19 Err:502 6.02 0.74
-13.31539 -70.30889 2016 4 20 Err:502 3.97 6.87
-13.31539 -70.30889 2016 4 21 Err:502 8.04 2.02
-13.31539 -70.30889 2016 4 22 Err:502 4.73 1.16
-13.31539 -70.30889 2016 4 23 Err:502 6.74 0.1
-13.31539 -70.30889 2016 4 24 Err:502 6.87 0.46
-13.31539 -70.30889 2016 4 25 Err:502 6.22 0.44
-13.31539 -70.30889 2016 4 26 Err:502 4.17 7.95
-13.31539 -70.30889 2016 4 27 Err:502 7.95 28.98
-13.31539 -70.30889 2016 4 28 Err:502 7.62 0
-13.31539 -70.30889 2016 4 29 Err:502 9.35 0
-13.31539 -70.30889 2016 4 30 Err:502 7.77 0
-13.31539 -70.30889 2016 5 1 05/01/16 8.1 0
-13.31539 -70.30889 2016 5 2 05/02/16 8.24 0
-13.31539 -70.30889 2016 5 3 05/03/16 8.52 0
-13.31539 -70.30889 2016 5 4 05/04/16 7.9 0
-13.31539 -70.30889 2016 5 5 05/05/16 7.57 0
-13.31539 -70.30889 2016 5 6 05/06/16 5.03 0
-13.31539 -70.30889 2016 5 7 05/07/16 3.73 5.89
-13.31539 -70.30889 2016 5 8 05/08/16 5.34 2.39
-13.31539 -70.30889 2016 5 9 05/09/16 5.87 0.34
-13.31539 -70.30889 2016 5 10 05/10/16 4.51 1.04
-13.31539 -70.30889 2016 5 11 05/11/16 4.61 1.26
-13.31539 -70.30889 2016 5 12 05/12/16 5.23 1.94
-13.31539 -70.30889 2016 5 13 Err:502 3.3 0.24
-13.31539 -70.30889 2016 5 14 Err:502 5.68 0.02
-13.31539 -70.30889 2016 5 15 Err:502 5.59 0
-13.31539 -70.30889 2016 5 16 Err:502 6.1 0.3
-13.31539 -70.30889 2016 5 17 Err:502 3.79 2.3
-13.31539 -70.30889 2016 5 18 Err:502 4.65 0.34
-13.31539 -70.30889 2016 5 19 Err:502 5.8 0
-13.31539 -70.30889 2016 5 20 Err:502 6.55 0
-13.31539 -70.30889 2016 5 21 Err:502 6.58 0.01
-13.31539 -70.30889 2016 5 22 Err:502 3.75 0.38
-13.31539 -70.30889 2016 5 23 Err:502 6.51 0.19
-13.31539 -70.30889 2016 5 24 Err:502 5.71 2.2
-13.31539 -70.30889 2016 5 25 Err:502 7.63 1.07
-13.31539 -70.30889 2016 5 26 Err:502 6.95 0
-13.31539 -70.30889 2016 5 27 Err:502 4.54 0.01
-13.31539 -70.30889 2016 5 28 Err:502 4.86 0
-13.31539 -70.30889 2016 5 29 Err:502 8.06 0
-13.31539 -70.30889 2016 5 30 Err:502 7.81 0
-13.31539 -70.30889 2016 5 31 Err:502 6.05 0.01
-13.31539 -70.30889 2016 6 1 06/01/16 4.9 0.06
-13.31539 -70.30889 2016 6 2 06/02/16 6.03 0.08
-13.31539 -70.30889 2016 6 3 06/03/16 6.75 0.48
-13.31539 -70.30889 2016 6 4 06/04/16 6.71 0.22
-13.31539 -70.30889 2016 6 5 06/05/16 6.49 0.35
-13.31539 -70.30889 2016 6 6 06/06/16 6.12 0.32
-13.31539 -70.30889 2016 6 7 06/07/16 5.8 3.25
-13.31539 -70.30889 2016 6 8 06/08/16 3.24 2.65
-13.31539 -70.30889 2016 6 9 06/09/16 4.57 0.07
-13.31539 -70.30889 2016 6 10 06/10/16 7.08 0
-13.31539 -70.30889 2016 6 11 06/11/16 6 0
-13.31539 -70.30889 2016 6 12 06/12/16 6.77 0
-13.31539 -70.30889 2016 6 13 Err:502 9.11 0
-13.31539 -70.30889 2016 6 14 Err:502 9.81 0
-13.31539 -70.30889 2016 6 15 Err:502 9.35 0
-13.31539 -70.30889 2016 6 16 Err:502 9.07 0
-13.31539 -70.30889 2016 6 17 Err:502 7.66 0
-13.31539 -70.30889 2016 6 18 Err:502 6.92 0
-13.31539 -70.30889 2016 6 19 Err:502 7.8 0
-13.31539 -70.30889 2016 6 20 Err:502 7.61 0
-13.31539 -70.30889 2016 6 21 Err:502 6.21 0
-13.31539 -70.30889 2016 6 22 Err:502 7.81 0
-13.31539 -70.30889 2016 6 23 Err:502 9.46 0
-13.31539 -70.30889 2016 6 24 Err:502 9.14 0
-13.31539 -70.30889 2016 6 25 Err:502 5.9 0
-13.31539 -70.30889 2016 6 26 Err:502 8.2 0
-13.31539 -70.30889 2016 6 27 Err:502 5.52 0
-13.31539 -70.30889 2016 6 28 Err:502 7.29 0
-13.31539 -70.30889 2016 6 29 Err:502 9.23 0
-13.31539 -70.30889 2016 6 30 Err:502 9.73 0
-13.31539 -70.30889 2016 7 1 07/01/16 8.76 0
-13.31539 -70.30889 2016 7 2 07/02/16 9.47 0
-13.31539 -70.30889 2016 7 3 07/03/16 10 0
-13.31539 -70.30889 2016 7 4 07/04/16 8.87 0
-13.31539 -70.30889 2016 7 5 07/05/16 9.02 0
-13.31539 -70.30889 2016 7 6 07/06/16 5.86 0.29
-13.31539 -70.30889 2016 7 7 07/07/16 3.46 9.41
-13.31539 -70.30889 2016 7 8 07/08/16 8.53 0.16
-13.31539 -70.30889 2016 7 9 07/09/16 9.8 0
-13.31539 -70.30889 2016 7 10 07/10/16 9.05 0
-13.31539 -70.30889 2016 7 11 07/11/16 10.05 0
-13.31539 -70.30889 2016 7 12 07/12/16 9.58 0
-13.31539 -70.30889 2016 7 13 Err:502 8.7 0.01
-13.31539 -70.30889 2016 7 14 Err:502 9.04 0.01
-13.31539 -70.30889 2016 7 15 Err:502 9.16 0.01
-13.31539 -70.30889 2016 7 16 Err:502 5.56 1.85
-13.31539 -70.30889 2016 7 17 Err:502 4.98 2.96
-13.31539 -70.30889 2016 7 18 Err:502 10.56 0
-13.31539 -70.30889 2016 7 19 Err:502 8.18 0
-13.31539 -70.30889 2016 7 20 Err:502 9.21 0
-13.31539 -70.30889 2016 7 21 Err:502 10.82 0
-13.31539 -70.30889 2016 7 22 Err:502 11.43 0
-13.31539 -70.30889 2016 7 23 Err:502 11.5 0
-13.31539 -70.30889 2016 7 24 Err:502 10.1 0
-13.31539 -70.30889 2016 7 25 Err:502 9.07 0
-13.31539 -70.30889 2016 7 26 Err:502 9.42 0
-13.31539 -70.30889 2016 7 27 Err:502 7.4 0
-13.31539 -70.30889 2016 7 28 Err:502 9.02 0
-13.31539 -70.30889 2016 7 29 Err:502 9.99 0
-13.31539 -70.30889 2016 7 30 Err:502 11.39 0
-13.31539 -70.30889 2016 7 31 Err:502 12.13 0
-13.31539 -70.30889 2016 8 1 08/01/16 10.82 0
-13.31539 -70.30889 2016 8 2 08/02/16 10.5 0
-13.31539 -70.30889 2016 8 3 08/03/16 10.33 0
-13.31539 -70.30889 2016 8 4 08/04/16 9.14 0
-13.31539 -70.30889 2016 8 5 08/05/16 11.12 0
-13.31539 -70.30889 2016 8 6 08/06/16 8.31 0.03
-13.31539 -70.30889 2016 8 7 08/07/16 8.33 7.72
-13.31539 -70.30889 2016 8 8 08/08/16 11.17 0.78
-13.31539 -70.30889 2016 8 9 08/09/16 12.7 0.89
-13.31539 -70.30889 2016 8 10 08/10/16 6.3 0.45
-13.31539 -70.30889 2016 8 11 08/11/16 8.47 0
-13.31539 -70.30889 2016 8 12 08/12/16 11.82 0
-13.31539 -70.30889 2016 8 13 Err:502 9.61 0
-13.31539 -70.30889 2016 8 14 Err:502 10.12 0
-13.31539 -70.30889 2016 8 15 Err:502 11.07 0
-13.31539 -70.30889 2016 8 16 Err:502 9.14 0
-13.31539 -70.30889 2016 8 17 Err:502 11.05 0.26
-13.31539 -70.30889 2016 8 18 Err:502 9.16 0.33
-13.31539 -70.30889 2016 8 19 Err:502 7.49 3.9
-13.31539 -70.30889 2016 8 20 Err:502 9.62 2.47
-13.31539 -70.30889 2016 8 21 Err:502 12.79 3.49
-13.31539 -70.30889 2016 8 22 Err:502 9 0.17
-13.31539 -70.30889 2016 8 23 Err:502 11.58 0
-13.31539 -70.30889 2016 8 24 Err:502 11.96 0
-13.31539 -70.30889 2016 8 25 Err:502 10.37 0.04
-13.31539 -70.30889 2016 8 26 Err:502 9.54 0
-13.31539 -70.30889 2016 8 27 Err:502 10.68 0
-13.31539 -70.30889 2016 8 28 Err:502 6.77 0
-13.31539 -70.30889 2016 8 29 Err:502 12.85 0.47
-13.31539 -70.30889 2016 8 30 Err:502 5.79 0.72
-13.31539 -70.30889 2016 8 31 Err:502 10.97 0
-13.31539 -70.30889 2016 9 1 09/01/16 13.77 0
-13.31539 -70.30889 2016 9 2 09/02/16 9.37 0.07
-13.31539 -70.30889 2016 9 3 09/03/16 7.52 4.19
-13.31539 -70.30889 2016 9 4 09/04/16 5.76 1.8
-13.31539 -70.30889 2016 9 5 09/05/16 10.71 0.29
-13.31539 -70.30889 2016 9 6 09/06/16 12.13 0
-13.31539 -70.30889 2016 9 7 09/07/16 12.07 0
-13.31539 -70.30889 2016 9 8 09/08/16 11.59 0
-13.31539 -70.30889 2016 9 9 09/09/16 11.6 0
-13.31539 -70.30889 2016 9 10 09/10/16 12.64 0
-13.31539 -70.30889 2016 9 11 09/11/16 12.98 0
-13.31539 -70.30889 2016 9 12 09/12/16 12.38 0
-13.31539 -70.30889 2016 9 13 Err:502 10.08 0
-13.31539 -70.30889 2016 9 14 Err:502 8 0.38
-13.31539 -70.30889 2016 9 15 Err:502 9.17 0.01
-13.31539 -70.30889 2016 9 16 Err:502 11.33 0
-13.31539 -70.30889 2016 9 17 Err:502 9.72 0
-13.31539 -70.30889 2016 9 18 Err:502 9.94 0.01
-13.31539 -70.30889 2016 9 19 Err:502 6.48 19.49
-13.31539 -70.30889 2016 9 20 Err:502 7.78 2.96
-13.31539 -70.30889 2016 9 21 Err:502 11.4 0
-13.31539 -70.30889 2016 9 22 Err:502 11.63 0
-13.31539 -70.30889 2016 9 23 Err:502 9.97 12.71
-13.31539 -70.30889 2016 9 24 Err:502 7.98 9.96
-13.31539 -70.30889 2016 9 25 Err:502 7.11 1.52
-13.31539 -70.30889 2016 9 26 Err:502 8.17 1.49
-13.31539 -70.30889 2016 9 27 Err:502 10.72 1.19
-13.31539 -70.30889 2016 9 28 Err:502 11.04 0.03
-13.31539 -70.30889 2016 9 29 Err:502 9.02 0
-13.31539 -70.30889 2016 9 30 Err:502 9.58 0.46
-13.31539 -70.30889 2016 10 1 10/01/16 8.1 26.03
-13.31539 -70.30889 2016 10 2 10/02/16 8.6 7.24
-13.31539 -70.30889 2016 10 3 10/03/16 6.52 1.01
-13.31539 -70.30889 2016 10 4 10/04/16 8.43 1.75
-13.31539 -70.30889 2016 10 5 10/05/16 4.76 5.39
-13.31539 -70.30889 2016 10 6 10/06/16 7.12 4.62
-13.31539 -70.30889 2016 10 7 10/07/16 5.91 1.45
-13.31539 -70.30889 2016 10 8 10/08/16 8.09 0.07
-13.31539 -70.30889 2016 10 9 10/09/16 8.19 7.4
-13.31539 -70.30889 2016 10 10 10/10/16 10.04 1.2
-13.31539 -70.30889 2016 10 11 10/11/16 7.31 24.03
-13.31539 -70.30889 2016 10 12 10/12/16 7.19 9.25
-13.31539 -70.30889 2016 10 13 Err:502 6.2 8.11
-13.31539 -70.30889 2016 10 14 Err:502 5.12 6.57
-13.31539 -70.30889 2016 10 15 Err:502 6.29 0.58
-13.31539 -70.30889 2016 10 16 Err:502 8.04 0.47
-13.31539 -70.30889 2016 10 17 Err:502 7.29 11.7
-13.31539 -70.30889 2016 10 18 Err:502 6.67 3.99
-13.31539 -70.30889 2016 10 19 Err:502 7.14 0.51
-13.31539 -70.30889 2016 10 20 Err:502 7.23 1.06
-13.31539 -70.30889 2016 10 21 Err:502 8.93 2.07
-13.31539 -70.30889 2016 10 22 Err:502 5.17 3.38
-13.31539 -70.30889 2016 10 23 Err:502 9.47 0.53
-13.31539 -70.30889 2016 10 24 Err:502 7.64 0.72
-13.31539 -70.30889 2016 10 25 Err:502 5.17 0.98
-13.31539 -70.30889 2016 10 26 Err:502 3.48 8.43
-13.31539 -70.30889 2016 10 27 Err:502 4.44 8.35
-13.31539 -70.30889 2016 10 28 Err:502 9.63 0.69
-13.31539 -70.30889 2016 10 29 Err:502 9.09 0.02
-13.31539 -70.30889 2016 10 30 Err:502 10.46 0.48
-13.31539 -70.30889 2016 10 31 Err:502 10.28 0.08
-13.31539 -70.30889 2016 11 1 11/01/16 9.61 0
-13.31539 -70.30889 2016 11 2 11/02/16 4.92 2.07
-13.31539 -70.30889 2016 11 3 11/03/16 6.7 6.19
-13.31539 -70.30889 2016 11 4 11/04/16 10.42 0.03
-13.31539 -70.30889 2016 11 5 11/05/16 11.34 0
-13.31539 -70.30889 2016 11 6 11/06/16 8.51 0.03
-13.31539 -70.30889 2016 11 7 11/07/16 9.29 0.01
-13.31539 -70.30889 2016 11 8 11/08/16 7.55 0
-13.31539 -70.30889 2016 11 9 11/09/16 4.47 3.6
-13.31539 -70.30889 2016 11 10 11/10/16 5.28 0.9
-13.31539 -70.30889 2016 11 11 11/11/16 9.2 0.57
-13.31539 -70.30889 2016 11 12 11/12/16 6.2 28.48
-13.31539 -70.30889 2016 11 13 Err:502 3.18 16.29
-13.31539 -70.30889 2016 11 14 Err:502 8.57 0.09
-13.31539 -70.30889 2016 11 15 Err:502 6 0.74
-13.31539 -70.30889 2016 11 16 Err:502 6.59 0.36
-13.31539 -70.30889 2016 11 17 Err:502 6.09 17.66
-13.31539 -70.30889 2016 11 18 Err:502 6.98 13.75
-13.31539 -70.30889 2016 11 19 Err:502 7.26 0.09
-13.31539 -70.30889 2016 11 20 Err:502 8.42 0.03
-13.31539 -70.30889 2016 11 21 Err:502 8.03 0.01
-13.31539 -70.30889 2016 11 22 Err:502 2.96 10.72
-13.31539 -70.30889 2016 11 23 Err:502 7.79 0.63
-13.31539 -70.30889 2016 11 24 Err:502 8.32 0.01
-13.31539 -70.30889 2016 11 25 Err:502 5.42 0.02
-13.31539 -70.30889 2016 11 26 Err:502 8.08 0.08
-13.31539 -70.30889 2016 11 27 Err:502 6.36 0.36
-13.31539 -70.30889 2016 11 28 Err:502 7.33 1.82
-13.31539 -70.30889 2016 11 29 Err:502 5.05 2.81
-13.31539 -70.30889 2016 11 30 Err:502 7.87 12.81
-13.31539 -70.30889 2016 12 1 12/01/16 5.45 4.15
-13.31539 -70.30889 2016 12 2 12/02/16 6.64 3.31
-13.31539 -70.30889 2016 12 3 12/03/16 6.43 2.51
-13.31539 -70.30889 2016 12 4 12/04/16 4.54 3.86
-13.31539 -70.30889 2016 12 5 12/05/16 7.04 7.87
-13.31539 -70.30889 2016 12 6 12/06/16 4.09 11.35
-13.31539 -70.30889 2016 12 7 12/07/16 7.15 1.45
-13.31539 -70.30889 2016 12 8 12/08/16 6.21 2.96
-13.31539 -70.30889 2016 12 9 12/09/16 8.08 5.12
-13.31539 -70.30889 2016 12 10 12/10/16 5.07 9.74
-13.31539 -70.30889 2016 12 11 12/11/16 7.57 3.48
-13.31539 -70.30889 2016 12 12 12/12/16 6.08 7.91
-13.31539 -70.30889 2016 12 13 Err:502 6.77 0.14
-13.31539 -70.30889 2016 12 14 Err:502 6.92 8.23
-13.31539 -70.30889 2016 12 15 Err:502 3.87 4.33
-13.31539 -70.30889 2016 12 16 Err:502 8.27 0.51
-13.31539 -70.30889 2016 12 17 Err:502 8.86 0.02
-13.31539 -70.30889 2016 12 18 Err:502 9.72 0
-13.31539 -70.30889 2016 12 19 Err:502 7.17 0.82
-13.31539 -70.30889 2016 12 20 Err:502 6.55 3.99
-13.31539 -70.30889 2016 12 21 Err:502 5.94 0.5
-13.31539 -70.30889 2016 12 22 Err:502 8.3 0
-13.31539 -70.30889 2016 12 23 Err:502 8.6 0.03
-13.31539 -70.30889 2016 12 24 Err:502 5.13 0.04
-13.31539 -70.30889 2016 12 25 Err:502 8.24 0
-13.31539 -70.30889 2016 12 26 Err:502 3.85 5.74
-13.31539 -70.30889 2016 12 27 Err:502 4.63 36.87
-13.31539 -70.30889 2016 12 28 Err:502 2.51 28.1
-13.31539 -70.30889 2016 12 29 Err:502 6.77 4.12
-13.31539 -70.30889 2016 12 30 Err:502 4.9 9.36
-13.31539 -70.30889 2016 12 31 Err:502 4.16 19.41
-13.31539 -70.30889 2017 1 1 01/01/17 4.84 9.65
-13.31539 -70.30889 2017 1 2 01/02/17 5.22 5.64
-13.31539 -70.30889 2017 1 3 01/03/17 3.91 3.09
-13.31539 -70.30889 2017 1 4 01/04/17 3.9 8.15
-13.31539 -70.30889 2017 1 5 01/05/17 3.99 8.13
-13.31539 -70.30889 2017 1 6 01/06/17 4.61 25.35
-13.31539 -70.30889 2017 1 7 01/07/17 5.49 7.28
-13.31539 -70.30889 2017 1 8 01/08/17 4.8 6.61
-13.31539 -70.30889 2017 1 9 01/09/17 4.23 20.76
-13.31539 -70.30889 2017 1 10 01/10/17 7.11 3.8
-13.31539 -70.30889 2017 1 11 01/11/17 5.01 0.57
-13.31539 -70.30889 2017 1 12 01/12/17 5.28 0.54
-13.31539 -70.30889 2017 1 13 Err:502 6.44 3.02
-13.31539 -70.30889 2017 1 14 Err:502 2.95 29.6
-13.31539 -70.30889 2017 1 15 Err:502 4.79 5.7
-13.31539 -70.30889 2017 1 16 Err:502 5.86 3.2
-13.31539 -70.30889 2017 1 17 Err:502 6.82 0.06
-13.31539 -70.30889 2017 1 18 Err:502 4.66 0.01
-13.31539 -70.30889 2017 1 19 Err:502 4.67 2.14
-13.31539 -70.30889 2017 1 20 Err:502 7.66 6.19
-13.31539 -70.30889 2017 1 21 Err:502 3.91 11.53
-13.31539 -70.30889 2017 1 22 Err:502 6.77 1.61
-13.31539 -70.30889 2017 1 23 Err:502 6.82 3.87
-13.31539 -70.30889 2017 1 24 Err:502 6.03 15.79
-13.31539 -70.30889 2017 1 25 Err:502 4.57 20.56
-13.31539 -70.30889 2017 1 26 Err:502 3.72 17.88
-13.31539 -70.30889 2017 1 27 Err:502 7.69 1.7
-13.31539 -70.30889 2017 1 28 Err:502 7.3 0.02
-13.31539 -70.30889 2017 1 29 Err:502 6.91 1.1
-13.31539 -70.30889 2017 1 30 Err:502 7.91 0.23
-13.31539 -70.30889 2017 1 31 Err:502 6.96 0.48
-13.31539 -70.30889 2017 2 1 02/01/17 5.31 5.13
-13.31539 -70.30889 2017 2 2 02/02/17 4.45 1.64
-13.31539 -70.30889 2017 2 3 02/03/17 4.7 16.17
-13.31539 -70.30889 2017 2 4 02/04/17 4.5 10.09
-13.31539 -70.30889 2017 2 5 02/05/17 6.22 2.75
-13.31539 -70.30889 2017 2 6 02/06/17 2.48 18.54
-13.31539 -70.30889 2017 2 7 02/07/17 4.01 24.52
-13.31539 -70.30889 2017 2 8 02/08/17 4.95 6.79
-13.31539 -70.30889 2017 2 9 02/09/17 4.78 0.06
-13.31539 -70.30889 2017 2 10 02/10/17 3.82 1.18
-13.31539 -70.30889 2017 2 11 02/11/17 3.77 4.78
-13.31539 -70.30889 2017 2 12 02/12/17 4.47 20.72
-13.31539 -70.30889 2017 2 13 Err:502 4.55 25.71
-13.31539 -70.30889 2017 2 14 Err:502 5.24 3.05
-13.31539 -70.30889 2017 2 15 Err:502 4.63 7.65
-13.31539 -70.30889 2017 2 16 Err:502 3.82 16.67
-13.31539 -70.30889 2017 2 17 Err:502 4.92 7.07
-13.31539 -70.30889 2017 2 18 Err:502 5.77 3.89
-13.31539 -70.30889 2017 2 19 Err:502 3.98 10.8
-13.31539 -70.30889 2017 2 20 Err:502 4.26 2.18
-13.31539 -70.30889 2017 2 21 Err:502 4.89 11.16
-13.31539 -70.30889 2017 2 22 Err:502 8.42 11.87
-13.31539 -70.30889 2017 2 23 Err:502 5.24 6.09
-13.31539 -70.30889 2017 2 24 Err:502 5.81 13.44
-13.31539 -70.30889 2017 2 25 Err:502 6.42 3.97
-13.31539 -70.30889 2017 2 26 Err:502 3.17 10.16
-13.31539 -70.30889 2017 2 27 Err:502 5.5 2.39
-13.31539 -70.30889 2017 2 28 Err:502 5.54 0.72
-13.31539 -70.30889 2017 3 1 03/01/17 3.85 2.04
-13.31539 -70.30889 2017 3 2 03/02/17 5.67 3.81
-13.31539 -70.30889 2017 3 3 03/03/17 4.44 1.49
-13.31539 -70.30889 2017 3 4 03/04/17 5.24 4.24
-13.31539 -70.30889 2017 3 5 03/05/17 5.53 6.35
-13.31539 -70.30889 2017 3 6 03/06/17 4.47 7.35
-13.31539 -70.30889 2017 3 7 03/07/17 3.64 12.58
-13.31539 -70.30889 2017 3 8 03/08/17 5.3 2.42
-13.31539 -70.30889 2017 3 9 03/09/17 5.81 0.46
-13.31539 -70.30889 2017 3 10 03/10/17 6.59 0.72
-13.31539 -70.30889 2017 3 11 03/11/17 3.19 1.04
-13.31539 -70.30889 2017 3 12 03/12/17 6.4 1.5
-13.31539 -70.30889 2017 3 13 Err:502 3.32 18.34
-13.31539 -70.30889 2017 3 14 Err:502 5.1 16.28
-13.31539 -70.30889 2017 3 15 Err:502 5.44 3.44
-13.31539 -70.30889 2017 3 16 Err:502 4.63 155.02
-13.31539 -70.30889 2017 3 17 Err:502 4.07 218.11
-13.31539 -70.30889 2017 3 18 Err:502 5.58 0.79
-13.31539 -70.30889 2017 3 19 Err:502 7.57 0.17
-13.31539 -70.30889 2017 3 20 Err:502 6.87 0
-13.31539 -70.30889 2017 3 21 Err:502 7.22 0.02
-13.31539 -70.30889 2017 3 22 Err:502 4.95 2.91
-13.31539 -70.30889 2017 3 23 Err:502 5.9 4.27
-13.31539 -70.30889 2017 3 24 Err:502 4.79 3.38
-13.31539 -70.30889 2017 3 25 Err:502 3.15 7.74
-13.31539 -70.30889 2017 3 26 Err:502 4.59 0.98
-13.31539 -70.30889 2017 3 27 Err:502 6.85 1.73
-13.31539 -70.30889 2017 3 28 Err:502 4.05 4.85
-13.31539 -70.30889 2017 3 29 Err:502 3.33 4.36
-13.31539 -70.30889 2017 3 30 Err:502 6.46 5.15
-13.31539 -70.30889 2017 3 31 Err:502 5.68 1.19
-13.31539 -70.30889 2017 4 1 04/01/17 4.57 16.1
-13.31539 -70.30889 2017 4 2 04/02/17 4.09 5.12
-13.31539 -70.30889 2017 4 3 04/03/17 3.52 2.39
-13.31539 -70.30889 2017 4 4 04/04/17 5.19 2.07
-13.31539 -70.30889 2017 4 5 04/05/17 4.92 0.55
-13.31539 -70.30889 2017 4 6 04/06/17 4.22 0.74
-13.31539 -70.30889 2017 4 7 04/07/17 3.88 2.91
-13.31539 -70.30889 2017 4 8 04/08/17 4.47 5.05
-13.31539 -70.30889 2017 4 9 04/09/17 3.76 9.42
-13.31539 -70.30889 2017 4 10 04/10/17 4.08 8.09
-13.31539 -70.30889 2017 4 11 04/11/17 4.88 7.97
-13.31539 -70.30889 2017 4 12 04/12/17 6.02 0.71
-13.31539 -70.30889 2017 4 13 Err:502 6.33 0
-13.31539 -70.30889 2017 4 14 Err:502 6.88 0
-13.31539 -70.30889 2017 4 15 Err:502 7.52 0.38
-13.31539 -70.30889 2017 4 16 Err:502 5.53 1.71
-13.31539 -70.30889 2017 4 17 Err:502 3.49 23.26
-13.31539 -70.30889 2017 4 18 Err:502 5.53 8.52
-13.31539 -70.30889 2017 4 19 Err:502 6.21 0.2
-13.31539 -70.30889 2017 4 20 Err:502 5.55 2.14
-13.31539 -70.30889 2017 4 21 Err:502 5.05 1.02
-13.31539 -70.30889 2017 4 22 Err:502 4.71 10.1
-13.31539 -70.30889 2017 4 23 Err:502 3.85 16.12
-13.31539 -70.30889 2017 4 24 Err:502 4.41 1.44
-13.31539 -70.30889 2017 4 25 Err:502 6.06 0.56
-13.31539 -70.30889 2017 4 26 Err:502 3.86 0.63
-13.31539 -70.30889 2017 4 27 Err:502 5.76 3.5
-13.31539 -70.30889 2017 4 28 Err:502 6.69 2.97
-13.31539 -70.30889 2017 4 29 Err:502 6.69 2.72
-13.31539 -70.30889 2017 4 30 Err:502 7.03 0.16
-13.31539 -70.30889 2017 5 1 05/01/17 6.4 0
-13.31539 -70.30889 2017 5 2 05/02/17 7.2 0
-13.31539 -70.30889 2017 5 3 05/03/17 7.25 0.01
-13.31539 -70.30889 2017 5 4 05/04/17 6.85 0.04
-13.31539 -70.30889 2017 5 5 05/05/17 4.54 0.03
-13.31539 -70.30889 2017 5 6 05/06/17 5.97 0
-13.31539 -70.30889 2017 5 7 05/07/17 6.58 0.14
-13.31539 -70.30889 2017 5 8 05/08/17 3.84 3.02
-13.31539 -70.30889 2017 5 9 05/09/17 4.32 4.8
-13.31539 -70.30889 2017 5 10 05/10/17 2.77 2.21
-13.31539 -70.30889 2017 5 11 05/11/17 4.99 0.08
-13.31539 -70.30889 2017 5 12 05/12/17 5.02 0.09
-13.31539 -70.30889 2017 5 13 Err:502 5.41 0.02
-13.31539 -70.30889 2017 5 14 Err:502 4.31 0.23
-13.31539 -70.30889 2017 5 15 Err:502 4.61 0.07
-13.31539 -70.30889 2017 5 16 Err:502 4.56 1.22
-13.31539 -70.30889 2017 5 17 Err:502 3.95 5.29
-13.31539 -70.30889 2017 5 18 Err:502 4.77 2.22
-13.31539 -70.30889 2017 5 19 Err:502 4.19 1.04
-13.31539 -70.30889 2017 5 20 Err:502 4.93 0.5
-13.31539 -70.30889 2017 5 21 Err:502 3.76 6.36
-13.31539 -70.30889 2017 5 22 Err:502 4.29 6.44
-13.31539 -70.30889 2017 5 23 Err:502 4.26 0.89
-13.31539 -70.30889 2017 5 24 Err:502 5.82 0.89
-13.31539 -70.30889 2017 5 25 Err:502 4.53 1.16
-13.31539 -70.30889 2017 5 26 Err:502 4.86 3.04
-13.31539 -70.30889 2017 5 27 Err:502 3.77 4.59
-13.31539 -70.30889 2017 5 28 Err:502 2.81 9.49
-13.31539 -70.30889 2017 5 29 Err:502 5.46 2.58
-13.31539 -70.30889 2017 5 30 Err:502 6.71 0.79
-13.31539 -70.30889 2017 5 31 Err:502 6.48 0.7
-13.31539 -70.30889 2017 6 1 06/01/17 5.46 0.56
-13.31539 -70.30889 2017 6 2 06/02/17 5.59 0
-13.31539 -70.30889 2017 6 3 06/03/17 7.1 0
-13.31539 -70.30889 2017 6 4 06/04/17 6.96 0
-13.31539 -70.30889 2017 6 5 06/05/17 6.04 0
-13.31539 -70.30889 2017 6 6 06/06/17 6.19 0
-13.31539 -70.30889 2017 6 7 06/07/17 5.46 4.27
-13.31539 -70.30889 2017 6 8 06/08/17 5.16 0.89
-13.31539 -70.30889 2017 6 9 06/09/17 5.69 16.15
-13.31539 -70.30889 2017 6 10 06/10/17 3.91 2.57
-13.31539 -70.30889 2017 6 11 06/11/17 7.92 0
-13.31539 -70.30889 2017 6 12 06/12/17 7.27 0.01
-13.31539 -70.30889 2017 6 13 Err:502 5.84 0.05
-13.31539 -70.30889 2017 6 14 Err:502 5.32 0.01
-13.31539 -70.30889 2017 6 15 Err:502 6.46 0
-13.31539 -70.30889 2017 6 16 Err:502 5.35 0
-13.31539 -70.30889 2017 6 17 Err:502 7.02 0
-13.31539 -70.30889 2017 6 18 Err:502 6.37 0
-13.31539 -70.30889 2017 6 19 Err:502 6.84 1.27
-13.31539 -70.30889 2017 6 20 Err:502 5.77 0.16
-13.31539 -70.30889 2017 6 21 Err:502 6.78 0
-13.31539 -70.30889 2017 6 22 Err:502 6.86 0
-13.31539 -70.30889 2017 6 23 Err:502 7.43 0
-13.31539 -70.30889 2017 6 24 Err:502 6.1 0
-13.31539 -70.30889 2017 6 25 Err:502 6.11 0
-13.31539 -70.30889 2017 6 26 Err:502 6.6 0
-13.31539 -70.30889 2017 6 27 Err:502 4.82 0.95
-13.31539 -70.30889 2017 6 28 Err:502 4.2 4.95
-13.31539 -70.30889 2017 6 29 Err:502 4.73 4.57
-13.31539 -70.30889 2017 6 30 Err:502 5.19 0.93
-13.31539 -70.30889 2017 7 1 07/01/17 4.57 0.88
-13.31539 -70.30889 2017 7 2 07/02/17 6.19 0
-13.31539 -70.30889 2017 7 3 07/03/17 6.44 0
-13.31539 -70.30889 2017 7 4 07/04/17 7.83 0
-13.31539 -70.30889 2017 7 5 07/05/17 7.45 0
-13.31539 -70.30889 2017 7 6 07/06/17 4.8 0
-13.31539 -70.30889 2017 7 7 07/07/17 4.88 0.02
-13.31539 -70.30889 2017 7 8 07/08/17 7.55 0.02
-13.31539 -70.30889 2017 7 9 07/09/17 3.64 0.03
-13.31539 -70.30889 2017 7 10 07/10/17 7.01 0
-13.31539 -70.30889 2017 7 11 07/11/17 8.01 0
-13.31539 -70.30889 2017 7 12 07/12/17 7.12 0
-13.31539 -70.30889 2017 7 13 Err:502 7.14 0
-13.31539 -70.30889 2017 7 14 Err:502 8.67 0
-13.31539 -70.30889 2017 7 15 Err:502 8.96 0
-13.31539 -70.30889 2017 7 16 Err:502 7.48 0
-13.31539 -70.30889 2017 7 17 Err:502 8.41 0
-13.31539 -70.30889 2017 7 18 Err:502 7.01 0
-13.31539 -70.30889 2017 7 19 Err:502 9.2 0
-13.31539 -70.30889 2017 7 20 Err:502 9.86 0
-13.31539 -70.30889 2017 7 21 Err:502 10.68 0
-13.31539 -70.30889 2017 7 22 Err:502 10.15 0
-13.31539 -70.30889 2017 7 23 Err:502 10.13 0
-13.31539 -70.30889 2017 7 24 Err:502 9.27 0
-13.31539 -70.30889 2017 7 25 Err:502 7.73 0
-13.31539 -70.30889 2017 7 26 Err:502 7.86 0
-13.31539 -70.30889 2017 7 27 Err:502 7.98 0
-13.31539 -70.30889 2017 7 28 Err:502 7.96 0
-13.31539 -70.30889 2017 7 29 Err:502 5.42 0
-13.31539 -70.30889 2017 7 30 Err:502 6.43 0
-13.31539 -70.30889 2017 7 31 Err:502 6.69 0
-13.31539 -70.30889 2017 8 1 08/01/17 9.16 0
-13.31539 -70.30889 2017 8 2 08/02/17 9.72 0
-13.31539 -70.30889 2017 8 3 08/03/17 5.85 0.01
-13.31539 -70.30889 2017 8 4 08/04/17 8.37 0
-13.31539 -70.30889 2017 8 5 08/05/17 8.93 0
-13.31539 -70.30889 2017 8 6 08/06/17 9.56 0
-13.31539 -70.30889 2017 8 7 08/07/17 10 0
-13.31539 -70.30889 2017 8 8 08/08/17 9.39 0.36
-13.31539 -70.30889 2017 8 9 08/09/17 8.55 0.7
-13.31539 -70.30889 2017 8 10 08/10/17 7.74 0.12
-13.31539 -70.30889 2017 8 11 08/11/17 8.36 1.93
-13.31539 -70.30889 2017 8 12 08/12/17 8.61 0.34
-13.31539 -70.30889 2017 8 13 Err:502 8.67 1.24
-13.31539 -70.30889 2017 8 14 Err:502 9.7 0.35
-13.31539 -70.30889 2017 8 15 Err:502 9.76 5.83
-13.31539 -70.30889 2017 8 16 Err:502 7.46 3
-13.31539 -70.30889 2017 8 17 Err:502 4.96 6.34
-13.31539 -70.30889 2017 8 18 Err:502 5.85 2.1
-13.31539 -70.30889 2017 8 19 Err:502 12.42 0.03
-13.31539 -70.30889 2017 8 20 Err:502 9.06 10.5
-13.31539 -70.30889 2017 8 21 Err:502 6.22 12.82
-13.31539 -70.30889 2017 8 22 Err:502 10.1 0
-13.31539 -70.30889 2017 8 23 Err:502 11.92 0
-13.31539 -70.30889 2017 8 24 Err:502 8.74 0
-13.31539 -70.30889 2017 8 25 Err:502 10.32 0
-13.31539 -70.30889 2017 8 26 Err:502 6.45 4.13
-13.31539 -70.30889 2017 8 27 Err:502 8.73 3.43
-13.31539 -70.30889 2017 8 28 Err:502 8.64 0.07
-13.31539 -70.30889 2017 8 29 Err:502 10.37 0
-13.31539 -70.30889 2017 8 30 Err:502 9.28 0.01
-13.31539 -70.30889 2017 8 31 Err:502 11.87 0.03
-13.31539 -70.30889 2017 9 1 09/01/17 11.04 0.01
-13.31539 -70.30889 2017 9 2 09/02/17 10.53 0
-13.31539 -70.30889 2017 9 3 09/03/17 8.6 0
-13.31539 -70.30889 2017 9 4 09/04/17 9.71 0
-13.31539 -70.30889 2017 9 5 09/05/17 8.71 1.2
-13.31539 -70.30889 2017 9 6 09/06/17 10.28 0.19
-13.31539 -70.30889 2017 9 7 09/07/17 8.16 0.32
-13.31539 -70.30889 2017 9 8 09/08/17 7.33 1.57
-13.31539 -70.30889 2017 9 9 09/09/17 10.52 0.82
-13.31539 -70.30889 2017 9 10 09/10/17 8.74 0.03
-13.31539 -70.30889 2017 9 11 09/11/17 8.6 4.43
-13.31539 -70.30889 2017 9 12 09/12/17 6.49 4.85
-13.31539 -70.30889 2017 9 13 Err:502 8.24 0
-13.31539 -70.30889 2017 9 14 Err:502 9.56 0
-13.31539 -70.30889 2017 9 15 Err:502 8.83 0.84
-13.31539 -70.30889 2017 9 16 Err:502 7.81 0.31
-13.31539 -70.30889 2017 9 17 Err:502 9.94 0.29
-13.31539 -70.30889 2017 9 18 Err:502 11.34 0.28
-13.31539 -70.30889 2017 9 19 Err:502 12.69 0.04
-13.31539 -70.30889 2017 9 20 Err:502 11.27 0
-13.31539 -70.30889 2017 9 21 Err:502 9.53 0
-13.31539 -70.30889 2017 9 22 Err:502 4.17 0.77
-13.31539 -70.30889 2017 9 23 Err:502 10.04 0.45
-13.31539 -70.30889 2017 9 24 Err:502 9.63 3.3
-13.31539 -70.30889 2017 9 25 Err:502 11.74 0.31
-13.31539 -70.30889 2017 9 26 Err:502 9.22 2.53
-13.31539 -70.30889 2017 9 27 Err:502 4.31 7.42
-13.31539 -70.30889 2017 9 28 Err:502 9.5 2.04
-13.31539 -70.30889 2017 9 29 Err:502 10.69 0.34
-13.31539 -70.30889 2017 9 30 Err:502 5.91 0.02
-13.31539 -70.30889 2017 10 1 10/01/17 12.92 0
-13.31539 -70.30889 2017 10 2 10/02/17 11.85 12.44
-13.31539 -70.30889 2017 10 3 10/03/17 7.64 5.76
-13.31539 -70.30889 2017 10 4 10/04/17 12 0.02
-13.31539 -70.30889 2017 10 5 10/05/17 11.16 0.04
-13.31539 -70.30889 2017 10 6 10/06/17 11.1 0.04
-13.31539 -70.30889 2017 10 7 10/07/17 9.97 1.75
-13.31539 -70.30889 2017 10 8 10/08/17 9.15 0.05
-13.31539 -70.30889 2017 10 9 10/09/17 10.78 0.22
-13.31539 -70.30889 2017 10 10 10/10/17 8.65 1.55
-13.31539 -70.30889 2017 10 11 10/11/17 7.77 2.02
-13.31539 -70.30889 2017 10 12 10/12/17 10.64 0.36
-13.31539 -70.30889 2017 10 13 Err:502 9.97 4.51
-13.31539 -70.30889 2017 10 14 Err:502 5.22 10.99
-13.31539 -70.30889 2017 10 15 Err:502 8.56 6.51
-13.31539 -70.30889 2017 10 16 Err:502 11.6 1.16
-13.31539 -70.30889 2017 10 17 Err:502 12.14 2.92
-13.31539 -70.30889 2017 10 18 Err:502 10.56 6.72
-13.31539 -70.30889 2017 10 19 Err:502 7.69 3.82
-13.31539 -70.30889 2017 10 20 Err:502 7.85 8.59
-13.31539 -70.30889 2017 10 21 Err:502 6.55 8.03
-13.31539 -70.30889 2017 10 22 Err:502 6.84 0.88
-13.31539 -70.30889 2017 10 23 Err:502 7.16 2.56
-13.31539 -70.30889 2017 10 24 Err:502 8.54 0.18
-13.31539 -70.30889 2017 10 25 Err:502 8.22 2.85
-13.31539 -70.30889 2017 10 26 Err:502 8.39 1.22
-13.31539 -70.30889 2017 10 27 Err:502 7.35 5.2
-13.31539 -70.30889 2017 10 28 Err:502 7.78 3.83
-13.31539 -70.30889 2017 10 29 Err:502 6.32 5.51
-13.31539 -70.30889 2017 10 30 Err:502 10.83 0.2
-13.31539 -70.30889 2017 10 31 Err:502 8.17 7.66
-13.31539 -70.30889 2017 11 1 11/01/17 2.81 13.01
-13.31539 -70.30889 2017 11 2 11/02/17 7.64 0.48
-13.31539 -70.30889 2017 11 3 11/03/17 9.18 0.6
-13.31539 -70.30889 2017 11 4 11/04/17 3.62 1.34
-13.31539 -70.30889 2017 11 5 11/05/17 6.83 1.88
-13.31539 -70.30889 2017 11 6 11/06/17 5.67 20.42
-13.31539 -70.30889 2017 11 7 11/07/17 6.35 5.06
-13.31539 -70.30889 2017 11 8 11/08/17 7.74 0.37
-13.31539 -70.30889 2017 11 9 11/09/17 5.71 8.59
-13.31539 -70.30889 2017 11 10 11/10/17 5.56 2.2
-13.31539 -70.30889 2017 11 11 11/11/17 5.49 3.28
-13.31539 -70.30889 2017 11 12 11/12/17 5.3 3.66
-13.31539 -70.30889 2017 11 13 Err:502 8.51 0.01
-13.31539 -70.30889 2017 11 14 Err:502 7.85 0.18
-13.31539 -70.30889 2017 11 15 Err:502 7.86 0.03
-13.31539 -70.30889 2017 11 16 Err:502 5.63 0.08
-13.31539 -70.30889 2017 11 17 Err:502 3.65 23.2
-13.31539 -70.30889 2017 11 18 Err:502 6.51 4.25
-13.31539 -70.30889 2017 11 19 Err:502 3.98 9.93
-13.31539 -70.30889 2017 11 20 Err:502 5.49 4.39
-13.31539 -70.30889 2017 11 21 Err:502 7.87 0.03
-13.31539 -70.30889 2017 11 22 Err:502 5.66 57.77
-13.31539 -70.30889 2017 11 23 Err:502 4.55 26.64
-13.31539 -70.30889 2017 11 24 Err:502 6.71 8.05
-13.31539 -70.30889 2017 11 25 Err:502 4.36 0.28
-13.31539 -70.30889 2017 11 26 Err:502 3.76 12.81
-13.31539 -70.30889 2017 11 27 Err:502 3.44 20.69
-13.31539 -70.30889 2017 11 28 Err:502 4.12 14.49
-13.31539 -70.30889 2017 11 29 Err:502 3.84 0.93
-13.31539 -70.30889 2017 11 30 Err:502 4.92 2.11
-13.31539 -70.30889 2017 12 1 12/01/17 6.61 1.45
-13.31539 -70.30889 2017 12 2 12/02/17 3.77 35.79
-13.31539 -70.30889 2017 12 3 12/03/17 4.29 4.71
-13.31539 -70.30889 2017 12 4 12/04/17 6.38 4.69
-13.31539 -70.30889 2017 12 5 12/05/17 3.28 5.45
-13.31539 -70.30889 2017 12 6 12/06/17 3.01 1.56
-13.31539 -70.30889 2017 12 7 12/07/17 6.02 1.25
-13.31539 -70.30889 2017 12 8 12/08/17 6.23 1.44
-13.31539 -70.30889 2017 12 9 12/09/17 4.96 2.05
-13.31539 -70.30889 2017 12 10 12/10/17 5.05 12.5
-13.31539 -70.30889 2017 12 11 12/11/17 4.01 21.64
-13.31539 -70.30889 2017 12 12 12/12/17 7.55 0.02
-13.31539 -70.30889 2017 12 13 Err:502 7.39 0
-13.31539 -70.30889 2017 12 14 Err:502 4.07 1.98
-13.31539 -70.30889 2017 12 15 Err:502 3.45 3.33
-13.31539 -70.30889 2017 12 16 Err:502 6.15 3.47
-13.31539 -70.30889 2017 12 17 Err:502 5.21 4.06
-13.31539 -70.30889 2017 12 18 Err:502 5.84 7.47
-13.31539 -70.30889 2017 12 19 Err:502 2.72 7.27
-13.31539 -70.30889 2017 12 20 Err:502 6.82 4.14
-13.31539 -70.30889 2017 12 21 Err:502 3.69 21.48
-13.31539 -70.30889 2017 12 22 Err:502 4.91 1.63
-13.31539 -70.30889 2017 12 23 Err:502 4.58 5.68
-13.31539 -70.30889 2017 12 24 Err:502 5.54 20.14
-13.31539 -70.30889 2017 12 25 Err:502 5.54 23.05
-13.31539 -70.30889 2017 12 26 Err:502 3.11 27.67
-13.31539 -70.30889 2017 12 27 Err:502 3.15 12.63
-13.31539 -70.30889 2017 12 28 Err:502 4.63 8.75
-13.31539 -70.30889 2017 12 29 Err:502 2.86 6.55
-13.31539 -70.30889 2017 12 30 Err:502 4.63 2.42
-13.31539 -70.30889 2017 12 31 Err:502 3.98 3.63
-13.31539 -70.30889 2018 1 1 01/01/18 5.1 13.46
-13.31539 -70.30889 2018 1 2 01/02/18 4.54 17.66
-13.31539 -70.30889 2018 1 3 01/03/18 4.49 12.6
-13.31539 -70.30889 2018 1 4 01/04/18 2.13 10.67
-13.31539 -70.30889 2018 1 5 01/05/18 6.45 4.45
-13.31539 -70.30889 2018 1 6 01/06/18 4.78 17.02
-13.31539 -70.30889 2018 1 7 01/07/18 3.98 38.84
-13.31539 -70.30889 2018 1 8 01/08/18 5.86 4.01
-13.31539 -70.30889 2018 1 9 01/09/18 7.12 1.06
-13.31539 -70.30889 2018 1 10 01/10/18 5.71 3.3
-13.31539 -70.30889 2018 1 11 01/11/18 4.2 3.63
-13.31539 -70.30889 2018 1 12 01/12/18 5.31 1.15
-13.31539 -70.30889 2018 1 13 Err:502 5.63 6.52
-13.31539 -70.30889 2018 1 14 Err:502 3.09 11.87
-13.31539 -70.30889 2018 1 15 Err:502 5 8
-13.31539 -70.30889 2018 1 16 Err:502 6.16 3.07
-13.31539 -70.30889 2018 1 17 Err:502 6.05 1.5
-13.31539 -70.30889 2018 1 18 Err:502 5.13 1.08
-13.31539 -70.30889 2018 1 19 Err:502 5.01 6.35
-13.31539 -70.30889 2018 1 20 Err:502 6.84 8.66
-13.31539 -70.30889 2018 1 21 Err:502 5.69 7.74
-13.31539 -70.30889 2018 1 22 Err:502 5.06 1.26
-13.31539 -70.30889 2018 1 23 Err:502 6.01 5
-13.31539 -70.30889 2018 1 24 Err:502 5.1 3.13
-13.31539 -70.30889 2018 1 25 Err:502 4.7 4.35
-13.31539 -70.30889 2018 1 26 Err:502 4.47 1.84
-13.31539 -70.30889 2018 1 27 Err:502 5.32 0.28
-13.31539 -70.30889 2018 1 28 Err:502 4.77 1.65
-13.31539 -70.30889 2018 1 29 Err:502 2.98 33.48
-13.31539 -70.30889 2018 1 30 Err:502 5.12 27.6
-13.31539 -70.30889 2018 1 31 Err:502 3.52 8.36
-13.31539 -70.30889 2018 2 1 02/01/18 3.54 31.06
-13.31539 -70.30889 2018 2 2 02/02/18 3.58 17.61
-13.31539 -70.30889 2018 2 3 02/03/18 3.28 37.67
-13.31539 -70.30889 2018 2 4 02/04/18 3.82 4.56
-13.31539 -70.30889 2018 2 5 02/05/18 6.91 0.27
-13.31539 -70.30889 2018 2 6 02/06/18 5.49 0.09
-13.31539 -70.30889 2018 2 7 02/07/18 4.54 5.96
-13.31539 -70.30889 2018 2 8 02/08/18 4.22 30.14
-13.31539 -70.30889 2018 2 9 02/09/18 3.11 25.26
-13.31539 -70.30889 2018 2 10 02/10/18 4.58 10.28
-13.31539 -70.30889 2018 2 11 02/11/18 3.92 11.25
-13.31539 -70.30889 2018 2 12 02/12/18 3.74 3.08
-13.31539 -70.30889 2018 2 13 Err:502 3.81 10.73
-13.31539 -70.30889 2018 2 14 Err:502 5.28 7
-13.31539 -70.30889 2018 2 15 Err:502 6.06 2.19
-13.31539 -70.30889 2018 2 16 Err:502 6.44 6.06
-13.31539 -70.30889 2018 2 17 Err:502 5.56 3.74
-13.31539 -70.30889 2018 2 18 Err:502 5.24 10.09
-13.31539 -70.30889 2018 2 19 Err:502 4.13 19.12
-13.31539 -70.30889 2018 2 20 Err:502 5.4 16.06
-13.31539 -70.30889 2018 2 21 Err:502 4.92 20.47
-13.31539 -70.30889 2018 2 22 Err:502 3.48 4.9
-13.31539 -70.30889 2018 2 23 Err:502 5.9 6.84
-13.31539 -70.30889 2018 2 24 Err:502 6.1 4.13
-13.31539 -70.30889 2018 2 25 Err:502 6.34 2.41
-13.31539 -70.30889 2018 2 26 Err:502 6.29 3.45
-13.31539 -70.30889 2018 2 27 Err:502 3.36 33.81
-13.31539 -70.30889 2018 2 28 Err:502 5.15 10.96
-13.31539 -70.30889 2018 3 1 03/01/18 3.34 6.72
-13.31539 -70.30889 2018 3 2 03/02/18 5.44 1.51
-13.31539 -70.30889 2018 3 3 03/03/18 5.22 0.84
-13.31539 -70.30889 2018 3 4 03/04/18 4.8 1.54
-13.31539 -70.30889 2018 3 5 03/05/18 4.39 1.24
-13.31539 -70.30889 2018 3 6 03/06/18 5.69 5.88
-13.31539 -70.30889 2018 3 7 03/07/18 4.8 15.46
-13.31539 -70.30889 2018 3 8 03/08/18 5.4 18.28
-13.31539 -70.30889 2018 3 9 03/09/18 5.27 4.95
-13.31539 -70.30889 2018 3 10 03/10/18 4.23 7.49
-13.31539 -70.30889 2018 3 11 03/11/18 5.08 13.2
-13.31539 -70.30889 2018 3 12 03/12/18 4.77 10.85
-13.31539 -70.30889 2018 3 13 Err:502 4.51 10.07
-13.31539 -70.30889 2018 3 14 Err:502 3.48 11.93
-13.31539 -70.30889 2018 3 15 Err:502 4.13 2.98
-13.31539 -70.30889 2018 3 16 Err:502 4.2 11.27
-13.31539 -70.30889 2018 3 17 Err:502 3.43 8.55
-13.31539 -70.30889 2018 3 18 Err:502 5.5 4.92
-13.31539 -70.30889 2018 3 19 Err:502 4.75 1.01
-13.31539 -70.30889 2018 3 20 Err:502 2.52 94.38
-13.31539 -70.30889 2018 3 21 Err:502 5.26 12.14
-13.31539 -70.30889 2018 3 22 Err:502 5.06 2.61
-13.31539 -70.30889 2018 3 23 Err:502 5.31 0
-13.31539 -70.30889 2018 3 24 Err:502 4.85 0.98
-13.31539 -70.30889 2018 3 25 Err:502 4.14 3.72
-13.31539 -70.30889 2018 3 26 Err:502 3.25 0.94
-13.31539 -70.30889 2018 3 27 Err:502 6.99 0
-13.31539 -70.30889 2018 3 28 Err:502 6.98 0.42
-13.31539 -70.30889 2018 3 29 Err:502 6.37 0.31
-13.31539 -70.30889 2018 3 30 Err:502 3.79 3.01
-13.31539 -70.30889 2018 3 31 Err:502 3.84 11.58
-13.31539 -70.30889 2018 4 1 04/01/18 5.41 0.63
-13.31539 -70.30889 2018 4 2 04/02/18 4.07 3.88
-13.31539 -70.30889 2018 4 3 04/03/18 3.68 51.72
-13.31539 -70.30889 2018 4 4 04/04/18 4.69 17.11
-13.31539 -70.30889 2018 4 5 04/05/18 4.12 3.64
-13.31539 -70.30889 2018 4 6 04/06/18 3.52 1.36
-13.31539 -70.30889 2018 4 7 04/07/18 4.55 0.16
-13.31539 -70.30889 2018 4 8 04/08/18 4.82 2.54
-13.31539 -70.30889 2018 4 9 04/09/18 4.78 3.32
-13.31539 -70.30889 2018 4 10 04/10/18 3.84 1.65
-13.31539 -70.30889 2018 4 11 04/11/18 4.86 0
-13.31539 -70.30889 2018 4 12 04/12/18 3.66 5.17
-13.31539 -70.30889 2018 4 13 Err:502 3.2 8.33
-13.31539 -70.30889 2018 4 14 Err:502 5.19 1.33
-13.31539 -70.30889 2018 4 15 Err:502 6.74 0.1
-13.31539 -70.30889 2018 4 16 Err:502 7.2 0
-13.31539 -70.30889 2018 4 17 Err:502 6.58 0
-13.31539 -70.30889 2018 4 18 Err:502 6.99 0.9
-13.31539 -70.30889 2018 4 19 Err:502 6.01 1.07
-13.31539 -70.30889 2018 4 20 Err:502 6.39 0.22
-13.31539 -70.30889 2018 4 21 Err:502 3.9 0
-13.31539 -70.30889 2018 4 22 Err:502 5.31 1.19
-13.31539 -70.30889 2018 4 23 Err:502 5.94 0.08
-13.31539 -70.30889 2018 4 24 Err:502 6.88 0.57
-13.31539 -70.30889 2018 4 25 Err:502 6.69 1.7
-13.31539 -70.30889 2018 4 26 Err:502 5.25 4.56
-13.31539 -70.30889 2018 4 27 Err:502 4.8 0.84
-13.31539 -70.30889 2018 4 28 Err:502 5.88 5.2
-13.31539 -70.30889 2018 4 29 Err:502 5.84 6.62
-13.31539 -70.30889 2018 4 30 Err:502 5.05 1.08
-13.31539 -70.30889 2018 5 1 05/01/18 5.68 0.22
-13.31539 -70.30889 2018 5 2 05/02/18 6.21 0.05
-13.31539 -70.30889 2018 5 3 05/03/18 6.37 0
-13.31539 -70.30889 2018 5 4 05/04/18 2.86 5.14
-13.31539 -70.30889 2018 5 5 05/05/18 5.01 3.27
-13.31539 -70.30889 2018 5 6 05/06/18 5.63 3.29
-13.31539 -70.30889 2018 5 7 05/07/18 5.66 3.67
-13.31539 -70.30889 2018 5 8 05/08/18 6.86 1.29
-13.31539 -70.30889 2018 5 9 05/09/18 6.3 0.06
-13.31539 -70.30889 2018 5 10 05/10/18 4.15 0
-13.31539 -70.30889 2018 5 11 05/11/18 3.55 9.29
-13.31539 -70.30889 2018 5 12 05/12/18 4.01 17.1
-13.31539 -70.30889 2018 5 13 Err:502 7.07 0.1
-13.31539 -70.30889 2018 5 14 Err:502 7.49 0.16
-13.31539 -70.30889 2018 5 15 Err:502 4.89 0.08
-13.31539 -70.30889 2018 5 16 Err:502 4.51 0.11
-13.31539 -70.30889 2018 5 17 Err:502 5.8 4.18
-13.31539 -70.30889 2018 5 18 Err:502 4.02 1.59
-13.31539 -70.30889 2018 5 19 Err:502 5.8 0.38
-13.31539 -70.30889 2018 5 20 Err:502 5.38 0.03
-13.31539 -70.30889 2018 5 21 Err:502 7.69 0
-13.31539 -70.30889 2018 5 22 Err:502 7.08 0
-13.31539 -70.30889 2018 5 23 Err:502 6.25 0
-13.31539 -70.30889 2018 5 24 Err:502 7.45 0
-13.31539 -70.30889 2018 5 25 Err:502 7.24 0
-13.31539 -70.30889 2018 5 26 Err:502 7.24 0
-13.31539 -70.30889 2018 5 27 Err:502 6.92 0
-13.31539 -70.30889 2018 5 28 Err:502 6.81 0
-13.31539 -70.30889 2018 5 29 Err:502 3.21 5.64
-13.31539 -70.30889 2018 5 30 Err:502 5.87 8.78
-13.31539 -70.30889 2018 5 31 Err:502 5.39 5.51
-13.31539 -70.30889 2018 6 1 06/01/18 5.03 17.65
-13.31539 -70.30889 2018 6 2 06/02/18 4.98 16.97
-13.31539 -70.30889 2018 6 3 06/03/18 3.67 22.32
-13.31539 -70.30889 2018 6 4 06/04/18 7.54 6.7
-13.31539 -70.30889 2018 6 5 06/05/18 7.73 0
-13.31539 -70.30889 2018 6 6 06/06/18 8.02 0.02
-13.31539 -70.30889 2018 6 7 06/07/18 7.24 0.02
-13.31539 -70.30889 2018 6 8 06/08/18 7.09 0.01
-13.31539 -70.30889 2018 6 9 06/09/18 6.77 0.67
-13.31539 -70.30889 2018 6 10 06/10/18 6.06 0.12
-13.31539 -70.30889 2018 6 11 06/11/18 5.47 1.68
-13.31539 -70.30889 2018 6 12 06/12/18 6.04 0.07
-13.31539 -70.30889 2018 6 13 Err:502 5.74 0
-13.31539 -70.30889 2018 6 14 Err:502 4.86 0
-13.31539 -70.30889 2018 6 15 Err:502 4.35 0
-13.31539 -70.30889 2018 6 16 Err:502 5.51 0
-13.31539 -70.30889 2018 6 17 Err:502 7.42 0
-13.31539 -70.30889 2018 6 18 Err:502 7.72 0
-13.31539 -70.30889 2018 6 19 Err:502 7.63 0
-13.31539 -70.30889 2018 6 20 Err:502 7.25 0
-13.31539 -70.30889 2018 6 21 Err:502 7.18 0.02
-13.31539 -70.30889 2018 6 22 Err:502 5.36 0.08
-13.31539 -70.30889 2018 6 23 Err:502 6.84 0
-13.31539 -70.30889 2018 6 24 Err:502 6.26 0.06
-13.31539 -70.30889 2018 6 25 Err:502 5.79 0.08
-13.31539 -70.30889 2018 6 26 Err:502 5.86 0.03
-13.31539 -70.30889 2018 6 27 Err:502 5.51 0.01
-13.31539 -70.30889 2018 6 28 Err:502 5.87 0
-13.31539 -70.30889 2018 6 29 Err:502 6.4 0
-13.31539 -70.30889 2018 6 30 Err:502 6.85 0
-13.31539 -70.30889 2018 7 1 07/01/18 5.83 0
-13.31539 -70.30889 2018 7 2 07/02/18 6.13 0
-13.31539 -70.30889 2018 7 3 07/03/18 6.47 0.9
-13.31539 -70.30889 2018 7 4 07/04/18 5.59 0.82
-13.31539 -70.30889 2018 7 5 07/05/18 6.91 0
-13.31539 -70.30889 2018 7 6 07/06/18 6.24 0
-13.31539 -70.30889 2018 7 7 07/07/18 6.8 0
-13.31539 -70.30889 2018 7 8 07/08/18 6.3 0.01
-13.31539 -70.30889 2018 7 9 07/09/18 5.99 1.08
-13.31539 -70.30889 2018 7 10 07/10/18 6.03 0.16
-13.31539 -70.30889 2018 7 11 07/11/18 8.12 0
-13.31539 -70.30889 2018 7 12 07/12/18 8.94 0
-13.31539 -70.30889 2018 7 13 Err:502 8.77 0
-13.31539 -70.30889 2018 7 14 Err:502 7.64 0.04
-13.31539 -70.30889 2018 7 15 Err:502 7.42 0.03
-13.31539 -70.30889 2018 7 16 Err:502 7.17 0
-13.31539 -70.30889 2018 7 17 Err:502 7.36 0.11
-13.31539 -70.30889 2018 7 18 Err:502 7.77 1.95
-13.31539 -70.30889 2018 7 19 Err:502 7.51 0.89
-13.31539 -70.30889 2018 7 20 Err:502 6.64 9.08
-13.31539 -70.30889 2018 7 21 Err:502 3.98 40.83
-13.31539 -70.30889 2018 7 22 Err:502 7.72 0.18
-13.31539 -70.30889 2018 7 23 Err:502 7.6 0
-13.31539 -70.30889 2018 7 24 Err:502 6.99 0
-13.31539 -70.30889 2018 7 25 Err:502 8.53 0
-13.31539 -70.30889 2018 7 26 Err:502 9.3 0.01
-13.31539 -70.30889 2018 7 27 Err:502 8.96 5.91
-13.31539 -70.30889 2018 7 28 Err:502 8.15 6.54
-13.31539 -70.30889 2018 7 29 Err:502 7.54 0
-13.31539 -70.30889 2018 7 30 Err:502 8.27 0
-13.31539 -70.30889 2018 7 31 Err:502 6.48 0.08
-13.31539 -70.30889 2018 8 1 08/01/18 4.1 0.07
-13.31539 -70.30889 2018 8 2 08/02/18 6.97 0.01
-13.31539 -70.30889 2018 8 3 08/03/18 6.7 0
-13.31539 -70.30889 2018 8 4 08/04/18 3.99 4.31
-13.31539 -70.30889 2018 8 5 08/05/18 3.43 11.86
-13.31539 -70.30889 2018 8 6 08/06/18 5.72 3.98
-13.31539 -70.30889 2018 8 7 08/07/18 8.51 0.4
-13.31539 -70.30889 2018 8 8 08/08/18 7.37 0.2
-13.31539 -70.30889 2018 8 9 08/09/18 7.76 0.11
-13.31539 -70.30889 2018 8 10 08/10/18 7.02 0
-13.31539 -70.30889 2018 8 11 08/11/18 8.96 0.28
-13.31539 -70.30889 2018 8 12 08/12/18 8.99 0.03
-13.31539 -70.30889 2018 8 13 Err:502 8.85 0
-13.31539 -70.30889 2018 8 14 Err:502 7.13 0.05
-13.31539 -70.30889 2018 8 15 Err:502 4.41 4.33
-13.31539 -70.30889 2018 8 16 Err:502 8.48 0.03
-13.31539 -70.30889 2018 8 17 Err:502 9.53 1.03
-13.31539 -70.30889 2018 8 18 Err:502 9.15 0.37
-13.31539 -70.30889 2018 8 19 Err:502 6.28 17.08
-13.31539 -70.30889 2018 8 20 Err:502 5.96 38.17
-13.31539 -70.30889 2018 8 21 Err:502 4.26 2.14
-13.31539 -70.30889 2018 8 22 Err:502 8.97 0
-13.31539 -70.30889 2018 8 23 Err:502 9.05 0
-13.31539 -70.30889 2018 8 24 Err:502 8.83 0
-13.31539 -70.30889 2018 8 25 Err:502 7.06 0.29
-13.31539 -70.30889 2018 8 26 Err:502 6.34 0.05
-13.31539 -70.30889 2018 8 27 Err:502 8.11 0
-13.31539 -70.30889 2018 8 28 Err:502 10.17 0
-13.31539 -70.30889 2018 8 29 Err:502 9.65 0
-13.31539 -70.30889 2018 8 30 Err:502 9.83 0
-13.31539 -70.30889 2018 8 31 Err:502 9.12 0
-13.31539 -70.30889 2018 9 1 09/01/18 8.09 6.91
-13.31539 -70.30889 2018 9 2 09/02/18 6.67 3.37
-13.31539 -70.30889 2018 9 3 09/03/18 7.98 0
-13.31539 -70.30889 2018 9 4 09/04/18 8.87 0.01
-13.31539 -70.30889 2018 9 5 09/05/18 8.9 0.05
-13.31539 -70.30889 2018 9 6 09/06/18 10.92 0
-13.31539 -70.30889 2018 9 7 09/07/18 11.61 0
-13.31539 -70.30889 2018 9 8 09/08/18 10.41 0
-13.31539 -70.30889 2018 9 9 09/09/18 10.4 0
-13.31539 -70.30889 2018 9 10 09/10/18 9.38 0
-13.31539 -70.30889 2018 9 11 09/11/18 10.69 0
-13.31539 -70.30889 2018 9 12 09/12/18 9.84 0
-13.31539 -70.30889 2018 9 13 Err:502 8.5 0
-13.31539 -70.30889 2018 9 14 Err:502 6.88 0.1
-13.31539 -70.30889 2018 9 15 Err:502 6.35 0.7
-13.31539 -70.30889 2018 9 16 Err:502 5.28 3.27
-13.31539 -70.30889 2018 9 17 Err:502 10.46 1.18
-13.31539 -70.30889 2018 9 18 Err:502 5.02 7.52
-13.31539 -70.30889 2018 9 19 Err:502 10.48 0.14
-13.31539 -70.30889 2018 9 20 Err:502 6.16 0.03
-13.31539 -70.30889 2018 9 21 Err:502 6.1 1.62
-13.31539 -70.30889 2018 9 22 Err:502 6.91 1.85
-13.31539 -70.30889 2018 9 23 Err:502 11.09 0
-13.31539 -70.30889 2018 9 24 Err:502 7.61 2.54
-13.31539 -70.30889 2018 9 25 Err:502 7.85 1.06
-13.31539 -70.30889 2018 9 26 Err:502 10.23 0.37
-13.31539 -70.30889 2018 9 27 Err:502 9.52 0.28
-13.31539 -70.30889 2018 9 28 Err:502 7.52 4.25
-13.31539 -70.30889 2018 9 29 Err:502 8.1 3.68
-13.31539 -70.30889 2018 9 30 Err:502 7.36 0.04
-13.31539 -70.30889 2018 10 1 10/01/18 8.8 4.8
-13.31539 -70.30889 2018 10 2 10/02/18 7.91 8.53
-13.31539 -70.30889 2018 10 3 10/03/18 8.89 0.58
-13.31539 -70.30889 2018 10 4 10/04/18 4.18 0.76
-13.31539 -70.30889 2018 10 5 10/05/18 7.17 13.79
-13.31539 -70.30889 2018 10 6 10/06/18 10.58 1.05
-13.31539 -70.30889 2018 10 7 10/07/18 9.81 0.86
-13.31539 -70.30889 2018 10 8 10/08/18 9.25 0.29
-13.31539 -70.30889 2018 10 9 10/09/18 6.77 2.17
-13.31539 -70.30889 2018 10 10 10/10/18 6.66 8.62
-13.31539 -70.30889 2018 10 11 10/11/18 5.43 7.27
-13.31539 -70.30889 2018 10 12 10/12/18 4.92 14.16
-13.31539 -70.30889 2018 10 13 Err:502 5.37 0.76
-13.31539 -70.30889 2018 10 14 Err:502 8.71 8.37
-13.31539 -70.30889 2018 10 15 Err:502 6.04 3.82
-13.31539 -70.30889 2018 10 16 Err:502 7.8 2.9
-13.31539 -70.30889 2018 10 17 Err:502 7.28 5.57
-13.31539 -70.30889 2018 10 18 Err:502 7.48 0.81
-13.31539 -70.30889 2018 10 19 Err:502 5.6 3.2
-13.31539 -70.30889 2018 10 20 Err:502 3.06 24.5
-13.31539 -70.30889 2018 10 21 Err:502 6.33 0.64
-13.31539 -70.30889 2018 10 22 Err:502 7.53 0.23
-13.31539 -70.30889 2018 10 23 Err:502 4.39 2.61
-13.31539 -70.30889 2018 10 24 Err:502 2.88 22.37
-13.31539 -70.30889 2018 10 25 Err:502 2.93 21.06
-13.31539 -70.30889 2018 10 26 Err:502 4.72 14.48
-13.31539 -70.30889 2018 10 27 Err:502 7.95 3.26
-13.31539 -70.30889 2018 10 28 Err:502 7.08 0.55
-13.31539 -70.30889 2018 10 29 Err:502 4.14 8.02
-13.31539 -70.30889 2018 10 30 Err:502 8.28 5.82
-13.31539 -70.30889 2018 10 31 Err:502 4.56 7.26
-13.31539 -70.30889 2018 11 1 11/01/18 4.59 1.52
-13.31539 -70.30889 2018 11 2 11/02/18 7.15 0.16
-13.31539 -70.30889 2018 11 3 11/03/18 5.85 2.43
-13.31539 -70.30889 2018 11 4 11/04/18 5.4 4.29
-13.31539 -70.30889 2018 11 5 11/05/18 3.38 11.94
-13.31539 -70.30889 2018 11 6 11/06/18 4.12 8.16
-13.31539 -70.30889 2018 11 7 11/07/18 3.53 7.77
-13.31539 -70.30889 2018 11 8 11/08/18 5.32 3.46
-13.31539 -70.30889 2018 11 9 11/09/18 6.28 0.07
-13.31539 -70.30889 2018 11 10 11/10/18 6.64 0.01
-13.31539 -70.30889 2018 11 11 11/11/18 4.34 0
-13.31539 -70.30889 2018 11 12 11/12/18 5.42 0
-13.31539 -70.30889 2018 11 13 Err:502 3.84 17.58
-13.31539 -70.30889 2018 11 14 Err:502 4.63 11.61
-13.31539 -70.30889 2018 11 15 Err:502 3.6 49.03
-13.31539 -70.30889 2018 11 16 Err:502 5.12 8.64
-13.31539 -70.30889 2018 11 17 Err:502 5.87 5.71
-13.31539 -70.30889 2018 11 18 Err:502 3.98 4.05
-13.31539 -70.30889 2018 11 19 Err:502 3.54 18.58
-13.31539 -70.30889 2018 11 20 Err:502 4.51 2.51
-13.31539 -70.30889 2018 11 21 Err:502 7.19 0.41
-13.31539 -70.30889 2018 11 22 Err:502 4.56 2.62
-13.31539 -70.30889 2018 11 23 Err:502 6.51 0.54
-13.31539 -70.30889 2018 11 24 Err:502 3.53 17.56
-13.31539 -70.30889 2018 11 25 Err:502 4.75 8.18
-13.31539 -70.30889 2018 11 26 Err:502 4.01 4.97
-13.31539 -70.30889 2018 11 27 Err:502 6.42 6.15
-13.31539 -70.30889 2018 11 28 Err:502 3.49 5.49
-13.31539 -70.30889 2018 11 29 Err:502 5.73 0.3
-13.31539 -70.30889 2018 11 30 Err:502 5.71 16.53
-13.31539 -70.30889 2018 12 1 12/01/18 4.55 13.01
-13.31539 -70.30889 2018 12 2 12/02/18 4.98 4.86
-13.31539 -70.30889 2018 12 3 12/03/18 5.71 0.1
-13.31539 -70.30889 2018 12 4 12/04/18 7.43 3.96
-13.31539 -70.30889 2018 12 5 12/05/18 2.71 7.79
-13.31539 -70.30889 2018 12 6 12/06/18 5.74 2.52
-13.31539 -70.30889 2018 12 7 12/07/18 4.75 6.13
-13.31539 -70.30889 2018 12 8 12/08/18 6.32 3.93
-13.31539 -70.30889 2018 12 9 12/09/18 7.79 0
-13.31539 -70.30889 2018 12 10 12/10/18 6.47 0
-13.31539 -70.30889 2018 12 11 12/11/18 4.77 0
-13.31539 -70.30889 2018 12 12 12/12/18 4.01 2.34
-13.31539 -70.30889 2018 12 13 Err:502 6.29 4.55
-13.31539 -70.30889 2018 12 14 Err:502 4.87 1.16
-13.31539 -70.30889 2018 12 15 Err:502 2.81 13.98
-13.31539 -70.30889 2018 12 16 Err:502 3.55 21.43
-13.31539 -70.30889 2018 12 17 Err:502 4.59 9.13
-13.31539 -70.30889 2018 12 18 Err:502 4.4 6.85
-13.31539 -70.30889 2018 12 19 Err:502 2.37 14.07
-13.31539 -70.30889 2018 12 20 Err:502 4.2 5.6
-13.31539 -70.30889 2018 12 21 Err:502 5.05 2.02
-13.31539 -70.30889 2018 12 22 Err:502 4.47 3.67
-13.31539 -70.30889 2018 12 23 Err:502 6.25 3.28
-13.31539 -70.30889 2018 12 24 Err:502 3.71 8.58
-13.31539 -70.30889 2018 12 25 Err:502 3.02 13.9
-13.31539 -70.30889 2018 12 26 Err:502 5.14 5.59
-13.31539 -70.30889 2018 12 27 Err:502 5.43 2.76
-13.31539 -70.30889 2018 12 28 Err:502 5.29 1.68
-13.31539 -70.30889 2018 12 29 Err:502 3.64 4.75
-13.31539 -70.30889 2018 12 30 Err:502 4.82 23.53
-13.31539 -70.30889 2018 12 31 Err:502 4.39 7.57
face (kW-hr/m^2/day)

T2M WS2MALLSKY_SFC_SW_DWN
RH2M T2MDEW T2M_MAX T2M_MIN
21.85 0.59 4.13 84.42 18.84 24.75 19.98
22.13 0.89 4.26 83.51 18.95 26.19 18.79
22.57 0.82 5.65 83.11 19.28 26.41 19.46
23.24 0.83 4.28 80.07 19.24 27.43 19.72
22.99 0.84 4.65 85.51 20.12 26.96 19.94
22.04 0.66 4.4 92.32 20.38 25.11 19.71
21.1 0.64 4.79 93.14 19.55 23.38 19.48
20.15 0.64 2.78 95.49 19.04 22.1 18.59
21.9 0.78 5.34 87.34 19.35 25.96 18.29
22.52 0.83 4.99 89.28 20.34 25.9 19.48
22.2 0.59 5.09 87.5 19.69 25.12 19.87
21.93 0.84 3.81 91.83 20.12 24.98 19.46
21.82 0.77 2.94 88.4 19.34 25.39 18.72
22.06 0.77 6.43 89.66 19.95 25.19 19.49
22.12 0.81 6.19 89.94 20.08 25.36 19.93
23.07 0.79 6 84.66 19.91 27.12 19.48
23.64 0.84 7.35 84.77 20.61 27.83 19.83
22.94 0.66 6.81 89.36 20.65 26.51 20.24
22.07 0.65 3.19 87.02 19.2 24.94 19.56
22.48 0.84 6.18 79.76 18.26 26.35 19.37
22.8 0.89 6.06 84.68 19.78 26.97 19.07
22.68 1.06 5.49 89.63 20.63 25.71 20.46
22.09 0.93 5.35 88.18 19.75 25.72 19.68
22.79 0.89 4.25 81.9 19.25 27.24 19.14
23.18 0.87 4.35 82.12 19.67 27.34 19.52
22.38 0.72 4.98 91.28 20.55 25.53 20.07
22.27 0.83 2.85 92.13 20.6 25.01 20.27
22.23 0.81 4.66 91.18 20.3 25.34 20.04
21.96 0.7 5.28 88.69 19.56 25.14 19.89
23.25 1.04 4.65 82.79 19.74 27.09 19.85
23.39 1.13 4.71 86.09 20.69 27.01 20.04
22.27 1.06 4.07 91.19 20.5 24.96 19.93
22.62 0.92 5.74 87.66 20.17 26.58 19.32
23.22 0.69 5.6 86.57 20.54 26.96 20.04
22.85 0.68 5.68 90.41 20.91 25.92 20.76
23.64 0.78 6.48 85.18 20.7 27.37 20.7
22.54 0.54 5.16 89.02 20.28 25.2 20.64
21.75 0.6 5.43 93 20.23 24.04 20.09
21.33 0.64 3.33 95.36 20.24 23.56 19.83
22.09 0.77 4.1 91.27 20.31 24.97 19.81
21.89 0.87 5.15 90.49 19.91 24.98 19.73
19.69 0.77 2.8 96.21 18.72 22.22 17.21
19.56 0.74 6.53 85.05 16.71 23.29 16.57
20.7 0.76 6.5 75.75 16.02 24.59 17.46
21.88 0.85 7.28 73.85 16.69 26.44 16.99
22.85 0.85 7.06 77.21 18.38 27.18 18.69
23.21 0.81 5.77 81.76 19.62 27.13 20.06
22.07 0.55 5.4 91.36 20.24 24.74 20.04
21.69 0.58 3.47 93.38 20.17 24.08 19.86
21.22 0.5 3.09 95.48 20.07 23.46 19.47
20.44 0.8 2 97.25 19.61 22.14 18.89
20.62 0.74 4.28 92.18 18.94 23.64 18.08
20.92 0.78 2.75 94.27 19.63 24.15 18.18
21.47 0.64 3.44 92.58 19.9 24.99 18.65
21.51 0.57 3.42 95.51 20.42 23.67 19.78
21.7 0.63 4.82 94.89 20.46 24.02 19.51
22.1 0.83 4.05 91.81 20.42 24.89 20.07
21.79 0.87 5.6 95.33 20.73 24.11 19.94
21.75 0.87 2.92 95.09 20.65 24.58 20.05
21.47 0.85 3.1 92.61 19.91 24.68 19.34
21.74 0.96 3.72 89.48 19.65 25.39 18.73
21.58 0.84 5.21 90.83 19.62 24.68 19.58
22.68 0.83 6.99 85.72 19.69 26.47 19.46
22.8 1.09 6.12 89.11 20.63 26.51 19.43
22.78 1.02 6.17 89.63 20.69 26.25 20.04
22.41 0.77 5.98 89.4 20.27 25.89 19.84
22.13 0.71 5.74 89.96 20.06 25.46 19.52
22.22 0.85 4.74 87.35 19.55 25.74 19.78
22.06 0.76 3.48 89.18 19.74 25.71 19.62
21.13 0.75 4.34 93.49 19.66 23.77 19.59
20.28 0.58 2.97 94.7 19.03 22.66 18.71
20.38 0.65 4.65 92.9 18.92 23.04 18.47
21.05 0.75 3.82 91.45 19.28 24.51 17.81
20.96 0.77 3.93 94.22 19.65 24.1 18.19
20.23 0.64 4.12 94.57 18.97 22.73 18.48
20.77 0.68 4.59 90.27 18.79 24.48 17.73
21.89 0.72 5.09 89.84 19.78 25.6 19.01
22.16 0.89 4.96 92.67 20.49 25.77 19.03
22.31 0.82 4.66 91.2 20.4 25.52 19.76
21.63 0.64 4.62 91.67 19.86 24.18 19.8
22.43 0.8 6.89 88.66 20.09 26.33 19.32
22.94 0.97 6.47 90.95 21.09 26.64 19.94
22.79 0.72 5.68 91.88 21.06 26.22 20.06
22.6 0.69 6.56 92.56 21.02 25.73 20.49
22.03 0.79 4.57 92.92 20.5 25.05 19.71
22.22 0.7 5.33 89.75 20.15 25.66 19.71
22.14 0.7 6.85 89.12 19.8 25.27 19.78
21.9 0.69 4.19 89.54 19.72 25.12 19.74
21.77 0.75 4.98 89.49 19.51 24.79 19.71
20.42 0.54 5.01 91.81 18.65 22.89 18.63
21.71 0.77 4.91 85.02 18.72 25.71 18.37
22.05 0.96 4.17 88.93 19.75 25.95 18.46
20.64 0.76 4.4 91.79 18.96 23.42 18.83
20.71 0.7 5.38 87.22 18.24 24.32 17.54
21.61 0.8 5.7 88.19 19.29 25.52 18.05
21.68 0.66 5.52 91.54 19.95 24.63 19.9
22.25 0.73 5.79 91.86 20.54 25.73 19.89
22.08 0.81 5.74 92.57 20.51 25.32 20.02
22.17 0.98 4.78 92.51 20.59 24.94 19.74
22.3 0.7 4.55 89.26 20.11 26.13 19.27
21.71 0.57 4.36 91.39 19.82 24.8 19.59
21.36 1.03 4.46 95.16 20.14 23.6 20.06
21.46 0.75 4.39 87.98 18.95 25.03 18.61
21.89 0.74 5.09 90.44 19.98 25.12 19.29
21.85 0.8 4.77 89.89 19.79 25.11 19.53
22.22 0.78 5.34 88.39 19.88 25.77 19.59
22.03 0.81 5.78 87.47 19.38 25.44 19.83
20.52 0.7 5.15 90.84 18.67 23.73 18.38
20.51 0.57 5.39 86.75 17.97 23.91 17.4
20.96 0.53 5.4 89.75 18.91 24.01 18.35
21.39 0.81 5.04 92.12 19.74 24.65 19.18
22.33 0.88 5.01 87.47 19.88 26.1 19.35
21.77 0.46 5.87 88.32 19.42 24.97 19.74
22.28 0.77 5.1 87.4 19.72 26.35 19.28
21.92 0.69 4.22 91.68 20.12 24.84 19.55
20.93 0.74 4.92 94.75 19.7 23.05 19.53
22.7 0.61 5.77 80.34 18.69 27.37 18.99
22.35 0.69 4.88 87.71 19.82 26.26 19.72
21.41 0.91 3.66 95.37 20.31 24.09 19.88
19.74 0.51 5.03 89.78 17.75 22.46 17.83
20.21 0.64 4.4 85.4 17.37 24.11 17.12
20.5 0.64 5.17 89.75 18.44 24.06 17.57
21.12 0.59 4.85 92.8 19.59 24.68 18.49
21.29 0.72 4.43 93.05 19.8 24.4 19.43
19.26 0.54 5 91.62 17.55 21.47 17.43
19.71 0.64 4.95 84.9 16.8 23.75 16.64
20.12 0.7 5.52 84.25 17.14 24.22 17.14
20.39 0.75 5.65 82.12 16.98 24.74 16.82
20.75 0.76 6.28 76.63 16.2 25.2 17.68
20.95 0.75 6.11 72.62 15.44 26.1 16.41
21.42 0.7 5.57 83.18 18.04 25.45 18.28
21.18 0.82 3.55 85.8 18.41 24.48 18.52
21.21 0.66 3.32 86.33 18.58 24.79 18.45
20.88 0.52 4.27 87.53 18.42 23.93 18.69
20.15 0.67 3.35 95.28 19.05 22.52 18.11
15.66 0.61 4.09 85.7 13.05 18.14 13.27
16.13 0.64 4.56 71.18 10.75 21.12 12.3
16.25 0.69 5.72 65.79 9.66 21.36 12.65
16.93 0.65 6.11 63.29 9.71 22.37 13.21
17.84 0.68 6.48 61.27 9.93 23.78 13.16
18.77 0.76 6.32 61.1 10.79 24.84 14.4
19.76 0.69 6.14 64.95 12.61 25.59 15.19
20.78 0.71 4.94 71.33 14.98 26.42 15.89
21.8 0.72 4.94 72.01 16.12 26.84 17.61
22.33 0.74 3.97 73.51 17.02 27.22 18.24
23 0.69 4.42 72.95 17.52 28.17 18.86
22.29 0.63 4.18 84.19 19.09 25.97 19.88
21.12 0.75 4.47 93.79 19.76 23.89 19.47
21.81 0.83 4.28 86.53 19.14 26.29 18.97
19.52 1.08 4.12 93.82 18.1 23.09 15.99
17.43 0.51 3.54 84.6 14.6 21.61 15.04
18.81 0.67 3.83 79.82 14.91 23.58 15.2
18.38 0.63 4.19 78.05 14.21 21.88 15.9
19.05 0.77 4.32 65.75 12.25 24.29 15.37
19.62 0.81 5.36 64.96 12.58 25.01 16.06
20.28 0.83 4.73 65.46 13.24 25.77 16.02
21.21 0.7 5.41 68.09 14.75 26.34 17.61
21.64 0.66 4.82 72.5 16.19 26.36 18.63
22.02 0.77 4.76 75.06 16.98 27 18.05
22.24 0.8 4.23 78.48 18.08 26.78 18.57
22.59 0.63 4.12 73.65 17.34 27.42 18.83
21.96 0.67 4.34 78.49 17.75 26.39 19.02
18.52 0.56 3.54 84.19 15.46 21.85 16.05
17.47 0.56 3.95 76.68 13.12 20.91 15.09
19.43 0.63 3.95 70.39 13.69 24.63 15.4
20.95 0.79 5.36 65.68 13.98 26.43 16.63
21.7 0.83 5.46 63.95 14.27 27.53 16.94
22.03 0.8 4.35 66.76 15.32 27.01 18.08
22.71 0.75 5.11 65.47 15.6 28.22 18.5
22.24 0.67 4.25 72 16.7 26.82 18.76
21.98 0.61 4.6 73.98 16.86 26.67 18.63
21.06 0.73 3.12 76.84 16.52 24.49 18.61
20.87 0.67 3.19 72.12 15.42 24.75 18
22.28 0.69 3.85 64.91 15.1 27.48 17.76
20.85 0.89 3.04 75.68 16.13 24.41 18.45
17.73 0.61 2.55 70.92 12.1 20.78 15.05
18.23 0.69 4.01 60.49 10.25 24.3 13.69
19.75 0.74 4.42 55.55 10.37 25.96 14.99
21.42 0.75 3.94 52.7 11.05 27.67 17.14
22.43 0.74 4.12 53.25 12.17 28.55 18.24
22.66 0.72 5.57 57.77 13.69 28.93 18.22
22.6 0.71 5.62 58.07 13.7 28.53 18.27
22.75 0.71 5.71 54 12.73 28.63 18.44
22.68 0.76 5.03 51.33 11.85 28.84 18.52
22.8 0.71 5.04 53.46 12.54 28.72 18.39
22.9 0.67 4.51 59.05 14.26 27.82 19.6
22 0.67 3.83 65.4 15.02 26.24 19.02
23.26 0.69 4.93 58.46 14.46 28.76 18.85
23.26 0.75 4.65 57.51 14.18 28.74 18.89
21.88 0.68 3.24 67.5 15.39 25.71 19.3
19.61 0.67 4.54 69.4 13.64 23.65 16.82
19.66 0.67 3.81 61.25 11.83 24.24 15.91
20.49 0.74 4.72 54.02 10.71 26.26 16.09
20.66 0.71 4.65 53.63 10.74 26.27 16.24
22.07 0.81 4.67 47.56 10.2 28.29 17.61
22.78 0.76 5.08 50.58 11.71 28.44 18.03
22.59 0.67 4.98 59.21 14.05 27.08 19.55
23.11 0.7 4.58 59.18 14.54 27.89 19.67
23.54 0.7 4.79 60.63 15.29 28.2 20.19
21.44 0.42 4.49 74.03 16.35 25.43 18.72
22.07 0.56 4.4 67.32 15.45 26.45 18.6
22.54 0.64 4.02 67.41 15.93 26.79 19.94
21.86 0.67 5 68.75 15.39 26.6 18.39
23.11 0.77 4.73 58.7 14.24 27.96 19.38
24.15 0.8 5.43 54.08 14.05 29.45 20.28
23.58 0.73 5.11 60.54 15.32 27.82 20.37
22.77 0.64 4 59.5 14.23 27.41 19.23
23.39 0.8 4.73 48.26 11.58 29.25 19.28
23.39 0.73 4.95 44.19 10.33 29.52 18.96
22.58 0.7 4.18 45.57 10.09 28.71 18.53
22.42 0.78 3.87 38.41 7.35 28.92 17.83
22.41 0.84 3.8 36.67 6.65 29.22 17.32
23.08 0.75 3.91 46.96 10.72 28.79 18.57
20.13 0.56 3.6 71.91 14.67 22.34 18.21
23.19 0.84 5.21 52.59 12.76 29.26 17.93
24.87 0.87 3.78 49.74 13.47 30.61 20.09
24.08 0.71 4.64 59.7 15.53 28.57 20.87
22.29 0.65 3.45 72.71 16.87 26.56 19.57
21.54 0.57 3.33 75.96 16.88 25.99 18.63
21.04 0.61 3.12 78.47 16.83 24.57 18.26
22.62 0.72 4.95 65.55 15.54 27.59 18.32
24.32 0.82 3.83 54.8 14.45 30.15 19.29
24.11 0.86 4.66 58.46 15.23 29.74 20.01
23.5 0.8 5.82 61.7 15.46 29.17 18.92
25.29 0.91 5.54 47.5 13.18 31.45 20.31
24.98 0.77 4.44 49.14 13.39 30.48 20.85
24.21 0.75 2.82 55.2 14.42 29.76 20.2
24.45 0.66 5.35 54.4 14.48 29.91 20.62
24.83 0.79 4.66 53.78 14.6 29.86 20.89
23.22 0.73 4.27 69.16 16.99 26.7 20.44
22.99 0.83 3.92 64.11 15.49 28.52 18.43
24.49 0.99 3.29 56.24 15.03 29.87 19.98
23.57 0.78 3.6 58.44 14.7 28.78 19.5
24.31 0.75 4.83 50.64 13.26 29.77 19.71
24.4 0.7 5.6 48.89 12.8 29.68 20.37
24.48 0.77 5.28 52.29 13.86 29.5 20.68
21.47 0.59 4.77 77.85 17.12 25.69 19.04
19.39 0.41 2.74 85.83 16.45 22.35 17.71
20.29 0.65 4.11 70.04 14.35 25.64 16.95
21.86 0.78 4.43 59.21 13.3 27.28 16.59
20.66 0.67 3.71 68.63 14.42 24.24 18.24
21.34 0.76 4.23 54.39 11.47 26.94 17.37
22.26 0.84 5.72 45.75 9.8 29.09 17.05
23.38 0.89 5.68 41.89 9.43 30.08 18.18
23.85 0.97 5.8 43.87 10.48 30.42 18.36
24.3 0.83 4.68 52.52 13.7 30.11 20.07
22.85 0.64 5.2 63.93 15.36 27.81 19.16
23.03 0.86 4.44 66.52 16.15 28.28 19.48
24.21 0.95 3.18 59.22 15.44 30.9 18.57
24.12 0.88 6.05 56.84 14.8 29.67 19.71
23.73 0.66 5.96 61.15 15.48 28.65 20.44
19.52 0.81 5.24 80.77 15.76 23.48 16.99
21.12 0.84 4.79 59.77 12.67 27.16 15.47
23.77 0.83 6.45 54.45 13.55 30.64 17.02
24.84 0.81 5.96 58.1 15.8 30.58 20.4
24.31 0.8 6.67 59.21 15.6 29.43 20.65
24.61 0.88 5.62 51.27 13.67 30.48 20.27
24.38 0.78 6.54 49.49 12.86 30.94 19.68
24.39 0.79 7.48 48.81 12.68 30.74 19.52
25.21 0.83 5.44 52.08 14.38 30.99 20.35
21.43 0.49 5.18 75.67 16.55 23.79 19.01
20.25 0.56 4.41 83.54 17 24 17.76
19.01 0.79 6.19 67.94 12.7 23.79 15.59
18.44 0.71 4.99 63.49 11.17 23.92 14.02
20.21 0.84 5.69 53.5 10.3 26.46 15.25
21.78 0.83 5.12 52.98 11.57 28.41 15.99
23.03 0.81 5.99 52.76 12.62 28.97 18.01
24.13 0.81 5.8 51.58 13.31 30.07 19.78
25 0.92 6.07 53.28 14.54 31.12 20.19
22.64 0.59 5.45 71.13 16.84 26.39 18.92
22.74 0.69 5.56 75.74 17.95 27.76 19.34
21.08 0.76 3.74 85.54 18.21 24.61 18.37
19.69 0.71 4.07 79.53 15.77 23.66 16.96
22.15 0.78 4.91 67.08 15.42 27.66 17.46
21.85 0.68 6.49 71.18 16.07 26.58 18.77
22.57 0.63 5.54 70.03 16.41 26.89 18.97
23.63 0.53 5.97 68.14 17.05 29.02 19.48
24.69 0.98 5.57 67.88 18.08 29.9 20.94
21.45 0.36 5.34 78.48 17.01 23.66 19.88
22.83 0.95 5.78 70.36 16.65 27.54 18.15
23.39 0.84 4.65 69.39 17.12 28.08 19.74
24.1 0.93 5.05 63.01 16.17 29.78 19.26
24.03 0.63 5.56 66 16.87 28.82 20.36
25.15 0.96 5.37 62.46 17.23 30.85 20.35
23.59 0.71 4.98 67.6 16.99 27.5 20.54
24.91 1.11 4.73 60.98 16.64 30.86 19.35
22.96 1.06 2.89 78.39 18.63 26.85 20.24
22.06 0.84 6.34 76.99 17.45 26.19 18.53
22.68 0.67 6.78 75.71 17.9 27.05 19.2
20.71 0.42 3.19 86.15 17.76 23.38 19.1
20.38 0.5 3.94 84.73 17.19 24.09 18.28
22.66 0.93 4.84 65.55 15.53 28.28 18.01
23.14 0.87 5.23 67.63 16.56 28.66 17.92
21.48 0.55 5.1 73.86 16.21 25.33 18.46
23.38 0.92 3.98 67.66 16.81 28.7 19.06
23.11 0.88 5.21 74.49 18.06 27.88 18.65
22.43 0.97 4.25 77.35 17.94 26.75 19.7
22.17 0.98 3.78 78.02 17.88 26.59 19.08
22.53 0.81 4.46 72.45 17 27.49 18.81
21.26 0.5 4.04 83.15 17.82 25.47 18.49
21.12 0.91 2.77 82.16 17.55 26.27 17.6
21.86 1.01 4.87 78.88 17.72 26.05 18.08
20.98 1.12 3.9 87.14 18.48 24.74 18.55
21.08 0.68 3.11 83.71 17.87 24.78 18.27
20.56 0.62 4.4 80.73 16.73 24.28 17.98
22.17 0.9 5.84 73.82 16.81 27.09 18.21
21.76 0.91 6.13 87.27 19.08 26.13 18.59
20.65 0.91 6.78 89.66 18.33 24.57 17.64
21.02 0.79 6.21 77.58 16.49 26.25 16.82
21.61 0.9 4.95 83.23 18.32 25.7 18.91
22.43 0.91 4.96 75.21 17.44 27.45 19
21.11 0.77 5.2 87.2 18.56 24.41 18.72
20.87 0.74 4.2 87.8 18.36 25.08 17.94
21.73 0.71 5.87 82.38 18.17 26.24 18.09
21.81 0.68 5.31 84.3 18.74 25.79 19
21.54 0.89 5.84 88.69 19.24 25.56 18.88
21.57 0.62 4.47 90.07 19.53 25.03 19.14
21.95 0.44 5.8 87.01 19.31 25.14 19.79
21.99 0.46 4.6 83.63 18.63 24.97 19.51
22.02 0.53 5.23 77.86 17.43 25.42 20.01
22.3 1.07 5.45 83.79 18.95 26.73 18.9
19.64 0.97 3.41 97.62 18.88 21.45 17.4
19.78 0.55 4.97 87.86 17.37 23.37 16.81
21.16 0.87 5.28 85.19 18.26 25.02 17.81
21.86 0.9 5.2 80.57 17.94 25.55 18.54
21.07 0.73 5.24 88.04 18.62 23.53 19.17
21.71 0.81 5.58 83.83 18.44 25.32 18.82
21.56 0.8 6.52 86.17 18.76 25.65 18.44
20.43 0.81 3.77 95.71 19.29 22.35 19.09
19.59 0.74 4 94.83 18.27 22.26 17.6
19.78 0.6 5.19 88.8 17.51 23.94 16.77
21.95 0.91 5.67 85.19 18.93 26.04 18.41
21.35 0.58 4.56 87.85 18.8 24.48 19.05
19.84 0.45 2.54 91.49 17.91 21.91 18.18
21.29 0.68 5.76 83.52 17.99 25.32 17.74
21.69 0.77 6.16 86.57 18.74 25.5 18.37
20.37 0.72 3.6 96.87 19.49 22.09 18.46
21.48 0.82 4.48 85.75 18.59 25.64 18.03
21.79 1 5.26 87.48 19.24 25.53 18.43
20.37 0.62 5.8 92.7 18.72 22.48 19.05
21.38 0.82 5.17 87.51 18.85 24.62 18.44
20.79 0.59 5.46 92.86 19.16 23 19.5
19.38 0.76 5.12 97.34 18.59 20.79 18.06
20.2 0.85 4.03 91.8 18.45 23.81 17.24
20.49 0.61 5.16 90.32 18.42 23.62 18.24
21.27 0.75 6.48 89.78 19.09 24.64 18.82
20.37 0.63 5.83 93.56 18.88 22.79 18.37
20.38 0.53 6.02 89.99 18.3 23.16 18.45
21.99 0.83 6.29 82.33 18.34 26.28 18.26
22.4 0.79 5.93 85.15 19.43 26.58 18.78
22.01 0.76 4.17 89.49 19.92 25.38 19.32
21.16 0.56 5.49 92.9 19.65 24.11 19.27
20.65 0.52 3.44 93.45 19.19 23.33 18.87
20.93 0.51 3.22 92.18 19.2 23.64 18.97
21.28 0.65 3.42 89.09 19.1 24.56 19.23
19.29 0.88 2.84 93.36 17.85 21.99 15.91
17.9 0.62 5.52 85.52 15.13 21.24 15.2
19.72 0.98 5.25 81.35 16.05 23.65 16.21
20.67 0.79 6.97 80.64 16.83 25.14 16.18
21.51 0.88 5.83 82.5 18.04 25.4 17.98
21.13 0.74 5.77 89.05 18.93 24.49 18.87
22.2 0.72 6.34 83.92 18.97 26.18 19.11
21.61 0.66 3.42 90.09 19.53 24.28 19.71
21.07 0.88 2.61 91.66 19.23 24.17 18.93
19.63 0.92 3.15 96.92 18.78 21.72 18.48
20.75 0.84 5.18 90.87 18.82 24.41 18.07
20.61 0.49 4.17 92.25 18.81 24.16 17.81
21.4 0.83 3.78 91.23 19.47 24.64 18.99
20.84 0.77 4.04 95.52 19.78 22.88 19.23
21.16 0.75 2.92 89.24 18.95 24.78 18.36
20.32 0.91 1.16 94.54 18.98 22.41 18.55
19.87 0.89 5.12 94.97 18.65 22.46 17.96
20.13 0.7 7.78 90.16 18.06 23.64 17.37
19.98 0.48 4.62 95.49 18.83 22.82 18.23
19.88 0.81 6.8 87.21 17.32 23.38 17.13
20.09 0.8 5.6 87.12 17.51 23.84 16.61
20.34 0.79 4.81 87.83 17.97 23.86 17.38
20.95 0.89 6.12 87.61 18.48 25.01 16.98
21.75 1.16 6.21 86.77 19.07 25.79 17.9
19.97 1 5.3 91.84 18.26 22.64 17.12
19.86 0.64 6.84 83.47 16.65 23.06 16.67
20.51 0.73 6.4 88.09 18.15 24.07 17.62
21.25 0.97 4.29 86.41 18.59 24.97 17.98
20.49 0.85 5.76 88.16 18.1 23.67 18.3
20.47 0.77 4.02 85.3 17.49 24.16 17.92
20.74 0.78 6.31 84.18 17.56 24.49 17.81
21.35 1 4.54 82.5 17.91 25.22 17.7
21.87 1.07 7.06 80.07 17.9 26.16 18.31
21.37 0.82 5.89 83.95 18.17 25.55 17.93
21.73 1.07 6.37 83.18 18.34 25.86 18.25
20.04 0.59 5.74 85 16.95 22.93 18.07
21.02 0.87 5.8 75.18 16.05 25.5 17.99
20.96 1.03 5.35 82.64 17.56 25.17 17.3
20.34 0.89 3.85 92.12 18.63 23.64 17.71
20.06 0.7 4.79 91.6 18.31 23.43 18
21.11 1.01 2.89 88.48 18.85 25.15 17.77
21.25 0.92 4.84 88.42 18.96 24.99 18.27
19.78 0.93 2.35 96.5 18.9 21.43 18.42
19.66 0.65 5.92 92.89 18.17 22.48 17.67
20.55 0.85 4.53 87.32 17.96 24.31 17.41
19.49 0.64 3.29 92.03 17.68 22.07 17.65
20.74 0.79 5.69 82.22 17.1 24.81 17.4
21.52 1.04 5.5 84.93 18.45 25.73 17.89
20.01 0.63 3.49 95.98 18.88 22.19 18.32
20.21 0.8 4.91 87.34 17.6 23.77 17.41
19.64 0.6 4.36 87.99 17.17 22.61 17.95
20.93 0.81 5.46 84.36 17.71 24.81 17.69
21.42 0.77 4.74 86.05 18.66 25.32 18.53
21.4 0.95 5.99 88.02 18.99 25.34 17.96
20.41 0.79 5.32 92.38 18.76 23.33 18.43
19.73 0.61 4.47 89.35 17.6 22.21 17.84
19.98 0.9 5.08 87.93 17.57 23.21 17.29
19.47 0.67 4.3 91.84 17.72 22.28 17.56
19.83 0.87 5.02 85.37 16.94 23.75 16.79
21.01 0.94 4.65 80.47 17.09 25.53 17.31
21.71 0.91 5.43 78.34 17.27 26.23 18.39
21.72 0.85 5.33 81.45 17.99 25.81 18.34
20.25 0.58 3.82 92.22 18.53 22.74 18.72
20.71 0.69 4.7 87.57 18.14 24.06 18.32
20.89 0.85 5.37 89.02 18.63 24.17 18.38
20.64 0.85 4.53 94.19 19.34 23.19 18.26
19.46 0.78 5.29 95.71 18.39 21.05 18.2
20.33 0.85 4.26 91.01 18.43 23.77 17.54
21.21 0.72 5.46 89.51 19.05 25.25 18.15
21.43 0.73 4.71 90.13 19.46 24.99 18.72
20.65 0.66 1.79 92.39 18.99 23.5 18.66
19.79 0.81 4.76 93.47 18.32 22.19 17.81
20.18 0.72 4.15 88.15 17.83 23.86 17.21
20.13 0.64 3.12 90.75 18.23 23.59 17.63
20.52 0.79 4.05 92.88 19.02 23.58 18.37
20.53 0.59 3.63 90.47 18.54 23.6 18.04
20.15 0.8 4.07 93.16 18.67 23.42 17.9
20.13 0.86 2.68 91.85 18.44 23.5 17.56
20.03 0.83 3.89 91.63 18.25 23.26 17.83
20.11 0.67 3.44 91.72 18.29 23.73 17.63
19.8 0.84 4.49 90.52 17.76 23.3 16.59
19.96 0.81 5.55 87.73 17.51 23.53 17.06
19.34 0.39 4.47 89.63 17.18 22.01 17.5
19.49 0.66 5.15 95.16 18.34 22.19 17.42
19.4 0.68 3.16 97.62 18.68 21.51 17.81
20.07 0.72 4.3 93.12 18.55 23.44 17.56
20.47 0.73 4.76 92.65 18.92 23.46 17.7
19.46 0.79 3.34 98.86 18.93 20.83 18.04
19.64 0.71 3.36 94.8 18.42 22.83 17.54
20.66 0.69 4.32 89.17 18.45 24.56 17.46
20.96 0.68 4.52 88.9 18.59 24.29 18.2
20.61 0.68 4 91.11 18.71 23.77 18.16
21.09 0.81 6.04 87.05 18.38 24.51 18.46
20.59 0.63 4.65 91.97 18.85 23.47 18.39
20.7 0.72 4.9 89.2 18.46 24.03 18.4
21.64 0.71 4.96 81.45 17.74 25.68 18.8
21.57 0.63 5.75 89.2 19.27 25.33 18.82
21.5 0.79 4.3 91.77 19.79 24.89 18.9
20.01 0.79 3.74 96.41 19.06 21.85 18.71
19.55 0.98 4.17 94.06 18.24 22.15 17.35
19.14 0.76 4.07 92.98 17.61 22.45 16.65
20.2 0.79 4.18 87.64 17.6 23.96 17.4
20.46 0.86 4.6 87.39 17.76 23.96 17.35
20.78 0.85 4.62 88.4 18.39 24.72 17.26
20.34 0.77 5.46 86.36 17.62 24.2 16.85
20.34 0.89 4.31 85.06 17.24 24.28 17.41
20.38 0.78 4.42 84.97 17.38 24.36 17.22
20.2 0.79 3.57 87.11 17.65 23.98 17.29
20.26 0.83 4.25 81.43 16.61 24.37 17.06
20.59 0.92 4.95 80.93 16.75 24.9 16.93
20.72 0.84 5.31 84.18 17.6 25.03 17.75
20.25 0.71 4.87 86.15 17.5 24.34 16.56
20.35 0.75 3.9 89.6 18.25 24.37 17.99
20.61 0.66 3.85 85.45 17.7 24.93 17.06
20.71 0.65 4.47 86.49 18 24.53 18.18
20.79 0.77 3.43 87.2 18.27 24.2 18.27
15.82 0.82 3.17 91.79 14.17 19.19 13.64
16.35 0.61 3.91 77.35 12.23 20.98 13.17
17.3 0.65 4.88 77.63 13.14 21.8 13.75
17.75 0.59 4.29 83.02 14.58 21.87 14.65
19.62 0.8 5.1 79.51 15.62 24.67 15.31
20.33 0.78 6.36 74.56 15.27 25.82 16.2
20.7 0.75 5.99 68.8 14.01 26.07 16.48
20.18 0.49 5.23 77.87 15.35 23.88 17.58
20.57 0.63 4.33 81.89 16.96 24.76 17.74
21 0.64 5.38 80.53 17.13 25.74 17.43
21.23 0.66 4.69 80.82 17.46 25.81 17.78
20.53 0.69 3.22 86.05 17.76 24.81 17.65
19.93 0.75 3.89 83.14 16.59 24.7 16.56
19.73 0.6 3.84 85.21 16.81 23.46 16.79
20.3 0.79 3.56 81.82 16.68 24.94 16.75
20.36 0.6 3.83 80.89 16.58 24.74 16.7
20.41 0.55 3.76 87.44 17.95 23.81 18.03
21.16 0.69 3.24 84.83 18.21 25.42 17.96
21.14 0.56 4.22 83.95 18.04 24.96 18.34
20.54 0.52 5 91.78 18.73 23.01 18.79
21.07 0.49 4.86 86.89 18.51 24.66 18.78
20.63 0.79 3.12 86.95 18 23.8 18.08
21.06 0.67 4.07 78.1 16.69 25.27 17.72
20.22 0.75 3.95 84.59 17.19 23.26 18.04
20.25 0.76 3.9 79.54 16.33 24.65 16.86
20.46 0.81 3.84 77.79 16.19 25.17 16.6
19.94 0.73 4.34 79.2 15.97 24.27 16.73
19.22 0.66 4.24 75.45 14.54 23.25 16.73
19.62 0.67 3.73 73.57 14.49 24.58 16.03
20.17 0.63 4.58 76.58 15.6 24.95 16.31
19.92 0.64 5.18 83.9 16.74 23.48 17.27
20.32 0.77 4.24 82.7 16.99 24.37 17.41
19.6 0.8 3.79 77.69 15.31 23.75 16.76
19.35 0.71 4.6 68.65 13.19 24.15 16.03
19.19 0.64 5.3 71.71 13.68 24.13 15.39
19.36 0.61 5.5 74.08 14.4 24.19 16.18
20.11 0.65 5.87 73.34 14.88 25.44 15.89
20.84 0.66 5.39 77.32 16.37 26.1 17.04
20.85 0.78 3.29 85.02 17.92 25.83 17.47
21.35 0.67 5.74 81.42 17.63 26.17 17.91
21.45 0.67 5.65 82.38 18.01 26.03 18.18
19.95 0.26 4.9 84.45 16.7 22.17 18.44
21.01 0.73 5.31 76.18 16.07 25.75 17.38
19.45 0.66 4.45 85.22 16.63 23 17.03
17.45 0.58 5.06 73.08 12.23 20.99 15.11
18.45 0.5 4.76 65.32 11.59 24.09 14.7
18.55 0.51 4.84 75.87 13.97 22.58 15.53
19.83 0.66 4.82 77.54 15.51 24.65 16.17
19.15 0.52 4.66 80.62 15.44 22.77 16.51
19.85 0.64 5.05 74.04 14.78 24.23 16.35
19.37 0.64 4.85 73.96 14.31 23.77 16.28
19.31 0.63 5.26 70.79 13.6 23.88 15.95
19.73 0.63 5.32 73.85 14.64 24.64 15.7
20.65 0.72 4.78 72.58 15.21 25.86 16.7
20.15 0.65 4.24 76.68 15.66 24.59 16.86
19.02 0.63 3.22 80.68 15.34 22.78 16.14
18.82 0.42 5.55 83.3 15.5 21.93 16.73
20.22 0.68 5.44 75.66 15.35 25.26 16.21
20.44 0.64 5.47 72.38 14.99 24.92 16.89
21.29 0.68 5.62 69.74 15.09 26.85 16.98
20.6 0.58 5.66 78.48 16.36 24.46 18.18
20.07 0.6 4.65 86.08 17.31 24.25 17.3
18.34 0.44 5.27 92.28 16.6 20.76 16.49
19.01 0.56 5.08 88.27 16.58 23.08 16.28
18.84 0.6 4.74 82.77 15.51 23.22 16.24
19.96 0.63 5.47 76.64 15.04 25.08 16.01
20.34 0.55 5.04 82.62 16.96 23.71 17.62
21.05 0.59 4.34 76.86 16.52 25.52 18.28
21.78 0.71 4.84 71.19 15.78 27.12 17.58
20.39 0.86 3.48 84.04 17.26 24.3 17.94
19.42 0.77 3.82 86.84 16.76 23.53 16.91
19.5 0.58 2.81 79.57 15.57 24.5 16.07
21.33 0.63 4.81 74.02 16.03 26.51 17.1
21.55 0.74 5.05 73.42 15.72 25.97 18.21
20.59 0.62 4.81 82.37 17.1 24.88 17.82
20.27 0.97 3.91 82.3 16.86 24.27 17.47
20.61 0.72 3.24 76.21 15.97 25.57 16.77
21.26 0.72 4.13 71.72 15.62 26.51 17.2
20.6 0.88 3.75 79.35 16.57 25.55 17.36
14.73 0.61 2.76 83.24 11.58 16.94 12.49
15.57 0.57 3.9 68.76 9.71 20.51 11.6
17.61 0.66 5.59 61.29 9.86 24 12.37
18.01 0.71 4.42 67.59 11.66 23.65 13.11
18.8 0.69 4.27 67.51 12.35 24.27 14.29
19.15 0.7 4.65 68.81 12.95 24.58 15.02
19.68 0.73 4.99 65.23 12.55 25.7 15.03
20.05 0.71 4.59 66.1 13.08 25.82 15.44
20.49 0.66 4.3 66.29 13.56 26.04 16.19
20.75 0.73 4.1 66.98 14.01 26.11 16.47
20.72 0.76 3.2 70.48 14.82 25.66 16.73
19.91 0.75 2.76 78.37 15.75 23.9 16.97
19.68 0.65 2.11 76.73 15.2 23.75 16.69
19.41 0.67 1.92 76.65 14.95 23.23 16.81
18.95 0.57 3.09 75.96 14.35 22.67 16.2
20.51 0.71 3.34 70.11 14.61 26.03 16.14
20.69 0.66 3.47 69.38 14.63 25.71 17.03
20.44 0.67 2.58 65.8 13.6 25.18 16.86
20.77 0.72 2.88 59.36 12.32 26.4 16.38
20.39 0.73 3.87 57.44 11.48 25.88 16.05
20.96 0.64 5.73 49.62 9.67 27.74 15.72
21.19 0.7 6.03 50.16 10.01 27.73 16.17
21.75 0.7 5.95 51.44 11 28.32 16.84
22.38 0.74 6.19 53.15 12.11 28.39 17.71
22.74 0.67 5.19 55.01 12.97 28.79 17.54
22.44 0.77 5.05 62.06 14.53 27.69 17.88
20.65 0.72 3.23 57.26 11.38 25.5 17.01
19.93 0.76 5.29 44.41 7.27 26.34 15.05
19.88 0.84 5.27 45.51 7.58 26.42 14.84
20.64 0.84 5.28 42.11 7.14 27.16 15.66
21.08 0.79 5.73 42.97 7.79 27.52 16.55
21.33 0.77 5.78 45.74 8.89 28.01 16.11
21.85 0.73 5.34 49.18 10.4 28.61 16.29
22.25 0.76 4.05 56.1 12.76 27.99 16.59
20.31 0.67 3.53 51.83 9.62 25.57 16.63
20.31 0.74 3.74 39.7 5.99 27.05 15.32
21.27 0.77 5.6 39.05 6.57 28.23 15.78
22.12 0.84 6.44 38.23 6.84 29.32 17.01
22.99 0.79 6.33 40.88 8.49 29.91 17.7
22.48 0.64 5.18 56.34 12.99 27.74 18.48
20.08 0.67 4.41 55.95 10.54 24.14 16.42
16.49 0.63 4.27 36.92 1.25 21.71 12.28
15.84 0.69 5.14 32.14 -1.06 22.75 10.17
17.61 0.79 6.07 29.93 -0.43 24.8 11.49
19.36 0.78 5.99 33.3 2.64 26.41 13.58
20.78 0.78 5.94 40.87 6.75 27.68 14.92
21.98 0.78 6.03 45.75 9.53 28.55 15.99
22.8 0.77 5.18 45.8 10.24 29.26 16.43
22.68 0.75 5.1 50.05 11.58 27.93 18.26
22.88 0.69 3.75 45.82 10.35 29.09 17.95
23.34 0.75 4.68 42.39 9.68 29.04 18.9
22.78 0.73 4.38 48.52 11.18 27.28 19.43
22.95 0.74 3.87 47.27 10.98 27.72 18.9
23.47 0.72 5.38 47.13 11.42 28.77 18.79
23.45 0.82 4.52 51.88 12.82 28.35 18.81
23.46 0.93 4.67 55.45 13.78 29.14 18.89
23.56 0.76 4.79 62.9 15.77 29.12 18.79
22.11 0.52 4.91 68.95 15.87 26.11 19.16
24.33 0.91 5.29 53.47 13.99 30.13 19.72
23.99 0.64 4.61 57.84 14.84 30.28 19.08
22.02 0.62 3.14 66.58 15.16 27.5 18.41
22.91 0.76 5.81 63.73 15.42 27.85 18.57
24.09 0.8 6.08 58.28 15.13 29.95 19.5
25.44 0.82 5.69 51.76 14.54 31.43 20.21
25.41 0.79 5.21 52.5 14.73 31.07 20.78
25.29 0.85 6.49 54.32 15.07 31.44 19.4
24.09 0.92 5.05 64.65 16.75 28.72 20.25
20.76 0.77 3.76 80.19 16.78 25.57 17.01
19.45 0.69 5.51 74.48 14.51 23.87 16.16
22.16 0.85 6.56 62.07 14.31 28.05 17.17
22.83 0.8 4.28 63.38 15.13 28.19 19.11
20.36 0.51 4.51 78.52 16.05 25.26 17.5
18.71 0.65 3.58 87.15 15.96 22.4 16.25
17.75 0.65 3.39 79.99 13.91 22.37 14.44
20.18 0.8 3.84 68.89 14.03 25.6 15.7
22.08 0.91 4.92 64.45 14.76 27.94 16.95
21.74 0.89 4.96 72.47 16.25 27.04 17.87
21.27 0.67 3.33 68.43 14.79 26.97 16.8
22.12 0.89 4.8 68.6 15.77 27.36 17.1
21.96 0.88 4.92 72.52 16.5 26.84 18.08
21.56 0.7 4.29 74.58 16.46 25.83 18.24
21.9 0.96 5.09 78.62 17.68 25.89 19.22
21.02 0.52 4.58 81.85 17.32 24.86 18.54
21.87 0.75 2.89 73.4 16.54 26.45 18.07
21.63 0.67 3.91 74.64 16.5 25.5 18.94
21.56 0.64 5.08 71.52 15.81 26.01 17.84
22.63 0.77 5.41 64.45 15.12 27.84 18.85
23.4 0.93 5.38 66.92 16.66 29.26 18.57
22.91 0.66 4.33 71.17 17.17 27.31 19.11
22.59 0.87 5.19 74.21 17.51 26.19 19.07
18.03 0.68 3.06 89.42 15.84 19.75 15.66
18.44 0.79 4.01 68.47 12.35 23.76 14.64
19.88 0.8 5.48 58.91 11.4 26.08 14.85
21.77 0.86 6.32 52.16 11.29 28.17 16.09
23.1 0.86 4.02 51.89 12.42 28.98 18.08
22.94 0.71 5.27 57.18 13.75 28.51 18.72
22.21 0.49 4.12 66.18 15.28 25.37 19.52
22.13 0.72 5.5 68.52 15.69 26.09 19.17
21.15 0.5 3.65 74.48 16.03 24.86 18.65
24.03 0.74 6.01 56.62 14.61 30.31 17.85
24.93 0.79 4.85 52.86 14.4 31.42 19.66
24.31 0.86 6.2 57.84 15.19 29.42 19.48
25.46 0.79 6.52 52.56 14.77 32.29 18.93
25.44 0.86 5.73 52.77 14.79 31.91 20.09
25.33 0.77 5.66 57.95 16.18 31.39 19.98
23.31 0.54 2.42 66.2 16.34 27.65 20.81
23.94 0.9 4.54 65.1 16.66 28.54 18.89
25.75 0.83 7.59 55.94 16.09 31.6 19.89
25.86 0.64 7.07 54.88 15.84 32.03 20.94
24.18 0.66 2.11 61.21 15.89 29.56 20.8
24.25 0.73 5.35 61.56 16.12 28.77 21.1
24.47 0.86 5.79 56.68 15.01 29.94 19.97
23.67 0.88 4.56 62.26 15.75 28.01 19.58
21.41 0.58 5.93 77.17 16.9 26.18 17.82
24.64 0.83 5.95 56.45 15.08 30.81 19.06
20.33 0.64 5.59 72.58 14.75 22.79 18.06
23.03 0.96 5.16 61.2 14.84 28.49 18.21
24.32 0.93 4.52 58.1 15.2 30.67 19.12
23.11 0.71 5.41 69.35 16.83 28.23 19.17
25.61 0.84 7.2 54.11 15.4 31.93 20.02
24.92 0.5 4.09 63.45 17.28 29.09 21.06
21.79 0.62 3.69 85.68 18.89 24.76 18.26
19.84 0.58 3.44 84.49 16.74 23.98 17.32
21.4 0.82 4.76 75.59 16.59 25.62 17.82
22.4 0.73 6.17 70.42 16.48 27.14 18.3
22.01 0.64 5.67 79.02 17.78 25.94 18.95
22.15 0.87 4.39 75.74 17.21 26.29 18.24
18.14 1.02 4.24 95.24 16.88 20.96 14.7
15.61 0.65 3.49 86.52 13.19 18.61 13.57
19.62 0.82 6.11 68.36 13.39 25.58 13.93
22.01 0.94 6.33 68.92 15.67 27.83 16.68
22.5 0.93 5.57 71.98 16.89 27.79 18.15
22.75 0.87 4.09 67.85 16.13 27.96 18.42
22.59 0.78 5.03 66.82 15.76 27.05 18.97
23.13 0.76 4.64 66.72 16.32 27.78 19.21
22.89 0.65 3.24 68.46 16.41 27.69 19.13
22.98 0.76 5.22 68.09 16.44 28.34 19.19
24.12 0.9 5.62 63.19 16.34 30.32 17.94
22.5 0.82 4.16 79.74 18.43 26.86 19.25
22.24 1 6.69 82.01 18.69 26.73 18.73
22.46 0.92 6.47 73.2 16.86 28.18 18.71
21.03 0.84 4.37 83.46 17.68 25.2 18.5
21.07 0.66 5.36 82.86 17.64 24.78 18.24
22.5 0.89 5.67 70.15 16.38 27.88 18.68
22.39 0.98 4.87 73.51 17.16 27.18 18.18
22.02 0.7 4.36 77.86 17.65 27.08 17.92
21.94 0.74 4.33 79.67 17.99 25.77 18.37
21.46 0.56 4.69 77.58 17.04 25.06 18.59
22.53 0.73 5.26 74.19 17.34 26.48 19.19
22.42 0.7 5.93 77.28 17.91 26.5 19.39
21.74 0.5 6.6 84.38 18.63 25.17 19.32
21.28 0.56 4.87 86.62 18.5 24.36 18.81
21.75 0.74 5.56 82.06 18.21 25.9 18.88
22.8 0.71 3.43 77.18 18.28 27.37 19.02
21.04 0.54 5.39 90.23 18.96 24.01 19.14
20.3 1.08 4.94 92.81 18.74 22.6 18.32
20.36 0.73 5.49 83.58 17.13 24.11 17.66
20.96 0.91 4.77 83.4 17.74 24.57 17.73
21.2 0.64 5.98 81.72 17.59 25.61 17.78
22.34 0.77 4.86 79.75 18.38 27.07 18.84
21.41 0.9 5.33 90.73 19.51 24.86 19.32
21.57 0.93 4.56 83.75 18.45 25.31 19.05
21.48 0.95 4.66 82.95 18.19 25.36 18.22
21.46 1.01 5.06 81.29 17.78 25.92 18.04
21.44 0.91 5.35 85.38 18.53 25.47 18.54
20.16 0.63 6.26 88.21 17.56 22.88 18.1
21.54 0.59 7.34 84.31 18.29 25.07 18.93
22.12 0.68 5.13 83.25 18.83 25.73 19.53
20.84 0.52 4.29 86.35 18.07 23.79 18.65
20.2 0.59 2.89 82.77 16.77 23.98 17.92
21.71 0.97 4.41 79.43 17.51 26.31 18.05
20.85 0.55 2.84 82.62 17.38 24.26 18.21
21.63 0.68 6.28 79.09 17.42 26.05 18.11
21.37 0.78 5.09 88.07 18.92 24.58 19.29
22.57 0.98 6.05 76.01 17.8 27.7 18.27
21.4 0.99 4.19 81.27 17.63 26.02 18.04
21.22 0.59 5.64 83.35 17.97 25.38 18.05
21.12 0.37 4.57 84.61 17.98 24.52 18.84
21.23 0.6 5.11 86.46 18.52 24.37 18.73
21.34 0.63 4.17 87.85 18.95 24.38 18.82
20.36 0.69 3.35 92.72 18.75 22.79 18.51
21.9 0.82 5.95 78.25 17.62 26.88 18.09
22.77 0.81 7.41 74.06 17.59 27.64 18.16
22.46 0.68 7.13 79.71 18.47 26.37 19.16
20.82 1 6.15 86.09 17.99 24.49 18.54
21.28 0.76 4.55 76.76 16.73 26.48 17.63
22.08 1.02 5.64 71.76 16.43 27.1 17.9
22.05 0.84 5.75 76.51 17.4 27.21 17.5
20.53 0.61 4.32 85.84 17.7 24.13 17.95
20.72 0.68 5.17 88.4 18.32 24.21 18.32
20.41 0.55 3.82 87.07 17.82 23.83 18.1
21.02 0.85 5.62 83.94 17.79 24.96 17.86
21.18 0.7 4.95 84.05 17.95 25.06 18.27
21.35 0.69 5.7 85.85 18.55 24.9 18.12
20.06 0.89 4.2 94.98 18.87 22.19 18.34
18.82 0.87 2.3 97.47 18.03 20.13 17.66
19.44 0.88 3.47 89.89 17.43 23.31 17.06
20.55 0.92 6 86.83 17.8 24.69 16.55
19.53 0.66 2.21 94.01 18.1 21.37 18.04
20.6 0.7 6.73 87.11 17.99 24.55 17.63
21.15 0.91 6.38 86.77 18.44 25.27 17.11
20.91 0.94 3.84 92.01 19.19 23.74 18.74
19.73 0.89 3.19 96.65 18.79 22.08 18.03
20.74 0.85 5.42 89.48 18.53 24.63 17.62
20.1 0.69 3.21 93.46 18.66 23.18 18
20.83 1.02 3.6 91.37 18.97 24.49 17.42
20.67 1 4.09 92.36 19.07 23.54 18.87
20.23 0.77 3.32 92.91 18.73 22.59 18.32
19.98 0.77 2.59 95.26 18.82 22.7 17.63
20.25 0.99 2.93 96.53 19.36 22.31 18.94
20.15 0.96 4.21 93.19 18.7 22.8 18.18
20.53 0.78 4.84 91.67 18.78 23.96 17.72
21.21 0.96 5.58 89.77 19.14 25.05 17.92
20.35 0.7 4.2 93.82 18.92 22.89 18.16
20.21 0.83 3.84 95.8 19.13 22.47 18.34
20.03 0.82 1.94 96.78 19.16 21.97 18.6
20.07 0.8 1.73 91.88 18.35 23.31 18.11
20.81 0.95 5.54 87.53 18.26 24.81 17.36
20.78 0.56 3.87 91.25 18.87 24.13 17.73
20.3 0.5 4.28 95.77 19.15 22.41 18.42
20.2 0.81 5.06 96.12 19.24 22.44 18.87
20.83 0.98 5.91 92.37 19.2 24.47 18.28
20.68 0.87 5.04 92 19 24.06 18.11
20.24 0.75 3.93 91.53 18.45 23.85 17.75
19.06 0.81 4.3 97.28 18.28 20.9 17.07
18.91 0.7 3.56 92.19 17.23 21.72 16.51
19.59 0.95 5.02 90.94 17.74 23.24 16.68
19.41 0.96 4.41 90.25 17.39 22.64 16.97
19.71 0.79 4.99 87.43 17.16 23.05 17.03
20.32 0.8 5.19 87.18 17.65 23.89 17.01
20.07 0.81 3.73 88.34 17.57 23.16 17.59
19.94 0.87 4.03 90.79 17.98 23.28 17.81
19.75 0.74 3.75 89.59 17.49 22.95 17.65
19.83 0.7 4.64 89.57 17.6 23.16 17.14
20.06 0.66 4.43 91.53 18.16 23.18 17.72
20.13 0.61 5.06 88.38 17.62 23.68 17.58
20.37 0.73 3.59 88.54 17.83 23.47 17.94
20.28 0.68 4.66 92.81 18.72 23.47 17.78
20.41 0.97 4.42 92.09 18.78 23.6 18.22
20.56 0.75 2.73 91.4 18.73 23.85 17.5
20.49 0.81 4.36 93.79 19.16 23.61 18.45
20.5 0.63 4.46 94.05 19.17 23.52 18.03
20.78 0.85 4.38 93.59 19.43 23.95 18.61
20.62 0.88 4.26 97.19 19.84 23.19 19.02
19.75 0.58 2.79 96.49 18.81 21.98 17.89
20.13 0.82 4.79 91.99 18.36 23.39 17.36
20.04 0.81 2.2 94.88 18.79 22.84 17.82
19.91 0.67 5.07 91.4 18.04 23.08 17.38
19.7 0.58 3.38 93.62 18.21 22.82 16.94
20.48 0.85 3.69 94.07 19.18 23.54 17.87
19.78 0.49 2.95 96.16 18.75 21.85 18.11
19.76 0.83 3.61 95.62 18.75 22.44 17.99
20.64 0.69 3.72 91.72 18.87 24.66 17.49
20.52 0.66 4.1 92.53 18.81 23.2 18.35
19.81 0.66 3.43 98.68 19.19 21.69 18.1
20.76 0.74 4.69 90.62 18.78 24.61 18
20.67 0.86 1.94 91.47 18.93 24.31 18.2
20.08 0.76 6.14 92.27 18.38 23.28 17.5
19.96 0.52 4.8 94.79 18.7 22.54 17.8
19.55 0.61 3.77 96.55 18.67 21.31 18.23
20.66 0.66 4.59 89.83 18.56 23.94 18.02
20.87 0.7 4.94 88.98 18.55 24.31 17.95
19.05 0.58 2.23 93.57 17.61 21.35 17.22
19.77 0.64 4.37 83.21 16.32 23.96 16.69
20.98 0.65 5.85 82.93 17.41 25.11 17.31
21.16 0.71 4.65 88.59 18.74 24.89 17.91
21.42 0.7 5.78 90.89 19.58 24.8 18.71
20.57 0.73 3.6 95.14 19.43 23.37 18.92
18.96 0.61 4.72 92.57 17.36 21.6 16.87
18.87 0.75 4.54 90.29 16.86 22.68 16.04
19.44 0.72 6 87.58 16.95 23.66 15.61
19.74 0.86 5.59 87.27 17.08 23.86 15.93
20.51 0.97 5.11 83.55 16.98 24.53 16.98
20.3 0.7 4.73 88.52 17.89 24.15 16.98
20.48 0.65 5.43 89.54 18.31 23.44 18.11
20.48 0.87 5.5 94.07 19.18 23.74 17.99
20.19 0.61 5.21 92.1 18.46 22.96 17.88
20.69 0.86 4.84 88.18 18.26 24.41 17.86
20.85 0.78 5.21 90.24 18.8 24.48 17.82
20.48 0.67 4.45 92.51 18.86 23.29 18.42
20.88 0.74 6.27 87.91 18.4 24.43 17.85
21.27 0.74 5.96 85.84 18.23 25.39 17.45
21.07 0.83 4.34 88.39 18.72 24.66 18.13
20.35 0.68 5.22 91.74 18.64 23.39 18.21
19.65 0.5 3.66 91.92 17.92 22.49 17.48
20.08 0.77 4.82 91.45 18.24 23.39 16.77
20.03 0.5 4.28 93.33 18.48 22.98 17.62
20.36 0.45 3.97 94.12 18.98 22.98 18.33
20.19 0.57 4.09 94.85 18.83 22.76 18.07
18.64 0.62 2.14 97.85 17.86 20.64 16.42
18.04 0.51 4.25 89.03 15.97 20.91 15.73
19.14 0.75 4.57 89.03 16.97 23.16 16.11
19.28 0.67 4.38 89.6 17.17 23.16 15.77
19.16 0.53 4.56 89.96 17.11 22.08 16.58
20.01 0.59 4.42 83.11 16.54 23.58 17.35
20.38 0.58 4.17 86.97 17.77 24.31 16.99
20.54 0.39 3.79 94.25 19.27 23.03 18.86
20.07 0.46 4.04 96.48 19.14 22.07 18.78
20.31 0.58 4.46 94.18 18.85 23.17 17.97
19.77 0.53 3.16 95.02 18.49 22.59 17.87
20.5 0.68 5.61 89.59 18.33 24.21 17.92
20.61 0.62 5.06 94.61 19.37 23.34 18.73
20.45 0.69 3.72 94.75 19.25 23.49 18.61
19.63 0.5 4.56 95.16 18.35 21.62 17.94
19.98 0.6 3.92 93.64 18.5 22.8 18.27
19.91 0.5 5.06 91.61 17.99 23.13 18.02
19.91 0.77 3.58 89.94 17.81 23.46 16.92
19.34 0.62 5.03 91.64 17.63 22.94 16.86
19.35 0.69 4.85 89.81 17.26 23.06 16.2
19.55 0.77 4.96 89.03 17.35 23.33 16.48
19.54 0.75 5.9 87.23 16.95 23.72 15.95
19.36 0.71 4.6 87.43 16.86 23.06 16.61
19.61 0.63 4.87 88.71 17.36 23.26 16.9
19.82 0.61 4.15 92.67 18.27 23.31 17.14
19.93 0.62 3.17 93.34 18.46 23.3 17.61
20.87 0.69 4.89 89.55 18.68 24.59 17.81
20.96 0.77 4.29 92.55 19.39 24.18 18.63
19.7 0.73 3.75 95.15 18.47 22.26 17.71
17.14 0.47 3.15 83.52 14.11 19.57 15.46
17.31 0.61 3.44 81.87 13.99 21.25 14.65
17.52 0.61 4.25 84.74 14.68 21.23 14.58
18.16 0.63 4.09 85.42 15.37 22.24 15.08
18.87 0.66 4.47 84.55 15.85 23.03 15.82
19.4 0.78 5.15 83.88 16.29 23.64 16.31
19.69 0.72 5.19 82.58 16.34 23.86 16.23
20.24 0.74 5 85.38 17.38 24.5 17.03
20.42 0.7 4.84 87.78 18 24.01 17.63
20.33 0.61 4.79 87.61 17.92 24.17 17.27
20.65 0.71 5.08 85.34 17.77 24.86 17.65
20.52 0.66 5.08 86.58 17.84 24.67 17.48
19.69 0.64 4.69 88.98 17.49 22.68 17.79
19.21 0.57 4.03 78.25 14.96 23.37 16.68
18.49 0.63 3.46 82.93 15.2 21.95 16.27
18.48 0.59 4.26 92.11 16.84 21.99 15.98
19.74 0.61 5.5 87.64 17.26 23.94 16.84
20.55 0.67 4.8 85.43 17.74 24.91 17.74
20.87 1.01 4.07 85.04 17.96 25 17.81
20.69 0.88 3.58 85.54 17.86 24.39 18.19
19.97 0.81 3.05 86.84 17.41 23.75 18.05
18.96 0.89 2.76 93.24 17.54 21.87 16.94
18.84 0.55 2.62 83.54 15.63 23.33 15.71
19.6 0.78 4.12 83.21 16.34 24.03 16.22
19.8 0.72 4.27 81.85 16.33 24.46 16.48
20.14 0.69 4.92 76.41 15.49 25.22 16.38
20.81 0.74 5.09 75.15 15.81 25.97 16.77
21.44 0.7 4.19 78.04 17.04 26.17 17.64
21.5 0.67 4.13 82.05 17.97 25.81 17.74
20.18 1.04 4.03 90.26 18.21 23.91 17.98
18.69 0.71 3.09 92.35 17.03 21.92 16.89
18.8 0.73 2.99 86.77 16.24 22.84 16.08
18.96 0.63 4.92 86.21 16.26 23.49 15.84
19.88 0.64 5.48 82.26 16.34 24.66 16.26
18.77 0.59 5.72 84.93 15.9 22 16.4
18.83 0.64 5.61 80.87 15.18 22.88 15.28
20.38 0.67 5.48 75.48 15.45 25.69 16.44
21.02 0.76 5.23 77.37 16.54 26.04 17.2
21.42 0.77 4.62 77.71 17.07 26.47 17.34
21.23 0.7 4.43 78.01 16.9 26.03 17.83
20.31 0.68 4.42 82.77 16.99 23.88 17.74
21.24 0.64 4.67 76.21 16.58 25.89 18.04
22.01 0.68 4.9 72.05 16.29 27.39 17.53
21.94 0.69 5.03 73.16 16.51 27.05 17.73
21.88 0.6 4.56 73.93 16.69 26.69 18.21
21.82 0.56 3.83 74.04 16.68 26.13 18.33
20.2 0.56 3.93 82.66 16.83 23.57 17.22
18.84 0.58 3.1 76 14.21 23.37 15.9
19.76 0.75 4.24 62.27 12.09 25.44 15.73
20.3 0.71 4.09 59.61 11.92 25.98 16.13
20.7 0.74 3.47 67.96 14.2 25.98 15.97
21.21 0.79 3.71 70.81 15.45 26.35 17.24
21.5 0.78 3.62 69.89 15.44 26.67 17.03
21.15 0.66 4.55 73.64 15.77 26.06 18.07
20.8 0.63 4.56 74.48 15.11 25.24 17.22
15.61 0.58 3.22 84.56 12.51 18.39 11.82
14.11 0.62 3.66 58.85 5.97 19.75 10.13
15.24 0.61 4.35 50.95 4.95 21.65 9.9
18.19 0.69 4.76 52.56 8.09 25.25 11.87
17.9 0.75 3.11 66.25 11.24 23.59 13.34
17.81 0.65 4.06 63.73 10.55 23.13 13.89
19.68 0.72 4.69 63.66 12.21 25.65 14.52
18.93 0.65 3.44 74.85 14.07 22.93 16.07
17.78 0.65 3.06 65.18 10.92 22.49 14.7
19.72 0.87 4.09 56.5 10.57 26.29 14.3
21.27 0.73 3.58 62.26 13.44 27.31 15.97
18.76 0.82 2.38 73.67 13.58 25.76 12.43
16.05 0.5 3.22 65.68 9.43 21.78 11.93
18.47 0.75 5.58 44.62 5.76 25.96 12.19
18.9 0.8 5.57 45.95 6.81 25.59 14.17
19.46 0.75 5.82 42.88 6.33 26.08 14.55
19.78 0.76 5.99 43.51 6.83 26.82 14.7
20.43 0.78 5.52 44.2 7.63 27.14 15.3
21.49 0.82 5.49 47.17 9.51 27.95 16.54
21.75 0.7 2.39 55.56 12.19 27.07 17.15
21.4 0.68 3.75 67.17 14.76 26.61 17.21
21 0.63 3.97 69.93 15.01 25.27 17.87
20.79 0.65 3.77 72.17 15.26 26.2 16.53
20.81 0.71 2.53 66.15 13.98 26.11 16.74
20.87 0.69 4.4 67.36 14.34 25.15 17.05
20.81 0.72 3.89 70.25 14.95 25.39 17.46
21.45 0.66 3.86 65.07 14.28 26.61 17.59
20.87 0.61 4.2 71.24 15.12 25.75 16.84
20.27 0.48 4.84 73.09 14.92 24.96 16.84
21.3 0.75 3.68 70.63 15.47 26.19 17.58
20.35 1 2.09 78.99 16.28 25.39 17.29
18.83 0.67 2.75 69.69 12.94 23.22 15.47
19.83 0.77 3.85 63.91 12.57 26.07 15.03
21.38 0.73 4.91 61.7 13.44 27.46 16.81
22.37 0.78 6.21 61.74 14.44 28.14 17.74
21.99 0.66 5.02 65 14.87 27.22 17.94
22.88 0.73 4 60.52 14.59 28.58 18.49
22.64 0.67 4.85 60.71 14.39 28.19 18.44
23.06 0.77 5.32 55.7 13.44 29.23 17.68
22.66 0.77 4.25 63.41 15.12 28.06 18.89
22.41 0.75 4.37 64.3 15.03 27.85 18.42
23.17 0.74 4.85 58.07 14.25 29.11 18.78
23.68 0.83 4.83 60.13 15.29 29.06 19.5
23.62 0.86 4.3 57.32 14.48 29.17 19.29
23.57 0.86 3.92 54.81 13.71 29.75 18.32
23.84 0.94 4.1 59.78 15.31 29.38 19.48
24.83 0.93 3.93 53.79 14.61 30.65 19.58
25.12 0.82 3.91 54.05 14.93 30.85 20.05
25.06 0.85 3.89 53.06 14.66 30.74 20.13
23.67 0.8 3.64 56.35 14.23 29.12 19.42
25.04 0.82 3.9 49.18 13.42 31.05 20.32
24.56 0.9 4.45 53.52 14.27 30.52 19.52
23.43 0.81 4.26 57.87 14.41 28.68 19.34
19.26 0.64 3 69.12 13.18 21.85 16.49
20.86 0.74 5.02 51.49 10.34 27.16 15.59
23.29 0.83 5.56 50.5 12.21 29.17 17.91
21.99 0.64 4.5 67.43 15.4 26.52 18.54
23.22 0.77 4.61 58.13 14.31 28.86 18.62
24.89 0.87 4.28 49.58 13.45 30.77 19.56
24.42 0.98 2.95 56.18 14.92 30.3 19.99
23.74 0.82 4.07 60.92 15.5 28.34 19.39
24.78 0.71 5.27 52.34 14.13 29.76 20.45
25.46 0.76 5.79 46.68 13.02 31.43 20.1
25.4 0.83 5.59 48.06 13.43 31.11 19.64
24.75 0.75 6.01 53.68 14.53 30.38 20.55
22.89 0.69 3.36 66.57 15.98 28.79 18.15
20.88 0.68 4.96 73.77 15.66 25.18 17.88
22.79 0.82 5.79 59.03 14.08 28.75 17.81
23.56 0.86 5.66 59.96 15.08 29.69 18.35
23.78 0.81 6.17 60.09 15.31 29.59 19.46
24.52 0.77 6.16 55.55 14.76 30.93 19.1
24.55 0.8 4.04 56.97 15.13 30.24 20.08
21.07 0.47 3.86 76.39 16.29 25.7 18.14
22.71 0.74 4.48 67.78 16.05 28.33 18.24
22.17 0.69 5.97 71.84 16.39 26.98 18.3
18.1 0.67 2.64 82.66 14.74 19.8 15.79
18.54 0.68 4.03 60.2 10.41 23.32 14.6
20.26 0.83 4.52 51.41 9.68 26.56 15.23
21.62 0.94 5.23 52.79 11.26 28.27 16.34
22.39 0.86 4.05 55.2 12.71 28.2 17.45
23.37 0.81 5.42 56.18 13.91 29.05 18.61
23.82 0.81 5.7 56.28 14.37 29.48 19.47
24.26 0.78 5.65 53.55 13.93 30.07 20.21
23.57 0.96 4.69 61.95 15.57 28.85 19.31
22.04 0.91 4.25 75.19 17.13 26.39 18.69
20.65 0.54 5.47 80.15 16.74 24.65 18.25
20.75 0.45 3.12 80.82 16.98 25.16 17.29
22.18 0.68 4.82 73.77 16.92 28.18 18.48
21.99 0.7 4.54 69.56 15.8 26.8 18.39
23.15 0.76 4.85 62.3 15.25 29.29 17.45
22.7 0.87 3.69 66.55 15.83 27.68 18.78
20.9 0.5 3.33 77.51 16.38 24.66 18.5
22.85 0.82 5.14 66.09 15.75 28.5 19.11
21.05 0.48 5.15 68.13 14.47 24.6 18.35
22.2 0.79 5.82 66.78 15.36 27.27 17.73
22.76 0.83 4.78 66.17 15.82 28.23 18.71
22.71 0.71 5.32 62.69 14.86 28.54 17.63
22.73 0.68 5.39 63.66 15.22 27.96 18.12
23.5 0.69 6.62 62.33 15.53 30.09 17.98
24.4 0.86 4.93 56.61 14.94 30.76 18.84
23.38 0.71 5.65 63.93 15.81 27.94 19.57
24.27 0.84 5.52 60.13 15.69 30.42 18.41
23.19 0.52 4.47 68.14 16.64 28.18 19.53
22.84 0.71 4.38 71.44 17.01 27.62 18.35
20.98 0.8 4.4 82.8 17.53 23.89 17.83
20.28 0.76 2.31 81.41 16.56 24.85 16.27
19.81 0.61 5.28 83.58 16.66 23.94 17.38
22.1 0.86 4.36 70.59 16.17 27.5 17.37
22.42 0.87 4.13 72.76 16.87 27.63 18.06
21.03 0.77 3.85 78.37 16.78 24.37 18.64
21.95 0.79 4.48 65.38 14.9 27.15 17.74
23.07 1.01 4.51 68.56 16.64 28.33 18.48
22 0.74 4.1 81.49 18.39 25.38 19.17
21.54 0.78 6.23 84.77 18.5 24.5 19.33
20.84 0.79 5.2 90.95 18.94 24.25 18.73
22.28 0.89 6.04 78.6 17.93 26.93 18.35
23.1 0.88 6.15 76.33 18.19 28.64 18.45
21.51 1.13 5.01 89.5 19.44 24.61 19.25
20.35 0.79 5.69 86.21 17.52 23.52 18
22.75 0.91 6.32 73.44 17.11 28.07 17.56
21.84 0.73 5.57 83.24 18.5 25.19 19.3
21.83 0.69 5.75 84.56 18.8 25.3 19.45
21.87 0.63 5.57 85.63 19 25.62 19
23.23 0.72 6.81 75.11 18.21 27 19.85
23.18 0.84 5.84 73.61 17.9 27.04 19.89
22.35 0.98 6.75 78.7 17.96 26.68 19.76
18.43 1.05 2.44 94.91 17.24 19.74 16.15
17.71 0.61 5.44 88.32 15.5 20.87 15.06
19.69 0.87 6.05 79.06 15.71 24.35 15.51
21.18 0.77 6.99 75.83 16.45 26.48 16.16
22.41 0.91 6.61 77.17 17.84 27.18 18.33
21.53 0.74 6.59 87.36 18.98 24.83 19.41
20.57 0.79 6.08 83.33 17.2 23.12 17.97
21.33 1.04 6.81 72.84 15.83 26.64 16.52
21.02 0.83 5.29 78.14 16.69 24.86 17.42
22.65 0.9 5.34 69.78 16.49 27.87 17.98
22.17 0.89 5.89 80.87 18.3 26.52 18.59
20.67 0.5 4.55 88.88 18.37 23.7 18.39
21.33 0.79 5.41 88 18.95 25.05 18.79
21.54 0.93 5.23 86.95 18.99 25.62 18.65
20.69 0.67 5.22 91.3 18.79 23.48 18.63
20.42 0.58 3.04 84.36 17.26 23.71 17.68
20.76 0.69 4.95 82.71 17.3 24.75 17.37
21.29 0.87 5.08 85.45 18.36 25.5 18.15
20.75 0.54 3.81 88.66 18.4 23.17 18.66
22.52 1.04 5.09 79 18.31 26.64 18.92
20.08 0.98 4.26 91.21 18.22 22.98 17.96
19.42 0.58 4.47 91.59 17.6 22.17 17.49
20.86 0.56 6.25 85.08 17.88 24.64 17.73
21.24 0.94 5.23 87.53 18.76 25.2 18.36
21.35 0.79 3.62 85.79 18.55 25.09 18.04
21.46 0.91 4.3 89.91 19.41 25.17 18.27
21.08 0.52 4.89 93.09 19.41 23.9 18.91
21.15 0.52 2.31 95.5 19.92 23.09 19.29
21.42 0.88 5.45 92.41 19.72 24.47 19.12
21.53 0.78 4.16 89.39 19.24 25.32 18.49
21.41 0.68 3.87 87.65 18.8 24.41 19.03
20.87 0.72 2.84 91.41 19.02 24.42 18.59
19.52 0.62 5.02 88.03 17.11 22.17 17.72
20.16 0.88 7.58 79.13 16.1 24.2 16.82
19.9 0.87 6.82 79.22 15.83 24.5 15.82
20.48 0.99 4.67 81.91 16.94 24.82 16.33
20.7 0.8 5.94 90.27 18.68 24.29 18.28
19.77 0.67 4.52 94.17 18.31 21.99 17.99
20.47 0.66 5.85 86.45 17.61 23.52 18.05
20.31 0.5 5.4 88.02 17.82 23.85 18
20.67 0.6 5.57 89.33 18.46 23.86 18.12
19.28 0.35 2.38 94.44 17.89 21.57 17.81
19.46 0.62 3.01 90.29 17.39 22.38 17.39
20.39 0.78 4.81 86.45 17.49 24.01 17.76
20.13 0.85 2.9 92.87 18.55 23.33 17.58
20.04 0.92 4.01 92.46 18.46 22.78 17.99
20.36 0.93 3.61 92.62 18.79 23.55 17.92
19.78 0.65 5.79 94.09 18.42 22.1 18.06
20.62 0.79 6.09 91.04 18.72 24.2 17.39
21.4 0.79 6.35 91.56 19.61 24.94 18.64
20.11 0.53 3.87 95.41 18.86 21.84 18.79
19.91 0.74 4.3 90.82 18.03 23.03 17.89
20.06 0.93 4.07 92.27 18.38 23.35 17.5
20.11 0.62 4.63 93.4 18.61 23.01 17.76
19.91 0.65 1.84 97.81 19.22 21.66 18.61
19.86 0.7 4.54 95.21 18.67 21.95 18.42
19.58 0.86 1.19 95.57 18.5 21.7 17.67
19.01 0.78 4.28 94.75 17.7 21.79 17.14
19.08 0.71 3.84 93.32 17.63 22.23 16.57
18.95 0.51 3.88 93.9 17.58 21.45 17.3
19.76 0.75 2.73 93.44 18.26 23.14 16.72
19.24 0.73 4.19 96.79 18.32 21.33 17.77
19.03 0.58 5.7 93.15 17.44 22.05 16.65
17.65 0.52 2.94 94.39 16.29 20.62 15.33
18.98 0.61 2.88 93.04 17.42 21.79 16.75
19.21 0.67 4.88 92.23 17.48 22.38 16.79
18.66 0.68 2.95 91.2 16.72 21.39 16.84
19.55 0.59 6.07 88.89 17.17 22.65 17.1
19.02 0.54 2.93 96.61 18.07 21.05 17.44
19.61 0.91 5.77 95.65 18.55 22.37 17.85
19.47 0.64 5.24 93.3 17.96 22.23 17.41
20.2 0.74 5.11 89.09 17.88 23.9 17.16
20.01 0.76 5.22 92.12 18.26 23.14 17.33
19.32 0.76 2.89 94.68 18.04 21.75 17.56
20.04 0.84 3.32 91.18 18.16 23.25 17.27
20.32 0.73 3.9 93.25 18.86 23.16 18.1
20.28 0.82 4.44 94.89 19.08 23.1 17.88
20.22 0.85 4.57 94.67 19 22.9 18.16
20.35 1.03 2.36 94.87 19.15 23.49 18.02
19.97 0.82 3.77 93.32 18.52 22.84 17.97
20 0.97 2.05 93.97 18.67 22.85 17.59
20.17 0.92 4.27 91.2 18.34 23.31 17.98
20.61 0.8 4.33 86.98 17.85 24.21 17.58
20.67 0.72 4.71 88.72 18.35 24.47 17.32
21.04 0.86 6.01 86.18 18.22 25.08 17.5
20.7 0.58 5.35 89.56 18.48 23.45 18
20.94 0.73 7.26 90.36 18.89 23.93 18.62
20.99 1.16 4.55 92.68 19.46 24.4 18.23
20.15 0.78 4.58 94.62 18.91 22.89 18.36
20.34 0.71 4.14 89.79 18.16 23.81 17.61
20.39 0.8 3.66 87.95 17.83 24 17.02
19.94 0.78 4.01 94.19 18.6 22.9 17.76
19.79 0.7 4.28 93.63 18.41 22.62 17.68
20.16 0.59 3.86 92.94 18.6 23.65 17.9
19.96 0.91 2.87 96.44 19.03 22.58 18.26
19.46 0.63 2.87 92.9 17.93 22.52 17.25
19.1 0.52 2.3 93.94 17.71 21.5 17.13
18.71 0.52 3.26 96.33 17.7 20.96 17.27
19.3 0.78 4.4 91.79 17.55 22.48 16.96
18.37 0.47 4.41 96.38 17.34 20.53 16.57
19.37 0.66 3.19 93.02 17.85 22.27 17.09
19.39 0.48 4.06 95.26 18.19 22.1 17.43
19.89 0.76 4.38 91.2 18.06 23.52 17.08
20.47 0.93 4 89.53 18.24 23.5 17.59
18.87 0.52 2.1 97.6 18.04 20.38 17.54
19.75 0.78 3.77 91.42 17.94 23.22 16.96
20.49 1.04 4.46 87.82 17.92 24.35 17.1
19.41 0.93 3.93 92.38 17.68 22.62 16.97
19.49 0.71 4.78 88.46 17.11 23.08 16.37
20.5 0.86 4.25 89.21 18.23 24.23 17.28
20.98 0.74 4.83 90.02 18.9 24.59 17.84
19.76 0.64 2.6 97.22 18.88 22.37 17.81
20.06 0.74 4.33 95.42 18.95 22.86 18.09
20.2 0.83 4.46 94.06 18.87 23.15 18.04
20.4 0.83 2.13 92.88 18.82 23.7 17.27
20.85 0.79 4.17 91.4 19.13 24 18.21
21.04 0.84 4.07 89.08 18.88 24.72 17.91
21.09 0.65 4.79 91.39 19.32 24.54 18.15
20.83 0.74 4.55 91.43 19.03 23.6 18.86
20.93 0.79 3.14 88.82 18.5 24.55 18.61
19.65 0.56 3.73 90.1 17.57 22.38 17.44
18.98 0.7 4.45 91.38 17.14 22.02 16.67
20.2 0.92 4.49 89.83 18.09 23.68 17.41
20.08 0.71 3.77 88.01 17.6 23.02 17.96
20.5 0.76 4.7 86.61 17.68 24.01 17.5
20.26 0.79 4.61 89.66 17.96 23.56 17.7
19.54 0.71 4.29 95.29 18.35 22.03 17.66
19.99 0.73 4.22 92.88 18.39 23.07 17.81
20.01 0.74 3.56 93.96 18.65 22.92 17.92
18.79 0.36 3.44 95.36 17.48 20.83 17.35
18.42 0.44 2.7 94.89 17.2 20.66 16.85
19.49 0.67 3.5 91.86 17.71 22.97 17.02
19.05 0.4 3.14 91.96 17.24 22.03 16.65
20.21 0.7 3.87 91.55 18.32 23.73 17.62
20.05 0.59 4.18 90.46 17.94 23.37 17.59
20.4 0.87 5.02 90.83 18.37 23.6 17.5
20.92 0.77 6.39 87.23 18.32 24.89 17.54
20.99 0.68 5.45 90.25 18.99 24.45 18.1
21.17 0.79 4.44 88.89 18.77 24.79 18.42
21 0.69 4.72 90.78 19.04 24.43 18.18
20.25 0.53 5.78 88.95 17.99 23.62 17.43
19.94 0.66 3.68 87.84 17.46 23.61 16.77
18.78 0.51 4.27 92.6 17.01 21.07 17.06
18.85 0.61 1.85 90.48 16.83 21.92 16.74
19.67 0.65 4.3 86.34 16.93 23.18 17.13
19.95 0.78 4.46 87.08 17.25 23.9 16.58
20.49 0.76 4.53 89.68 18.33 24.32 17.49
20.75 0.74 5.4 87.02 18 24.49 17.69
20.75 0.63 5.19 86.83 17.86 24.19 18.19
20.36 0.7 3.56 85.11 17.11 23.71 18
20.74 0.66 6.08 84.25 17.39 24.83 17.47
20.89 0.74 5.48 87.18 18.13 25.12 17.11
21.13 0.78 5.91 85.68 17.97 25.16 17.71
21.04 0.64 5.63 87.96 18.58 24.55 18.17
20.66 0.64 5.93 89.1 18.51 24.37 18.01
20.76 0.64 4.96 90.17 18.72 24.25 18.11
20.63 0.46 3 92.32 18.99 23.46 18.32
20.57 0.39 1.95 92.45 18.89 22.92 18.78
19.98 0.46 4.69 96.89 19.04 21.99 18.71
20.25 0.48 5 94.2 18.77 23.18 18.4
19.82 0.64 2.58 94.72 18.46 22.64 17.84
17.58 0.63 4.78 91.57 15.93 20.11 15.68
18.18 0.54 4.27 86.05 15.47 21.5 15.4
18.96 0.52 5.11 90.17 16.98 22.32 16.71
20.48 0.65 5.06 90.64 18.51 24.4 17.17
20.75 0.75 4.72 93.03 19.3 24.19 18.15
20.39 0.62 4.74 89.4 18.26 23.85 17.28
20.87 0.67 3.96 91.05 19.01 23.93 18.19
20.54 0.75 2.14 94.72 19.36 23.21 18.61
20.47 0.72 5.28 90.91 18.6 24.21 17.43
20.51 0.72 5.23 88.5 18.16 24.42 17.34
19.06 0.62 3.73 87.96 16.67 21.99 17.03
18.3 0.51 4.03 87.79 16 21.55 16.17
19.2 0.45 3.92 86.89 16.57 22.86 16.5
20.34 0.57 4.53 87.46 17.76 24.03 17.63
20.38 0.64 4.46 92.81 18.86 23.7 18.17
20.65 0.72 3.96 92.98 19.16 24.15 18.25
20.48 1.03 3.5 91.9 18.83 23.43 17.68
20.51 1.28 2.92 93.59 19.16 23.32 18.39
19.19 1.28 2.32 96.43 18.31 20.93 16.88
18 0.57 2.62 90.63 16.21 21.22 15.81
19.05 0.42 2.27 88.93 16.82 22.24 16.43
19.98 0.58 3.76 90.9 17.98 23.2 17.73
19.73 0.78 3.53 89.6 17.57 23.07 17.33
19.35 0.66 4.44 89.43 17.3 22.97 16.38
20 0.82 4.69 89.68 17.87 23.45 17.47
20.12 0.87 3.59 92.13 18.51 23.44 17.32
20.35 0.54 4.48 88.71 17.93 23.84 17.64
20.91 0.64 3.67 87.74 18.17 24.74 17.96
20.86 0.61 4.14 90.27 18.87 24.69 18.34
20.57 0.72 3.36 90.55 18.54 24.32 17.36
19.79 0.84 4.93 96.22 18.8 22.15 18.53
20.6 0.61 5.63 88.67 18.19 24.62 17.22
19.75 0.63 5.35 94.46 18.35 21.9 18.35
19.39 0.54 5.1 97.03 18.53 21.52 18.05
19.23 0.29 3.99 93.02 17.55 21.84 17.49
20.17 0.48 4.3 91.06 18.3 23.42 18.1
20.25 0.61 4.16 90.42 18.25 23.31 18.32
20.39 0.78 4.04 89.87 18.38 24.14 17.59
19.98 0.69 3.62 89.83 17.89 23.56 16.79
19.96 0.7 4.31 83.98 16.68 24.1 16.86
19.66 0.71 3.98 83.95 16.42 23.93 16.18
19.94 0.7 3.98 86.96 17.41 24.09 16.62
20.33 0.63 3.82 86.5 17.65 24.2 17.59
19.94 0.71 3.92 90.28 18.01 23.29 17.93
19.55 0.56 4.25 86.49 16.92 23.47 16.9
20.56 0.67 4.51 79.27 16.48 25.08 17.52
20.23 0.63 4.3 86.49 17.5 24.08 17.99
20.1 0.67 3.76 81.81 16.54 24.29 17.18
19.91 0.63 3.93 78.9 15.72 24.25 16.79
19.56 0.58 4.23 83.25 16.25 23.63 16.63
19.34 0.54 4.41 81.25 15.66 23.63 16.81
19.63 0.6 4.4 81.36 15.99 23.81 16.48
19.03 0.45 4.27 86.08 16.29 22.23 16.86
18.96 0.72 4.09 82.64 15.56 23.91 14.31
13.29 0.5 3.81 80.22 9.81 15.89 11.3
13.63 0.5 4.57 70.56 8.15 19.1 9.82
13.7 0.59 4.29 69.51 7.94 18.8 9.57
14.57 0.57 3.4 65.06 7.93 20.05 10.89
15.24 0.64 3.98 60.47 7.47 20.73 10.9
17.01 0.6 5.45 60.29 8.97 23.12 12.4
18.3 0.61 4.86 68.12 11.8 24.89 12.77
18.81 0.66 3.62 74.97 13.77 24.42 13.92
18.46 0.61 2.61 74.77 13.6 23.2 15.21
17.92 0.62 3.37 66.8 11.39 23.42 13.78
18.53 0.71 4.82 60.35 10.37 24.53 14.1
19.03 0.74 4.71 62.91 11.44 25.2 13.93
19.97 0.63 4.54 67.62 13.32 25.73 15.85
20.64 0.71 4.27 68.13 14.1 26.36 16.27
20.56 0.66 3.76 69.05 14.31 25.76 16.03
21.3 0.77 3.68 68.35 14.83 26.87 17.13
21.77 0.7 3.58 68.46 15.26 27.45 17.44
20.5 0.9 2.55 77.87 16.17 24.54 17.39
19.1 0.7 1.69 78.7 14.85 23.86 16.16
18.08 0.46 1.21 87 15.4 21.09 15.63
20.74 0.62 5.41 70.15 14.65 26.03 16.98
20.95 0.84 4.01 73.38 15.68 25.9 17.37
20.34 0.79 2.97 83.57 17.15 25.21 16.61
20.84 0.61 3.33 82.39 17.37 25.41 17.65
18.43 0.73 2.73 89.35 16.28 21.53 16.02
18.74 0.61 2.49 76.66 14.31 23.02 15.28
20.22 0.69 3.84 72.85 14.91 25.32 16.35
20.48 0.69 3.26 74.03 15.37 25 17.18
21.11 0.65 3.65 73.51 15.9 25.52 17.73
21.27 0.62 3.25 75.91 16.51 25.82 17.93
20.96 0.64 1.96 77.8 16.6 25.37 18.08
21.67 0.53 3.61 72.14 16.09 26.43 18.3
22.49 0.67 4.44 70.98 16.56 27.64 18.43
22.5 0.66 5.38 74.09 17.38 27.34 18.65
22.11 0.68 4.92 72.4 16.6 27.23 18.54
21.02 0.63 2.63 70.66 15.13 25.61 17.65
19.73 0.55 3.45 77.19 15.25 23.58 17.28
20.16 0.75 3.97 73.13 14.89 25.2 16.88
20.9 0.75 2.97 69.21 14.77 26.32 16.9
18.58 0.58 1.76 80.35 14.86 22.26 14.45
15.52 0.58 3.34 73.98 10.7 20.38 11.97
17.96 0.72 4.59 57.59 9.26 24.27 12.45
19.84 0.69 4.49 61.56 11.9 25.97 14.44
20.33 0.62 4.81 66.33 13.57 25.62 16.31
20.8 0.66 5.89 59 12.18 27.2 16.33
20.99 0.69 6.32 51.45 10.09 27.81 16.24
21.1 0.73 5.73 47.59 9.22 27.88 16.53
21.14 0.73 3.44 50.32 10.11 27.61 16.11
21.17 0.78 4.09 56.22 11.83 26.24 17.81
21.9 0.72 4.56 57.19 12.75 27.95 17.05
20.65 0.71 2.36 65.72 13.76 24.97 17.57
21.64 0.73 4.42 56.18 12.34 27.33 17.62
21.75 0.8 4.61 49.12 10.41 27.91 17.54
21.58 0.8 5.45 47.29 9.69 28.49 15.88
22.32 0.78 6.49 42.52 8.74 29.23 17.36
22.4 0.83 6.15 39.9 7.72 29.52 17.89
22.35 0.77 5.19 47.22 10.12 28.86 17.36
22.5 0.76 4.4 54.9 12.66 27.97 18.42
22.85 0.76 3.4 56.47 13.52 28.17 18.64
22.39 0.7 3.19 59.73 13.97 27.4 18.18
21.76 0.67 3.26 66.32 14.96 26.42 17.68
20.98 0.81 4.01 74.8 15.96 25.74 18.06
19.04 0.5 2.04 79.6 14.9 22.91 16.72
21.11 0.7 4.25 60.34 12.76 26.93 16.96
20.95 0.61 3.8 57.06 11.75 26.76 16.88
21.55 0.69 4.77 52.67 11.15 27.79 17
22.34 0.84 3.91 49.7 11.03 28.89 17.52
22.79 0.81 5.08 54.28 12.81 28.65 18.57
22.96 0.85 5.98 55.96 13.38 29.04 18.67
23.82 0.85 4.98 54.07 13.72 29.82 18.54
24.12 0.68 4.03 55.64 14.43 29.72 19.85
22.3 0.67 5.13 66.05 15.25 26.83 19
23.23 0.55 6 54.68 13.3 28.82 19.22
24.11 0.85 5.58 53.54 13.84 29.78 19.68
23.21 0.64 5.21 61.58 15.14 28.41 19.26
23.12 0.82 5.16 57.44 13.99 28.99 18.73
21.62 0.47 4.67 64.42 14.29 25.69 18.64
22.66 0.75 4.7 60.43 14.29 28.51 18.14
22 0.97 3.28 71.11 16.21 27.26 18.2
23.39 0.82 3.95 59.65 14.79 29.41 18.44
23.83 0.87 5.02 60.69 15.52 30.03 18.72
24.45 0.74 5.4 55.88 14.85 30.42 19.35
24.67 0.83 5.98 57.45 15.51 29.92 20.57
23.22 0.58 5.77 67.24 16.6 27.38 20.13
21.9 0.48 4.28 74.12 16.69 26.55 19.27
23.82 0.78 4.92 54.09 13.54 30.83 18.18
23.9 0.74 5.11 59.04 15.22 29.53 19.16
23.78 0.88 4.77 61.67 15.77 28.85 19.87
23.1 0.63 4.87 63.09 15.44 27.67 19.47
23.21 0.67 4.19 63.08 15.49 28.38 18.68
19.5 0.55 2.58 82.02 15.97 23.93 15.26
18.63 0.75 4.96 59.7 10.32 24.84 13.88
21.05 0.82 5.8 47.45 9.16 27.94 15.34
22.92 0.83 6.38 49.94 11.64 29.66 17.45
23.85 0.85 5.83 57.17 14.64 29.78 19.42
21.95 0.58 3.94 67.39 15.27 26.52 17.93
22.61 0.75 5.91 63.73 15.05 28.01 19.04
22.54 0.85 4.01 70.96 16.72 26.98 18.98
22.49 0.67 4.69 69.14 16.15 27.97 18.06
21.68 0.67 5.63 68.98 15.43 26.15 17.8
23.67 0.66 5.89 60.01 15.16 29.03 19.48
23.24 0.71 4.42 67.69 16.6 27.67 19.48
23.55 1.15 5.14 67.09 16.8 28.7 19.48
23.92 0.82 4.98 60.74 15.52 29.14 19.49
24.85 0.85 5.58 55.56 15.09 30.97 20.36
24.77 0.7 5.57 56.34 15.13 30.47 20.23
22.18 0.51 4.28 69.33 15.97 26.15 19.29
23.83 0.88 4.8 64.14 16.34 30.25 19.61
23.67 0.6 5.78 68.32 17.22 28.64 19.32
24.05 1.05 4.16 65.02 16.77 29.52 20.24
22.95 0.84 4.47 68.8 16.55 27.38 19.64
24.29 0.72 5.14 58.97 15.46 29.94 19.52
24.29 0.95 5.17 60.16 15.83 29.3 19.82
20.84 0.57 6.09 72.65 15.27 23.66 17.87
23.94 0.8 4.51 55.7 14.3 29.89 18.52
21.36 0.83 4.19 60.66 12.86 26.2 17.87
21.98 0.84 5.26 65.53 14.85 27.78 17.13
22.92 0.72 5.04 65.39 15.78 27.87 18.93
21.86 0.47 4.89 71.1 16.02 26.63 18.17
21.82 0.56 5.11 74.35 16.7 25.78 19.35
21.19 0.67 5.97 83.61 17.98 24.74 18.73
20.39 0.72 4.41 85.78 17.58 23.57 17.62
22.75 0.88 5.65 69.87 16.61 28.29 17.68
21.87 0.37 5.57 78.6 17.64 25.95 18.91
21.95 0.67 5.1 81.02 18.17 25.5 19.14
23.09 0.86 5.98 75.15 17.96 27.64 19.36
21.3 0.68 2.96 89.61 19.06 24.64 19.13
21.52 0.61 6.77 83.47 18.08 25.21 18.78
21.48 0.48 6.84 85.08 18.36 24.57 19.09
22.07 0.59 5.81 78.71 17.7 26.36 18.88
23.4 0.87 7.69 68.77 16.74 29.08 18.82
23.32 0.86 7.13 75.35 18.41 28.43 19.19
21.17 0.5 4.61 80.16 17.2 24.57 18.57
21.9 0.71 5.8 78.79 17.67 25.41 18.81
21.63 0.68 6.53 81.83 18.04 25.29 19.24
19.49 0.5 3.89 91.94 17.66 21.54 17.76
20.45 0.64 4.44 75.26 15.62 24.53 17.42
21.24 0.81 3.94 78.21 16.91 25.66 17.65
20.33 0.75 3.78 92.31 18.55 23.56 18.18
19.27 0.44 5.04 92.94 17.7 21.7 17.64
20.84 0.96 5.77 88.79 18.48 24.23 17.53
21.97 1.02 5.53 86.04 19.18 26.39 18.63
21.23 0.77 4.88 88.38 18.86 25.11 18.69
21.74 0.65 4.98 83.86 18.52 26.04 18.71
21.42 0.78 4.4 89.33 19.27 24.53 18.99
21 0.42 4.66 91.7 19.22 24.23 19.21
21.77 0.87 5.09 88.74 19.51 25.4 19.16
21.23 0.71 5.24 89.1 18.9 25.02 18.34
21.63 0.8 5.42 89.12 19.33 25.51 18.97
22.46 0.88 4.96 81.48 18.74 26.57 19.08
22.43 0.56 4.36 82.02 18.85 26 19.48
21.77 0.96 4.38 82.24 18.05 27.25 17.83
20.45 0.61 3.47 93.72 18.95 23.09 18.61
21.56 0.65 5.35 86.2 18.81 25.81 18.36
21.94 0.86 6.46 86.31 19.27 26.04 18.95
21.96 0.66 5.85 83.99 18.75 25.9 18.87
23.33 0.94 6.9 78.99 19.19 27.99 19.01
23 1.06 4.85 82.82 19.63 27.34 19.93
23.32 0.95 6.89 79.26 19.16 27.93 19.4
23.42 1.01 5.6 79.9 19.44 27.9 19.45
23.02 0.78 2.88 80.05 19.09 26.99 20.15
21.99 0.78 5.6 81.18 18.33 25.15 19.36
22.58 0.93 6.53 73.86 17.25 27.65 18.53
21.45 0.63 4.63 83.01 18 25.43 18.24
20.81 0.57 4.79 91.51 19.02 23.65 19.08
20.36 0.66 4.47 95.37 19.16 22.75 18.78
18.63 0.59 6.23 93.39 17.22 20.22 16.85
19.74 0.9 5.77 88.92 17.56 24.1 16.4
20.79 0.83 6.65 87.22 18.27 24.79 17.75
21.51 0.93 5.57 86.92 18.72 25.24 18.2
19.14 0.92 3.42 93.33 17.61 20.86 17.05
19.92 0.76 5.33 81.08 16.29 23.63 16.55
20.69 0.86 5.24 81.34 17.04 25.07 16.55
20.56 0.59 3.97 87.07 17.97 24.17 17.83
19.22 0.54 5.65 91.8 17.5 21.74 17.77
20.44 0.72 7.15 83.33 17.16 24.15 17.22
21.67 0.83 6.28 80.89 17.9 26.01 17.46
21.49 0.75 6.1 86.94 18.79 24.93 18.87
22.28 0.69 4.26 80.81 18.45 26.95 18.54
21.93 0.63 5.78 81.02 18.07 25.61 18.95
22.12 0.77 3.14 80.23 18.16 26.04 18.98
21.41 0.76 3.91 81.87 17.72 24.9 19
21.28 0.73 5.97 79.97 17.28 26.13 17.79
21.66 0.82 5.12 79.94 17.72 26.31 17.64
20.95 0.63 5.43 88.05 18.59 23.77 18.47
22.23 0.58 5.35 82.63 18.84 26.53 18.72
20.52 0.57 3.21 95.31 19.35 22.49 19.2
21.41 1.22 5.51 89.88 19.3 25.13 18.27
19.97 1.27 2.12 94.09 18.56 22.4 17.21
19.79 0.84 4.74 83.28 16.55 23.42 16.83
20.48 0.85 5.16 83.31 17.24 24.2 16.79
21.44 0.85 5.27 84.03 18.28 25.73 17.57
20.79 0.65 4.36 84.24 17.66 24.48 18.13
20.88 0.69 5.16 89.96 18.81 23.7 18.64
21.38 0.75 5.43 86.55 18.61 24.86 18.8
20.32 0.44 4.49 94.33 18.94 22.56 18.75
20.71 0.77 4.18 96.18 19.71 22.96 19.09
20.15 0.56 2.46 96.52 19.21 22.3 18.67
20.82 0.78 4.67 88.1 18.38 24.45 18.06
19.98 0.47 2.93 91.3 18.02 22.4 17.81
20.72 0.5 5.3 91.46 18.74 23.14 18.85
21.6 0.58 4.65 90.15 19.62 24.69 19.56
21.12 0.72 3.34 92.63 19.54 23.79 19.1
21.37 0.86 3.5 88.38 18.98 25.36 18.26
21.14 0.63 3.8 93.61 19.76 23.21 19.61
21.33 0.89 5.87 93.32 19.86 24.29 19.45
20.62 0.69 3.39 91.47 18.7 24.05 18.11
20.9 0.73 4.03 80.79 17.01 25.19 16.88
21.55 0.85 7.45 78.2 17.09 25.95 17.81
20.86 0.62 6.6 89.2 18.65 23.74 18.65
21.38 0.8 6.63 87.93 18.91 25.11 18.52
21.19 0.82 3.5 88.78 18.8 24.74 18.58
19.39 0.59 3.09 96.16 18.35 20.95 18.02
18.94 0.63 2.53 93.33 17.51 21.61 17.42
20.18 0.88 3.16 86.62 17.51 23.96 17.01
20.67 0.85 5.52 82.73 17.17 25.13 16.39
20.99 0.65 6.84 85.56 18.13 25.12 17.78
20.94 0.7 5.97 86.22 18.1 24.52 18.17
20.94 0.75 6.99 85.96 18.09 24.73 18.23
21.13 0.74 6.05 85.17 18.19 25.28 17.71
21.62 0.99 5.18 87.88 19.21 25.81 18.26
21.02 0.68 4.09 91.15 19.05 23.92 18.96
21.75 0.78 5.67 88.19 19.34 25.67 18.73
21.74 1.14 3.53 89.42 19.63 25.47 19.31
20.69 0.65 4.58 90.99 18.81 23.6 18.49
20.94 0.91 2.37 90.6 19.06 24.25 18.69
21.32 1.04 3.07 88.26 19.02 24.93 18.72
20.82 0.96 5.39 91.38 19.05 23.85 18.6
21.1 0.93 4.89 90.12 19.05 24.73 18.22
20.85 0.66 4.48 89.77 18.7 24.3 18.31
21.84 0.97 5.7 84.2 18.54 25.99 18.6
20.86 0.81 2.51 92.05 19.12 24.01 18.77
20.46 0.77 3.52 92.62 18.9 23.64 18.29
20.65 0.93 5.42 91.73 18.9 24.44 17.95
19.02 0.41 2.06 96.45 18.05 20.65 17.78
19.8 0.47 2.13 95.22 18.61 22.05 18.14
19.81 0.54 4.11 95.57 18.74 22.15 18.12
20.47 0.6 3.78 93.35 19 23.72 18.11
21.25 0.7 5.07 88.88 18.93 24.91 18.23
21.07 0.73 5.85 92.77 19.5 23.91 18.95
20.02 0.56 3.62 92.64 18.3 22.7 17.88
19.88 0.71 1.43 90.46 17.84 22.84 17.62
20.79 1.02 2.78 93.52 19.38 24.04 18.25
20.17 0.73 4.06 98.01 19.5 21.94 18.83
20.4 0.77 2.09 93.26 18.92 23.43 17.95
21.19 0.79 6.04 88.77 18.86 24.92 18.15
21.13 0.61 6.08 88.61 18.67 23.69 19.11
20.47 0.69 3.26 97.27 19.6 22.58 18.95
20.73 0.81 4.47 92.23 19.06 23.75 18.78
20.63 0.68 3.59 94.05 19.34 23.44 18.52
20.44 0.81 3.5 95.17 19.28 22.57 18.9
19.95 0.5 2.31 91.37 17.99 22.98 18.04
21.59 0.74 6.09 81.38 17.66 25.45 18.84
22.01 0.89 5.17 87.21 19.27 26.02 18.62
21.02 0.65 1.65 91.49 19.14 23.7 19.46
20.05 0.87 2.56 96.72 19.15 22.25 18.53
20.16 0.78 4.85 92.36 18.52 23.39 17.87
20.25 0.71 3.7 91.67 18.41 23.59 17.66
21.1 0.79 4.06 89.09 18.82 24.76 17.87
21.32 0.7 4.62 90.15 19.19 24.63 18.39
21.16 0.68 2.61 93.96 19.72 23.95 18.9
21.28 0.73 6.13 90.84 19.32 24.6 18.98
20.1 0.72 3.26 95.3 18.99 22.34 17.75
19.8 0.74 3.41 89.64 17.6 23.4 17.13
20.15 0.72 4.11 88.44 17.73 23.52 17.62
20.84 0.88 4.43 90.71 18.89 24.29 17.89
19.8 0.55 3.66 94.68 18.53 22.18 18.34
19.65 0.78 4.16 93.75 18.26 22.62 17.49
20.19 0.72 3.8 89.57 18.04 23.51 17.63
20.76 0.84 4.19 89.72 18.59 24.35 17.69
20.92 0.63 4.76 92.87 19.37 23.83 18.75
20.08 0.54 3.61 95.14 18.89 22.36 18.63
19.89 0.62 3.73 92.56 18.22 22.68 17.91
20.03 0.51 4.26 92.27 18.34 22.96 17.74
20.99 0.77 4.59 91.42 19.14 24.06 18.52
20.37 0.82 3.67 94.11 19.05 23.02 18.42
20.27 0.8 4.52 88.58 17.85 23.91 17.63
20.54 0.69 4.86 87.87 18.08 24.26 17.84
20.91 0.81 4.98 89.62 18.7 24.96 17.5
20.49 0.66 4.73 93.66 19.1 23.15 18.26
21.22 0.83 5.7 92.85 19.66 24.42 18.85
21.62 0.88 5.06 89.5 19.42 25.46 18.93
21.51 0.93 5.11 91.79 19.83 25.01 18.71
21.52 0.82 4.77 91.53 19.7 25.02 18.53
21.06 0.67 5.66 93.41 19.62 24.14 19.1
20.74 1 4.06 93.62 19.35 24.18 18.46
20.17 0.58 4.42 89.25 17.94 23.55 17.98
20.33 0.7 4.17 87.89 17.84 23.87 17.17
20.76 0.77 4.86 90.65 18.87 24.5 17.91
21.52 0.72 5.88 86.41 18.73 25.66 18.1
21.77 0.84 5.85 84.47 18.5 25.91 18.53
21.35 0.78 4.65 91.25 19.54 25.29 18.4
21.43 0.64 4.83 90.43 19.39 24.92 18.57
21.81 0.79 5.77 89.8 19.73 25.29 19.1
21.78 0.63 5.79 90.51 19.71 25.17 19.27
21.65 0.57 4.42 91.03 19.72 25.4 18.88
21.29 0.63 5.27 91.29 19.49 24.74 19.02
20.04 0.41 4 95.74 18.95 21.86 18.69
19.86 0.65 2.79 93.74 18.33 22.46 17.77
18.75 0.66 2.86 89.27 16.63 21.68 16.91
19.54 0.8 3.39 88.92 17.31 23.26 16.86
19.7 0.7 4.35 89.15 17.53 23.33 17.31
20.65 0.81 5.2 83.66 17.45 24.76 17.3
21.05 0.78 4.79 83.22 17.75 25.45 18
20.74 0.82 3.92 85.64 17.76 24.87 17.22
20.75 0.68 4.59 87.39 18.23 24.38 18.47
21.25 0.77 5.32 83.52 18 25.77 17.54
20.39 0.63 2.64 84.93 17.25 24 17.9
20.41 0.66 3.88 84.28 17.2 24 18.14
19.73 0.39 4.23 93.03 18.22 21.92 18.15
20.2 0.46 2.85 87.78 17.61 22.92 18.22
20.2 0.41 3.72 92.87 18.6 22.77 18.41
19.72 0.49 4.11 94.04 18.39 22.15 17.89
19.04 0.65 1.79 93.66 17.66 22.21 17.22
19.79 0.71 5.1 85.73 16.99 23.97 16.63
20.57 0.64 4.59 88.87 18.34 24.22 17.67
21.21 0.68 5.49 89.43 19.05 25.02 18.54
21.11 0.7 5.35 89.58 18.99 24.96 18.57
21.78 0.62 5.69 83.15 18.26 26.11 18.62
21.78 0.81 4.93 85.64 18.75 26.24 18.44
21.16 0.58 3.7 85.5 18 25.55 18.35
21.18 0.65 5.52 87.51 18.61 25.21 18.01
21.03 0.59 5.05 82.65 17.45 25.63 18.05
21.05 0.86 4.19 82.39 17.48 25.45 17.69
20.57 0.71 4.02 85.25 17.65 24.73 17.7
20.71 0.72 3.88 77.64 16.24 25.38 16.9
20.78 0.75 4.45 81.11 17.13 25.45 16.95
21.21 0.73 5.26 78.17 16.85 26.21 17.16
21.93 0.69 4.08 80.14 18.03 26.84 18.1
21.34 0.7 4.76 85.28 18.39 24.8 18.94
21.37 0.72 4.82 82.66 17.89 25.46 17.93
22.18 0.72 5.25 82.64 18.76 26.84 18.76
22.56 0.82 4.69 81.04 18.81 26.93 19.16
21.98 1.05 3.38 84.21 18.91 25.78 19.4
20.84 0.62 3.47 86.2 18.06 24.24 18.56
21.13 0.77 3.63 85.18 18.2 25.05 18.31
21.83 0.68 5.3 82.83 18.45 26.63 18.39
20.59 1.24 4.13 88.56 18.25 24.19 17.54
18.16 0.6 3.33 80.21 14.41 21.2 16.16
19.26 0.6 4.1 77.22 14.91 23.73 16.22
20.38 0.71 3.93 78.82 16.27 25.26 16.72
20.82 0.67 4.82 80.39 17.03 25.19 17.56
21.32 0.61 4.85 81.83 17.69 26.22 18.18
20.59 0.75 4.92 90.17 18.51 24.76 18.35
20.74 0.65 3.8 89.7 18.63 25.28 17.93
20.61 0.9 3.62 92.48 19.06 24.1 18.41
20.78 0.86 3.38 87.59 18.36 24.71 17.92
20.35 0.76 3.48 86.65 17.73 24.12 17.45
20.48 0.67 3.56 85.03 17.62 24.44 17.69
21.5 0.74 3.5 81.79 17.92 26.53 18.04
21.46 0.69 3.27 82.25 17.95 26.11 18.01
21.3 0.61 3.41 86.53 18.62 25.71 19
21.61 0.63 3.23 81.99 17.99 26.06 18.33
21.6 0.7 4.18 83.47 18.4 26.03 18.64
21.95 0.75 3.19 78.62 17.75 26.47 18.68
21.57 0.71 2.35 85.28 18.72 26.02 18.67
19.88 0.76 3.47 94 18.49 22.11 18.45
20.09 0.59 3.71 89.19 17.84 23.71 18.08
19.99 0.48 3.96 89.53 17.84 23.72 17.37
20.49 0.57 3.16 85.01 17.43 24.67 18.13
20.32 0.67 3.48 84.52 17.26 24.41 17.23
18.98 0.54 3.24 88.37 16.57 21.35 16.84
18.94 0.73 3.97 78.29 14.72 23.2 15.6
18.94 0.66 4.47 78.09 14.77 23.82 15.17
19.56 0.75 5.16 72.45 14.03 25.16 15.57
20 0.71 4.87 76.55 15.33 25.2 16.54
18.46 0.59 3.73 87.1 15.99 22.61 16.08
18.97 0.73 4.36 76.31 14.39 23.65 15.75
19.29 0.81 4.46 72.27 13.81 24.66 15.26
19.15 0.78 3.89 68.53 12.84 24.35 15.8
17.78 0.68 4.58 69.81 11.9 22.45 14.38
17.16 0.74 3.87 66.98 10.76 22.82 13.32
16.7 0.7 5.01 66.02 10.11 22.3 12.29
17.78 0.73 5.29 58.71 9.34 23.86 13.2
19.66 0.66 4.07 57.73 10.7 25.84 15.4
20.53 0.76 5.03 58.97 11.72 26.54 16.39
21.52 0.72 3.3 59.23 12.79 27.38 17.5
21.65 0.71 1.61 63.54 14.04 27.72 16.66
21.01 0.69 3.73 63.38 13.19 26.01 17.51
20.91 0.71 2.78 62.24 12.99 26.45 17.02
20.06 0.97 3.33 74.98 15.17 24.97 15.84
19 0.76 2.77 81.44 15.32 24.01 15.69
17.76 0.52 1.57 88.75 15.49 20.81 15.69
19.13 0.62 3.48 75.02 14.16 24.58 15.18
19.19 0.64 2.62 78.57 15.03 23.38 16.37
17.53 0.54 2.28 80.21 13.82 20.8 15.47
19.39 0.79 2.48 74 14.28 24.85 15.21
19.45 0.83 1.45 81.98 16 23.81 16.02
19.43 0.78 2.67 80.88 15.81 23.81 16.3
20.59 0.71 2.81 70.77 14.86 26.11 16.46
19.94 0.65 2.24 66.95 13.36 25.14 16.93
20.46 0.7 4.12 63.03 12.99 26.01 16.18
21.54 0.75 3.78 61.39 13.54 26.9 17.25
21.18 0.84 2.84 70.38 15.32 26.16 17.79
20.73 0.7 3.45 63.61 13.25 26.39 16.2
20.76 0.68 2.52 63.28 13.2 26.62 16.25
20.35 0.65 3.61 67 13.63 24.41 17.56
22.13 0.75 4.79 59.23 13.19 28.26 16.71
22.3 0.71 5.04 58.45 12.78 28.88 16.43
22.39 0.7 3.1 61.36 13.87 28.38 16.76
22.86 0.77 4.72 68.48 16.51 27.9 18.77
23.06 0.73 5.37 66.33 16.15 28.28 18.64
21.11 0.63 4.01 74.44 16.01 24.86 18.09
21.3 0.65 2.55 66.44 14.39 27.05 16.44
21.43 0.82 3.89 67.61 14.84 26 18.58
17.54 0.61 1.61 82.75 14.19 19.35 16.12
20.7 0.73 5.29 55.78 11.33 27.21 15.67
21.99 0.87 5.16 51.92 11.34 28.37 17.27
22.79 0.83 5.57 54.02 12.68 29.25 17.64
22.83 0.73 3.72 60.62 14.57 28.2 18.43
21.34 0.67 3.03 68.9 15.11 26.47 18.08
20.66 0.65 3.58 69.54 14.67 25.27 16.87
21.63 0.69 5.69 64.3 14.28 26.76 17.28
22.46 0.76 3.87 64.72 15.2 27.89 18.09
22.53 0.61 4.15 64.4 15.18 27.47 18.8
23.32 0.77 5.5 58.23 14.39 29.3 18.16
24.02 0.69 5.8 52.49 13.47 29.89 19.35
23.37 0.75 3.23 55.35 13.63 28.44 19.92
22.98 0.64 5.09 53.44 12.81 28.2 19.08
23.06 0.77 5.55 44.37 10.02 29.89 18.28
23.03 0.88 5.52 40.88 8.81 30.06 17.76
23.18 0.82 5.37 42.17 9.36 29.88 18.59
23.49 0.75 4.18 49.09 11.88 29.41 18.4
22.71 0.65 3.21 58.73 13.98 28.38 18.46
23.59 0.88 4.91 53.6 13.45 29.12 19.07
22.77 1.14 1.96 58.13 13.88 27.49 19.3
22.15 0.83 4.47 59.94 13.7 27.99 17.91
22.56 0.95 4.61 55.57 12.95 28.1 17.68
23.19 0.93 4.93 51.21 12.32 29.2 18.07
23.02 0.96 3.62 55.77 13.48 28.54 18.47
21.55 0.7 3.14 65.87 14.6 26.5 18
23.76 0.69 4.74 53.2 13.32 30.12 18.37
23.93 0.9 4.2 55.54 14.21 29.51 19.26
24.76 0.88 5.18 48.09 12.84 31.02 19.43
24.45 0.82 4.22 53.05 14.05 30.14 19.64
24.24 0.92 4.93 50.89 13.2 29.93 19.35
23.8 0.87 4.32 53.59 13.59 29.13 19.67
21.59 0.51 5.48 54.44 11.54 26.67 18.74
20.51 0.79 4.4 68.9 14.33 24.37 15.85
22.74 1.12 3.34 63.47 15.21 28.1 18.26
19.04 0.74 2.9 67.9 12.72 22.47 15.52
19.49 0.68 3.04 55.91 10.25 25.71 14.4
22.26 0.77 4.59 43.67 9.14 29.02 16.55
24.08 0.83 5.1 44.4 11.05 30.54 18.21
25.24 0.87 4.93 46.59 12.83 31.11 19.52
25.28 0.72 5.12 49.12 13.64 31.21 20.43
24.78 0.71 4.92 50.21 13.47 30.25 20.29
22.9 0.76 4.46 60.15 14.52 26.94 19.93
21.24 0.6 4.33 65.6 14.26 26.32 17.5
23.66 0.85 4.21 50.57 12.6 29.9 18.52
23.81 0.99 3.11 56.44 14.42 29.39 19.04
22.69 0.9 4.83 65.13 15.57 27.08 19.47
23.66 1.13 4.06 58.88 14.86 29.58 18.33
23.86 0.78 4.14 53.97 13.65 28.16 19.75
25.45 0.84 5.8 49.11 13.68 31.34 20.07
23.71 0.89 4.12 59.36 15.05 28.08 20.17
24.58 1 4.89 58.77 15.7 30.65 19.51
23.32 0.67 3.99 68.03 16.74 27.36 19.61
24.78 0.71 5.27 53.19 14.33 30.19 19.44
24.4 0.77 4.55 59.8 15.86 28.77 20.4
20.77 0.49 3.76 74.12 15.59 24.89 18.01
23.71 0.78 4.82 57.72 14.65 29.52 18.3
23.61 0.85 5.86 63.17 15.85 29.27 19.44
22.14 0.6 3.67 64.33 14.65 26.94 18.68
23.15 0.77 4.98 58.55 14.29 29.09 18.05
23.78 0.85 5.38 54.34 13.71 29.46 19.5
24.23 0.85 5.06 48.89 12.57 30.34 19.8
24.62 0.87 5.4 51.46 13.62 30.55 19.44
24.73 0.87 5.59 56.12 15.11 30.68 19.7
23.26 0.62 4.09 58.81 14.47 28.44 19.89
24.5 0.84 4.59 56.18 14.91 30.79 19.48
24.79 0.77 5.4 58.08 15.69 31.14 19.12
25 0.87 5.92 54.96 15.05 30.84 19.94
25.4 0.94 5.69 54.76 15.37 30.96 20.19
25.9 0.84 6.08 52.48 15.23 31.81 20.8
26.43 0.86 6.01 48.82 14.57 32.58 21.04
26.06 0.9 4.8 51.19 14.96 31.78 21.63
24.85 0.98 4.32 59.59 16.18 30.52 20
22.93 0.69 3.05 67.17 16.16 28.3 19.6
23.8 0.92 4.51 62.36 15.86 29.44 19.5
22.88 0.74 3.51 63.51 15.18 28.69 17.74
24.08 0.87 3.77 61.83 16.03 29 20.37
22.84 0.63 5.08 71.57 17.18 25.54 20.1
22.39 0.75 3.2 63.36 14.76 27.44 18.12
21 0.46 2.66 67.08 14.27 25.37 18.06
22.55 1.01 5.06 65.54 15.4 28.5 17.63
23.57 0.83 5.47 65.25 16.32 29.93 18.31
20.91 0.67 2.98 78.65 16.61 25.58 17.64
22.44 0.7 5.57 72.82 16.96 28 18.14
24 0.9 5.27 67.22 17.31 29.37 19.55
23.74 0.56 4.65 67.08 16.94 27.8 20.15
23.57 1.02 4.24 71.12 17.62 28.65 19.4
23.46 0.88 6.09 62.78 15.6 29.71 18.33
23.36 0.82 7.36 63.3 15.76 28.5 19.19
22.74 0.73 5.49 68.01 16.22 27.45 19.41
23.03 0.73 5.97 68.83 16.63 27.55 19.42
24.18 0.88 4.99 65.43 17.08 28.83 19.93
22.45 0.41 5.33 72.03 16.72 26.51 19.71
22.5 0.96 3.81 74.63 17.49 26.61 19.39
21.92 0.9 5.07 79.27 17.78 26.87 18.25
20.06 0.71 2.1 90.12 17.99 23.37 17.56
20.34 0.65 4.32 83.68 17.13 24.38 16.9
21.47 0.69 5.79 85.45 18.59 25.37 18.1
21.28 0.72 4.22 83.37 17.87 24.91 18.4
21.67 0.71 4.68 84.72 18.56 24.79 19.29
17.49 0.75 4.1 87.44 15.02 20.03 14.8
18.33 0.71 5.86 75.98 13.79 22.66 14.95
21.11 0.85 7.92 66.94 14.35 27.05 15.74
22.37 1.02 6.95 69.35 16.1 27.92 17.75
22.46 0.6 4.94 76.93 17.85 27.55 17.88
21.64 0.66 1.88 84.63 18.61 25 19.08
19.91 0.73 3.96 91.92 18.17 22.61 17.93
19.78 0.64 4.44 91.82 18.13 21.7 18.48
21.93 0.87 5.25 77.44 17.55 26.46 17.92
22.31 0.81 4.52 74.38 17.17 26.5 18.41
21.99 0.95 5.67 77.27 17.52 25.95 18.53
22.57 0.91 5.02 72.05 17 27.57 18.31
23.42 0.82 4.52 69.35 17.19 28.82 18.7
23.25 0.91 5 72.33 17.73 28.08 19.09
23 0.77 4.51 71.69 17.31 27.88 18.89
23.43 1.05 5.31 69.41 17.28 28.7 18.9
23.69 1 3.74 67.41 16.96 28.95 18.86
24.11 0.82 5.09 63.66 16.4 30.12 18.49
24.66 0.86 4.14 59.87 16.1 30.33 19.96
23.45 0.89 4.36 68.47 17.04 28.69 19.19
22.76 0.68 4.36 74.5 17.62 27.75 18.64
23.1 1.09 4.2 76.89 18.57 28.14 19.14
22.6 0.65 4.54 78.23 18.26 26.98 19.38
21.73 0.68 5.59 78.66 17.46 26.87 17.85
21.43 0.61 4.24 82.58 17.99 26.41 17.97
22.9 1.03 4.85 76.49 18.29 27.74 18.83
23.2 1.05 4.3 73.57 17.9 28.42 18.94
22.66 0.98 4.26 82.05 19.16 27.37 19.17
21.56 0.83 4.93 85.73 18.76 25.1 19.01
21.95 0.76 3.46 78.94 17.75 26.71 18.53
21.27 0.84 5.07 86.05 18.37 25.66 17.75
20.5 0.74 3.62 92.4 18.74 22.84 18.92
22.1 0.94 5.63 84.63 18.9 26.55 18.49
20.87 0.6 3.95 94.51 19.57 22.93 19.18
20.96 0.55 6.5 92.06 19.17 24.01 18.59
21.4 0.58 5.35 89.62 19.19 24.74 19.06
21.41 0.77 6.13 90.53 19.4 24.57 19.25
21.68 0.87 5.09 87.32 19.06 24.89 19.34
22.4 0.75 4.62 82.04 18.79 26.54 19.26
21.49 0.6 5.77 88.35 19.12 24 19.33
21.35 0.76 5.55 91.21 19.42 25.1 18.74
20.72 0.61 3.06 91.46 18.87 23.46 18.54
20.4 0.62 4.01 91.69 18.64 22.79 18.74
21.45 0.71 5.11 84.78 18.29 24.85 18.85
21.4 0.6 4.08 87.13 18.77 25.42 18.62
21.23 0.92 3.75 92.05 19.49 24.29 18.79
19.78 0.8 3.21 97.46 18.95 21.6 18
19.95 0.61 4.7 92.51 18.25 22.52 17.81
20.99 0.55 4.18 90.07 18.76 24.19 18.38
21.15 0.69 4.86 92.91 19.51 23.65 19.18
19.63 0.47 4.78 96.86 18.68 21.13 18.1
20.99 0.67 4.64 86.99 18.3 25.09 17.74
21.36 0.7 5.45 88.71 19.03 24.83 18.5
21.68 0.82 5.65 92.56 20.14 24.99 19.39
21.69 0.78 5.07 91.85 19.99 24.55 18.98
21.22 0.61 5.07 94.71 19.96 23.82 19.14
21.23 0.67 3.29 92.09 19.53 24.22 19.2
21.53 0.83 5.71 92.57 19.94 24.5 19.39
21.6 0.77 4.85 94.32 20.28 24.13 19.59
21.58 0.57 4.71 93.09 19.99 23.91 19.89
21.98 0.68 4.1 87.11 19.27 25.57 19.23
21.94 0.84 4.28 90.19 19.78 25.01 19.1
22.21 0.7 5.68 89.31 19.94 25.64 19.41
22.42 0.51 4.5 89.73 20.23 25.77 19.87
22.89 0.58 5.71 88.66 20.46 26.34 20.32
21.8 0.42 4.38 94.38 20.44 23.92 20.05
21.35 0.58 4.95 90.68 19.28 23.93 19.36
21.15 0.73 4.41 91.26 19.27 23.97 19.17
20.64 0.56 3.14 93.94 19.2 23.14 18.54
20.26 0.64 3.24 97.07 19.42 21.85 19.02
20.4 0.57 2.28 93.7 18.91 23.25 17.96
20.68 0.63 2.57 94.98 19.48 23.33 18.85
20.96 0.83 3.53 95.38 19.8 23.64 18.93
21.21 0.56 4.74 92.63 19.57 24.1 18.98
21.33 0.57 4.55 94.1 19.94 23.98 19.33
20.38 0.67 2.03 97.64 19.67 21.93 19.05
20.47 0.74 3.73 91.48 18.71 23.07 18.78
21.38 0.65 4.08 86.68 18.67 25.19 18.02
21.3 0.72 2.44 88.5 18.96 24.49 18.8
20.89 0.65 3.53 92.21 19.17 24.12 18.64
19.78 0.85 3.1 97.61 19.01 21.85 17.72
19.79 0.74 5.18 89.13 17.65 23.12 17.25
21.42 0.83 5.5 87.25 18.81 25.2 17.93
21.05 0.71 3.41 92.75 19.5 23.56 19.27
20.39 0.53 4.62 93.55 18.88 22.97 18.9
21.61 1.04 6.02 85.53 18.45 25.75 17.4
20.43 0.64 4.58 91.78 18.56 23.61 18.2
21.21 0.74 5.91 82.86 17.71 25.56 17.37
21.75 0.77 5.36 85.85 18.84 25.79 17.95
21.31 1.01 4.39 92.71 19.76 24.29 19.39
21.07 1.04 4.99 90.76 19.01 24.37 18.16
20.84 0.74 4.54 89.73 18.69 23.45 18.84
20.59 0.6 4.01 93.25 19.1 23.31 18.74
20.21 0.86 4.03 95.87 19.21 22.12 18.82
21.23 1.03 3.87 90.03 19.18 24.84 18.18
20.13 0.72 4.09 96.15 19.14 22.15 18.55
19.57 0.61 3.62 93.77 18.2 21.51 18.37
21.16 0.83 4.63 88.74 18.86 24.65 18.05
21.95 0.86 5.47 89.17 19.77 25.8 18.66
21.72 0.69 4.83 91.79 20.02 24.62 19.66
21.67 0.61 5.66 92.06 19.92 24.45 19.95
20.54 0.53 4 97.23 19.71 21.98 19.27
22 0.82 6.65 86.46 19.29 26.04 18.64
22.33 0.77 5.95 88.92 20.08 26.16 19.39
21.6 0.82 5.03 91.28 19.82 24.53 19.72
20.84 0.71 3.75 92.7 19.34 23.67 19.06
20.86 0.81 3.72 88.72 18.64 24 18.51
20.91 0.93 3.73 88.56 18.58 24.72 17.68
20.72 1.23 4.9 92.99 19.24 23.95 18.69
18.72 0.79 4.4 90.57 16.9 21.74 16.56
19.84 0.82 5.3 85.8 17.12 23.83 16.52
20.83 0.81 5.75 85.26 17.92 24.79 17.29
21.37 0.73 4.76 84.9 18.3 25.4 18.06
20.61 0.7 5.45 86.2 17.83 24.71 17.13
20.72 0.91 4.41 87.25 18.11 24.23 18.3
20.66 0.87 4.8 87.82 18.25 24.14 17.61
20.75 0.79 4.52 90.73 18.77 24.14 17.65
19.89 0.55 4.01 94.79 18.63 21.66 18.44
20.83 0.68 3.92 92.47 19.15 24.13 18.32
19.64 1 4.74 98.56 19.07 21.17 17.67
20.34 0.73 3.32 89.64 18.15 23.83 17.75
20.7 0.57 3.77 87.28 18.08 24.35 17.5
21.3 0.92 4.93 92.41 19.72 24.65 18.96
20.03 0.57 3.58 95.36 18.84 21.99 18.76
21.4 0.76 5.93 88.51 19.09 25.31 18.25
21.29 0.65 3.95 92.72 19.73 24.18 19.19
21.18 0.72 4.83 94.78 19.98 23.86 19.58
20.67 0.78 3.93 95.43 19.58 23.23 19.09
20.9 0.81 3.64 91.53 19.19 24.23 18.52
20.9 0.71 4.18 92.83 19.36 23.86 18.28
20.21 0.58 4.03 96.49 19.31 22.32 18.58
20.12 0.76 4.02 96.88 19.31 21.98 18.64
20.21 0.85 3.38 93.56 18.8 23.4 17.92
20.02 0.63 4.43 89.19 17.82 23.11 17.91
19.61 0.63 3 92.02 17.86 21.99 17.97
20.58 0.53 3.91 91.22 18.64 24.01 17.85
19.76 0.78 3.82 98.72 19.21 21.29 18.54
20.82 0.86 4.46 88.16 18.41 24.27 18.08
20.57 0.9 5.16 88.82 18.37 24.33 17.53
20.1 0.77 4.55 90.44 18.2 23.57 16.95
20.59 0.78 4.42 86.25 17.79 24.86 16.14
20.88 0.9 4.99 85.1 17.84 25.13 16.88
20.22 0.64 5.39 89.91 18.01 23.19 17.92
19.7 0.7 3.78 92.4 18.11 22.23 17.65
20.71 0.76 4.48 86.16 17.91 24.59 18.24
20.69 0.66 3.85 88.6 18.26 23.78 18.3
19.71 0.72 3.59 97.23 18.91 21.41 18.16
19.12 0.45 2.24 96.74 18.16 21.64 17.41
19.61 0.69 4.26 93.57 18.18 22.26 17.32
20.64 0.71 4.68 90.59 18.63 24.39 17.71
20.69 0.69 4 90.14 18.5 23.81 18.32
19.5 0.66 3.97 94.78 18.19 22.23 17.29
19.11 0.71 2.64 96.86 18.3 21.01 17.59
19.82 0.58 3.71 91.49 18.08 23.1 16.88
20.44 0.5 4.05 91.9 18.74 23.77 18.44
20.08 0.64 4.41 92.57 18.36 22.74 17.67
20.32 0.82 4.16 95.05 19.15 23.61 18.14
19.03 0.78 2.75 92.82 17.49 21.37 17.21
18.98 0.78 3.07 86.2 16.29 22.45 16.38
18.44 0.74 4.37 88.37 16.2 21.84 15.55
18.44 0.69 6.24 87.72 16.11 21.97 15.5
19.06 0.63 6.37 86.43 16.43 23 15.99
19.46 0.71 4.88 88.02 17.1 23.39 16.07
20.08 0.71 4.65 93.35 18.64 23.43 17.36
21.14 0.63 5.51 90.79 19.1 24.73 18.62
20.5 0.5 5.59 95.02 19.24 22.73 18.87
18.21 0.35 3.24 96.01 17.14 19.53 16.31
19.4 0.64 5.45 88.01 16.99 23.23 16.17
20.35 0.67 3.57 86.62 17.54 24.29 17.12
20.75 0.76 4.35 87.22 17.94 24.6 17.37
21.01 0.72 4.84 88.97 18.63 24.7 18.12
21 0.55 4.63 91.62 19.24 24.17 18.63
21.01 0.52 4.38 91.63 19.19 24.35 18.74
21.44 0.79 4.84 89.45 19.26 25.24 18.33
21.59 0.77 5.06 89.77 19.53 25.4 18.48
21.44 0.83 5.13 90.63 19.51 24.97 18.47
21.25 0.64 4.57 88.78 18.9 24.8 18.27
21.73 0.69 5.07 87.3 19.12 25.76 18.65
21.48 0.88 4.07 90.4 19.55 25.03 19.16
19.17 0.67 3.33 87.26 16.67 22.24 16.69
19.19 0.64 5.01 82.66 15.88 23.16 16.27
19.59 0.77 3.97 90.01 17.6 23.15 16.48
17.96 0.64 3.27 86.26 15.32 19.63 15.95
17.76 0.55 3.85 78.58 13.78 21.69 15.68
17.83 0.69 4.24 78.19 13.75 21.75 15.18
18.3 0.71 4.38 76.93 13.9 22.94 14.62
19.5 0.63 5.44 79.18 15.43 24.21 15.78
20.02 0.66 5.41 83.34 16.73 23.83 17.28
20.52 0.81 4.85 78.63 16.24 25.31 16.5
20.92 0.81 4.4 75.26 15.9 26.1 17.02
21.51 0.76 5.22 74.31 16.17 26.05 18.16
21.76 0.67 4.52 78.48 17.41 26.59 18.24
21.47 0.74 4.31 82.44 18.01 25.76 17.8
21.56 0.63 4.52 79.54 17.5 26.08 17.83
20.95 0.64 2.98 82.51 17.49 25.13 17.92
21.06 0.78 4.19 79.94 17.03 25.54 17.71
20.44 0.6 3.18 88.68 18.21 23.45 18.18
21.32 0.52 4.32 76.7 16.56 26.08 17.68
22.41 0.71 4.84 73.43 16.97 27.37 18.65
22.09 0.61 4.15 83.65 18.85 26.81 19.28
20.65 0.45 3.89 91.97 18.89 23.29 18.95
20.91 0.68 2.8 88.29 18.4 24.65 18.57
21.28 0.73 5 85.63 18.46 25.56 18.68
20.13 0.58 4.83 88.65 17.71 22.51 18.22
19.87 0.63 3.89 88.61 17.55 23.19 18.06
20.28 0.71 3.71 78.52 15.97 24.28 17.35
20.23 0.69 3.93 82.51 16.82 24.16 17.05
21.16 0.65 5.11 81.31 17.48 25.86 17.8
21.29 0.74 4.03 82.09 17.82 25.83 17.73
21.4 0.59 4.67 85.51 18.52 25.6 18.72
21.27 0.75 3.78 87.82 18.89 24.89 19.07
18.41 0.69 4.05 91.72 16.66 21.13 15.17
17.67 0.58 4.54 81.23 14.17 22.36 14.03
20.41 0.68 5.47 78.56 15.98 25.76 15.59
20.84 0.68 4.4 82.83 17.41 25.38 17.85
20.32 0.69 3.73 82.34 16.81 24.48 17.36
20.14 0.55 4.22 83.9 17.01 23.96 17.34
20.86 0.63 4.23 81.23 17.08 25.32 17.66
21.42 0.67 5.04 80.22 17.35 25.76 18.23
21.1 0.59 4.82 85.46 18.27 25.42 18.26
21.53 0.65 5.1 81.91 17.94 25.8 18.33
21.63 0.71 4.98 80.96 17.88 26.34 17.93
21.64 0.65 4.87 81.57 17.95 26.3 18.4
21.56 0.79 4.53 82.21 18.09 25.71 18.83
20.03 0.49 4.32 89.64 17.92 22.94 18.35
19.75 0.58 4.19 86.48 16.92 24.19 17.25
19.17 1 1.62 95.67 17.98 22.45 16.55
18.84 0.56 3.51 76.63 14.19 23.53 14.91
20.37 0.67 4.86 76.53 15.48 25.57 16.42
20.84 0.61 5.43 79.99 16.77 25.48 17.5
20.86 0.64 5.57 76.46 15.64 25.76 16.77
20.51 0.53 4.59 81.85 16.86 24.68 17.72
20.32 0.77 5.01 82.83 17 24.76 16.88
20.01 0.59 4.3 85.29 17.16 23.6 17.27
20.26 0.57 4.06 84.05 17.15 24.71 17.42
19.91 0.71 3.95 87.41 17.28 23.65 17.4
19.98 0.8 4.03 83.94 16.82 24.63 16.64
20.12 0.63 3.82 81.05 16.47 24.61 16.82
20.17 0.67 4.66 78.79 16 24.92 16.84
19.34 0.73 3.95 79.54 15.32 23.59 16.55
19.18 0.67 4.14 73.44 13.89 24.72 14.88
19.65 0.71 4.96 76.32 14.97 24.16 15.93
20.63 0.75 4.89 72.67 15.07 26.02 16.02
21.23 0.69 4.49 73.91 15.93 26.42 16.95
21.09 0.59 4.92 80.38 17.2 25.53 17.63
21.97 0.65 4.92 75.62 17.13 26.88 18.14
21.76 0.65 4.82 75.62 16.88 26.58 18.18
20.64 0.72 3.91 79.87 16.7 25.92 17.2
16.93 0.59 3.77 77.43 12.74 19.54 13.93
16.25 0.65 4.14 67.69 10.09 20.83 13.21
17.29 0.76 4.66 59.47 9.14 23.1 13.62
18.15 0.77 5.26 58.85 9.6 24.3 13.67
18.99 0.72 4.82 67.74 12.34 25.04 13.87
18.21 0.63 3.84 74.98 13.33 22.2 15.36
18.01 0.63 3.22 64.64 10.97 23.44 14.73
18.64 0.71 2.05 57.43 9.75 24.72 13.17
19.47 0.69 2.29 57.36 10.5 25.92 14.48
20.93 0.72 5.37 57.62 11.77 27.45 15.91
21.4 0.65 5.39 65.18 13.98 27.52 16.57
21.63 0.71 4.83 69.05 15.18 26.75 17.7
22.12 0.6 4.57 68.4 15.54 27.46 18.52
21.89 0.72 4.24 70.91 15.98 26.6 18.26
20.91 1.05 2.51 79.95 17.06 24.74 18.24
20.22 0.67 2.62 66.89 13.57 25.05 16.8
20.47 0.64 4.55 58.47 11.77 26.75 15.82
21.33 0.7 5.69 55.08 11.53 27.87 16.23
21.65 0.7 4.66 58.95 12.85 27.87 16.92
21.03 0.75 3.98 61.09 12.92 26.96 16.9
21.43 0.79 4.41 53.17 11.27 27.78 16.8
21.99 0.76 4.07 53.87 11.94 27.77 17.66
21.91 0.76 2.75 64.63 14.66 27.31 17.89
22.17 0.75 3.56 65.06 15.03 27.22 17.96
22.77 0.82 3.45 62.38 14.96 28.13 18.23
23.39 0.77 4.61 58.76 14.59 28.96 18.92
22.82 0.79 3.59 64.93 15.56 28.53 18.72
21.45 0.88 2.59 77.48 16.97 26.88 17.45
18.2 0.5 3.64 80.26 14.44 21.96 15.82
16.71 0.56 1.69 88.35 14.38 19.17 14.88
17.74 0.66 3.3 73.29 12.65 22.97 14.02
18.84 0.79 4.69 59.99 10.71 24.98 13.93
20.33 0.81 5.36 55.26 10.8 27.01 14.97
21.71 0.74 4.52 58.9 12.93 28.26 15.84
22.49 0.77 5.54 61.12 14.22 28.66 17.12
22.91 0.76 5.48 61.43 14.7 28.72 17.75
21.52 0.66 4.06 69.35 15.39 25.52 18.8
20.76 0.74 3.62 61.82 12.91 25.61 17.31
21.53 0.84 6.59 54.2 11.63 27.82 16.43
22.07 0.78 6.61 55.83 12.52 28.59 16.4
22.17 0.71 6.07 57.75 13.19 27.72 17.58
22.47 0.75 5 57.52 13.44 27.85 18.07
23.16 0.78 5.41 59.1 14.49 28.76 18.71
22.24 0.85 3.98 68.23 15.8 27.53 18.04
22.83 0.82 3.65 64.57 15.51 28.36 18.75
17.57 0.67 3.43 81.89 14.02 19.7 14.5
17.75 0.68 4.23 58.82 9.38 24.06 13.13
18.69 0.76 2.84 48.88 7.57 25.41 13.42
18.17 0.77 5 43.01 5.11 24.83 13.75
17.5 0.83 4.69 44.72 5.15 23.97 12.86
18.38 0.78 5.8 47.18 6.72 25.19 12.61
20.09 0.82 6.08 47.25 8.25 27.27 14.11
21.8 0.85 4.65 47.26 9.76 28.63 16.91
22.41 0.74 4.49 51.77 11.8 28.4 18.13
22.85 0.72 4.92 53.12 12.6 28.59 18.78
22.91 0.8 4.68 58.73 14.15 27.91 19.67
23.1 0.78 3.48 60.18 14.68 28.53 18.72
22.86 1.05 4.53 65.8 15.81 28.56 17.9
21.04 0.62 4.86 65.98 13.98 25.05 17.73
21.38 0.57 5.41 70.46 15.39 25.94 18.32
22 0.99 4.21 73.07 16.64 27.63 17.71
16.09 0.83 2.96 80.79 12.44 19.17 13.06
16.65 0.67 2.9 63.01 9.47 22.46 11.7
19.89 0.77 3.46 53.14 9.86 26.96 13.64
22.02 0.83 4.38 52.82 11.62 28.43 17.06
21.88 0.75 4.58 57.03 12.7 28.22 17.19
23.11 0.85 5.1 54.5 13.19 29.15 18.44
21.03 0.55 4.68 68.51 14.69 26.16 17.61
22.06 0.69 5.18 62.11 14.21 27.99 17.37
23.44 0.69 7.22 54.85 13.6 29.81 18.01
24.14 0.78 6.68 54.7 14.12 30.16 19.23
22.93 0.69 5.64 66.91 16.12 28.5 18.71
23.71 0.74 5.91 56.4 14.07 30.15 18.2
23.89 1.02 4.91 62.13 15.98 29.53 19.14
24.47 0.84 4.8 58.69 15.58 30.46 19.37
24.41 0.77 4.03 58.93 15.53 30.12 19.42
20.99 0.65 4.28 86.16 18.14 24.79 18.14
21.43 0.72 5.82 76.83 16.35 25.78 18.12
23.02 0.75 6.89 72.36 17.28 28.34 18.68
23.39 1.13 5.78 72.94 17.89 28.64 19.19
21.75 0.86 4.26 73.93 16.3 26.3 18.58
21.65 0.78 4.91 68.72 15.42 26.89 17.02
22.22 0.77 6.08 69.84 16.11 27.27 18.57
22.57 0.79 4.7 68.8 16.15 27.64 18.54
20.37 0.77 4.61 86.78 17.55 23.81 17.83
21.67 0.69 5.48 69.56 15.38 27.25 16.37
21.23 0.51 5.03 82.71 17.82 25.18 19
21.96 0.7 6.17 81.28 18.1 26.1 18.73
20.07 0.6 4.26 88 17.53 22.41 18.25
22.73 0.96 7.06 72.96 17.04 28.07 18.18
23.01 1.01 5.03 77.57 18.4 28.11 18.85
21.31 0.56 5.13 81.61 17.55 24.35 19.21
18.71 0.61 1.27 93.5 17.26 20.95 17.08
19.01 0.75 4.53 79.62 15.09 22.43 16.5
20.24 0.82 4.06 72.57 14.83 24.82 16.64
21.27 0.9 6.22 65.51 14.13 26.92 16.55
22.16 0.89 7.77 61.26 13.83 28.04 17.21
21.9 0.96 7.19 58.48 12.95 27.96 17.48
22.07 0.93 5.07 59.48 13.51 27.3 17.81
22.82 0.89 5.86 62.23 14.88 28.36 18.46
22.12 0.68 5.92 74.78 17.15 26.6 18.92
22.44 0.71 5.08 75.9 17.62 27.38 18.8
22.59 0.65 4.08 79.2 18.48 27.54 19.58
24.65 1.06 6.65 68.89 18.17 30.33 19.94
22.71 0.73 4.69 81.76 19.03 25.88 20.38
22.81 0.67 5.97 83.81 19.55 26.77 19.8
22.97 0.62 5.16 82.9 19.44 27.31 19.98
21.89 0.6 3.71 82.91 18.25 25.89 19.35
22.2 0.92 7.2 83.08 18.77 26 19.43
19.62 0.7 2.56 83.17 16.23 22.41 17.81
21.56 1.02 3.77 73.55 16.23 26.46 17.69
21.83 0.76 4.17 73.62 16.46 27.11 17.47
21.21 0.68 3.78 82.07 17.64 24.77 18.24
19.26 0.72 2.56 97.56 18.37 21.39 16.97
16.59 0.67 3.77 88.86 14.53 19.49 14.58
18.21 0.78 4.67 78.74 14.22 23.03 14.08
20.51 0.78 6.47 76.57 15.95 25.57 15.97
20.36 0.74 5.23 85.77 17.6 23.65 17.7
21.54 0.82 5.68 78.83 17.39 26.56 17.83
23.04 0.96 5.71 75.43 18.16 27.78 18.28
23.58 0.68 7.71 75.67 18.72 28.22 19.68
24.37 0.89 7.17 70.3 18.27 29.54 19.9
22.67 0.8 6.07 76.19 17.7 26.82 19.96
23.31 0.96 4.57 66.22 16.13 28.73 18.92
23.59 0.89 5.37 66.47 16.62 29 19.08
24.41 0.93 5.64 65.81 17.29 30.01 19.68
22 0.75 3.64 83.15 18.7 24.96 19.42
22.93 0.69 6.13 73.06 17.53 27.58 19.48
23.9 0.75 5.26 67.35 17.13 29.37 19.42
22.51 0.78 5.7 74.02 17.15 26.22 19.22
22.68 0.66 5.88 73.82 17.22 28.13 18.86
22.66 0.75 6.3 79.03 18.54 27.33 19.35
22.63 0.71 5.88 73.59 17.19 28.07 18.46
23.52 0.95 6.76 69.24 17.11 28.75 18.33
24.71 0.91 6.6 60.23 15.97 30.65 19.4
24.14 0.82 5.16 66.03 17.17 29.03 20.11
24.73 0.77 5.17 65.09 17.51 29.79 20.1
21.81 0.7 2.81 83.62 18.46 24.62 19.63
21.88 0.67 5.71 81.31 18.18 25.89 18.8
23.93 0.84 4.43 63.63 16.32 29.36 19.69
24.2 0.78 3.67 64.38 16.83 29.72 19.44
23.99 0.83 4.36 66.62 17.13 28.6 20.42
23.14 0.96 5.22 74.21 17.94 27.67 19.47
23.69 0.92 5.68 71.09 17.93 28.14 20.06
24.32 0.75 4.54 67.95 17.77 29.45 19.6
24.23 0.92 3.93 68.49 17.78 27.99 20.55
22.73 1.19 2.29 78.45 18.56 26.26 19.61
23.94 0.95 5.97 69.37 17.74 29.47 18.89
23.75 1.11 6.03 73.98 18.59 28.91 20.06
23.83 1.12 5.45 71.6 18.16 29.26 19.44
25.42 1.2 5.16 62 17.4 31.05 20.01
23.45 0.8 5.29 76.56 18.83 27.15 20.78
21.14 0.54 3.78 86.81 18.35 23.85 19.3
21.66 0.74 2.85 84.87 18.64 25.57 19.21
19.69 0.79 2.76 96.11 18.74 21.82 18.5
19.19 0.72 4.1 94.17 17.87 21.33 17.8
19.4 0.68 3.45 92.16 17.71 22.52 17.57
20.11 0.8 4.39 87.5 17.61 24.16 17.3
21.16 0.93 4.24 86.94 18.58 25.2 18.09
19.58 0.71 2.12 91.37 17.79 21.83 17.66
20.15 0.69 4.88 80.43 16.32 23.3 17.26
22.22 0.91 6.07 73.37 16.84 26.92 17.99
21.99 1.04 5.71 85.17 19.05 25.77 18.81
22.2 1.08 4.62 84.85 19.26 26.54 19.28
23.08 0.84 5.56 79.58 19.09 27.74 19.24
22.85 1.04 4.16 82.28 19.35 27.3 19.85
20.94 0.63 3.44 94.33 19.59 22.77 19.8
20.38 0.56 4.68 89.09 18.11 22.92 18.87
21.51 0.81 3.18 78.6 17.24 26.08 18.77
21.8 0.49 4.95 81.36 18.08 26.31 18.17
20.53 0.45 3.36 93.56 19.07 22.48 19.13
19.14 0.43 2.32 95.56 18.03 20.45 17.65
19.78 0.77 4.44 92.51 18.17 22.56 17.32
21.04 0.96 4.23 92.15 19.43 24.25 18.76
21.74 0.9 4.56 88.13 19.38 25.37 18.77
20.54 0.61 4.6 94.85 19.33 22.36 19.09
20.97 0.7 3.78 91.35 19.15 23.62 18.66
21.34 0.42 4.83 92.79 19.69 23.58 19.4
21.09 0.5 1.68 94.02 19.63 23.66 19.5
20.09 0.44 3.17 93.71 18.63 21.91 18.39
20.88 0.88 4.37 91.58 19.13 24.51 17.91
21.69 0.89 5.33 91.33 19.88 25.29 19.05
21.04 0.59 4.9 96.54 20.12 23.04 19.4
21.46 0.42 3.76 93.24 19.96 23.97 19.4
20.17 0.45 4.41 95.81 19.06 21.95 18.96
19.92 0.59 3.53 95.78 18.91 22 18.38
20.53 0.58 4.39 94.29 19.25 23.18 18.29
20.95 0.68 3.43 94.66 19.69 23.24 19.23
20.31 0.98 1.5 98.62 19.62 22.14 17.99
17.98 0.58 3.95 91.34 16.25 20.81 16.02
19.86 0.67 4.56 83.41 16.51 24.78 15.92
20.53 0.8 4.02 84.53 17.25 24.65 17.07
20.84 0.55 4.7 90.69 18.93 24.19 18.28
20.73 0.51 4.58 92.93 19.12 23.58 18.38
21.24 0.64 4.38 94.34 19.91 23.81 19.06
20.28 0.69 2.34 96.04 19.26 21.92 18.69
20.29 0.72 3.4 91.41 18.44 23.25 18.11
20.78 0.75 4.3 87.34 18.16 24.65 17.47
21.46 0.68 4.36 87.49 18.86 25.2 17.9
21.99 0.88 5.96 89.09 19.8 25.74 18.92
22.26 0.85 7.61 88.33 19.89 25.87 19.13
21.97 0.68 7.3 90.24 19.88 25.31 19.19
21.41 0.54 6.63 88.12 18.81 24.35 19.29
21.1 0.6 5.76 87.53 18.4 24.12 19.06
21.18 0.76 5.64 89.36 18.89 24.63 18.46
21.91 1.05 3.73 89.3 19.77 25.81 18.77
21.51 0.81 6.87 92.63 19.93 24.13 19.2
21.04 0.74 3.61 93.39 19.56 23.49 19.03
20.54 0.62 3.99 94.9 19.28 22.93 18.42
20.38 1.08 3.09 92.49 18.81 22.68 18.5
19.91 0.67 4.6 90.18 17.86 22.6 17.79
20.55 0.92 3.62 90.02 18.44 24.02 18.15
20.78 0.86 4.37 88.02 18.32 24.32 18.53
20.32 0.73 4.36 85.92 17.43 23.2 17.53
19.89 0.63 3.2 88.37 17.45 23.42 17.1
19.72 0.49 3.95 94.34 18.4 21.22 18.45
20.95 0.71 3.74 90.6 18.99 24.77 18.08
21.32 0.71 3.7 91.33 19.38 24.14 18.44
20.65 0.87 3.12 98.33 20.03 22.02 19.35
20.37 0.82 3.33 97.88 19.65 22.39 18.95
20.36 0.62 3.95 94.97 19.19 22.68 18.86
21.5 0.89 5.03 90.69 19.56 24.9 18.81
21.05 0.87 4.96 95.3 19.92 23.85 18.93
20.38 0.58 3.26 95.63 19.25 22.58 18.77
19.39 0.76 3.16 92.73 17.73 21.54 17.84
18.84 0.72 3.47 89.1 16.72 21.61 16.84
19.4 0.81 4.55 84.03 16.31 23.03 16.46
19.69 0.81 4.96 86.54 17.11 23.48 16.34
20.01 0.83 4.76 86.04 17.34 24.01 16.95
20.29 0.71 6.21 84.58 17.27 24.97 16.16
21.14 0.8 6.76 85.06 18.2 25.46 17.37
21.12 0.65 6.56 85.9 18.1 24.35 18.11
21.54 0.51 7.33 88.4 19.11 24.6 19.18
22 0.49 7.29 85.78 18.84 25.38 19.28
22.61 0.54 6.95 83.95 18.94 26.5 19.5
22.38 0.5 5.16 87.02 19.56 25.19 20.37
21.56 0.43 4.6 91.68 19.66 24 19.9
21.06 0.63 3.22 93.27 19.47 23.97 19.17
20.87 0.48 4.9 90.97 19.03 23.92 18.69
21.56 0.73 5.73 88.7 19.2 25.3 18.38
21.33 0.59 5.6 91.5 19.59 24.22 18.85
20.75 0.55 4.92 91.91 18.93 23.31 18.69
20.6 0.65 2.51 82.7 17.04 24.14 17.73
21.23 0.78 6.08 82.8 17.78 25.13 18.01
21.52 0.68 5.2 82.43 17.97 25.4 18.63
21.84 0.8 5.11 82.63 18.27 26.21 18.75
21.76 0.78 5.84 89.16 19.6 25.12 18.74
22.27 0.57 4.61 87.81 19.88 25.66 19.84
21.88 0.58 5.6 88.82 19.7 24.83 19.9
21.85 0.58 5.11 87.98 19.46 25.19 19.31
22.05 0.64 5.34 86 19.32 25.75 19.25
22.31 0.91 4.72 87.69 19.93 25.96 19.62
21.3 0.87 2.51 95.12 20.18 23.49 19.84
21.01 0.58 2.56 91.97 19.28 23.91 18.8
20.82 0.69 3.09 91.34 18.89 23.01 19.14
19.87 0.66 3.18 86.34 17.23 22.99 17.9
20 0.78 3.71 86.15 17.31 23.54 17.42
20.92 0.91 3.86 85.34 17.96 24.95 17.65
20.06 0.56 4.29 92.26 18.44 22.55 18.55
20.96 0.78 4.29 87.62 18.47 24.72 18.14
21.38 0.71 4.26 85.28 18.43 25.52 18.07
20.08 0.58 4.44 93.42 18.53 22.27 18.5
20.03 0.53 4.09 92.5 18.34 22.59 18.17
20.16 0.71 4.39 92.3 18.47 22.97 18.36
21.15 0.76 4.92 87.32 18.59 25.19 17.4
21.71 0.68 4.82 89.36 19.54 25.33 18.87
21.61 0.61 4.51 90.95 19.76 24.82 19.25
22.21 0.73 5.02 86.6 19.49 26.09 19.47
21.5 0.54 5.5 88.96 19.21 24.73 19.41
21.45 0.57 4.41 87.32 18.83 24.87 19.2
22.26 0.78 5.29 84.57 19.12 26.68 18.93
21.54 0.56 4.3 90.12 19.49 25 19.27
21.54 0.85 4.34 88.23 19.16 24.67 19.66
20.58 0.5 2.69 92.73 18.82 22.5 18.88
21.17 0.66 5.24 87.99 18.76 25.53 18.41
21.52 0.73 4.62 86.47 18.87 26 17.73
21.85 0.68 5.14 88.25 19.54 26.04 18.49
22.65 0.8 5.86 83.55 19.21 27.12 18.94
21.95 0.87 4.13 90.52 20.02 25.48 19.69
20.28 0.65 3.9 98.03 19.5 22.51 18.69
19.8 0.59 3.53 91.7 17.92 22.43 18.18
20.21 0.7 2.76 91.16 18.34 23.42 17.54
19.59 0.6 3.37 92 17.87 22.29 17.78
20.45 0.59 4.34 86.23 17.7 24.54 17.53
20.32 0.6 4.62 93.78 18.9 23.5 18.43
21.75 0.88 5.04 84.93 18.67 25.68 18.82
21.61 1.04 3.96 86.45 18.98 25.35 19.04
21.05 0.86 4.96 90.22 19.12 24.49 18.79
21.33 0.81 4.28 88.02 18.95 25.2 18.44
19.43 0.48 2.4 93.48 17.94 21.25 17.88
19.79 0.58 5.54 82.62 16.49 23.71 16.88
19.65 0.56 5 83.75 16.55 23.58 16.97
20.73 0.68 5.52 81.06 16.91 25.69 16.27
21.72 0.76 5.85 83.86 18.51 25.96 18.44
21.33 0.63 4.99 88.61 19.05 25.05 19.23
20.63 0.65 3.04 86.82 18.03 24.22 18.04
20.87 0.64 4.06 82.29 17.4 25.03 18.23
20.33 0.54 3.41 85.88 17.4 23.42 18.29
20.08 0.74 2.93 89.15 17.86 23.19 18.09
16.74 0.7 4.02 83.6 13.75 19.89 14.42
16.09 0.63 5.55 79.26 12.31 20.26 12.99
16.62 0.65 5.47 77.77 12.53 21.2 12.8
17.94 0.5 2.53 77.3 13.63 23.09 13.79
19.74 0.68 5.91 75.89 14.95 25.15 15.06
21.46 0.78 5.58 75.95 16.58 27.28 16.86
22.4 0.75 5.45 76.92 17.77 27.72 18.24
22.79 0.69 4.81 79.67 18.73 27.91 18.85
22.55 0.79 5.13 82.69 19.13 26.74 19.82
18.58 0.59 4.09 80.17 14.71 22.01 15.71
17.37 0.61 5.11 77.71 13.24 21.63 14.43
18.8 0.64 5.23 75.1 14.02 24.28 14.32
19.86 0.67 5.32 79.32 15.82 24.96 15.51
19.58 0.63 4.96 82.76 16.27 23.16 16.84
20.05 0.7 4.7 80.4 16.26 24.82 16.48
19.89 0.7 3.97 81.11 16.26 24.26 16.19
20.34 0.71 4.5 80.01 16.45 25.11 16.49
20.34 0.74 4.37 81.07 16.71 24.34 17.93
21.27 0.71 4.36 77.92 16.9 26.28 17.72
20.74 0.78 3.67 87.18 18.25 24.78 18.01
20.03 0.62 3.86 89.88 18 23 17.93
18.51 0.39 3.66 87.15 15.98 21.42 16.33
17.09 0.43 4.6 82.4 13.88 19.8 15.26
18.23 0.66 4.85 77.46 13.96 23.33 14.25
19.45 0.68 5.07 79.3 15.44 24.19 15.1
20.3 0.68 4.58 79.02 16.24 24.39 17.56
20.4 0.73 3.89 77.4 15.98 25.4 16.52
19.95 0.65 3.62 82.15 16.45 23.51 17.08
19.93 0.76 3.95 79.12 15.91 24.08 17.35
19.22 0.66 4.44 76.64 14.73 23.67 15.78
19.46 0.7 5.95 71.06 13.77 24.84 15.19
20.23 0.69 5.61 72.33 14.75 25.5 15.93
20.3 0.68 4.44 77.54 15.92 24.96 16.87
20.38 0.92 3.64 77.72 16.08 24.83 17.22
20.36 0.73 1.71 77.01 15.86 24.3 17.67
20.65 0.58 3.71 73.42 15.43 24.56 17.41
20.84 0.62 4.34 75.13 15.8 25.69 18.2
20.87 0.63 3.9 79.78 16.84 26 17.72
17.84 0.56 2.7 87.54 15.3 21.92 14.19
16.59 0.59 2.93 66.81 10.23 21.84 12.83
17.98 0.54 4.19 60.46 9.91 23.79 13.28
17.71 0.57 4.36 72.69 12.36 22.71 13.54
19.69 0.71 4.3 68.03 13.17 25.61 14.8
20.83 0.68 5.6 62.96 12.91 27.19 15.74
20.82 0.67 5.39 70.67 14.75 26.22 16.16
21.68 0.66 5.53 67.73 14.96 27.44 17.27
21.91 0.69 4.24 68.88 15.54 26.82 17.73
20.98 0.61 4.13 74.57 15.93 24.7 18.24
21.64 0.74 4.3 69.76 15.58 26.71 17.52
21.24 0.73 3.53 73.35 15.96 26.04 17.79
21.34 0.75 2.44 72.11 15.8 26.24 17.31
21.83 0.77 4.08 69.97 15.81 26.54 17.94
20.8 0.76 2.63 78.93 16.69 25.35 17.7
20.85 0.68 2.54 81.69 17.27 25.21 17.57
20.38 0.56 3.11 77.09 15.87 23.71 18.38
21.51 0.73 3.24 68.63 15.25 26.72 17.42
21.66 0.74 3.88 67.84 15.18 26.97 17.19
21.38 0.79 3.52 70.86 15.46 27.31 16.83
20.62 0.73 1.36 75.74 15.82 26.01 16.66
20.87 0.65 1.51 72.96 15.5 26.32 16.64
21.13 0.62 2.48 70.92 15.32 26.35 16.91
20.67 0.69 3.41 77.07 16.22 25.06 17.55
20.75 0.66 3.02 68.34 14.42 26.01 16.27
21.51 0.69 4.44 70 15.53 26.28 17.65
21.62 0.68 4.54 68.5 15.26 26.69 17.89
22.1 0.71 4.78 67.92 15.6 27.51 17.67
22.99 0.84 4.66 64.99 15.72 28.29 18.47
17.29 0.58 3.08 85.87 14.43 19.73 14.61
19.24 0.74 4.87 66.75 12.55 25.05 13.71
22.18 0.75 5.34 61.31 14.01 28.37 16.83
22.48 0.65 4.98 65.94 15.49 27.76 18.02
21.94 0.68 5.04 69.97 15.86 26.76 18.36
21.23 0.7 4.29 70.97 15.33 26.47 17.6
18.59 0.67 2.87 76.98 14.08 22.9 15.27
17.47 0.61 4.34 71.31 12.04 22.23 13.92
18.92 0.71 5.29 63.98 11.68 25.04 13.79
19.74 0.67 5.46 64.95 12.64 25.39 14.87
20.55 0.72 5.98 64.39 13.17 26.06 16.12
21.38 0.75 4.81 65.98 14.42 26.8 16.93
21.15 0.76 4.29 69.73 15.07 26.23 17.2
21.62 0.86 3.44 67.51 14.98 26.78 17.65
21.37 0.9 3.21 71.08 15.61 26.13 17.89
21.17 0.78 4.05 73.67 16 26.18 17.39
21.91 0.67 3.9 70.58 16.08 27.39 17.4
20.75 0.68 4.14 79.69 16.81 23.82 18.52
20.76 0.71 3.46 78.7 16.62 25.34 17.59
17.41 0.71 3.17 80.13 13.54 20.19 13.9
17.24 0.68 3.98 61.58 9.63 23.34 12.45
19.12 0.79 4.63 57.61 10.31 25.47 14.06
20.98 0.83 5.6 58.69 12.2 27.54 15.44
21.88 0.79 5.53 57.54 12.75 28.23 16.88
22.32 0.69 5.06 57.79 13.18 28.06 17.73
22.24 0.66 5.83 60.63 13.89 27.61 18.4
22.19 0.76 5.64 56.97 13 28.21 17.45
20.64 0.85 2.31 61.37 12.7 26.02 17.33
18.44 0.63 3.64 55.27 9.09 23.54 14.71
17.74 0.61 5.94 51.34 7.37 23.23 13.71
19.88 0.74 5.71 45.17 7.43 26.89 13.69
21.34 0.82 3.96 44.15 8.37 28.26 15.98
22.22 0.72 6.32 47.77 10.33 28.53 17.44
21.97 0.71 6.79 48.77 10.42 28.9 17.22
22.76 0.83 5.3 44.52 9.68 29.53 17.39
23.25 0.93 4.99 52.7 12.83 29.72 17.85
22.96 1.07 4.15 62.55 15.23 28.3 18.67
23.17 1.03 3.61 62.94 15.47 28.81 18.09
23.01 1.11 2.71 63.93 15.62 27.81 19.09
22.75 0.83 3.87 64.45 15.47 28.1 18.48
23.87 0.8 4.71 58.11 14.94 29.76 18.71
22.94 0.81 3.19 66.82 16.21 27.94 19.24
21.3 0.76 4.31 74.21 16.22 26.19 18.15
21.91 0.88 2.58 68.86 15.65 27.02 17.94
20.21 0.78 1.26 74.35 15.12 24.35 17.03
18.78 0.59 1.83 77.63 14.46 22.43 16.4
19.08 0.49 4.89 73.04 13.8 23.65 16.35
22.62 0.72 4.61 56.7 13.14 28.91 17.37
21.59 0.49 4.67 71.09 15.78 26.09 18.67
21.01 0.51 3.55 70.62 14.91 25.85 17.4
22.49 0.66 4.5 57.54 13.14 27.99 18.81
22.94 0.55 4.96 56 13.45 27.99 19.11
23.56 0.81 5.08 57.13 14.32 29.47 18.2
23.9 0.71 4.59 59.15 15.19 29.99 18.92
23.2 0.83 4.09 66.1 16.22 28.75 18.85
22.5 0.58 4.85 64.71 15.18 27.32 18.94
23.68 0.78 5.29 60.75 15.4 29.36 19.23
20.65 0.55 4.63 79.76 16.58 24.47 18.04
23.05 0.7 5.03 64.29 15.54 28.8 18.56
22.54 0.74 4.9 67.26 15.88 27.8 18.87
22.88 0.84 3.61 64.6 15.54 28.73 18.3
22.47 0.69 4.73 57.46 13.27 28.57 17.82
22.33 0.71 4.43 52.35 11.84 27.69 18.68
20.63 0.73 4 51.77 10.17 24.96 16.95
18.87 0.81 4.56 44.63 6.16 24.72 14.54
20.79 0.82 6.88 38.84 5.96 27.6 15.45
21.87 0.78 5.29 46.62 9.63 28.35 16
22.48 0.73 3.32 52.17 11.95 27.91 18.46
19.95 0.61 5.4 65.64 12.89 23.21 17.86
23.84 0.95 6.51 48.89 12.01 29.95 18.66
23.61 0.81 6.59 58.91 14.83 29.03 19.28
24.23 0.68 6.16 57.63 14.97 30.71 18.36
24.92 0.8 4.65 54.32 14.79 31.47 19.29
25.4 0.81 5.14 52.8 14.82 31.78 20.22
25.29 0.8 5.22 54 15.07 31.43 20.35
23.4 0.84 4.34 65.88 16.34 28.95 19.1
24.66 0.76 4.9 54.8 14.64 30.95 19
24.87 0.58 5.99 51.12 13.73 31.57 19.95
23.89 0.63 3.99 58.17 14.89 28.56 20.08
23.26 0.77 4.81 63.33 15.6 27.88 19.04
23.49 0.83 3.88 60.47 15.16 28.59 19.49
20.96 0.72 2.59 75.4 16.08 25.01 17.94
21.28 0.87 2.67 72.79 15.92 26.57 17.13
21.19 0.59 4.7 71.51 15.51 25.95 17.35
23.57 0.79 5.04 61.05 15.4 29.03 18.55
21.68 0.59 5.23 73.09 16.23 25.4 19.33
23.18 1 4.49 67.04 16.31 28.72 18.76
24.87 0.99 4.56 54.7 14.84 30.93 19.5
24.79 0.8 7.28 53.49 14.43 31.45 19.43
24.77 0.84 5.27 56.21 15.1 30.83 19.86
22.89 0.6 3.84 66.94 16.05 28.22 18.94
23.42 0.77 5.19 57.67 14.04 29.28 18.77
23.4 0.93 4.92 67.65 16.72 29.34 18.76
24.27 0.91 3.12 62.05 16.27 30.22 19.36
22.67 0.72 5.15 73.96 17.35 26.94 19.45
23.36 0.99 5.06 65.69 16.27 28.36 19.22
23.91 0.95 4.51 59.97 15.36 30.24 18.14
25.24 0.99 5.66 54.81 15.25 31.22 19.44
25.51 0.94 4.64 58.26 16.5 30.79 20.35
24.9 0.84 4.85 62.17 16.86 29.46 21.37
24.09 0.95 5.16 70.06 18.01 28.6 20.28
20.33 0.57 4.68 77.1 15.76 23.63 17.86
22.57 0.83 4.35 60.92 14.43 28.49 18.11
22.96 0.79 5.2 67 16.18 27.88 18.94
23.13 0.68 4.45 71.09 17.3 28.37 19.09
23.97 0.86 5.63 64.51 16.58 29.17 20.1
23.94 0.92 5.1 59.58 15.31 29.2 19.55
24.5 0.97 5.41 60.85 16.05 30.71 18.9
23.13 0.73 2.32 69.53 16.91 27.52 19.91
23.53 0.88 5.06 61.02 15.15 28.87 19.46
23.77 0.76 5.95 61.18 15.57 29.82 19.33
24.43 1.01 5.61 63.67 16.83 30.48 19.5
23.5 0.79 3 67.55 16.87 28.43 19.99
21.9 0.63 4.99 80.28 18 25.34 19.23
23.29 0.61 5.63 71.48 17.54 28.28 18.94
23.67 0.8 5.18 65.31 16.52 28.28 19.95
23.68 0.59 5.87 68.29 17.17 28.37 20.3
23.24 0.98 5.44 74.37 18.1 28.32 19.31
21.43 1.03 3.98 84.24 18.33 25.86 18.16
19.1 0.8 3.73 81.51 15.66 22.79 16.18
22.86 0.84 5.53 61.81 14.87 28.66 17.66
24.01 0.62 4.42 65.27 16.82 29 19.61
22.94 0.67 5.83 73.61 17.67 27.15 19.63
22.87 0.88 5.61 74.21 17.65 27.01 19.75
19.44 0.58 4.96 81.81 15.95 22.27 16.7
22.25 0.97 5.43 67.74 15.68 27.2 17.41
21.99 1.03 5.68 82.32 18.57 26.12 19.04
22.27 0.88 5.36 80.28 18.4 26.84 18.39
21.47 0.9 3.5 90.28 19.52 24.99 19.5
21.08 0.81 5.75 87.55 18.57 23.82 19.26
21.76 0.93 4.43 77.39 17.22 26.31 18.05
20.36 0.62 4.32 85.35 17.46 22.96 18.44
22.19 0.78 4.16 68.07 15.73 27.79 17.72
22.74 0.86 5.68 69.41 16.5 27.48 18.59
22.53 0.74 4.78 67.3 15.7 28.47 17.91
22.02 0.66 4.64 76.41 17.36 26.37 18.7
21.56 0.68 4.98 77.95 17.2 24.43 18.87
22.34 0.72 5.22 73.09 16.99 27.82 18.18
22.32 0.71 5.43 76.1 17.5 26.82 18.59
23.22 0.74 4.92 74.26 18.11 27.95 19.28
23.21 0.92 5.57 72.25 17.49 28.37 19.75
20.86 0.98 3.94 90.78 19.02 23.28 18.77
22.77 1 5.29 74.9 17.73 28.03 18.19
22.11 0.61 4.44 80.76 18.22 25.56 19.63
22.25 0.66 5.64 81.46 18.58 26.36 19.1
23.39 1.01 4.91 75.29 18.47 28.23 19.27
22.13 0.72 5.85 82.43 18.56 24.97 19.65
21.27 0.83 4.61 88.28 18.94 24.58 19.32
23.2 0.9 5.47 72.46 17.67 28.12 18.78
23.53 0.67 4.16 71.16 17.76 27.55 19.66
22.09 0.74 4.11 80.27 18.22 24.75 19.96
21.44 0.66 6.04 83.9 18.34 25.19 19.08
21.98 0.78 2.81 83.36 18.67 26.53 18.02
21.52 0.55 5.47 87.45 18.98 24.15 19.73
23.46 0.87 6.1 75.77 18.68 28.38 19.08
23.06 0.79 5.22 78.15 18.74 26.99 20.13
21.02 0.61 5.77 90.84 19.14 23.53 19.23
21.34 0.57 4.49 84.01 18.17 25.02 18.44
22.05 0.52 2.73 80.75 18.28 25.62 19.01
21.56 0.67 3.06 87.41 19.07 24.5 19.59
20.71 0.5 3.98 91.54 18.86 23.43 18.71
21.86 0.67 5.62 84.81 18.75 26.22 19.22
22.87 0.79 4.34 79.19 18.65 27.71 19.18
21.86 0.51 4.31 84.32 18.71 25.19 19.47
23.23 0.84 5.83 72.37 17.68 28.36 18.87
21.98 0.4 5.39 84.31 18.91 25.5 19.21
22.95 0.5 4.4 79.56 18.88 27.21 19.68
20.97 0.66 5.01 93.82 19.5 23.21 18.95
20.69 0.82 3.24 89.75 18.53 24.26 18.07
20.66 0.85 3.81 84.63 17.69 24.49 17.65
21.72 0.73 5 78.18 17.34 25.95 18.3
21.67 0.76 5.68 83.54 18.18 26.33 18.7
19.71 0.53 5.49 90.67 17.57 22.52 17.88
20.28 0.69 4.84 90.54 18.33 23.61 17.71
21.55 0.92 4.29 88.52 19.26 25.67 18.05
21.67 0.82 4.47 89.79 19.56 25 18.85
20.22 0.57 2.79 96.85 19.31 22.15 18.68
21.4 0.83 5.26 89.81 19.36 25.04 18.61
22.73 0.82 7.74 83.72 19.41 27.34 18.22
22.38 0.96 7 88.51 20.05 25.75 19.5
21.94 0.91 6.21 87.65 19.37 25.9 18.93
22.42 0.94 5.97 84.74 19.38 26.66 18.73
22.59 0.91 4.6 82.16 18.9 27.27 18.37
21.6 0.79 5.1 86.65 18.82 24.79 18.75
20.56 0.6 5 91.74 18.77 23.25 18.97
20.89 0.83 5.22 91.5 19.14 23.98 18.73
21.93 0.88 3.71 86.27 19.25 26.15 18.69
21.61 0.57 3.89 86.95 18.87 24.91 18.96
23.16 0.81 4.18 80.23 19.1 27.56 19.67
21.11 0.59 0.89 94.95 19.85 22.73 19.5
20.19 0.6 4.19 94.49 18.88 22.07 18.5
21.43 0.82 6.33 85.63 18.54 25.81 17.89
22.12 0.81 5.42 83.11 18.62 26.34 18.27
21.06 0.73 3.08 92.72 19.38 22.89 19.74
20.7 0.65 5.16 88.49 18.25 24.2 18.25
21.45 0.83 6 87.31 18.88 24.75 19.01
21.66 0.82 5.32 85.88 18.91 25.18 18.95
20.56 0.72 3.07 95.03 19.42 22.18 19.25
21.23 0.56 5.34 89.92 19.19 24.28 18.56
20.63 0.81 3.29 96.51 19.72 22.78 18.87
20.5 0.62 5.43 90.84 18.61 23.83 18.02
21.87 0.97 5.42 88.06 19.53 25.52 19.03
21.93 0.75 5.05 87.07 19.35 25.01 19.29
22.24 0.84 4.36 88.14 19.88 25.73 19.73
21.37 0.58 5.09 89.71 19.19 24.29 19
19.91 0.76 3.12 97.49 19.09 21.73 17.79
19.06 0.74 4.29 88.68 16.86 22.24 17.14
19.7 0.92 5.21 82.98 16.45 23.65 16.44
20.44 0.98 5.55 82.63 17.08 24.75 16.31
21.01 0.85 5.87 82.86 17.68 25.37 16.96
21.73 0.95 6.21 79.89 17.74 26.54 17.72
22 0.67 4.56 79.9 17.95 26.46 18.35
21.45 0.64 5.12 88.84 19.14 24.89 19.34
20.26 0.59 3.79 92.76 18.64 23.32 18.14
20.34 0.7 2.95 88.71 18.01 23.72 18.06
20.5 0.68 3.97 89.61 18.37 23.96 17.65
19.74 0.63 4.39 88.86 17.51 22.36 18.06
20.31 0.69 4.92 87.13 17.76 23.8 17.45
20.74 0.69 4.09 85.85 17.86 24.57 17.96
20.12 0.49 3.45 95.03 18.77 22.68 17.52
20.66 0.55 4.66 94.63 19.3 22.92 19.05
20.45 0.75 3.03 88.96 18.03 24.06 17.69
21.59 0.84 4.4 81.86 17.62 25.3 18.52
21.46 0.89 4.62 84.42 18.16 25.2 18.33
20.29 0.67 3.22 91.9 18.6 22.89 18.5
20.87 0.78 3.92 90.34 18.89 24.17 17.88
21.52 0.99 4.78 91.99 19.85 24.64 18.85
21.16 0.58 5.33 92.58 19.45 23.8 19.07
21.53 0.64 5.23 92.26 19.81 24.06 19.78
21.09 0.58 5.22 92.77 19.52 23.8 19.25
22.03 0.77 5.27 88.12 19.63 25.71 18.79
20.77 0.35 4.75 89.29 18.42 22.84 18.9
21.52 0.81 5.81 92.84 19.92 24.17 19.53
21.4 0.76 2.99 92.97 19.88 24.63 19.37
21.16 0.72 5 87.95 18.67 24.6 18.51
21.33 0.74 4.17 86.87 18.68 25.12 17.9
22.08 0.73 5.83 84.84 19.06 26.34 18.47
22.36 0.83 7.22 82.62 18.7 26.64 18.62
21.67 0.73 5.65 87.72 19.18 25.12 19.48
21.49 0.57 4.38 92.14 19.86 24.55 19.32
22.46 0.94 6.37 86.73 19.86 26.39 19.42
22.1 0.86 4.15 91.83 20.39 25.28 19.66
21.17 0.66 3.83 94.57 19.9 23.3 19.75
21.38 0.78 4.1 90.89 19.43 24.63 18.91
21.03 0.54 4.33 91.91 19.24 23.54 19.47
21.95 0.58 4.15 88.54 19.58 25.36 19.68
21.21 0.63 2.79 92.39 19.56 23.8 19.46
20.93 0.74 5.76 89.27 18.72 24.87 18.25
22.12 0.82 6.44 84.88 19.04 26.65 18.4
22.35 0.73 6.41 84.46 19.21 26.12 19.22
21.75 0.45 4.64 87.69 19.2 25.19 19.63
20.9 0.65 2.96 93.9 19.46 23.46 19.21
21.9 0.84 6.28 82.78 18.51 26.22 18.55
21.58 0.84 4.62 83.06 18.21 25.89 18.28
21.32 0.94 4.29 86.33 18.59 25.39 18.08
20.71 0.96 4 94.64 19.49 23.85 19.05
19.38 0.74 3.65 93.02 17.91 21.72 17.29
20.76 0.87 5.46 82.7 17.38 25.04 17.19
21.64 0.85 5.97 82.72 18.22 26.35 17.65
21.07 0.64 6.12 90.61 19.16 24.08 18.75
20.9 0.58 4.69 87.46 18.28 23.7 18.58
22.3 0.84 3.66 79.19 17.97 27.02 18.75
20.48 0.44 4.81 92.43 18.71 22.33 19.15
20 0.62 2.61 90.25 17.9 22.53 18.31
21.09 0.68 4.42 85.82 18.18 24.9 18.23
21.93 0.84 3.65 88.33 19.6 26.1 18.74
21.08 0.88 4.09 95.63 19.99 23.15 19.47
20.09 0.65 3.28 91.29 18.25 23.43 17.89
20.97 0.69 4.78 85.89 18.21 24.98 17.94
22.03 0.81 5.39 83.53 18.62 26.24 18.78
21.75 0.71 4.69 87.84 19.31 24.78 19.35
21.66 0.66 5 91.01 19.81 24.92 19.17
21.87 0.68 4.5 85.77 18.91 25.7 18.92
22.51 0.7 5.87 81.48 18.71 26.7 19.1
22.83 0.75 4.89 84.34 19.68 26.85 19.54
21.69 0.59 4.92 89.7 19.55 24.32 19.46
21.27 0.78 4.56 84.63 18.16 25.48 18.31
21.48 0.66 4.39 82.83 18.15 25.63 18.39
22.22 0.77 4.38 81.47 18.57 26.85 18.76
22.23 0.88 4.34 78.45 17.9 27.23 18.3
22.24 0.67 4.18 81.17 18.55 26.47 19
20.91 0.54 4.96 87.22 18.36 23.98 19.08
22.17 0.88 5.96 77.31 17.39 27.27 17.53
21.26 0.71 5.6 88.07 18.8 24.61 18.79
21.35 0.49 4.77 81.79 17.77 25.56 17.89
20.94 0.46 4.47 85.66 18.12 24.02 18.89
21.05 0.47 4.07 86.55 18.37 24.09 18.72
21.7 0.76 4.04 85.37 18.86 25.3 19.24
19.82 0.7 4.21 92.61 18.21 22.9 15.67
16.96 0.57 5.03 81.16 13.53 20.26 14.83
17.8 0.63 5.85 70.83 12.27 22.81 14.24
18.47 0.63 5.92 71.56 12.98 24.14 13.67
19.32 0.73 4.73 73.66 13.89 24.68 14.76
19.41 0.69 5.57 73.96 14.35 24.6 15.53
19.44 0.69 5.48 72.38 14.04 25.11 15.02
19.82 0.69 5.78 72.67 14.47 25.25 15.76
20.04 0.67 5.79 72.85 14.76 25.35 15.84
21.3 0.73 5.57 75.71 16.43 26.99 16.85
21.57 0.58 5.56 80.87 17.61 25.88 18.77
21.96 0.71 5.02 82.55 18.48 26.78 18.9
21.25 1.2 4.6 83.8 18.12 24.71 18.6
19 0.59 5.24 78.45 14.93 22.39 16.45
19.09 0.64 5.16 76.91 14.34 24.12 15.76
20.89 0.75 5.49 74.08 15.63 26.64 15.73
21.79 0.81 5.49 79.21 17.64 26.2 18.31
22.63 0.71 4.8 72.16 16.97 27.94 18.29
22.61 0.64 3.74 76.98 17.99 27.42 18.87
22.23 0.49 4.96 67.68 15.22 26.85 19.1
22.95 0.72 3.41 73.6 17.47 28.45 18.82
22.32 1.04 4.22 83.94 19.14 26.84 19.4
22.24 0.79 3.93 82.45 18.81 26.48 19
23.39 0.68 4.49 74.92 18.39 28.47 19.08
23.44 0.69 4.78 74.96 18.46 28.33 19.73
23.02 0.58 3.86 80.42 19.18 27.27 19.89
21.69 0.35 2.74 91.68 19.96 24.75 20.19
20.6 0.48 3.38 97.04 19.74 22.15 19.37
21.79 0.62 4.98 86.75 19.13 26.42 18.84
22.76 0.69 5.13 78.93 18.42 27.78 18.83
22.63 0.77 4.94 78.98 18.22 27.52 18.74
20.03 0.69 4.78 84.1 16.97 23.03 18.09
21.24 0.66 5.18 80.5 17.35 25.65 17.95
21.43 0.56 5.64 84.36 18.41 24.5 19.23
21.06 0.5 5.51 81.51 17.38 25.02 18.74
19.88 0.64 4.77 83.67 16.51 22.94 17.54
21.04 0.89 4.46 75.45 15.94 26.14 16.67
20.92 0.72 4.64 76.72 16.38 25.27 17.43
20.96 0.67 4.99 79.79 16.98 25.49 17.21
21.22 0.66 5.23 80.18 17.34 25 18.16
19.72 0.53 4.71 93.22 18.25 21.61 18.05
20.04 0.71 4.21 86.33 17.32 24.39 17.1
20.08 0.6 3.86 79.66 16.17 23.99 17.34
20.28 0.66 4.74 75.19 15.41 24.93 16.99
20.46 0.72 4.63 73.52 15.26 25.67 16.61
20.41 0.73 3.73 74.69 15.41 25.26 16.47
21.36 0.71 4.77 74.31 16.21 26.56 17.07
21.96 0.72 5.16 75.77 17.05 27.15 17.84
21.49 0.68 4.94 82.55 18.06 26.45 18.4
19.76 0.65 4.94 90.11 17.63 22.99 17.74
20.34 0.55 4.77 81.2 16.55 25.53 16.68
20.71 0.63 4.46 87.47 18.15 25.21 17.71
20.78 0.45 4.71 79.59 16.65 25.05 17.88
21.88 0.7 4.59 73.31 16.48 26.96 17.79
22.55 0.67 4.96 72.91 17.05 27.57 18.5
22.8 0.67 4.86 74.48 17.64 27.69 19.26
21.62 0.92 4.9 80.49 17.75 25.81 19.01
18.55 0.68 3.63 88.05 16.15 21.1 16.14
18.27 0.66 4.19 78.38 14.09 22.93 14.91
18.7 0.74 4.44 74.49 13.82 23.68 14.8
19.22 0.72 4.7 70.99 13.5 24.29 14.92
20.3 0.66 5.04 70.53 14.38 25.47 15.94
20.43 0.59 4.94 75.14 15.44 25.49 17.52
21.4 0.7 4.97 68.7 14.38 27.43 16.02
22.23 0.64 5.32 70.91 15.91 27.15 18.64
22.14 0.56 5.36 72.52 16.64 27.59 18.59
22.21 0.64 4.35 72.07 16.65 27.15 18.53
21.65 0.55 4.51 73.22 16.26 26.03 18.88
21.88 0.57 4.45 74.23 16.66 26.13 18.88
23.12 0.67 5.51 67.67 16.36 28.41 18.79
23.34 0.65 5.23 69.29 17.06 28.53 19.4
21.52 0.75 4.51 79.55 17.56 24.49 18.89
18.5 0.68 3.77 66.96 11.93 22.46 15.08
16.79 0.6 4.29 59.77 8.72 21.55 13.65
17.65 0.75 5 57.49 8.97 23.97 12.91
17.97 0.74 5.19 62.87 10.59 23.68 13.25
19.17 0.8 5.32 58.85 10.67 25.53 14.39
19.64 0.81 5.82 54.38 9.77 26.36 14.71
20.13 0.77 5.82 52.04 9.53 26.78 15.6
19.85 0.76 5.62 51.75 9.24 26.39 14.78
20.65 0.75 5.58 51.7 9.83 27.01 15.83
21.64 0.81 5.32 53.73 11.48 27.95 16.56
22.6 0.8 5.23 58.23 13.59 28.31 17.87
23.24 0.86 4.89 62.62 15.36 29.19 18.84
17.79 0.51 3.32 86.17 14.99 20.05 14.07
15.32 0.53 1.94 78.55 11.43 19.56 12.85
17.96 0.73 2.45 61.1 10.19 24.37 12.4
20.42 0.84 3.52 55.99 11.08 26.88 15.1
21.34 0.73 4.37 56.39 12.07 27.42 16.28
21.36 0.67 4.75 61.1 13.22 26.75 17.12
20.03 0.69 4.83 67.4 13.54 24.59 17.07
18.7 0.62 4.47 67.09 12.29 23 15.85
19.79 0.72 4.38 60.95 11.85 25.56 15.34
20.86 0.77 5.09 57.2 11.83 26.98 15.73
21.83 0.75 5.37 54.73 12.08 27.64 17
22.23 0.76 5.38 50.37 11.2 28.41 17.62
22.38 0.78 5.09 47.54 10.48 28.98 17.3
22.57 0.79 5.53 47.47 10.62 29.06 17.4
22.82 0.78 5.05 48.63 11.19 28.99 17.65
23.63 0.77 5.61 48.39 11.86 29.96 19.04
23.65 0.7 5.25 52.96 13.3 28.92 19.52
23.96 0.74 5 52.31 13.39 29.39 19.86
23.11 0.67 4.35 55.59 13.53 28.45 19.87
22.05 0.78 3.3 60.14 13.71 27.79 17.99
22.43 0.78 2.02 59.35 13.87 28.16 18.26
20.58 0.65 3.14 64.32 13.33 25.14 17.53
18.41 0.66 4.07 53.47 8.5 23.29 14.98
17.92 0.76 5.98 42.77 4.9 24.39 13.33
19.22 0.81 6.32 40.37 5.27 26.65 12.98
20.68 0.82 6.6 41.52 6.97 28.11 14.74
22.01 0.84 6.29 41.7 8.21 29.05 16.45
23.13 0.87 5.81 40.7 8.83 30.15 16.98
23.13 0.75 4.52 43.67 9.87 29.41 17.66
23.8 0.82 5.59 44.99 10.96 30.05 18.88
24.57 0.84 5.67 43.42 11.11 30.86 19.89
23.28 0.64 5.51 53.23 12.99 29.48 18.49
23.22 0.7 5.05 55.56 13.61 28.4 19.36
23.3 0.69 4.85 54.28 13.37 28.71 19.23
23.18 0.67 4.79 55.18 13.47 28.8 19.2
23.69 0.8 4.67 52.98 13.34 28.59 19.74
21.35 0.58 5.2 54.82 11.19 26.08 17.46
22.28 0.59 5.16 55.64 12.42 26.27 19.11
19.48 0.55 4.24 75.61 14.69 23.01 17.05
21.1 0.78 4.23 62.01 13.27 25.71 16.91
23.67 0.88 5.6 55.51 13.89 30.28 18.26
24.54 0.73 5.62 59.44 15.87 30.19 20
24.69 0.84 5.42 57.18 15.4 30.25 20.67
22.51 0.77 4.63 71.12 16.67 26.88 19.04
22.15 0.75 5.22 71.01 16.3 27.36 18.19
20.24 0.85 4.49 74.95 15.29 23.97 16.09
16.8 0.57 5.28 70.51 11.16 22.3 13.48
20.58 0.82 5.59 50.1 9.64 27.54 14.55
23.63 0.87 6.49 46.37 11.03 30.51 18.22
23.41 0.69 5.68 56.66 14.06 28.91 19.09
20.78 0.47 4.58 66.83 14 22.44 19.34
22.22 0.72 4.2 59.45 13.63 28.06 18.46
23.26 0.73 4.37 51.07 12.11 29.58 18.16
23.21 0.91 4.49 56.46 13.72 28.62 19.01
23.8 0.94 3.78 56.65 14.43 29.77 18.21
24.79 1.13 4.43 51.98 14.1 30.71 19.62
19.25 0.72 3.85 67.98 12.91 21.99 14.9
16.31 0.57 2.16 68.66 10.41 20.83 13.46
17.85 0.71 3.61 63.22 10.59 24.16 12.53
21.27 0.8 5.12 53.16 11.14 28.34 14.97
22.83 0.74 5.06 48.82 11.35 29.37 18.35
22.18 0.69 5.35 50.54 11.27 28.07 18.42
23.09 0.83 5.5 45.09 10.41 29.47 18.04
23.56 0.81 5.53 41.36 9.53 30.51 18.34
24.6 0.84 6.3 38.62 9.4 31.78 18.89
25.57 0.84 5.89 40.99 11.13 31.53 20.44
23.32 0.78 5.17 60.37 14.94 26.02 21.08
25.82 1.08 5.27 50.15 14.44 32.17 19.63
27.32 1.03 5.08 43.5 13.66 32.41 22.71
26.21 1 6.55 48.08 14.07 31.96 19.91
16.85 0.66 4.88 77.95 12.72 19.04 14.78
19.92 0.76 5.89 55.23 10.46 26.67 13.86
22.83 0.81 6.57 47.16 10.72 29.85 16.61
25.35 0.96 5.68 45.24 12.34 32.18 19.43
23.71 1.12 4.17 62.09 15.77 28.44 19.45
24.12 1.13 5.65 62.26 16.21 29.34 20.04
22.21 0.54 3.46 71.63 16.47 25.75 19.54
24.48 0.78 5.17 61.97 16.35 30.96 18.66
24.77 0.75 4.94 64.65 17.38 29.93 20.43
22.69 0.43 4.64 72.09 17.04 26.56 20.01
20.62 0.71 2.61 81.54 16.96 23.42 18.49
22.57 0.96 2.99 69.74 16.44 28.1 17.81
22.46 0.77 3.42 73.42 17.19 26.67 18.85
22.14 0.99 3.85 73.79 16.98 27.06 18.43
23.05 0.94 2.88 61.88 15.02 28.2 18.49
24.27 0.78 3.75 53.2 13.86 30.21 19.25
23.96 0.64 4.76 54.28 13.82 28.9 19.95
24.3 0.76 5.93 60.44 15.85 28.48 21.2
22.93 0.85 4.7 73.93 17.63 28.35 19.5
21.06 0.62 4.45 87.21 18.4 24.19 18.87
21.97 0.94 4.1 79.79 18.03 26.52 19.12
21.45 0.61 3.78 79.45 17.35 26.16 17.99
20.47 0.67 4.17 85.71 17.63 23.49 18.34
18.91 0.59 4.13 79.9 15.07 21.62 17
21.49 0.85 5.98 68.31 15.2 26.99 16.63
22.71 0.72 6.03 66.98 16.01 28.02 18.38
22.52 0.67 5.04 62.14 14.37 27.12 18.37
21.99 0.61 5.97 76.92 17.37 26.66 19.17
21.85 0.91 4.82 86.71 19.22 25.28 19.42
23 0.7 5.87 75.17 17.94 28.36 18.71
21.85 0.45 2.22 84.5 18.75 25.5 19.53
22.36 0.6 5.4 79.47 18.29 26.49 19.29
23.22 0.72 6.03 74.67 18.17 27.44 19.49
23.03 0.66 5.25 76.23 18.31 26.26 20.34
22.29 0.97 6.28 83.53 19.01 26.15 19.78
20.78 0.76 4.08 79.91 16.87 25.15 18.13
21.98 0.94 5 71.44 16.33 26.84 17.34
23.49 0.8 6.67 68.02 17.01 28.6 18.69
24.26 0.74 6.46 66.7 17.42 29.56 20.04
25.03 0.9 7.9 62.84 17.08 30.49 20.44
25.01 0.9 7.05 62.84 17.06 30.13 20
24.48 0.99 3.94 66.79 17.62 29.76 20.27
20.43 0.79 4.22 84.65 17.27 22.03 18.08
19.18 0.64 3.18 83.03 15.83 21.48 17.35
20.78 0.73 3.74 78.65 16.61 26.32 16.83
22.42 0.72 4.55 72.83 16.88 27.16 18.79
21.39 0.57 4.25 80.19 17.37 26.73 18.2
20.78 0.74 4.97 89.91 18.68 23.57 18.55
22.52 0.69 5.16 73.96 17.24 27.4 18.2
22.79 0.55 4.29 76.26 18.06 26.93 19.79
22.56 0.46 4.4 79.32 18.42 27.22 19.8
22.08 0.47 5.76 83.86 18.71 25.05 19.88
21.86 0.69 4.96 81.18 18.14 24.45 19.76
22.93 0.73 5.65 76.87 18.33 26.39 19.56
22.17 0.61 4.42 82.2 18.56 25.36 19.73
19.92 0.57 1.42 93.92 18.42 22.04 18.27
21.97 0.86 4.37 75.36 17.09 27.13 17.92
21.57 0.47 4.21 83.64 18.36 25.19 18.61
21.42 0.6 6.14 89.31 19.15 24.44 19.39
21.51 0.96 2.86 91.11 19.57 24.84 19.44
20.53 1.19 3.91 97.6 19.79 22.47 19.17
21.68 0.94 4.94 88.42 19.33 25.32 18.46
21.51 0.8 5.74 87.38 18.97 25.73 18.31
21.88 0.69 4.52 86.14 19.09 25.31 19.18
22.59 0.74 4.84 83.19 19.27 26.54 20.05
22.08 0.43 5.51 88.12 19.64 24.95 20.1
20.07 0.57 2.35 94.8 18.7 21.87 18.26
21.34 0.87 5.06 78.03 16.93 25.66 17.85
21.23 0.63 4.36 85.64 18.38 24.62 18.36
22.2 0.68 3.62 83.06 18.88 26.16 19.2
22.15 0.67 2.78 81.85 18.55 26.38 19.42
22.91 0.93 5.74 77 18.29 27.74 19.3
19.63 0.75 3.25 95.51 18.5 21.49 17.64
21.1 0.86 5.78 86.31 18.32 25.41 17.11
21.78 0.91 4.27 86.42 19.13 25.54 19.07
22.08 0.75 5.02 84.79 18.92 26.23 18.57
20.57 0.64 3.42 95.28 19.26 22.51 18.94
21.63 0.83 5.76 87.02 18.94 25.65 18.56
21.88 0.89 7.26 85.44 18.86 26.12 18.86
21.33 0.63 5.23 87.38 18.69 25.06 18.41
20.83 0.67 3.53 93.61 19.34 23.03 19.09
21.52 0.7 5.14 91.76 19.74 24.88 18.87
21.54 0.74 5.72 91.18 19.72 24.82 19.33
21.06 0.71 4.22 94.74 19.86 23.06 19.4
21.54 0.5 5.9 89.6 19.32 24.68 18.97
21.26 0.53 5.62 91.7 19.32 23.57 19.53
20.71 0.55 4.47 92.58 18.91 23.34 18.69
21.39 0.71 5.79 87.5 18.82 24.8 18.7
21.05 0.55 5.29 90.7 19.11 24 18.84
20.57 0.57 5.38 93.51 19.07 23.12 18.75
19.84 0.53 2.54 93.73 18.32 21.83 17.94
20.23 0.85 3.82 89.93 18.17 23.57 17.45
20.3 0.74 4.79 91.19 18.42 23.31 17.76
20.72 0.73 3.67 88.05 18.18 24.37 18.05
19.53 0.45 3.56 94.38 18.14 21.45 18.04
20.2 0.78 4.01 88.21 17.79 23.3 17.94
21.2 0.72 5.35 87.5 18.65 25.01 17.48
20.85 0.5 3.69 93.09 19.31 23.43 18.91
20.2 0.44 1.69 97.43 19.36 21.88 18.97
19.98 0.42 3.43 93.6 18.51 21.97 18.49
20.96 0.89 4.07 90.12 18.94 24.47 18.16
20.39 0.58 3.93 91.14 18.5 23.53 18.56
21.06 0.84 5.93 86.48 18.22 24.92 17.82
21.95 0.89 6.19 83.27 18.42 26.14 18.35
22 0.73 6.31 81.81 18.16 26.07 18.68
21.11 0.5 4.89 92.2 19.32 23.34 19.24
20.77 0.37 4.71 93.45 19.24 23.02 19.25
20.67 0.8 3.48 95.17 19.5 22.54 19.24
19.93 1.11 3.65 98.38 19.35 21.65 18.8
20.24 1.15 3.22 95.93 19.24 22.81 18.23
19.29 0.67 4.23 97.08 18.45 21.18 17.8
20.2 0.92 3.45 93.73 18.78 23.04 17.77
20.32 0.85 4.47 93.92 18.93 23.2 17.98
19.2 0.74 3.78 96.86 18.28 20.84 17.86
19 0.64 4.16 92.9 17.4 21.98 16.61
19.78 0.78 5.59 90.3 17.75 23.4 16.13
19.79 0.36 4.04 96.03 18.66 22.19 18.01
19.92 0.96 4.67 98.17 19.17 22.09 17.75
18.89 0.6 2.84 97.34 18.02 20.94 16.88
19.77 0.7 5.29 91.61 17.94 23 17.43
18.99 0.57 4.33 93.6 17.55 21.42 16.88
19.91 0.55 3.64 92.63 18.33 23.02 17.47
20.7 0.93 4.62 92.93 19.17 23.98 17.72
20 0.7 4.14 92.29 18.39 22.17 18.4
21 0.91 4.73 90.61 19.01 24.22 17.71
21.07 0.73 5.07 91.78 19.32 24.09 18.96
21.62 0.75 5.62 88 19 24.73 18.46
21.6 0.55 5.79 90.83 19.64 24.29 19.54
20.93 0.48 3.39 95.7 19.78 22.96 19.38
20.94 0.51 5.9 91.34 19 23.92 18.48
21.2 0.53 5.98 91.66 19.37 23.82 19.36
21.45 0.46 4.01 90.58 19.43 23.95 19.56
21.44 0.38 5.45 93.43 19.97 23.77 19.51
21.35 0.58 5.16 94.64 19.99 23.51 19.75
20.91 0.65 3.89 93.7 19.49 23.52 18.8
20.39 0.77 4.32 94.18 19.11 22.88 18.32
20.54 0.76 4.1 92.27 18.91 23.5 17.85
20.08 0.97 4.33 96.61 19.23 21.54 18.75
19.9 0.68 4.09 92.27 18.22 22.92 18.07
19.22 0.51 3.44 89.38 17.07 21.67 17.37
20.79 0.66 4.88 90.87 18.82 25.06 17.16
19.8 0.79 4.81 96.01 18.69 22.45 16.72
18.34 0.6 5.92 90.46 16.45 21.17 15.98
20.57 0.75 6.11 86.51 17.78 25.1 16.39
21.19 0.77 5.35 93.44 19.76 24.52 18.39
20.19 0.73 4.38 93.59 18.61 23.45 17.49
20.72 0.59 4.78 90.42 18.61 23.6 18.72
20.11 0.55 5.38 93.5 18.53 21.84 18.85
19.9 0.67 4.04 91.75 18.11 22.62 17.94
21.17 0.82 5.57 89.73 18.96 24.74 17.96
21.35 0.56 5.88 92.79 19.85 24.15 19.07
21.99 0.93 6 92.3 20.4 25.32 19.2
20.52 0.87 3.66 98.42 19.9 22.26 19.11
19.93 0.9 3.21 95.9 18.94 22.42 18.34
20.38 0.59 4.15 92.82 18.82 23.01 18
20.6 1.13 4.65 93.27 19.18 23.11 18.96
21.27 1 5 91.96 19.6 24.49 18.57
21 0.83 5.41 94.51 19.75 23.75 18.87
20.93 0.81 4.01 94.63 19.71 24 18.89
20.7 0.69 4.1 93.3 19.2 23.48 18.93
21.52 0.74 5.36 89.88 19.43 25.09 18.45
21.95 0.69 6.06 91.02 20.04 25.22 19.04
21.56 0.54 6.14 93.44 20.16 23.96 19.76
21.86 0.64 6.44 90.28 19.88 25.13 19.5
21.7 0.59 5.77 91.54 19.93 24.76 19.58
21.35 0.54 6.17 93.21 19.72 23.94 19.18
21.42 0.55 4.88 90.26 19.3 24.29 19.48
21.97 0.82 5.93 88.62 19.55 25.41 19.4
20.72 0.55 4.64 94.01 19.38 22.6 19.41
20.42 0.52 4.35 93.93 19.06 22.66 18.66
21.04 0.61 5.21 88.38 18.61 24.29 18.58
20.83 0.62 4.32 93.52 19.39 23.49 19.14
20.92 0.62 3.8 91.86 19.17 24.31 18.31
20.34 0.6 3.83 95.98 19.32 22.57 18.8
20.39 0.73 5.18 91.64 18.58 23.57 17.98
19.86 0.62 3.39 92.46 18.15 23.04 17.65
19.13 0.41 4.21 91.51 17.27 21.99 16.73
20.12 0.68 4.61 94.15 18.73 23.01 17.97
20.03 0.54 4.25 94.48 18.66 22.67 17.92
19.87 0.53 4.06 94.11 18.45 22.14 17.96
20.26 0.61 4.91 92.6 18.58 23.04 18.18
19.9 0.64 3.28 94.37 18.55 22.35 18.04
20.06 0.68 4.22 92.58 18.4 23.05 18.1
20.09 0.71 4.54 89.39 17.95 23.16 18.11
20.29 0.67 4.18 94.25 18.96 23.32 17.24
20.56 0.93 3.58 96.27 19.64 23.25 18.67
20.71 0.65 3.93 93.23 19.2 23.84 18.19
20.35 0.53 3.52 96.59 19.43 22.7 18.74
20.68 0.71 4.31 91.36 18.72 24.09 18.18
19.36 0.72 4.6 93 17.76 22.35 17.12
19.4 0.69 4.24 90.94 17.41 22.83 17.42
19.57 0.68 4.23 91.58 17.68 23.14 16.44
20.06 0.44 4.1 93.07 18.4 22.56 18.1
20.25 0.6 2.99 96.75 19.33 22.78 18.61
20.21 0.41 5.11 96.38 19.23 22.45 18.95
20.43 0.59 5.15 96.15 19.44 23.19 18.32
20.05 0.54 2.13 97.48 19.25 22.03 18.7
20.93 0.56 5.95 92.05 19.13 24.19 18.66
20.32 0.44 5.41 93.22 18.73 22.69 18.5
20.53 0.62 3.92 87.63 17.96 23.64 18.28
20.59 0.6 3.62 90.66 18.64 23.68 17.8
19.68 0.62 3.91 95.19 18.52 21.74 18.14
18.23 0.73 1.96 95.97 17.24 20.37 16.09
17.13 0.69 4.2 89.85 15.22 19.85 15.19
17.36 0.61 4.85 86.78 14.91 20.98 14.79
18.63 0.62 4.93 86.02 15.95 22.83 15.18
19.79 0.58 5.28 88.97 17.6 23.6 16.36
20.38 0.64 5.85 92.36 18.74 23.48 17.9
20.89 0.74 6.25 91.02 18.99 24.4 18.02
21.02 0.68 5.46 90.07 18.85 24.26 18.69
20.68 0.75 5.58 90.58 18.5 23.62 18.41
20.3 0.48 4.77 90.42 18.24 22.6 18.32
20.51 0.72 3.57 90.34 18.44 23.83 17.68
20.96 0.85 4.27 87.12 18.15 24.8 17.89
20.92 0.72 5.23 87.64 18.31 24.6 17.67
19.6 0.56 4.56 96.49 18.7 22.02 17.28
19.94 0.81 4.67 88.2 17.44 24.2 16.8
19.77 0.78 4.37 83.85 16.3 23.49 17.27
18.16 0.69 5.12 87.35 15.7 21.61 15.49
17.46 0.61 4.64 86.59 14.95 20.92 15.12
17.49 0.67 5.19 85.77 14.82 21.51 14.74
18.33 0.69 4.92 85.97 15.6 22.39 14.85
18.67 0.66 4.31 88.52 16.38 22.68 15.29
18.1 0.71 4.67 89.9 16.12 21.79 15.63
16.7 0.59 4.11 86.48 14.16 19.7 14.77
15.98 0.72 4.09 84.53 13.16 19.55 13.58
15.63 0.73 5.01 83.03 12.54 19.45 12.39
16.2 0.75 5.86 83.03 13.02 20.78 12.71
16.17 0.78 6.03 82.48 12.91 20.48 12.67
16 0.75 6.32 82.77 12.79 20.37 12.65
16.16 0.74 6.06 83.69 13.1 20.9 12.55
16.69 0.7 6.26 82.63 13.37 21.46 12.74
17.78 0.59 6.15 82.14 14.18 22.78 13.56
18.83 0.68 5.58 87.62 16.22 23.09 15.24
19.61 0.66 4.88 92.37 17.98 23.05 16.82
20.24 0.62 4.77 93.07 18.68 23.24 17.73
20.35 0.57 4.76 92.25 18.61 23.36 18.44
19.69 0.46 4.2 93.34 17.92 23.05 17.8
15.44 0.53 4.03 94.57 14.26 18.63 12.9
15.09 0.55 5.26 83.48 12.1 19.37 12.31
16 0.72 5 80.74 12.43 20.56 12.57
17.13 0.75 5.71 80.28 13.15 21.86 13.27
18.44 0.65 5.78 79.26 14.02 23.22 14.65
19.05 0.72 6.01 78.55 14.2 23.9 15.49
18.85 0.76 5.74 74.33 12.86 23.6 15.51
18.74 0.74 5.4 78.13 14.11 23.24 15.12
19.67 0.69 5.21 83.54 16.19 23.99 16.24
19.67 0.85 3.82 93.65 18.29 22.87 17.03
19.41 0.58 3.59 89.28 17.21 23.01 16.62
19.58 0.63 3.98 85.3 16.71 23.77 16.05
19.89 0.69 3.78 89.63 17.82 23.35 17.46
19.77 0.72 4.54 94.62 18.52 22.92 17.77
18.6 0.32 4.08 97.24 17.63 20.66 17.34
19.71 0.71 4.79 88.23 17.26 23.58 16.51
20.06 0.91 3.86 94.15 18.81 23.33 17.84
20.57 0.69 3.17 90.42 18.65 24.23 17.95
20.85 0.48 4.71 89.31 18.64 24.28 18.38
20.62 0.58 4.07 92.11 18.84 24.05 18.64
17.83 0.71 2.64 100 17.55 19.42 15.42
16.96 0.54 4.23 89.34 14.96 20.58 14.57
18.36 0.69 4.44 86.67 15.74 22.48 14.85
18.96 0.77 4.84 89.06 16.71 23.22 15.65
19.55 0.77 4.86 88.73 17.3 23.83 16.39
19.17 0.84 4.37 87.57 16.78 23.09 16.11
19.12 0.78 5.2 83.1 15.9 23.46 15.74
19.53 0.72 5.38 82.3 16.12 24.14 16.32
19.75 0.63 5.31 84.53 16.77 24.13 16.7
20.31 0.65 5.4 84.59 17.26 24.33 17.63
19.57 0.6 3.91 87.78 17.14 22.63 17.47
19.58 0.48 3.05 82.44 16.05 23.43 16.48
19.12 0.55 2.74 91.15 17.23 21.92 17.37
19.86 0.64 2.96 83.66 16.55 24.13 16.7
20.15 0.51 4.37 85.63 17.23 24.41 17.44
20.65 0.75 4.9 82.27 17.12 25.02 17.4
19.59 0.49 4.75 84.8 16.54 23.13 17.53
19.28 0.6 4.01 86.47 16.58 23.05 16.55
18.99 0.56 3.75 87.26 16.54 22.27 16.91
20.19 0.65 5.09 79.17 16.18 24.67 16.71
20.09 0.69 4.55 84.18 16.9 23.85 17.23
20.62 0.71 4.51 77.62 16.17 25.87 16.66
20.81 0.78 4.92 75.24 15.86 25.71 17.21
20.51 0.69 5.47 69.08 14.06 26.03 16.39
20.09 0.65 5.65 66.73 13.12 25.72 16.08
19.93 0.63 5.55 65.35 12.7 25.86 15.55
19.98 0.68 5.29 67.41 13.27 25.84 15.36
20.82 0.68 5.49 66.04 13.66 26.77 15.69
21.92 0.68 5.28 68.13 15.29 27.66 16.96
22.29 0.71 4.63 74.81 17.22 27.47 18.32
22.45 0.63 4.58 72.12 16.69 27.5 19.16
22.2 0.68 4.94 70.11 16.11 27.67 17.89
21.59 0.49 4.26 72.56 15.96 26.46 18.29
21.69 0.55 4.52 72.87 16.14 26.33 18.7
20.62 0.78 3.86 74.4 15.51 25.06 17.28
19.69 0.75 3.98 65.72 12.8 24.78 16.15
19.87 0.82 4.3 59.73 11.47 25.47 15.72
20.61 0.77 5.46 56.75 11.33 26.62 16.27
20.92 0.72 5.87 57.17 11.62 26.97 16.62
21.29 0.68 6.29 49.28 9.43 27.89 16.79
21.03 0.69 5.69 49.92 9.6 27.28 16.45
21.12 0.77 5.6 55.08 11.25 27.58 16.46
21.83 0.76 5.59 55.81 12.01 28.16 16.92
22.68 0.7 5 63.34 14.88 28.47 17.91
22.92 0.72 4.44 66.44 16.01 28.41 18.69
23.25 0.81 4.68 62.88 15.45 28.96 18.72
22.61 0.69 3.58 68.8 16.28 27.16 19.1
23.08 0.6 3.24 67.76 16.44 28.22 18.98
21.75 0.55 3.04 70.47 15.73 25.88 18.85
16.79 0.31 4.27 82.33 13.43 19.68 13.9
16.36 0.62 4.15 68.73 10.42 21.33 12.81
18.93 0.7 3.57 58.54 10.43 24.93 13.62
20.77 0.67 4.81 57.76 11.92 26.7 15.77
21.69 0.72 5.8 59.53 13.18 27.4 17.21
22.23 0.66 6.05 61.28 14.21 27.62 18.21
22.54 0.62 5.6 59.38 14.01 27.58 18.66
22.42 0.64 5.51 57.8 13.49 27.5 18.8
23.36 0.7 4.96 55.98 13.85 28.82 18.82
23.95 0.69 3.88 57.86 14.89 29.33 19.55
23.67 0.89 5.15 62.05 15.52 29.09 19.53
22.62 0.57 4.97 67.66 15.76 27.1 19.77
24.01 0.67 3.57 53.24 13.19 29.7 20.13
24.68 0.82 5.64 52.49 14.05 30.96 19.83
24.03 0.77 4.95 58.25 15.15 29.3 19.69
24.81 0.81 5.17 53.74 14.6 30.65 19.72
25.19 0.93 5.03 54.53 15.19 30.68 20.6
23.53 0.72 3.6 65.28 16.41 27.11 20.88
18.55 0.54 4.62 84.01 15.29 20.25 16.9
19.79 0.7 4.6 72.91 14.47 24.77 15.78
20.9 0.67 3.46 62.2 13.21 26.22 16.74
21.91 0.71 3.47 57.51 12.93 27.87 17.35
20.56 0.59 3.38 62.1 12.72 26.22 16.88
21.88 0.76 4.45 47.89 10.18 28.4 16.56
22.36 0.71 4.34 48.1 10.69 28.42 17.85
23.06 0.71 4.34 47.4 11.12 29.27 17.89
23.4 0.78 4.92 49.77 12.16 29 19.16
24.27 0.8 5.52 52.03 13.6 29.82 19.64
24.1 0.73 5.74 56.67 14.71 29.44 19.94
24.45 0.86 5.08 56.87 15.1 29.93 19.99
19.83 0.54 4.19 71.1 14.13 21.4 17.51
22.79 0.75 5.16 51.44 12.08 29.14 16.75
24.46 0.81 4.46 52.56 13.84 30.28 19.6
23.84 0.78 5.52 64.62 16.56 28.52 20.32
23.77 0.9 5.3 62.02 15.74 28.62 20.13
19.94 0.65 5.23 76.12 15.27 22.19 18.18
19.08 0.57 4.78 70.4 13.28 22.56 16.89
19.87 0.8 5.37 38.5 4.87 26.12 15.06
20.31 0.82 6.43 36.37 4.7 27.35 14.68
22.14 0.81 5.63 37.61 6.83 29.17 16.25
23.82 0.92 4.13 40.97 9.51 30.5 18.22
23.37 0.82 5.46 51.52 12.59 28.21 19.58
20.65 0.67 5.51 72.49 15.26 23.71 17.59
23.08 0.83 5.43 59.57 14.56 28.66 17.8
22.79 0.7 5.11 59.27 14.13 28.19 18.63
21.17 0.49 4.96 66.98 14.5 25.27 18.64
21.3 0.67 4.25 67.55 14.71 24.87 19.07
24.45 0.92 5.22 53.33 13.98 30.27 19.18
23.41 0.78 3.88 59.76 14.81 28.39 19.41
20.5 0.53 3.49 65.84 13.52 22.43 18.55
24.35 0.76 5.44 52.21 13.77 31.08 18.24
25.31 0.71 5.89 53.16 14.91 31.22 20.63
24.81 0.69 3.97 53.75 14.49 30.25 20.8
22.49 0.92 4.87 64.34 15.14 27.13 18.45
21.42 0.65 5.59 66.55 14.66 25.14 18.34
23.01 0.76 5.6 61.62 14.59 28.83 19.18
19.72 0.74 4.37 83.52 16.25 22 17.84
21 0.71 2.68 60.06 12.73 26.81 16.32
23.82 0.83 4.68 51.71 13.06 30.35 18.2
24.63 0.98 5.63 56.87 15.26 30.94 19.23
22.13 0.69 4.79 73.37 16.83 25.36 19.38
20.02 0.63 4.3 86.95 17.32 24.24 17.77
22.12 0.69 4.43 68.84 15.76 27.56 17.48
22.8 0.81 5.6 70.63 16.91 27.1 18.95
22.47 0.66 5.07 74.45 17.28 26.9 19.23
21.83 0.57 4.93 81.74 18.24 25.24 19.02
23.43 0.87 5.53 69.39 17.16 29.25 18.62
22.48 0.68 4.5 69.68 16.05 26.11 19.69
21.96 0.6 4.27 74.34 16.72 25.92 18.53
23.33 0.78 4.28 66.74 16.41 28.74 19.06
22.41 0.66 5.36 74.47 17.25 27.45 18.47
22.51 0.63 4.57 72.5 16.95 27.37 19.04
23.37 0.9 4.72 72.17 17.79 28.32 19.39
23.93 0.85 4.9 67.7 17.29 29.61 19.09
22.66 0.7 4.7 77.62 18.14 27.57 18.63
23.63 0.9 6.76 72.79 17.9 28.83 19.27
23.4 0.65 5.76 69.51 17.06 27.02 20.13
23.97 0.85 5.98 66.74 17.14 28.75 19.7
21.43 0.97 2.06 83.35 18.19 24.89 17.73
20.82 0.64 5.63 77.69 16.53 25.32 16.91
22.1 0.71 5.13 75.93 17.31 26.23 18.49
22.27 0.66 3.13 79.88 18.35 26.49 19.18
22.01 0.81 3.77 82.4 18.58 26.13 19.35
20.62 0.91 3.19 90.45 18.66 23.77 18.45
22.07 0.8 5.21 75.82 17.29 27.24 18.06
22.87 0.7 3.83 77.38 18.4 27.11 19.21
22.46 0.59 5.58 79.98 18.45 25.8 19.14
22.9 0.57 5.28 81.56 19.3 26.62 19.97
22.62 0.62 4.28 81.13 18.91 26.41 20.15
21.61 0.53 4.36 85.92 18.76 25.11 19.04
21.05 0.48 4.99 88.72 18.69 22.98 19.21
20.9 0.54 4.22 83.94 17.69 24.58 18.31
22.51 0.74 5.25 79.42 18.38 26.58 19
23.51 0.78 3.56 71.97 17.88 28.28 18.98
23.68 0.9 4.37 72.3 18.13 28.07 19.84
22.26 0.7 2.55 81.78 18.64 26.28 19.68
20.43 0.66 2.48 95.33 19.32 22.64 19.34
21.18 0.83 4.25 92.46 19.54 24.31 18.85
21.34 0.58 4.21 87.6 18.76 24.23 19.26
21.75 0.82 5.25 82.98 18.28 26.25 18.45
20.46 1.04 1.75 96.96 19.58 22.33 18.68
20.2 0.87 4.29 88.91 18.01 23.5 17.89
21.3 0.64 4.34 83.74 18.14 25.59 18.07
21.75 0.85 4.29 81.75 18.2 25.54 18.92
20.8 0.82 3.92 73.82 15.68 25.28 17.99
22.38 0.94 7.01 68.65 16.04 27.61 17.82
22.94 0.85 7.73 69.15 16.78 28.4 17.86
22.95 0.91 7.18 71.99 17.42 27.58 18.94
23.16 0.91 6.14 70.8 17.32 27.93 19.13
23.47 0.99 5.31 66.66 16.66 28.45 19.48
23.15 0.91 4.36 71.72 17.52 27.96 18.64
23.24 0.78 4.7 72.42 17.76 27.58 19.51
21.6 0.7 3.46 79.42 17.54 24.49 19.61
23.04 0.89 5.9 67.54 16.33 27.92 18.74
23.04 0.67 5.1 70.6 17.14 27.22 19.45
23.9 0.78 4.86 64.38 16.42 28.91 19.67
22.2 0.58 4.21 75.36 17.27 25.83 19.63
23.74 0.88 4.06 64.37 16.3 28.64 19.74
23.87 0.82 4.79 67.06 17.11 28.21 19.85
23.66 0.84 5.1 68.96 17.37 27.99 20.03
22.67 0.76 4.53 73.54 17.33 27.47 19.01
22 0.59 2.95 79.05 17.85 26.31 18.98
21.39 0.59 4.68 87.09 18.86 25.02 19.33
20.01 0.6 3.86 91.32 18.03 22.86 18.08
22.09 0.55 5.45 79.61 18.07 26.66 18.54
22.57 0.6 5.35 74.89 17.54 26.66 19.22
23.53 0.75 2.32 72.27 18.03 28.73 19.43
20.9 0.81 3.48 92.77 19.3 23.35 19.27
20.93 0.67 5.45 90.35 19.01 24.33 18.85
21.63 0.9 4.87 88.41 19.33 25.73 18.71
21.33 0.57 3.4 88.39 18.98 24.77 19.26
21.86 0.57 3.3 79.87 17.88 25.5 19.51
22.51 0.95 5.19 74.79 17.46 27.18 18.92
22.19 0.85 3.52 77.29 17.73 27 18.61
21.39 0.5 4.79 83.78 18.21 24.83 18.53
22.23 0.63 5.29 81.74 18.62 26.4 18.93
22.9 0.63 5.62 82.05 19.38 27.3 18.88
22.79 0.53 6.9 81.88 19.23 26.82 19.77
21.93 0.57 4.63 84.33 18.78 24.6 19.68
21.96 0.88 2.33 83.32 18.7 25.56 18.95
22.57 0.85 5.51 78.66 18.35 26.91 19.31
22.18 0.85 4.51 84.19 19.12 26.28 18.98
20.97 0.85 5 93.06 19.48 23.43 19.11
20.75 0.73 3.61 91.59 18.99 23.7 18.66
20.73 0.93 4.26 89.38 18.63 24.04 18.35
20.76 0.84 3.84 86.67 18.19 24.34 17.69
21.23 0.75 4.93 87.13 18.71 24.89 17.98
22 0.89 3.46 83.44 18.81 25.87 18.79
21.15 0.74 4.68 87.48 18.69 24.24 18.84
20.33 0.77 3.51 89.85 18.32 23.17 18.29
21.11 0.84 4.76 86.88 18.55 24.5 18.13
20.81 0.72 6.23 88.32 18.42 23.86 18.5
21.63 0.96 4.84 83.42 18.24 25.73 18.09
21.09 0.71 4.64 90.72 19.16 23.88 18.82
20.3 0.64 4.54 89.03 18.06 22.4 18.57
21.72 0.92 4.56 79.18 17.57 25.44 18.66
20.93 0.74 4.3 87.67 18.45 24.25 18.43
21.08 0.79 4.2 85.72 18.25 25.28 17.79
21.75 0.74 5.2 79.2 17.71 26.49 17.9
22.51 0.97 5.76 78.56 18.36 26.97 18.57
23.17 0.89 4.7 76.53 18.52 27.28 19.22
22.1 0.63 3.54 84.91 19.04 24.61 19.66
20.69 0.58 2.81 86.1 17.83 23.11 19.05
20.91 0.82 4.67 83.13 17.65 24.73 17.75
21.47 1.01 3.44 89.27 19.23 25.06 18.57
21.37 0.88 4.07 92.74 19.83 24.44 18.88
21.52 0.92 4.77 92.55 19.95 24.74 19.37
21.59 0.54 4.32 90.08 19.49 24.86 18.56
21.73 0.73 2.33 93.1 20.16 24.32 19.33
20.68 0.98 2.94 99.19 20.16 21.95 19.18
20.69 0.58 4.04 93.32 19.16 23.04 18.69
20.64 0.67 5.38 95.62 19.54 22.95 18.77
21.57 0.78 6.07 92.1 19.96 24.82 19.11
22.07 0.74 5.6 91.02 20.27 25.31 19.04
21.49 0.63 4.41 95.2 20.37 23.67 19.84
20.75 0.59 4.57 95.74 19.66 23.03 18.86
21.79 0.78 4.5 84.15 18.55 25.61 18.98
22.14 0.74 4.27 88.93 19.89 25.67 18.71
21.29 0.51 4.4 93.49 19.8 23.26 19.97
21.46 0.97 5.68 93.41 20.01 24.39 19.83
21.45 0.9 4.87 92.13 19.85 24.34 19.11
22 0.87 4.52 89.51 19.9 25.39 19.3
21.2 0.64 5.09 91.71 19.52 23.02 19.97
21.97 0.75 4.44 88.59 19.6 25.51 19.19
21.98 0.89 5.38 90.04 19.9 25.5 19.45
21.23 0.57 4.89 95.59 20.09 23.2 19.67
20.75 0.58 3.54 96.44 19.78 22.88 19.31
21.61 0.69 4.25 90.45 19.55 25.15 18.64
22.31 0.64 4.84 88.01 19.81 25.81 19.48
21.86 0.44 5.33 91.84 20.05 24.61 19.76
21.67 0.57 5.45 93.64 20.27 24.26 19.72
22.38 0.65 5.75 87.09 19.68 25.2 19.86
21.79 0.54 5.87 89.37 19.5 24.65 19.92
20.12 0.62 2.64 97.59 19.29 21.55 18.99
19.7 0.62 4.59 93.66 18.29 21.95 18.35
19.18 0.62 3.76 92.74 17.57 21.16 17.72
20.03 0.69 3.77 90.54 18.05 23.42 17.58
20.64 0.65 4 91.34 18.77 23.23 18.39
21.66 0.66 3.48 90.59 19.7 25.19 19.09
21.84 0.58 3.75 92.24 20.15 24.77 19.69
21.09 0.52 3.9 95.03 19.78 22.97 19.39
20.43 0.8 4.12 95.69 19.26 22.61 18.78
20.12 0.67 4.41 95.73 19.01 23.15 18.03
20.08 0.8 3.18 90.84 18.17 23.7 16.87
19.73 0.73 2.65 97.23 18.92 21.63 18.12
20.08 0.7 2.77 94.89 18.85 22.97 17.92
19.57 0.71 3.86 94.58 18.38 22.5 17.81
20.37 0.73 4.61 90.96 18.47 24.2 16.74
20.47 0.73 5.6 93.63 18.99 23.71 18.28
20.03 0.87 4.58 90.56 17.88 23.53 17.68
19.71 0.69 4.17 89.43 17.49 23.26 16.93
20.68 0.81 5.69 86.83 17.88 24.44 17.66
20.64 0.62 5.21 89.26 18.34 23.93 17.79
20.75 0.65 5.38 92.38 19.06 23.54 18.74
20.22 0.62 4.59 94.85 18.97 22.48 18.8
19.48 0.37 3.26 94.88 18.19 22.27 17.77
19.24 0.73 4.61 96.6 18.24 21.62 17.34
19.56 0.71 3.89 92.81 17.93 22.52 17.12
20.77 0.88 4.39 87.22 18.12 24.54 17.54
19.86 0.72 4.31 91.82 18.04 22.11 18.3
20.77 0.87 4.88 86.85 18.07 24.31 17.88
20.71 0.72 4.17 89.67 18.55 24.04 18.33
20.26 0.61 4.13 91.3 18.3 23.3 17.83
20.27 0.58 3.91 94.59 18.99 23.04 18.46
20.37 0.7 4.4 95.01 19.14 22.91 18.41
19.8 0.61 3.86 94.95 18.57 22.03 18
20.63 0.61 3.02 92.52 19.05 23.59 18.42
20.68 0.7 4.59 94.97 19.52 23.33 18.67
20.76 0.54 4.32 92.61 19.1 23.7 18.45
19.77 0.42 3.97 97.83 19.01 21.41 18.47
19.43 0.51 2.85 94.99 18.2 22.07 17.6
19.69 0.8 4.22 91.27 17.85 22.63 17.2
19.96 0.72 3.9 87.15 17.38 23.66 17.02
20.39 0.76 5.13 88.05 17.92 24.17 17.92
20.36 0.68 5.34 89.81 18.33 24.34 17.23
20.84 0.81 5.25 89.82 18.77 24.63 17.22
21.36 0.87 5.93 90.88 19.36 24.69 18.28
20.51 0.88 4.49 94.24 19.23 22.76 19.07
20.89 0.72 4.58 87.87 18.42 24.67 17.55
21.37 0.77 5.14 87.7 18.81 25.12 18.19
20.86 0.61 3.81 92.13 19.08 23.22 18.94
20.36 0.65 4.87 93.83 18.92 23.12 18.52
20.85 0.64 3.78 88.51 18.49 24.47 18.07
20.57 0.62 4 87.9 18.01 24.22 18.18
20.51 0.7 3.94 87.43 17.86 24.37 17.89
19.8 0.6 2.86 90.83 17.69 22.36 18.04
20.96 0.8 4.94 84.88 17.85 25.06 17.41
20.19 0.55 3.8 91.4 18.39 22.9 18.49
19.78 0.57 4.03 91.21 17.87 22.69 17.28
19.63 0.56 4.16 95.12 18.46 21.77 17.66
19.1 0.55 3.92 94.87 17.9 21.77 17.22
20.33 0.58 4.04 88.87 18 23.87 17.54
20.23 0.66 4.28 96.57 19.25 22.9 18.24
19.93 0.57 2.77 92.03 18.11 22.86 17.89
20.67 0.56 4.93 91.49 18.86 24.45 18.17
21 0.68 3.97 92.1 19.34 24.12 18.45
20.71 0.49 4.76 90.59 18.6 23.55 18.43
20.37 0.43 1.52 91.06 18.24 22.66 18.59
21.05 0.53 5.08 85.61 17.9 24.11 18.64
21.59 0.54 5.77 85 18.17 24.76 18.89
21.42 0.48 4.86 89.17 18.87 23.65 19.93
21.21 0.49 4.33 92.56 19.49 23.6 19.58
21.62 0.7 5.57 89.51 19.34 25.08 18.58
21.89 0.61 4.46 89.03 19.48 25.36 19.1
21 0.58 5.5 91.35 18.99 23.56 18.81
20.33 0.58 4.55 92.61 18.54 23.09 18.3
20.55 0.7 4.88 90.08 18.41 23.92 18.13
20.58 0.73 3.99 91.73 18.78 24.03 17.63
20.59 0.53 4.86 91.4 18.61 24.13 17.72
20.26 0.48 3.94 93.42 18.69 23.53 17.49
20.98 0.75 4.13 93.86 19.51 23.6 18.98
17.85 0.88 2.93 99.93 17.45 20.26 15.26
17.23 0.59 4.11 89.35 15.23 20.61 14.55
18.45 0.8 4.38 86.01 15.76 22.47 15.4
19.71 0.7 4.98 84.63 16.62 23.85 16.22
20.47 0.62 4.75 89.49 18.3 24.25 16.93
21.34 0.57 5.74 90.85 19.39 24.99 18.44
20.87 0.63 4.68 91.42 18.95 23.8 18.47
21.09 0.69 5.09 85.8 18.03 24.61 18.2
21.5 0.67 4.69 85.29 18.31 25.14 18.58
20.95 0.64 2.78 94.87 19.71 24.19 18.84
20.8 0.57 4.73 91.12 18.79 24.23 18.59
19.66 0.58 3.75 95.14 18.34 22.39 17
15.68 0.6 2.36 93.9 14.47 17.3 13.86
15.98 0.53 5.11 82.11 12.74 20 12.85
17.31 0.5 4.81 85.7 14.66 21.46 13.56
18.28 0.74 4.14 88.19 16.03 21.69 15.2
19.55 0.66 4.93 86.04 16.8 23.52 16.22
20.04 0.71 4.58 89.73 17.97 23.88 16.88
20.43 0.63 4.59 90.09 18.45 24.16 17.2
20.09 0.47 4.73 91.89 18.38 22.96 18.17
20.29 0.59 3.65 94.95 19.03 23.33 17.96
20.07 0.68 4.14 95.66 19 22.75 18.66
19.39 0.83 3.82 95.86 18.36 22.12 17.6
19.5 0.62 4.95 92.15 17.81 22.98 16.66
20.49 0.8 5.52 91.89 18.83 23.76 18.07
21.12 0.77 4.97 91.52 19.29 24.42 18.27
19.23 1.04 5.15 98.16 18.48 22.25 13.8
13.69 0.49 3.21 88.85 11.73 16.22 12.02
15.53 0.55 5.18 79.7 11.84 19.91 12.65
17.12 0.57 5.43 82.38 13.74 21.74 12.98
18.65 0.61 5.3 87.68 16.08 22.86 15
19.64 0.59 4.8 92.07 17.85 23.29 16.56
18.42 0.46 3.77 93.05 16.88 20.46 15.5
15.56 0.5 4.11 87.19 13.29 18.41 13.4
16.36 0.47 4.66 86.25 13.8 20.97 13.08
18.69 0.52 4.76 86.34 15.91 22.96 15.47
19.06 0.47 4.66 93.01 17.51 22.41 16.49
19.43 0.61 4.18 94.26 18.15 22.01 17.31
17.89 0.59 5.14 86.75 15.43 20.41 16
18.42 0.54 5.79 83.87 15.32 22.54 14.95
19.47 0.48 5.76 87.65 16.88 23.5 16.27
20.04 0.5 5.79 90.26 17.94 23.84 17.27
20.1 0.51 5.97 87.24 17.31 24.07 17.06
20.32 0.51 5.6 87.06 17.52 24.23 17.47
20.52 0.54 5.51 87.85 17.85 24.64 17.59
20.59 0.63 5.43 89.31 18.3 24.48 17.43
20.52 0.6 5.49 90.09 18.49 24.17 18.03
20.67 0.6 5.18 88.33 18.27 24.4 17.65
20.67 0.59 4.64 89.01 18.45 23.95 17.79
20.64 0.63 5.22 89.26 18.48 24.21 18.12
20.66 0.63 3.89 84.43 17.29 25.08 16.93
20.07 0.65 4.88 89.75 18.03 23.9 17.34
19.46 0.63 5.16 86.75 16.8 23.55 16.52
19.89 0.74 4.11 86.61 17.21 24.08 16.75
19.93 0.65 5.1 88.76 17.7 24.09 17.13
20.46 0.61 4.8 85.47 17.54 24.88 17.2
20.82 0.66 4.36 86.99 18.22 24.98 17.69
20.66 0.75 4.02 88.73 18.46 24.46 18.49
20.26 0.64 3.7 83.77 16.98 24.54 17.66
18.31 0.58 3.29 83.73 15.22 21.63 15.52
18.63 0.62 4.54 77.43 14.29 23.52 15.14
18.56 0.69 4.27 81.47 15.04 23.23 15.13
18.46 0.68 4.43 80.99 14.87 22.71 15.55
18.33 0.7 4.78 79.98 14.53 22.37 15.36
19.16 0.78 5.42 72.4 13.81 24.13 15.45
19.24 0.81 5.47 68.76 13.09 24.32 15.86
19.09 0.75 5.35 67.01 12.52 24.4 15.04
19.43 0.73 5.36 68.73 13.14 24.66 15.58
20.17 0.69 5.39 71.54 14.4 25.46 16.22
20.7 0.72 5.16 70.16 14.57 26.12 15.99
21.58 0.66 4.5 73.39 16.21 26.52 17.49
21.7 0.83 4.46 75.29 16.83 26.55 17.78
20.92 0.59 2.46 76.71 16.19 25.37 17.6
19.62 0.5 2.57 81.09 15.61 23.42 17.21
19.39 0.56 2.17 72.98 14.07 23.85 16.02
19.75 0.7 2.86 73.26 14.51 24.66 15.63
18.46 0.55 4.23 79.21 14.49 22.16 16.31
19.87 0.65 4.66 71.84 14.21 24.98 15.88
21.44 0.69 3.82 73.1 16.12 26.63 17.68
21.46 0.69 3.5 74.95 16.53 26.29 17.87
22.02 0.75 4.41 71.59 16.34 26.93 18.09
21.82 0.7 4.77 76.88 17.16 25.81 18.92
18.75 0.45 3.75 98.41 18.04 19.84 16.97
19.38 0.54 3.71 82.76 16.03 23.89 16.26
21.25 0.59 5.04 74.99 16.22 25.9 17.67
21.66 0.58 4.03 75.32 16.7 26.28 18.54
22.92 0.71 4.91